# Wetter Temperatur Luftdruck Luftfeuchtigkeit Sichtweite Windgeschwindigkeit Windrichtung Zeit
1 Clear -23 1014 54 10000 1.25 264 04:32 17.01.2021
2 Clouds -29 1014 69 6000 1 0 02:51 17.01.2021
3 Clouds -29 1014 69 6000 0.59 284 00:57 17.01.2021
4 Snow -29 1015 69 6000 0.71 287 00:21 17.01.2021
5 Clouds -31 1015 69 8000 0.71 287 23:52 16.01.2021
6 Clouds -31 1015 69 8000 0.46 273 23:24 16.01.2021
7 Clouds -32 1015 68 8000 0.46 273 22:54 16.01.2021
8 Clear -30 1015 69 10000 0.64 276 22:19 16.01.2021
9 Clear -31 1016 69 10000 0.64 276 21:46 16.01.2021
10 Snow -31 1016 69 10000 0.49 310 21:23 16.01.2021
11 Clear -32 1016 68 10000 2 170 20:48 16.01.2021
12 Clear -32 1016 68 10000 2 170 20:24 16.01.2021
13 Clear -31 1017 69 10000 0.49 240 19:49 16.01.2021
14 Clear -31 1017 69 10000 0.49 240 19:30 16.01.2021
15 Clear -30 1018 69 10000 1 0 18:46 16.01.2021
16 Clear -30 1018 69 10000 1 0 18:27 16.01.2021
17 Clear -30 1018 69 10000 0.24 277 17:51 16.01.2021
18 Clear -30 1018 69 10000 0.24 277 17:31 16.01.2021
19 Clear -30 1019 69 10000 1 0 16:53 16.01.2021
20 Clear -30 1019 69 10000 1 0 16:35 16.01.2021
21 Clear -29 1019 69 10000 2 160 15:56 16.01.2021
22 Snow -31 1020 69 10000 2 170 15:37 16.01.2021
23 Clouds -26 1021 64 10000 0.36 183 14:31 16.01.2021
24 Clouds -24 1022 64 10000 1 0 13:52 16.01.2021
25 Clouds -24 1022 64 10000 1 0 13:52 16.01.2021
26 Clouds -24 1022 64 10000 1 0 13:30 16.01.2021
27 Snow -25 1023 58 10000 1 0 12:47 16.01.2021
28 Clouds -24 1023 64 10000 0.86 215 12:22 16.01.2021
29 Clouds -24 1024 64 10000 0.86 215 11:55 16.01.2021
30 Clouds -23 1024 59 10000 4 200 11:26 16.01.2021
31 Clouds -23 1024 59 10000 2 220 10:51 16.01.2021
32 Snow -23 1024 59 10000 2 220 10:33 16.01.2021
33 Clouds -22 1025 59 10000 3 170 09:50 16.01.2021
34 Clouds -22 1025 64 10000 3 180 09:19 16.01.2021
35 Clouds -22 1025 71 10000 1 0 08:18 16.01.2021
36 Clouds -24 1026 70 6000 1 0 06:49 16.01.2021
37 Clear -29 1027 69 6000 1.49 248 04:53 16.01.2021
38 Clear -36 1027 61 6000 1 0 02:59 16.01.2021
39 Snow -36 1027 61 6000 1 0 02:37 16.01.2021
40 Clear -36 1026 68 6000 0.79 264 00:45 16.01.2021
41 Clear -36 1026 61 6000 0.74 258 00:20 16.01.2021
42 Clear -36 1025 61 6000 1 0 23:30 15.01.2021
43 Clear -37 1026 61 6000 0.77 257 22:27 15.01.2021
44 Clear -34 1026 68 8000 1 0 21:53 15.01.2021
45 Clear -34 1026 68 8000 1 0 21:34 15.01.2021
46 Clear -36 1026 68 8000 0.69 245 20:47 15.01.2021
47 Clear -36 1026 68 8000 0.66 237 20:23 15.01.2021
48 Clear -34 1025 62 8000 1 0 19:47 15.01.2021
49 Clear -34 1025 62 8000 1 0 19:26 15.01.2021
50 Clear -36 1026 61 10000 1 0 18:45 15.01.2021
51 Clear -37 1026 61 10000 2 0 18:20 15.01.2021
52 Clear -37 1026 61 10000 2 0 17:58 15.01.2021
53 Clear -37 1026 61 10000 2 0 17:58 15.01.2021
54 Clear -36 1026 61 10000 1 0 17:40 15.01.2021
55 Clear -34 1026 68 10000 1 0 17:19 15.01.2021
56 Clear -32 1026 68 10000 0.59 245 16:44 15.01.2021
57 Clear -32 1026 68 10000 0.57 276 16:23 15.01.2021
58 Clear -33 1026 68 10000 1 0 15:41 15.01.2021
59 Clear -32 1026 68 10000 2 110 15:19 15.01.2021
60 Clear -32 1026 75 10000 2 270 14:42 15.01.2021
61 Clear -32 1026 75 10000 2 270 14:24 15.01.2021
62 Clear -34 1026 68 10000 1 0 13:41 15.01.2021
63 Clear -31 1026 76 10000 1 0 13:20 15.01.2021
64 Clear -33 1026 68 10000 2 190 12:48 15.01.2021
65 Clear -33 1026 68 10000 2 190 12:30 15.01.2021
66 Clear -32 1026 68 10000 1 0 11:43 15.01.2021
67 Clear -32 1026 68 10000 1 0 11:23 15.01.2021
68 Clear -28 1025 69 10000 2 180 10:52 15.01.2021
69 Clear -28 1025 69 10000 2 180 10:24 15.01.2021
70 Clear -25 1025 70 10000 3 170 09:50 15.01.2021
71 Clear -24 1025 70 10000 2 200 09:30 15.01.2021
72 Clouds -22 1025 64 10000 1.5 282 08:31 15.01.2021
73 Snow -23 1025 70 10000 1 0 07:47 15.01.2021
74 Clouds -23 1025 70 10000 1 0 07:24 15.01.2021
75 Clouds -23 1025 77 10000 1.62 279 06:52 15.01.2021
76 Smoke -32 1025 68 5000 1 0 03:29 15.01.2021
77 Clear -34 1024 62 8000 1 0 00:55 15.01.2021
78 Clear -35 1023 61 8000 1 0 23:42 14.01.2021
79 Clear -32 1023 68 8000 1 0 22:58 14.01.2021
80 Clear -32 1023 68 8000 1.13 329 22:40 14.01.2021
81 Clear -33 1023 68 10000 1 0 22:22 14.01.2021
82 Clear -31 1023 69 10000 1 0 21:42 14.01.2021
83 Clear -31 1023 69 10000 1 0 21:21 14.01.2021
84 Clear -31 1022 69 10000 1 0 20:48 14.01.2021
85 Clear -31 1022 69 10000 1 0 20:22 14.01.2021
86 Clear -32 1022 75 10000 1 0 19:42 14.01.2021
87 Clear -32 1022 75 10000 1 0 19:23 14.01.2021
88 Clear -29 1021 69 10000 1.8 335 18:50 14.01.2021
89 Clear -29 1021 69 10000 2.06 339 18:19 14.01.2021
90 Clear -29 1021 63 10000 1 0 17:45 14.01.2021
91 Clear -29 1021 63 10000 1 0 17:26 14.01.2021
92 Clear -30 1021 63 10000 4 160 16:40 14.01.2021
93 Clear -31 1020 69 10000 2 0 15:57 14.01.2021
94 Clear -31 1020 69 10000 2 0 15:39 14.01.2021
95 Clear -31 1020 69 10000 2 170 14:59 14.01.2021
96 Clear -31 1020 69 10000 2 170 14:37 14.01.2021
97 Clear -30 1019 69 10000 1 0 14:18 14.01.2021
98 Clear -30 1019 69 10000 2 170 13:48 14.01.2021
99 Clear -29 1019 69 10000 2 180 13:20 14.01.2021
100 Clear -29 1018 69 10000 3 170 12:38 14.01.2021
101 Clear -25 1017 77 10000 2.4 342 12:18 14.01.2021
102 Clear -25 1017 70 10000 1 0 11:42 14.01.2021
103 Clear -22 1016 64 10000 1 0 11:20 14.01.2021
104 Clear -24 1015 64 10000 1 0 10:50 14.01.2021
105 Clear -24 1015 64 10000 1 0 10:25 14.01.2021
106 Clear -19 1014 60 10000 2 0 09:48 14.01.2021
107 Clear -19 1013 60 10000 2 0 09:23 14.01.2021
108 Clear -19 1012 60 10000 2 0 08:49 14.01.2021
109 Clear -19 1012 60 10000 2 0 08:25 14.01.2021
110 Clouds -20 1011 59 8000 2 150 07:48 14.01.2021
111 Clouds -19 1011 55 8000 2.53 329 06:52 14.01.2021
112 Clouds -23 1010 70 6000 1 0 05:46 14.01.2021
113 Snow -32 1005 68 10000 2 0 00:46 14.01.2021
114 Clear -32 1004 68 10000 2 160 23:54 13.01.2021
115 Clear -29 1004 69 10000 1 0 23:23 13.01.2021
116 Clear -30 1003 69 10000 2 80 22:29 13.01.2021
117 Clouds -30 1003 76 10000 1.54 342 21:57 13.01.2021
118 Clouds -30 1003 76 10000 1.54 342 21:38 13.01.2021
119 Clouds -30 1003 76 10000 0.84 338 20:59 13.01.2021
120 Clear -30 1002 76 10000 1 0 20:33 13.01.2021
121 Clear -30 1002 76 10000 1 0 19:58 13.01.2021
122 Clouds -30 1002 69 10000 0.48 45 19:39 13.01.2021
123 Clouds -30 1002 69 10000 1.03 74 19:19 13.01.2021
124 Clouds -29 1002 69 10000 1 0 18:40 13.01.2021
125 Clouds -27 1002 76 10000 0.98 128 17:51 13.01.2021
126 Clouds -27 1002 76 10000 1.33 117 17:25 13.01.2021
127 Clouds -25 1003 70 10000 1.33 117 16:52 13.01.2021
128 Clouds -25 1003 70 10000 1.92 101 16:22 13.01.2021
129 Snow -26 1003 70 10000 1.92 101 15:56 13.01.2021
130 Clouds -26 1003 70 10000 1.92 101 15:38 13.01.2021
131 Snow -26 1003 70 10000 2.05 104 14:49 13.01.2021
132 Snow -27 1003 69 10000 1 0 13:58 13.01.2021
133 Clear -27 1003 69 10000 1 0 13:32 13.01.2021
134 Snow -29 1003 69 10000 1 0 12:59 13.01.2021
135 Snow -29 1003 69 10000 1 0 12:39 13.01.2021
136 Snow -27 1003 69 10000 1 0 12:19 13.01.2021
137 Snow -28 1003 69 10000 1 0 11:45 13.01.2021
138 Snow -29 1003 69 8000 2 0 11:22 13.01.2021
139 Snow -27 1004 63 8000 1 0 10:42 13.01.2021
140 Clouds -27 1004 63 8000 1 0 10:24 13.01.2021
141 Snow -23 1003 64 8000 1 0 09:37 13.01.2021
142 Clouds -21 1004 59 8000 1.89 118 08:57 13.01.2021
143 Clouds -22 1004 64 8000 1 0 08:33 13.01.2021
144 Clouds -22 1004 64 8000 1 0 07:51 13.01.2021
145 Snow -22 1004 64 8000 1 0 07:24 13.01.2021
146 Clouds -28 1007 76 6000 1 0 04:21 13.01.2021
147 Clouds -30 1007 76 6000 1.82 100 03:49 13.01.2021
148 Clouds -31 1007 69 6000 1.82 100 03:30 13.01.2021
149 Clouds -32 1006 75 6000 1.4 112 02:19 13.01.2021
150 Clear -32 1007 75 10000 1 0 00:29 13.01.2021
151 Clear -32 1007 68 10000 1 0 23:29 12.01.2021
152 Clear -33 1007 68 10000 1 0 22:47 12.01.2021
153 Clear -33 1007 68 10000 1 0 22:25 12.01.2021
154 Clear -31 1007 69 10000 1 0 21:53 12.01.2021
155 Clear -31 1007 69 10000 1 0 21:34 12.01.2021
156 Clear -30 1006 76 10000 2 0 20:54 12.01.2021
157 Clear -30 1006 76 10000 2 0 20:36 12.01.2021
158 Clear -30 1006 69 10000 3 170 19:56 12.01.2021
159 Clear -30 1006 69 10000 3 170 19:37 12.01.2021
160 Clear -28 1006 76 10000 2 190 18:52 12.01.2021
161 Clear -28 1006 76 10000 2 190 18:25 12.01.2021
162 Clear -29 1006 69 10000 2 160 17:55 12.01.2021
163 Clear -29 1006 69 10000 2 160 17:31 12.01.2021
164 Clear -29 1006 69 10000 2 160 17:31 12.01.2021
165 Clear -27 1005 76 10000 1 0 16:44 12.01.2021
166 Clear -27 1005 76 10000 1 0 16:25 12.01.2021
167 Clear -26 1005 70 10000 2 0 15:45 12.01.2021
168 Clear -25 1005 77 10000 3 190 15:22 12.01.2021
169 Clouds -26 1004 70 10000 2 190 14:47 12.01.2021
170 Clouds -26 1004 70 10000 2 190 14:26 12.01.2021
171 Clouds -22 1003 71 10000 1 0 13:52 12.01.2021
172 Clouds -24 1003 70 10000 1 0 13:22 12.01.2021
173 Clear -18 1002 71 10000 4 340 12:26 12.01.2021
174 Clear -16 1001 66 10000 3 340 11:41 12.01.2021
175 Clear -16 1000 66 10000 3 320 10:55 12.01.2021
176 Clear -16 1000 66 10000 3 320 10:55 12.01.2021
177 Clouds -17 1000 71 10000 3 300 10:26 12.01.2021
178 Clouds -15 999 72 10000 5 300 09:58 12.01.2021
179 Clear -14 999 66 10000 5 270 09:38 12.01.2021
180 Clear -14 998 72 10000 4 280 09:18 12.01.2021
181 Clouds -12 996 67 10000 5 330 08:26 12.01.2021
182 Clouds -12 996 72 10000 6 320 07:37 12.01.2021
183 Clouds -12 996 72 10000 6 320 07:37 12.01.2021
184 Snow -12 996 72 10000 6 320 06:59 12.01.2021
185 Clouds -14 995 72 6000 4.29 310 05:35 12.01.2021
186 Smoke -19 994 78 5000 1 0 03:28 12.01.2021
187 Snow -19 994 78 5000 4.34 304 02:21 12.01.2021
188 Smoke -20 994 77 4000 1 0 01:31 12.01.2021
189 Snow -20 994 77 4000 4.09 295 00:19 12.01.2021
190 Smoke -20 994 84 5000 1 0 23:37 11.01.2021
191 Snow -19 995 78 5000 1 0 23:18 11.01.2021
192 Snow -20 995 77 5000 1.69 268 22:45 11.01.2021
193 Snow -20 996 77 8000 1 0 22:27 11.01.2021
194 Snow -20 996 77 8000 1 0 21:43 11.01.2021
195 Snow -20 996 77 8000 1 0 21:25 11.01.2021
196 Snow -21 997 77 8000 2 170 20:49 11.01.2021
197 Snow -21 997 77 8000 2 170 20:30 11.01.2021
198 Snow -21 998 71 10000 1 0 19:58 11.01.2021
199 Snow -21 998 71 10000 1 0 19:35 11.01.2021
200 Snow -21 998 71 10000 1 0 19:35 11.01.2021
201 Snow -22 999 71 8000 1.51 215 18:47 11.01.2021
202 Snow -23 1000 77 8000 1 0 18:28 11.01.2021
203 Snow -23 1000 77 8000 1.35 159 17:57 11.01.2021
204 Snow -23 1000 77 8000 1.35 159 17:39 11.01.2021
205 Snow -23 1001 70 8000 1.44 213 17:20 11.01.2021
206 Snow -23 1002 70 8000 1.44 213 16:43 11.01.2021
207 Clouds -23 1002 70 8000 1.46 236 16:24 11.01.2021
208 Clouds -24 1003 77 10000 1.46 236 15:50 11.01.2021
209 Clouds -24 1003 77 10000 1.46 236 15:31 11.01.2021
210 Clouds -24 1004 70 10000 1 0 14:41 11.01.2021
211 Clouds -25 1004 70 10000 1 0 14:19 11.01.2021
212 Clouds -25 1004 64 10000 1 0 13:44 11.01.2021
213 Clouds -25 1004 70 10000 1 0 13:20 11.01.2021
214 Clouds -23 1004 70 10000 1.53 278 12:41 11.01.2021
215 Clouds -24 1004 70 10000 1 0 12:21 11.01.2021
216 Clouds -25 1005 70 10000 1 0 11:43 11.01.2021
217 Clouds -21 1005 71 8000 1 0 10:55 11.01.2021
218 Clouds -21 1006 71 8000 1 0 10:28 11.01.2021
219 Clouds -19 1006 71 8000 1 0 09:45 11.01.2021
220 Clouds -19 1006 71 6000 1 0 09:24 11.01.2021
221 Clouds -19 1006 65 6000 1 0 08:47 11.01.2021
222 Smoke -20 1007 71 5000 1.62 254 08:21 11.01.2021
223 Smoke -19 1007 71 5000 1.62 254 07:40 11.01.2021
224 Smoke -21 1008 77 4000 1 0 07:19 11.01.2021
225 Smoke -22 1008 71 4000 1 0 06:46 11.01.2021
226 Smoke -31 1013 69 5000 0.74 182 01:53 11.01.2021
227 Smoke -32 1014 68 5000 1 0 00:40 11.01.2021
228 Smoke -32 1015 68 5000 1 0 23:45 10.01.2021
229 Clouds -33 1016 68 6000 1 0 22:49 10.01.2021
230 Clouds -33 1016 68 6000 1 0 22:28 10.01.2021
231 Clouds -31 1017 69 6000 1 0 21:56 10.01.2021
232 Clouds -31 1017 69 6000 1 0 21:36 10.01.2021
233 Clouds -33 1018 68 6000 1 0 21:18 10.01.2021
234 Clouds -31 1019 69 6000 0.62 213 20:37 10.01.2021
235 Clouds -31 1019 69 6000 1 0 20:19 10.01.2021
236 Clouds -31 1019 69 6000 2 120 19:38 10.01.2021
237 Clouds -31 1020 62 6000 0.71 201 19:20 10.01.2021
238 Clear -31 1020 69 8000 1 0 18:43 10.01.2021
239 Clear -32 1020 68 8000 2 0 18:20 10.01.2021
240 Clear -31 1021 76 8000 0.83 269 17:23 10.01.2021
241 Clear -31 1021 69 10000 0.83 269 16:46 10.01.2021
242 Clear -31 1021 69 10000 0.85 291 16:27 10.01.2021
243 Clear -33 1022 68 10000 1 0 15:26 10.01.2021
244 Clear -29 1022 69 10000 1.15 303 14:56 10.01.2021
245 Clear -27 1022 69 10000 1 0 14:38 10.01.2021
246 Clear -29 1022 69 10000 1 0 13:56 10.01.2021
247 Clear -29 1021 69 10000 1 0 13:38 10.01.2021
248 Clear -28 1021 69 10000 1 0 13:20 10.01.2021
249 Clear -28 1021 69 10000 2 0 12:50 10.01.2021
250 Clear -28 1021 69 10000 2 0 12:32 10.01.2021
251 Clear -26 1021 70 10000 1 0 11:54 10.01.2021
252 Clear -26 1021 70 10000 3 190 11:20 10.01.2021
253 Clear -25 1021 70 10000 3 180 10:47 10.01.2021
254 Clear -25 1021 70 10000 2 200 10:22 10.01.2021
255 Clouds -22 1021 71 8000 1.61 303 09:36 10.01.2021
256 Clouds -20 1021 71 6000 1.48 284 08:23 10.01.2021
257 Smoke -21 1020 71 5000 1.48 284 07:37 10.01.2021
258 Smoke -21 1022 77 5000 1.52 277 06:21 10.01.2021
259 Smoke -24 1022 70 5000 1.52 277 05:41 10.01.2021
260 Smoke -29 1022 69 5000 0.58 261 03:56 10.01.2021
261 Clouds -33 1022 68 6000 1 0 01:30 10.01.2021
262 Clouds -32 1023 75 8000 1 0 23:58 09.01.2021
263 Clouds -32 1023 75 8000 1 0 23:40 09.01.2021
264 Clear -32 1023 68 10000 0.25 175 22:50 09.01.2021
265 Clear -33 1024 75 10000 1 0 22:19 09.01.2021
266 Clear -33 1024 75 10000 1 0 21:58 09.01.2021
267 Clear -29 1024 69 10000 1 0 21:39 09.01.2021
268 Clear -30 1024 69 10000 0.37 75 21:20 09.01.2021
269 Clear -31 1025 69 10000 0.37 75 20:45 09.01.2021
270 Clear -32 1025 68 10000 3 170 19:57 09.01.2021
271 Clear -32 1025 68 10000 3 170 19:39 09.01.2021
272 Clear -32 1025 68 10000 1 0 19:18 09.01.2021
273 Clear -30 1025 69 10000 1 0 18:35 09.01.2021
274 Clear -27 1026 76 10000 1 0 17:51 09.01.2021
275 Clear -27 1026 76 10000 1 0 17:32 09.01.2021
276 Clear -29 1026 69 10000 0.63 330 16:36 09.01.2021
277 Clear -30 1027 69 10000 3 160 16:18 09.01.2021
278 Clear -29 1027 69 10000 2 0 15:40 09.01.2021
279 Clear -29 1027 76 10000 1 0 14:43 09.01.2021
280 Clear -27 1027 76 10000 1 0 14:21 09.01.2021
281 Clear -27 1027 76 10000 1 0 13:59 09.01.2021
282 Clear -27 1027 76 10000 1 0 13:40 09.01.2021
283 Clear -27 1027 76 10000 1 0 13:22 09.01.2021
284 Clear -29 1026 76 10000 3 170 12:27 09.01.2021
285 Clear -24 1026 70 10000 2 180 11:57 09.01.2021
286 Clear -24 1026 70 10000 2 180 11:37 09.01.2021
287 Clear -24 1026 70 10000 2 180 11:37 09.01.2021
288 Clear -23 1026 77 10000 4 170 10:56 09.01.2021
289 Clear -23 1026 77 10000 4 170 10:37 09.01.2021
290 Clear -23 1026 70 10000 2 170 10:18 09.01.2021
291 Clear -20 1026 71 10000 1 0 09:42 09.01.2021
292 Clear -18 1026 65 10000 1 0 09:18 09.01.2021
293 Clouds -17 1026 66 10000 1 0 07:48 09.01.2021
294 Clear -16 1026 66 10000 2.84 301 06:42 09.01.2021
295 Clear -17 1027 78 10000 2.83 298 06:23 09.01.2021
296 Clouds -24 1027 77 10000 2.38 303 03:49 09.01.2021
297 Clear -29 1027 69 10000 1 0 02:40 09.01.2021
298 Clear -28 1027 69 10000 1 0 02:22 09.01.2021
299 Clear -29 1026 69 10000 1 0 00:49 09.01.2021
300 Clear -29 1026 69 10000 1 0 00:23 09.01.2021
301 Clear -27 1026 76 10000 2 160 23:38 08.01.2021
302 Clouds -30 1026 69 10000 2 190 22:39 08.01.2021
303 Clouds -27 1026 69 10000 2 180 21:52 08.01.2021
304 Clouds -27 1027 69 10000 1 0 20:59 08.01.2021
305 Clear -30 1027 69 10000 3 160 20:33 08.01.2021
306 Clear -28 1027 76 10000 3 160 19:57 08.01.2021
307 Clear -30 1027 76 10000 3 160 19:24 08.01.2021
308 Clear -29 1027 69 10000 2 0 18:53 08.01.2021
309 Clear -29 1027 69 10000 2 0 18:31 08.01.2021
310 Clear -30 1027 69 10000 2 130 17:50 08.01.2021
311 Clear -30 1027 69 10000 2 130 17:24 08.01.2021
312 Clear -28 1027 76 10000 1 0 16:47 08.01.2021
313 Clear -28 1027 76 10000 2 180 15:45 08.01.2021
314 Clear -28 1027 76 10000 2 180 15:25 08.01.2021
315 Clear -25 1027 70 10000 2.94 332 14:36 08.01.2021
316 Clear -22 1027 64 10000 2 0 13:47 08.01.2021
317 Clear -19 1027 71 10000 2 340 13:21 08.01.2021
318 Clouds -18 1027 65 10000 2.72 320 12:49 08.01.2021
319 Clouds -18 1027 65 10000 2 0 12:20 08.01.2021
320 Clouds -18 1026 65 10000 6 320 11:46 08.01.2021
321 Clouds -18 1026 65 10000 6 320 11:27 08.01.2021
322 Clear -18 1026 71 10000 5 320 10:53 08.01.2021
323 Clear -18 1026 71 10000 5 320 10:34 08.01.2021
324 Clouds -16 1026 66 10000 4 310 09:46 08.01.2021
325 Clouds -16 1026 66 10000 4 310 09:28 08.01.2021
326 Clouds -15 1025 72 10000 5 330 08:38 08.01.2021
327 Clouds -15 1025 72 10000 6 340 07:27 08.01.2021
328 Clouds -16 1026 72 10000 3 300 05:55 08.01.2021
329 Clouds -26 1026 70 10000 3.67 312 23:48 07.01.2021
330 Clear -26 1025 76 10000 1 0 23:30 07.01.2021
331 Clear -25 1025 77 10000 1 0 22:47 07.01.2021
332 Clear -25 1025 77 10000 1 0 22:26 07.01.2021
333 Clear -25 1025 77 10000 1 0 22:26 07.01.2021
334 Clear -28 1026 69 10000 3 150 21:46 07.01.2021
335 Clear -28 1026 69 10000 3 150 21:27 07.01.2021
336 Clear -28 1027 76 10000 2 190 20:47 07.01.2021
337 Clear -28 1027 76 10000 2 190 20:29 07.01.2021
338 Clear -31 1026 69 10000 1 0 19:45 07.01.2021
339 Clear -31 1026 69 10000 1 0 19:23 07.01.2021
340 Clear -31 1026 62 10000 2 170 18:31 07.01.2021
341 Clear -31 1027 69 10000 2 160 17:58 07.01.2021
342 Clear -31 1027 69 10000 2 160 17:28 07.01.2021
343 Clear -30 1027 76 10000 2 160 16:53 07.01.2021
344 Clear -31 1027 69 10000 2 150 16:30 07.01.2021
345 Clear -31 1027 69 10000 2 150 16:30 07.01.2021
346 Clouds -29 1028 63 10000 2.97 307 15:47 07.01.2021
347 Snow -27 1028 76 10000 2.8 307 15:29 07.01.2021
348 Snow -27 1028 76 10000 2.8 307 15:29 07.01.2021
349 Clear -28 1028 76 10000 1 0 14:27 07.01.2021
350 Clear -27 1028 69 10000 2.65 311 13:47 07.01.2021
351 Clear -27 1028 76 10000 1 0 13:18 07.01.2021
352 Clouds -26 1028 76 10000 1 0 12:47 07.01.2021
353 Clouds -24 1028 76 10000 3 350 11:57 07.01.2021
354 Snow -23 1028 69 8000 4 340 11:37 07.01.2021
355 Snow -23 1028 69 10000 3 320 10:51 07.01.2021
356 Snow -23 1028 69 10000 3 320 10:32 07.01.2021
357 Clouds -22 1027 69 10000 4 330 09:48 07.01.2021
358 Clear -20 1027 64 10000 6 340 09:22 07.01.2021
359 Clear -20 1027 64 10000 6 340 08:30 07.01.2021
360 Clear -21 1027 70 10000 5 330 07:54 07.01.2021
361 Clear -21 1027 70 10000 5 330 07:35 07.01.2021
362 Clear -24 1027 76 10000 1 0 05:44 07.01.2021
363 Clear -33 1027 67 10000 1 0 00:58 07.01.2021
364 Clear -35 1027 66 10000 1 0 23:52 06.01.2021
365 Clear -34 1027 66 10000 2 190 22:50 06.01.2021
366 Clouds -28 1047 84 1694 3.3 318 21:59 06.01.2021
367 Clouds -28 1047 84 1694 3.3 318 21:41 06.01.2021
368 Clouds -36 1027 66 10000 2 160 21:21 06.01.2021
369 Clouds -36 1027 66 10000 2 160 20:39 06.01.2021
370 Clouds -36 1027 66 10000 2 160 20:18 06.01.2021
371 Clouds -36 1027 66 10000 1 0 19:41 06.01.2021
372 Clouds -36 1027 66 10000 1 0 19:22 06.01.2021
373 Clouds -35 1026 59 10000 1 0 18:42 06.01.2021
374 Clouds -35 1026 59 10000 1 0 18:24 06.01.2021
375 Clouds -36 1026 66 10000 2 170 17:43 06.01.2021
376 Clouds -38 1026 58 10000 2 180 17:25 06.01.2021
377 Clouds -35 1026 66 10000 2.71 306 16:51 06.01.2021
378 Clouds -34 1026 66 10000 1 0 16:20 06.01.2021
379 Clouds -34 1026 66 10000 1 0 15:57 06.01.2021
380 Clouds -34 1026 66 10000 1 0 15:32 06.01.2021
381 Snow -33 1027 60 10000 2 160 14:56 06.01.2021
382 Snow -33 1027 60 10000 2 160 14:27 06.01.2021
383 Snow -34 1027 66 10000 2 170 13:47 06.01.2021
384 Snow -33 1027 67 10000 1 0 13:24 06.01.2021
385 Snow -32 1027 74 10000 2 0 12:53 06.01.2021
386 Snow -32 1027 74 10000 2 0 12:29 06.01.2021
387 Clear -33 1027 67 10000 1 0 11:40 06.01.2021
388 Snow -31 1027 61 10000 1 0 11:21 06.01.2021
389 Clouds -31 1027 67 10000 3 180 10:31 06.01.2021
390 Snow -29 1027 68 8000 2 140 09:52 06.01.2021
391 Snow -29 1027 61 10000 2 170 09:22 06.01.2021
392 Clouds -29 1027 61 10000 2 170 08:41 06.01.2021
393 Clouds -29 1027 61 10000 1 0 08:18 06.01.2021
394 Clouds -29 1027 61 10000 1 0 07:27 06.01.2021
395 Clear -30 1029 61 10000 1 0 05:52 06.01.2021
396 Clear -34 1030 66 10000 2.67 300 04:41 06.01.2021
397 Clear -40 1030 58 10000 1 0 02:47 06.01.2021
398 Snow -40 1030 58 10000 1 0 02:26 06.01.2021
399 Clear -40 1030 58 10000 1 0 01:34 06.01.2021
400 Clear -39 1031 58 10000 1 0 23:34 05.01.2021
401 Clear -39 1031 65 10000 2.79 310 22:45 05.01.2021
402 Clear -38 1031 58 10000 1 0 22:22 05.01.2021
403 Clear -38 1031 58 10000 1 0 21:57 05.01.2021
404 Clouds -36 1031 66 10000 1 0 20:58 05.01.2021
405 Clouds -35 1031 66 10000 2 300 20:28 05.01.2021
406 Clouds -34 1031 66 10000 2 290 19:45 05.01.2021
407 Clouds -34 1031 66 10000 2 290 19:23 05.01.2021
408 Clouds -34 1032 60 10000 3 330 18:45 05.01.2021
409 Clouds -34 1032 60 10000 3 330 18:26 05.01.2021
410 Clouds -32 1031 54 10000 5 350 17:52 05.01.2021
411 Clouds -32 1031 54 10000 5 350 17:31 05.01.2021
412 Clouds -32 1031 54 10000 6 340 16:53 05.01.2021
413 Clouds -32 1031 60 10000 7 340 16:23 05.01.2021
414 Clouds -32 1031 60 10000 7 330 15:51 05.01.2021
415 Clouds -32 1031 60 10000 7 330 15:29 05.01.2021
416 Clouds -32 1031 54 10000 7 340 14:47 05.01.2021
417 Clouds -31 1031 49 10000 6 330 13:55 05.01.2021
418 Clouds -31 1031 49 10000 6 330 13:35 05.01.2021
419 Clouds -32 1031 49 10000 4 320 12:51 05.01.2021
420 Clouds -32 1031 49 10000 4 320 12:29 05.01.2021
421 Clouds -31 1030 61 10000 6 320 11:53 05.01.2021
422 -273 0 0 0 0 0 11:27 05.01.2021
423 Clouds -30 1030 61 10000 5 320 11:26 05.01.2021
424 Clouds -30 1030 61 10000 5 320 11:26 05.01.2021
425 Clouds -30 1029 55 10000 5 330 10:44 05.01.2021
426 Clouds -29 1029 50 10000 8 340 09:59 05.01.2021
427 Clouds -29 1029 55 10000 7 340 09:40 05.01.2021
428 Clouds -28 1027 56 10000 6 350 08:45 05.01.2021
429 Clouds -27 1027 56 10000 7 360 08:18 05.01.2021
430 Clouds -26 1025 62 10000 8 350 05:32 05.01.2021
431 Snow -28 1025 68 10000 1 0 02:58 05.01.2021
432 Snow -32 1022 67 8000 1 0 00:23 05.01.2021
433 Snow -31 1022 67 8000 1 0 23:41 04.01.2021
434 Snow -31 1022 67 8000 3.22 317 23:21 04.01.2021
435 Snow -30 1022 61 8000 1 0 22:45 04.01.2021
436 Snow -31 1022 67 8000 1 0 21:58 04.01.2021
437 Snow -31 1022 67 8000 1 0 21:39 04.01.2021
438 Snow -31 1022 67 8000 1 0 20:58 04.01.2021
439 Snow -31 1022 67 8000 1 0 20:37 04.01.2021
440 Snow -31 1022 67 8000 1 0 20:18 04.01.2021
441 Clouds -31 1022 67 8000 1 0 19:41 04.01.2021
442 Clouds -31 1022 67 8000 1 0 19:19 04.01.2021
443 Clouds -31 1022 67 8000 1.69 276 18:43 04.01.2021
444 Clouds -33 1022 67 10000 1 0 17:48 04.01.2021
445 Clouds -33 1022 67 10000 1 0 17:28 04.01.2021
446 Clouds -33 1022 67 10000 1 0 16:58 04.01.2021
447 Clouds -32 1022 67 10000 1.3 264 16:39 04.01.2021
448 Clouds -32 1022 67 10000 1.23 262 16:21 04.01.2021
449 Clouds -31 1022 67 10000 1 0 15:47 04.01.2021
450 Clouds -32 1022 67 10000 0.85 257 14:55 04.01.2021
451 Clouds -33 1022 67 10000 1 0 13:56 04.01.2021
452 Clouds -33 1022 60 10000 1 0 13:35 04.01.2021
453 Snow -33 1023 67 10000 1 0 12:51 04.01.2021
454 Clouds -30 1023 61 10000 1 0 12:25 04.01.2021
455 Snow -31 1023 67 10000 1 0 11:40 04.01.2021
456 Clouds -30 1023 67 10000 1 0 11:18 04.01.2021
457 Clouds -31 1023 67 10000 1 0 10:42 04.01.2021
458 Clouds -29 1023 68 10000 0.89 242 10:21 04.01.2021
459 Clear -27 1023 68 10000 1.04 226 09:25 04.01.2021
460 Clear -27 1023 68 10000 1.04 226 08:57 04.01.2021
461 Clear -27 1023 68 10000 1 0 08:22 04.01.2021
462 Clear -27 1023 68 8000 1.13 235 07:46 04.01.2021
463 Smoke -31 1025 67 5000 1.46 228 05:36 04.01.2021
464 Smoke -35 1026 59 5000 1 0 04:56 04.01.2021
465 Clear -37 1026 59 6000 0.81 282 01:31 04.01.2021
466 Clouds -40 1026 58 6000 1.19 303 00:20 04.01.2021
467 Clouds -40 1026 58 6000 1.19 303 23:37 03.01.2021
468 Clouds -38 1026 58 6000 1.38 311 22:57 03.01.2021
469 Clouds -40 1026 58 6000 1.38 311 22:39 03.01.2021
470 Clouds -38 1026 58 6000 1.42 313 22:21 03.01.2021
471 Clouds -39 1026 58 6000 1.42 313 21:37 03.01.2021
472 Clouds -38 1026 58 6000 1.55 312 20:56 03.01.2021
473 Clouds -38 1026 58 6000 1.55 312 20:38 03.01.2021
474 Clouds -38 1027 58 6000 1.59 317 20:18 03.01.2021
475 Clouds -38 1027 58 6000 1.59 317 19:44 03.01.2021
476 Clear -38 1027 58 6000 1.58 319 19:22 03.01.2021
477 Clear -39 1027 58 6000 1 0 18:43 03.01.2021
478 Clear -39 1027 58 6000 1 0 18:22 03.01.2021
479 Clear -36 1027 66 6000 1 0 17:51 03.01.2021
480 Clear -36 1027 66 6000 1 0 17:27 03.01.2021
481 Clear -37 1027 65 6000 1.56 312 16:54 03.01.2021
482 Clear -37 1027 65 6000 1.56 312 16:36 03.01.2021
483 Clear -37 1027 65 6000 1.64 318 16:18 03.01.2021
484 Clear -35 1027 66 8000 1.64 318 15:39 03.01.2021
485 Clear -38 1027 58 8000 1.71 325 14:58 03.01.2021
486 Clear -35 1027 66 8000 1 0 14:33 03.01.2021
487 Clear -36 1027 66 10000 1 0 13:48 03.01.2021
488 Clear -34 1027 60 10000 1 0 13:24 03.01.2021
489 Clear -34 1027 60 10000 1 0 12:51 03.01.2021
490 Clear -33 1026 67 10000 2 170 11:44 03.01.2021
491 Clear -33 1026 67 10000 2 160 11:25 03.01.2021
492 Clear -32 1026 67 10000 1 0 10:55 03.01.2021
493 Clear -32 1026 67 10000 1 0 10:30 03.01.2021
494 Clear -27 1025 68 10000 1 0 09:41 03.01.2021
495 Clear -27 1025 68 10000 1 0 09:23 03.01.2021
496 Clear -28 1025 68 10000 3 270 07:54 03.01.2021
497 Clear -29 1026 68 10000 1 0 05:59 03.01.2021
498 Smoke -38 1026 58 5000 2.03 334 02:28 03.01.2021
499 Clouds -36 1026 66 6000 1 0 01:47 03.01.2021
500 Clouds -36 1026 66 6000 1 0 01:47 03.01.2021
501 Clear -37 1025 65 10000 1.92 329 00:20 03.01.2021
502 Clear -36 1025 66 10000 1 0 23:30 02.01.2021
503 Clear -35 1025 59 10000 1.88 328 22:56 02.01.2021
504 Clear -36 1025 59 10000 1 0 22:32 02.01.2021
505 Clear -35 1025 66 10000 1.87 330 21:52 02.01.2021
506 Clear -35 1025 66 10000 1.87 330 21:32 02.01.2021
507 Clear -34 1026 73 10000 1 0 20:55 02.01.2021
508 Clear -34 1026 73 10000 1 0 20:36 02.01.2021
509 Clear -34 1026 73 10000 1 0 20:18 02.01.2021
510 Clear -37 1026 65 10000 2 200 19:20 02.01.2021
511 Clear -37 1026 65 10000 2 190 18:58 02.01.2021
512 Clear -37 1026 65 10000 2 190 18:39 02.01.2021
513 Clear -34 1026 60 10000 1 0 18:19 02.01.2021
514 Clear -34 1026 66 10000 1.62 328 17:43 02.01.2021
515 Clear -36 1026 66 10000 2 170 16:59 02.01.2021
516 Clear -34 1026 66 10000 1.68 332 16:23 02.01.2021
517 Clear -34 1026 66 10000 1.68 332 15:54 02.01.2021
518 Clear -36 1026 59 10000 1 0 15:32 02.01.2021
519 Clear -33 1026 67 10000 1 0 14:58 02.01.2021
520 Clear -34 1026 66 10000 2 140 14:36 02.01.2021
521 Clear -35 1026 66 10000 2 170 13:51 02.01.2021
522 Clear -35 1026 66 10000 2 170 13:22 02.01.2021
523 Clear -34 1026 66 10000 2 170 12:48 02.01.2021
524 Clear -34 1026 66 10000 2 170 12:28 02.01.2021
525 Clear -33 1026 67 10000 2 190 11:44 02.01.2021
526 Clear -32 1026 67 10000 2 170 11:21 02.01.2021
527 Clear -29 1025 68 10000 1 0 10:42 02.01.2021
528 Snow -25 1025 62 10000 1.7 317 10:24 02.01.2021
529 Clear -24 1025 69 10000 1 0 09:43 02.01.2021
530 Clear -23 1025 63 10000 1.85 309 09:22 02.01.2021
531 Clear -23 1025 69 10000 1.85 309 08:49 02.01.2021
532 Clear -23 1025 63 10000 1 0 08:21 02.01.2021
533 Clear -22 1025 63 10000 2.02 306 07:43 02.01.2021
534 Clear -23 1025 69 10000 1 0 07:19 02.01.2021
535 Clear -24 1025 69 10000 2 160 06:25 02.01.2021
536 Clear -27 1025 68 10000 1.66 320 04:27 02.01.2021
537 Clear -35 1023 59 10000 1 0 00:54 02.01.2021
538 Clear -35 1023 59 10000 1 0 00:35 02.01.2021
539 Clouds -33 1023 60 10000 1.86 328 23:44 01.01.2021
540 Clouds -30 1023 67 10000 1 0 23:20 01.01.2021
541 Clouds -30 1023 67 10000 1 0 22:47 01.01.2021
542 Clear -30 1023 67 10000 1 0 22:22 01.01.2021
543 Clear -30 1023 67 10000 1 0 21:43 01.01.2021
544 Clear -30 1023 67 10000 1 0 21:21 01.01.2021
545 Clear -31 1022 67 10000 1 0 20:52 01.01.2021
546 Clear -31 1022 74 10000 1 0 20:20 01.01.2021
547 Clear -31 1022 74 10000 1 0 19:43 01.01.2021
548 Clear -31 1022 74 10000 1 0 19:23 01.01.2021
549 Clear -29 1022 68 10000 2 0 18:52 01.01.2021
550 Clear -29 1022 68 10000 2 0 18:34 01.01.2021
551 Clear -29 1022 68 10000 2 0 17:59 01.01.2021
552 Clear -29 1022 75 10000 1 0 17:41 01.01.2021
553 Clear -29 1022 75 10000 1 0 17:18 01.01.2021
554 Snow -27 1022 68 10000 1 0 16:37 01.01.2021
555 Clear -29 1022 68 10000 1 0 15:45 01.01.2021
556 Snow -29 1022 68 10000 1 0 14:56 01.01.2021
557 Clear -29 1021 68 10000 1 0 14:37 01.01.2021
558 Clear -29 1021 68 10000 3 170 13:46 01.01.2021
559 Clear -29 1021 68 10000 3 170 13:25 01.01.2021
560 Clouds -28 1020 68 10000 3 160 12:43 01.01.2021
561 Clouds -28 1020 68 10000 3 170 12:18 01.01.2021
562 Snow -28 1020 68 10000 3 170 11:39 01.01.2021
563 Clouds -26 1019 68 10000 2 160 11:18 01.01.2021
564 Snow -26 1019 68 10000 2 160 10:43 01.01.2021
565 Snow -25 1019 69 8000 2 0 09:48 01.01.2021
566 Snow -24 1019 63 8000 3 170 09:21 01.01.2021
567 Clouds -25 1018 62 10000 4 180 08:29 01.01.2021
568 Clouds -28 1018 61 8000 1.68 303 04:53 01.01.2021
569 Clouds -32 1018 67 8000 2 320 02:56 01.01.2021
570 Clouds -32 1016 67 8000 1 0 01:37 01.01.2021
571 Clouds -30 1015 61 8000 1 0 00:28 01.01.2021
572 Clouds -29 1015 68 10000 1 0 23:37 31.12.2020
573 Clouds -30 1015 67 10000 1 0 23:19 31.12.2020
574 Clouds -28 1015 68 10000 1 0 22:40 31.12.2020
575 Clouds -27 1015 75 10000 1 0 22:20 31.12.2020
576 Clouds -26 1015 62 8000 1.52 319 21:47 31.12.2020
577 Snow -26 1015 62 8000 1.5 319 21:25 31.12.2020
578 Clouds -26 1015 68 8000 1.5 319 20:54 31.12.2020
579 Clouds -26 1015 68 8000 1.47 311 20:18 31.12.2020
580 Clouds -26 1014 68 8000 1.47 311 19:47 31.12.2020
581 Snow -26 1014 68 8000 1.36 320 19:28 31.12.2020
582 Clouds -27 1015 62 8000 1.36 320 18:50 31.12.2020
583 Clouds -27 1015 62 8000 1.27 317 18:24 31.12.2020
584 Clouds -27 1015 62 8000 1.27 317 17:45 31.12.2020
585 Clouds -27 1015 62 8000 1.04 318 17:23 31.12.2020
586 Clouds -28 1015 61 8000 1 0 16:43 31.12.2020
587 Clouds -28 1015 61 8000 1 0 16:25 31.12.2020
588 Clouds -28 1015 68 8000 1 0 15:50 31.12.2020
589 Clouds -27 1015 62 8000 1 0 15:23 31.12.2020
590 Clouds -27 1015 62 8000 1 0 15:23 31.12.2020
591 Clouds -27 1015 62 8000 1 0 14:58 31.12.2020
592 Clouds -27 1015 68 8000 1 0 14:39 31.12.2020
593 Clouds -27 1015 68 8000 1 0 14:39 31.12.2020
594 Clouds -26 1015 68 8000 0.47 13 14:21 31.12.2020
595 Clouds -25 1015 62 8000 1 0 13:39 31.12.2020
596 Clouds -26 1016 62 8000 1 0 13:21 31.12.2020
597 Clouds -27 1016 68 8000 1 0 12:54 31.12.2020
598 Clouds -27 1016 68 8000 1 0 12:35 31.12.2020
599 Clouds -27 1015 62 8000 1 0 11:52 31.12.2020
600 Clouds -27 1015 62 8000 1 0 11:32 31.12.2020
601 Clouds -27 1015 62 8000 1 0 11:32 31.12.2020
602 Clouds -28 1015 61 6000 2 150 11:32 31.12.2020
603 Clouds -27 1016 62 6000 2 170 10:50 31.12.2020
604 Clouds -27 1016 62 6000 2 170 10:30 31.12.2020
605 Clouds -24 1016 57 6000 0.47 22 09:58 31.12.2020
606 Clouds -24 1016 57 6000 0.47 22 09:38 31.12.2020
607 Clouds -24 1016 57 6000 1 0 09:18 31.12.2020
608 Clouds -24 1016 57 6000 1 0 08:45 31.12.2020
609 Clouds -25 1016 62 6000 1 0 08:27 31.12.2020
610 Clouds -25 1016 57 6000 1 0 07:51 31.12.2020
611 Clouds -26 1017 62 6000 0.43 333 06:46 31.12.2020
612 Smoke -29 1018 68 5000 2 170 05:29 31.12.2020
613 Smoke -37 1019 59 5000 0.43 315 02:59 31.12.2020
614 Smoke -38 1019 52 5000 1 0 02:26 31.12.2020
615 Smoke -38 1019 65 5000 0.55 335 01:48 31.12.2020
616 Clear -38 1019 65 6000 1 0 01:28 31.12.2020
617 Clear -38 1019 65 6000 1 0 00:51 31.12.2020
618 Clear -38 1020 65 6000 1 0 23:55 30.12.2020
619 Clear -38 1020 65 6000 1 0 23:20 30.12.2020
620 Clear -37 1021 59 6000 1 0 22:52 30.12.2020
621 Clear -37 1021 59 6000 1 0 22:32 30.12.2020
622 Clear -36 1021 66 6000 1 0 21:48 30.12.2020
623 Clear -38 1021 58 6000 1 0 21:25 30.12.2020
624 Clear -38 1021 58 6000 1 0 20:52 30.12.2020
625 Clear -38 1022 58 8000 0.36 273 20:24 30.12.2020
626 Clear -37 1022 59 8000 1 0 19:42 30.12.2020
627 Clear -38 1023 65 10000 1 0 19:23 30.12.2020
628 Clear -38 1023 65 10000 1 0 18:56 30.12.2020
629 Clear -38 1023 65 10000 1 0 18:37 30.12.2020
630 Clear -38 1023 65 10000 1 0 18:18 30.12.2020
631 Clear -37 1024 65 10000 1 0 17:41 30.12.2020
632 Clear -37 1024 59 10000 1 0 17:20 30.12.2020
633 Clear -37 1024 59 10000 1 0 17:20 30.12.2020
634 Clear -38 1024 58 10000 2 0 16:37 30.12.2020
635 Clear -36 1025 59 10000 1 0 15:49 30.12.2020
636 Clear -36 1026 66 10000 1 0 15:26 30.12.2020
637 Clear -36 1026 66 10000 1 0 14:44 30.12.2020
638 Clear -37 1026 65 10000 1 0 14:26 30.12.2020
639 Clear -34 1026 66 10000 1 0 13:52 30.12.2020
640 Clear -34 1027 60 10000 3 160 12:47 30.12.2020
641 Clear -33 1028 60 10000 0.39 208 12:22 30.12.2020
642 Clear -33 1028 60 10000 0.39 208 11:39 30.12.2020
643 Clear -32 1028 60 10000 0.63 232 11:20 30.12.2020
644 Clear -29 1029 50 10000 1 0 10:54 30.12.2020
645 Clear -29 1029 50 10000 1 0 10:35 30.12.2020
646 Clear -26 1029 62 10000 1 0 09:53 30.12.2020
647 Clear -26 1029 62 10000 1 0 09:35 30.12.2020
648 Clear -21 1030 39 10000 1.06 249 08:35 30.12.2020
649 Clear -24 1030 52 10000 1 0 07:32 30.12.2020
650 Clear -25 1031 57 10000 1.45 257 06:54 30.12.2020
651 Clear -25 1031 57 10000 1.45 257 06:32 30.12.2020
652 Clear -27 1032 62 10000 1.53 262 05:45 30.12.2020
653 Clear -27 1032 62 10000 1.51 264 05:27 30.12.2020
654 Clear -31 1033 61 10000 1.38 284 03:28 30.12.2020
655 Clear -34 1034 60 10000 1.38 284 02:45 30.12.2020
656 Clear -34 1034 60 10000 1 330 02:25 30.12.2020
657 Clear -34 1034 60 10000 1 330 01:34 30.12.2020
658 Clear -34 1034 66 10000 1.48 302 00:51 30.12.2020
659 Clear -34 1034 66 10000 1.56 303 00:32 30.12.2020
660 Clear -34 1034 60 10000 1 0 23:57 29.12.2020
661 Clear -34 1034 60 10000 1 0 23:57 29.12.2020
662 Clear -34 1034 60 10000 1 0 23:39 29.12.2020
663 Clear -33 1035 67 10000 4 170 23:18 29.12.2020
664 Clear -33 1035 67 10000 4 170 22:40 29.12.2020
665 Clear -32 1035 67 10000 1 0 22:22 29.12.2020
666 Clear -34 1036 66 10000 2 190 21:46 29.12.2020
667 Clear -35 1036 66 10000 1 0 21:26 29.12.2020
668 Clear -34 1036 60 10000 2 0 20:48 29.12.2020
669 Clear -35 1036 66 10000 1 0 20:26 29.12.2020
670 Clear -34 1036 60 10000 1 0 19:56 29.12.2020
671 Clear -34 1036 60 10000 1 0 19:37 29.12.2020
672 Clear -32 1036 60 10000 2 170 19:18 29.12.2020
673 Clear -32 1037 60 10000 3 160 18:39 29.12.2020
674 Clear -34 1037 66 10000 2 0 18:18 29.12.2020
675 Clear -31 1037 67 10000 1 0 17:38 29.12.2020
676 Clear -31 1037 67 10000 1 0 17:38 29.12.2020
677 Clear -29 1037 61 10000 3 290 17:19 29.12.2020
678 Clear -28 1037 61 10000 5 280 16:36 29.12.2020
679 Clear -29 1038 61 10000 2 0 15:56 29.12.2020
680 Clear -29 1038 61 10000 2 0 15:36 29.12.2020
681 Clear -29 1038 61 10000 3 280 14:58 29.12.2020
682 Clear -29 1038 61 10000 3 290 14:36 29.12.2020
683 Clear -30 1038 61 10000 1 0 14:18 29.12.2020
684 Clear -30 1038 61 10000 1 0 14:18 29.12.2020
685 Clear -29 1038 61 10000 2 0 13:39 29.12.2020
686 Clear -29 1038 61 10000 2 0 13:18 29.12.2020
687 Clear -30 1038 61 10000 2 310 12:37 29.12.2020
688 Clear -29 1038 61 10000 4 330 12:19 29.12.2020
689 Clear -29 1038 61 10000 4 330 11:51 29.12.2020
690 Snow -29 1038 61 10000 4 330 11:31 29.12.2020
691 Clear -28 1037 61 10000 5 320 10:22 29.12.2020
692 Clear -27 1037 56 10000 5 320 09:47 29.12.2020
693 Clear -27 1037 56 10000 4 320 09:19 29.12.2020
694 Clear -26 1037 51 10000 5 310 08:50 29.12.2020
695 Clear -26 1037 51 10000 5 310 07:58 29.12.2020
696 Clear -26 1037 51 10000 6 320 07:26 29.12.2020
697 Clear -27 1037 62 10000 5 290 06:19 29.12.2020
698 Clear -36 1038 66 10000 3.38 324 03:18 29.12.2020
699 Clear -38 1037 58 10000 1 0 00:44 29.12.2020
700 Snow -39 1037 58 10000 1 0 23:41 28.12.2020
701 Clear -39 1037 58 10000 1 0 22:58 28.12.2020
702 Clear -38 1037 58 10000 1 0 22:23 28.12.2020
703 Snow -34 1037 66 10000 3 321 21:44 28.12.2020
704 Clear -34 1037 66 10000 3.06 320 21:23 28.12.2020
705 Clear -37 1037 65 10000 1 0 20:40 28.12.2020
706 Clear -37 1037 65 10000 1 0 20:22 28.12.2020
707 Snow -38 1037 65 10000 1 0 19:42 28.12.2020
708 Clear -38 1037 65 10000 1 0 19:23 28.12.2020
709 Clear -33 1037 67 10000 2.79 317 18:50 28.12.2020
710 Clear -33 1037 67 10000 2.79 313 18:28 28.12.2020
711 Clear -34 1037 66 10000 1 0 17:44 28.12.2020
712 Clear -34 1037 66 10000 1 0 17:25 28.12.2020
713 Clear -32 1037 67 10000 1 0 16:43 28.12.2020
714 Clear -32 1037 67 10000 1 0 16:23 28.12.2020
715 Clouds -33 1037 67 10000 1 0 15:46 28.12.2020
716 Clouds -30 1037 61 10000 1 0 14:57 28.12.2020
717 Clouds -30 1037 67 10000 1 0 13:56 28.12.2020
718 Clouds -30 1037 67 10000 1 0 13:32 28.12.2020
719 Snow -30 1036 67 10000 2 320 12:51 28.12.2020
720 Clouds -29 1036 61 10000 4 320 12:23 28.12.2020
721 Snow -29 1035 61 10000 5 330 11:47 28.12.2020
722 Clouds -29 1035 61 10000 4 320 11:24 28.12.2020
723 Clouds -29 1035 61 10000 4 340 10:49 28.12.2020
724 Clouds -29 1035 61 10000 4 340 10:27 28.12.2020
725 Clouds -28 1034 61 10000 5 320 09:46 28.12.2020
726 Clear -28 1034 56 10000 6 320 09:20 28.12.2020
727 Clouds -28 1034 56 10000 6 320 07:40 28.12.2020
728 Clouds -28 1034 50 10000 7 340 06:50 28.12.2020
729 Clear -29 1033 55 10000 4 310 04:37 28.12.2020
730 Clear -31 1031 67 10000 2 340 02:27 28.12.2020
731 Clear -32 1030 74 10000 2 320 00:53 28.12.2020
732 Clear -31 1029 67 10000 3 320 23:46 27.12.2020
733 Clear -31 1029 67 10000 3 320 23:19 27.12.2020
734 Clear -31 1028 67 10000 1 0 21:58 27.12.2020
735 Clear -32 1028 74 10000 2 290 21:26 27.12.2020
736 Clear -29 1027 68 10000 2 340 20:47 27.12.2020
737 Clear -31 1027 74 10000 4.09 337 19:46 27.12.2020
738 Clear -31 1027 74 10000 3.63 332 19:22 27.12.2020
739 Clear -28 1026 68 10000 2 10 18:42 27.12.2020
740 Clear -28 1026 68 10000 2 10 18:19 27.12.2020
741 Clear -27 1026 62 10000 2 350 17:47 27.12.2020
742 Clear -27 1026 62 10000 2 350 17:27 27.12.2020
743 Clear -28 1025 68 10000 2 340 16:37 27.12.2020
744 Clear -28 1025 68 10000 1 0 15:56 27.12.2020
745 Clear -26 1024 62 10000 1 0 14:59 27.12.2020
746 Clear -25 1023 62 10000 2 340 14:41 27.12.2020
747 Clear -26 1023 62 10000 2 320 14:19 27.12.2020
748 Clear -25 1021 69 10000 5 340 13:22 27.12.2020
749 Clear -25 1021 69 10000 5 340 12:43 27.12.2020
750 Clear -23 1021 57 10000 5 350 11:56 27.12.2020
751 Clear -23 1020 63 10000 4 360 11:35 27.12.2020
752 Clear -23 1019 69 10000 3 350 10:51 27.12.2020
753 Clear -23 1018 69 10000 4 310 10:24 27.12.2020
754 Clear -22 1018 63 10000 5 310 09:46 27.12.2020
755 Clear -21 1017 70 10000 8 310 08:39 27.12.2020
756 Clear -20 1017 64 10000 7 320 08:18 27.12.2020
757 Clear -20 1017 70 10000 6 310 07:26 27.12.2020
758 Clouds -19 1016 64 10000 5 310 05:44 27.12.2020
759 Clouds -18 1015 70 10000 2 0 03:59 27.12.2020
760 Snow -18 1015 77 10000 2 0 03:19 27.12.2020
761 Snow -20 1013 76 5000 1 0 01:33 27.12.2020
762 Snow -20 1012 76 4000 1.93 323 23:57 26.12.2020
763 Snow -20 1012 76 4000 1.36 326 23:27 26.12.2020
764 Snow -21 1012 83 6000 1.36 326 22:49 26.12.2020
765 Snow -22 1013 76 6000 0.37 350 22:21 26.12.2020
766 Snow -22 1013 76 6000 0.37 350 21:57 26.12.2020
767 Snow -22 1013 76 6000 0.37 350 21:38 26.12.2020
768 Snow -22 1013 76 6000 1 0 21:19 26.12.2020
769 Snow -22 1013 76 6000 1 0 20:41 26.12.2020
770 Snow -23 1013 83 6000 0.74 144 20:18 26.12.2020
771 Clouds -23 1013 83 6000 0.95 166 19:26 26.12.2020
772 Clouds -22 1012 76 6000 0.95 166 18:50 26.12.2020
773 Clouds -22 1012 76 6000 0.86 72 18:28 26.12.2020
774 Clouds -25 1013 75 6000 2 170 17:41 26.12.2020
775 Clouds -25 1013 75 6000 2 170 17:20 26.12.2020
776 Clouds -26 1012 75 6000 1 0 16:36 26.12.2020
777 Clouds -25 1012 75 10000 1 0 15:27 26.12.2020
778 Clouds -24 1012 76 10000 2 90 14:51 26.12.2020
779 Clouds -24 1012 76 10000 2 90 14:28 26.12.2020
780 Clear -26 1012 75 10000 2 170 13:47 26.12.2020
781 Clear -26 1012 75 10000 2 170 13:28 26.12.2020
782 Clear -23 1012 76 10000 2 150 12:44 26.12.2020
783 Clear -21 1011 76 10000 1 0 12:22 26.12.2020
784 Clear -23 1011 69 10000 1 0 11:51 26.12.2020
785 Clear -22 1011 69 10000 2 0 11:22 26.12.2020
786 Clear -22 1011 69 10000 2 0 10:54 26.12.2020
787 Clear -18 1011 70 10000 2 170 10:27 26.12.2020
788 Clear -16 1010 65 10000 2 160 09:51 26.12.2020
789 Clear -16 1010 65 10000 2 160 09:28 26.12.2020
790 Clear -17 1009 70 8000 2 340 08:33 26.12.2020
791 Clear -14 1009 65 8000 2 170 07:52 26.12.2020
792 Clear -18 1009 70 6000 1 0 06:31 26.12.2020
793 Smoke -26 1009 68 5000 1 0 03:19 26.12.2020
794 Smoke -26 1008 68 5000 2 80 01:35 26.12.2020
795 Clouds -25 1007 75 6000 1 0 00:26 26.12.2020
796 Snow -25 1007 75 6000 1 0 23:40 25.12.2020
797 Snow -27 1007 75 6000 1 0 23:22 25.12.2020
798 Clouds -28 1007 68 6000 0.92 222 22:42 25.12.2020
799 Clouds -28 1007 68 6000 1 0 21:58 25.12.2020
800 Clouds -27 1007 75 6000 1 0 21:34 25.12.2020
801 Clear -28 1007 68 6000 0.6 192 20:56 25.12.2020
802 Clear -28 1007 68 6000 0.6 192 20:37 25.12.2020
803 Clear -27 1007 68 6000 1 0 19:48 25.12.2020
804 Clouds -27 1007 75 6000 1 0 19:21 25.12.2020
805 Clouds -26 1007 75 6000 1 0 18:39 25.12.2020
806 Clouds -27 1007 75 6000 1 0 17:47 25.12.2020
807 Clouds -27 1008 75 6000 1 0 17:28 25.12.2020
808 Clouds -24 1008 76 6000 1 0 16:33 25.12.2020
809 Clouds -24 1008 76 6000 1 0 15:59 25.12.2020
810 Clouds -25 1008 75 6000 1.28 137 15:36 25.12.2020
811 Clear -25 1008 69 6000 1 0 14:54 25.12.2020
812 Clear -25 1008 69 6000 1 0 14:29 25.12.2020
813 Clouds -25 1009 75 6000 0.94 144 13:44 25.12.2020
814 Clear -26 1009 68 6000 1 0 13:26 25.12.2020
815 Clear -25 1009 75 6000 0.65 136 12:45 25.12.2020
816 Clear -27 1009 75 6000 1 0 11:58 25.12.2020
817 Smoke -24 1009 69 5000 1 0 11:40 25.12.2020
818 Smoke -25 1009 69 5000 1 0 11:19 25.12.2020
819 Smoke -24 1009 69 5000 2 160 10:27 25.12.2020
820 Smoke -21 1010 70 5000 2 180 09:37 25.12.2020
821 Smoke -18 1010 64 5000 1 0 08:48 25.12.2020
822 Smoke -18 1010 64 5000 1 0 07:59 25.12.2020
823 Smoke -20 1011 70 4000 2 160 06:46 25.12.2020
824 Smoke -28 1013 75 4000 1.03 143 03:49 25.12.2020
825 Smoke -32 1012 67 4000 0.99 140 01:41 25.12.2020
826 Smoke -31 1011 67 4000 1 0 00:18 25.12.2020
827 Smoke -30 1011 74 4000 0.63 222 23:23 24.12.2020
828 Smoke -30 1011 74 4000 0.63 222 22:41 24.12.2020
829 Smoke -31 1011 67 4000 0.52 243 22:20 24.12.2020
830 Smoke -29 1011 68 5000 1 0 21:33 24.12.2020
831 Smoke -28 1010 68 5000 1 0 20:36 24.12.2020
832 Clouds -30 1010 67 6000 1 0 18:40 24.12.2020
833 Clouds -30 1010 67 6000 1 0 18:18 24.12.2020
834 Clouds -30 1009 74 8000 1 0 17:37 24.12.2020
835 Clouds -30 1009 67 8000 1 0 16:45 24.12.2020
836 Clouds -30 1009 67 8000 1 0 16:20 24.12.2020
837 Clouds -31 1009 67 8000 1 0 15:42 24.12.2020
838 Clouds -28 1009 68 8000 1 0 15:19 24.12.2020
839 Clouds -28 1009 68 8000 1 0 14:42 24.12.2020
840 Clouds -29 1009 68 8000 2 0 14:24 24.12.2020
841 Clouds -29 1008 68 8000 2 170 13:42 24.12.2020
842 Clouds -28 1008 68 8000 2 0 13:22 24.12.2020
843 Clouds -28 1008 68 6000 2 170 12:43 24.12.2020
844 Clouds -28 1008 68 6000 1 0 12:21 24.12.2020
845 Clouds -26 1008 68 6000 2 0 11:41 24.12.2020
846 Clouds -27 1008 68 6000 2 0 11:20 24.12.2020
847 Clouds -24 1008 76 6000 2 0 10:52 24.12.2020
848 Clouds -24 1008 76 6000 2 0 10:34 24.12.2020
849 Clouds -20 1008 70 6000 0.87 213 09:52 24.12.2020
850 Smoke -21 1008 70 5000 1 0 09:24 24.12.2020
851 Smoke -21 1008 70 5000 1 0 08:20 24.12.2020
852 Smoke -22 1009 69 5000 0.9 169 07:39 24.12.2020
853 Smoke -23 1010 76 5000 1 0 07:18 24.12.2020
854 Smoke -27 1012 68 4000 0.77 207 04:28 24.12.2020
855 Smoke -34 1013 66 4000 1 233 01:54 24.12.2020
856 Smoke -34 1013 66 4000 1 233 01:32 24.12.2020
857 Snow -35 1013 66 6000 1 0 00:56 24.12.2020
858 Clouds -35 1013 59 6000 1 0 00:21 24.12.2020
859 Clouds -36 1012 66 8000 1 0 23:44 23.12.2020
860 Clouds -33 1012 74 8000 1 0 23:23 23.12.2020
861 Clouds -33 1012 67 8000 1 0 22:53 23.12.2020
862 Clouds -32 1012 74 8000 1.02 225 22:29 23.12.2020
863 Clear -31 1012 67 10000 1 0 21:49 23.12.2020
864 Clear -33 1012 74 10000 2 0 21:25 23.12.2020
865 Clear -33 1013 60 10000 1 0 20:50 23.12.2020
866 Clear -33 1013 60 10000 1 0 20:31 23.12.2020
867 Clear -34 1012 66 10000 1 0 19:59 23.12.2020
868 Clear -34 1012 66 10000 1 0 19:38 23.12.2020
869 Clear -32 1013 67 10000 0.64 201 19:19 23.12.2020
870 Clear -32 1013 67 10000 0.64 201 18:46 23.12.2020
871 Clear -30 1013 67 10000 1 0 18:21 23.12.2020
872 Clear -32 1013 67 10000 2 170 17:39 23.12.2020
873 Clear -33 1013 67 10000 1 0 17:20 23.12.2020
874 Clear -31 1013 74 10000 1 0 16:43 23.12.2020
875 Clear -29 1012 68 10000 1 0 16:25 23.12.2020
876 Clear -28 1013 68 10000 1.13 214 15:54 23.12.2020
877 Clear -31 1013 67 10000 2 170 15:28 23.12.2020
878 Clear -31 1013 67 10000 2 170 14:58 23.12.2020
879 Clear -31 1013 67 10000 2 0 14:39 23.12.2020
880 Snow -27 1013 75 10000 2 0 14:20 23.12.2020
881 Clear -29 1013 68 10000 2 160 13:43 23.12.2020
882 Clear -30 1013 74 10000 2 180 13:19 23.12.2020
883 Clear -30 1013 74 10000 2 180 13:19 23.12.2020
884 Clear -27 1013 68 10000 0.91 229 12:51 23.12.2020
885 Clear -25 1013 75 10000 0.83 208 12:25 23.12.2020
886 Clear -25 1014 62 10000 0.83 208 11:47 23.12.2020
887 Clear -25 1014 69 10000 1 0 11:19 23.12.2020
888 Clear -24 1014 63 10000 1.07 199 10:48 23.12.2020
889 Clear -24 1014 63 10000 1.07 199 10:30 23.12.2020
890 Clear -24 1014 63 10000 2 200 09:35 23.12.2020
891 Clear -19 1014 70 10000 1 0 08:49 23.12.2020
892 Clear -19 1014 70 10000 1 0 08:21 23.12.2020
893 Clear -18 1014 70 10000 1.05 219 07:27 23.12.2020
894 Clear -19 1015 77 10000 1 0 06:41 23.12.2020
895 Clear -19 1015 77 10000 1 0 05:41 23.12.2020
896 Clear -21 1016 76 10000 2 160 04:59 23.12.2020
897 Clouds -20 1015 83 10000 1 0 01:31 23.12.2020
898 Snow -20 1015 76 10000 2 0 00:25 23.12.2020
899 Clouds -19 1015 84 10000 1 0 23:36 22.12.2020
900 Clouds -20 1015 76 10000 2 160 23:18 22.12.2020
901 Clouds -19 1015 77 10000 1 0 22:41 22.12.2020
902 Clouds -19 1015 77 10000 1 0 22:20 22.12.2020
903 Clear -18 1015 77 10000 2 200 21:45 22.12.2020
904 Clear -18 1015 77 10000 2 200 21:20 22.12.2020
905 Clear -21 1014 76 10000 3 200 20:49 22.12.2020
906 Clear -21 1014 76 10000 3 200 20:22 22.12.2020
907 Clear -22 1014 83 10000 3 160 19:49 22.12.2020
908 Clear -22 1014 83 10000 3 160 19:26 22.12.2020
909 Clear -19 1013 77 10000 2 0 18:56 22.12.2020
910 Clear -19 1013 77 10000 2 0 18:36 22.12.2020
911 Clear -19 1013 77 10000 2 0 18:18 22.12.2020
912 Clear -19 1013 77 10000 2 0 18:18 22.12.2020
913 Clear -20 1013 76 10000 2 0 17:36 22.12.2020
914 Clear -20 1013 76 10000 2 0 17:18 22.12.2020
915 Clear -22 1013 83 10000 3 160 16:44 22.12.2020
916 Clear -22 1013 83 10000 1 0 16:19 22.12.2020
917 Clouds -23 1012 83 10000 2 190 15:45 22.12.2020
918 Clouds -20 1012 76 10000 1 0 15:26 22.12.2020
919 Clouds -17 1012 77 10000 1 0 14:46 22.12.2020
920 Clouds -17 1012 77 10000 1 0 14:46 22.12.2020
921 Clouds -18 1012 84 10000 1 0 14:28 22.12.2020
922 Clouds -16 1012 71 10000 3 290 13:54 22.12.2020
923 Clouds -16 1011 77 10000 4 270 13:36 22.12.2020
924 Clouds -16 1011 77 10000 4 270 13:18 22.12.2020
925 Snow -15 1011 77 10000 6 300 12:42 22.12.2020
926 Snow -14 1010 71 10000 3 290 12:20 22.12.2020
927 Clouds -14 1010 77 10000 4 270 11:43 22.12.2020
928 Clouds -13 1009 71 10000 1 0 11:23 22.12.2020
929 Clouds -13 1009 71 10000 4 340 10:56 22.12.2020
930 Clouds -13 1009 71 10000 4 340 10:30 22.12.2020
931 Clouds -13 1007 78 10000 6 320 09:59 22.12.2020
932 Clouds -13 1007 78 10000 6 320 09:40 22.12.2020
933 Clouds -12 1006 72 10000 7 340 09:20 22.12.2020
934 Clouds -12 1006 78 10000 4 320 08:45 22.12.2020
935 Snow -12 1006 78 10000 5 330 08:25 22.12.2020
936 Snow -13 1006 78 3200 1 0 07:47 22.12.2020
937 Snow -14 1006 77 3000 3.01 319 06:37 22.12.2020
938 Snow -15 1007 77 2000 2 120 05:39 22.12.2020
939 Snow -19 1008 77 6000 1 0 02:36 22.12.2020
940 Clouds -20 1008 70 8000 2 0 00:43 22.12.2020
941 Clouds -21 1008 70 8000 0.55 354 23:51 21.12.2020
942 Clouds -21 1008 70 8000 2 290 23:23 21.12.2020
943 Clouds -22 1008 76 8000 1 0 22:37 21.12.2020
944 Clouds -24 1010 76 10000 1.12 236 22:19 21.12.2020
945 Clouds -24 1010 76 10000 1.12 236 21:48 21.12.2020
946 Clouds -24 1010 76 10000 1.12 236 21:30 21.12.2020
947 Clouds -24 1011 76 10000 0.3 197 20:46 21.12.2020
948 Clouds -24 1011 76 10000 0.62 22 20:23 21.12.2020
949 Clouds -24 1011 69 10000 1 0 19:55 21.12.2020
950 Clouds -24 1011 69 10000 1 0 19:36 21.12.2020
951 Clouds -22 1011 76 10000 1 0 19:18 21.12.2020
952 Clouds -23 1011 76 10000 1 0 18:45 21.12.2020
953 Clouds -24 1011 69 10000 1 0 18:27 21.12.2020
954 Clouds -25 1011 75 10000 0.7 4 17:43 21.12.2020
955 Clouds -25 1012 69 10000 1 0 17:23 21.12.2020
956 Clouds -24 1012 69 10000 1.33 357 16:45 21.12.2020
957 Clouds -25 1012 69 10000 1 0 16:23 21.12.2020
958 Clouds -26 1012 75 10000 1 0 15:43 21.12.2020
959 Clouds -22 1012 69 10000 1.43 310 15:18 21.12.2020
960 Clear -22 1012 76 10000 1.43 310 14:54 21.12.2020
961 Clear -22 1012 76 10000 0.6 311 14:20 21.12.2020
962 Clear -23 1012 69 10000 0.6 311 13:42 21.12.2020
963 Clear -24 1012 69 10000 2 0 13:22 21.12.2020
964 Clouds -24 1012 69 8000 1 0 12:43 21.12.2020
965 Clouds -24 1012 69 8000 1.05 284 12:23 21.12.2020
966 Clouds -20 1011 76 8000 1 0 11:43 21.12.2020
967 Clouds -21 1011 70 6000 1 0 11:23 21.12.2020
968 Clouds -21 1011 70 6000 1 0 10:58 21.12.2020
969 Clouds -22 1011 69 6000 1 0 10:40 21.12.2020
970 Clouds -20 1010 70 6000 1 0 09:59 21.12.2020
971 Clouds -18 1010 70 6000 1 0 09:40 21.12.2020
972 Clouds -16 1010 65 6000 2 190 09:22 21.12.2020
973 Clouds -16 1010 65 6000 2 190 08:30 21.12.2020
974 Clouds -16 1010 65 6000 1 0 07:31 21.12.2020
975 Clouds -19 1011 64 6000 1 0 05:50 21.12.2020
976 Clouds -21 1012 70 6000 1.2 149 04:31 21.12.2020
977 Clear -30 1013 67 6000 1 0 00:38 21.12.2020
978 Clear -29 1014 75 6000 1 0 23:52 20.12.2020
979 Clear -28 1014 68 6000 1 0 23:21 20.12.2020
980 Clear -28 1014 68 6000 1 0 22:55 20.12.2020
981 Clear -29 1014 75 6000 1 0 22:37 20.12.2020
982 Clear -28 1015 68 6000 1 0 22:19 20.12.2020
983 Clear -28 1016 68 8000 1 0 21:38 20.12.2020
984 Clear -28 1016 68 8000 1 0 21:19 20.12.2020
985 Clear -28 1016 68 8000 1 0 20:45 20.12.2020
986 Clear -27 1017 68 8000 1 0 20:22 20.12.2020
987 Clear -26 1017 68 8000 1 0 19:44 20.12.2020
988 Clear -28 1017 75 8000 1 0 19:24 20.12.2020
989 Clear -28 1018 75 8000 1 0 18:54 20.12.2020
990 Clear -28 1018 75 8000 1 0 18:36 20.12.2020
991 Clear -28 1018 75 8000 1 0 18:36 20.12.2020
992 Clear -29 1019 68 8000 1 0 17:55 20.12.2020
993 Clear -29 1019 68 8000 1 0 17:36 20.12.2020
994 Clear -28 1019 75 8000 1 0 17:18 20.12.2020
995 Clear -27 1019 68 8000 1.7 120 16:43 20.12.2020
996 Clear -27 1020 75 8000 1 0 16:23 20.12.2020
997 Clear -28 1020 75 8000 1 0 15:40 20.12.2020
998 Clear -26 1020 68 8000 2 140 15:22 20.12.2020
999 Clear -27 1021 75 8000 1.41 122 14:45 20.12.2020
1000 Clear -27 1021 75 8000 1.4 124 14:27 20.12.2020
1001 Clear -26 1021 75 8000 1 0 13:44 20.12.2020
1002 Clear -26 1021 75 8000 1 0 13:23 20.12.2020
1003 Clear -25 1022 75 8000 1 0 12:51 20.12.2020
1004 Clear -27 1021 68 6000 2 170 12:23 20.12.2020
1005 Clear -26 1022 75 6000 2 170 11:51 20.12.2020
1006 Clear -23 1022 76 6000 1.21 141 11:26 20.12.2020
1007 Clear -24 1022 76 6000 2 170 10:49 20.12.2020
1008 Clear -22 1022 69 6000 2 170 10:22 20.12.2020
1009 Clear -22 1022 69 6000 2 170 09:56 20.12.2020
1010 Clear -20 1022 70 6000 0.99 153 09:37 20.12.2020
1011 Smoke -17 1022 64 6000 0.72 182 09:18 20.12.2020
1012 Smoke -17 1022 64 5000 1 0 08:47 20.12.2020
1013 Smoke -17 1022 64 5000 1 0 08:28 20.12.2020
1014 Smoke -18 1023 59 5000 1 0 07:21 20.12.2020
1015 Smoke -27 1025 68 5000 1 0 03:44 20.12.2020
1016 Clear -30 1025 67 6000 1 0 01:25 20.12.2020
1017 Clear -30 1025 67 6000 1 0 23:58 19.12.2020
1018 Clear -30 1025 74 6000 2 110 23:18 19.12.2020
1019 Clear -30 1025 67 6000 1 0 22:44 19.12.2020
1020 Clear -30 1026 67 6000 0.59 128 22:25 19.12.2020
1021 Clear -30 1026 67 6000 0.59 128 21:58 19.12.2020
1022 Clear -30 1026 67 8000 1 0 21:38 19.12.2020
1023 Clear -30 1026 67 8000 1 0 21:20 19.12.2020
1024 Clear -29 1026 68 8000 0.83 132 20:37 19.12.2020
1025 Clear -30 1026 67 8000 1 0 20:18 19.12.2020
1026 Clear -29 1026 75 8000 0.91 135 19:46 19.12.2020
1027 Clear -29 1026 75 8000 0.84 142 19:24 19.12.2020
1028 Clear -29 1026 68 10000 1 0 18:34 19.12.2020
1029 Clear -30 1027 67 10000 1 0 17:58 19.12.2020
1030 Clear -29 1027 68 10000 0.95 147 17:37 19.12.2020
1031 Clear -29 1027 68 10000 1.01 147 17:19 19.12.2020
1032 Clear -29 1027 68 10000 1 0 16:40 19.12.2020
1033 Clear -27 1027 68 10000 1 0 16:22 19.12.2020
1034 Clear -28 1027 75 10000 0.69 149 15:54 19.12.2020
1035 Clear -28 1028 68 10000 2 180 15:26 19.12.2020
1036 Clear -28 1028 68 10000 2 180 14:39 19.12.2020
1037 Clear -28 1028 68 10000 1 0 13:59 19.12.2020
1038 Clear -28 1028 68 10000 1 0 13:40 19.12.2020
1039 Clear -27 1028 75 10000 0.52 108 13:18 19.12.2020
1040 Clear -27 1027 75 10000 1 0 12:42 19.12.2020
1041 Clear -26 1027 68 8000 1 0 12:24 19.12.2020
1042 Clear -26 1027 68 8000 1 0 11:53 19.12.2020
1043 Clear -26 1027 68 8000 1 0 11:33 19.12.2020
1044 Clear -25 1027 69 8000 3 170 10:42 19.12.2020
1045 Clear -24 1027 69 8000 1 0 10:20 19.12.2020
1046 Clear -20 1027 70 6000 0.35 217 09:42 19.12.2020
1047 Clear -19 1027 64 6000 1 0 08:59 19.12.2020
1048 Clear -18 1027 64 6000 1 0 08:23 19.12.2020
1049 Smoke -19 1028 58 5000 1 0 07:22 19.12.2020
1050 Smoke -20 1028 70 5000 1.1 244 06:51 19.12.2020
1051 Smoke -24 1029 76 4000 1 0 05:25 19.12.2020
1052 Smoke -28 1029 75 4000 1 0 03:55 19.12.2020
1053 Clear -30 1028 67 6000 1 0 01:21 19.12.2020
1054 Clear -30 1028 67 6000 0.62 315 00:36 19.12.2020
1055 Clear -30 1028 67 6000 0.76 323 00:18 19.12.2020
1056 Clear -31 1028 74 10000 0.76 323 23:44 18.12.2020
1057 Clear -31 1028 74 10000 0.69 325 23:21 18.12.2020
1058 Clear -31 1028 74 6000 1 0 22:43 18.12.2020
1059 Clear -31 1028 67 6000 1 0 22:20 18.12.2020
1060 Clear -29 1027 75 6000 0.47 305 21:47 18.12.2020
1061 Clear -29 1027 75 6000 0.46 309 21:28 18.12.2020
1062 Clear -28 1027 75 6000 0.46 309 20:38 18.12.2020
1063 Clear -28 1027 75 6000 0.42 338 20:19 18.12.2020
1064 Clear -29 1027 68 8000 0.42 338 19:41 18.12.2020
1065 Clear -29 1027 68 10000 1 0 19:20 18.12.2020
1066 Clear -30 1027 67 10000 2 160 18:39 18.12.2020
1067 Clear -30 1027 74 10000 2 170 18:20 18.12.2020
1068 Clear -31 1027 67 10000 1 0 17:22 18.12.2020
1069 Clear -29 1027 75 10000 1 0 16:49 18.12.2020
1070 Clear -31 1027 67 10000 1 0 16:27 18.12.2020
1071 Clear -31 1027 67 10000 1 0 15:58 18.12.2020
1072 Clear -29 1027 75 10000 0.49 295 15:39 18.12.2020
1073 Clear -29 1027 75 10000 1 0 15:20 18.12.2020
1074 Clear -30 1027 74 10000 1 0 14:54 18.12.2020
1075 Clear -30 1027 74 10000 2 130 14:21 18.12.2020
1076 Clear -29 1027 75 10000 1 0 13:49 18.12.2020
1077 Clear -25 1026 75 10000 0.46 276 13:25 18.12.2020
1078 Clear -30 1026 74 10000 1 0 12:46 18.12.2020
1079 Clear -25 1025 69 8000 1 0 11:51 18.12.2020
1080 Clear -27 1025 68 8000 1 0 11:22 18.12.2020
1081 Clear -28 1025 68 8000 1 0 10:39 18.12.2020
1082 Clear -24 1025 63 8000 1 0 10:20 18.12.2020
1083 Clear -21 1025 63 6000 1 0 09:39 18.12.2020
1084 Clear -17 1024 54 6000 0.72 237 09:21 18.12.2020
1085 Clear -17 1024 54 6000 0.72 237 08:53 18.12.2020
1086 Clear -17 1024 54 6000 0.67 240 08:29 18.12.2020
1087 Clear -20 1025 64 6000 0.67 240 07:39 18.12.2020
1088 Smoke -21 1025 63 5000 1 0 07:18 18.12.2020
1089 Smoke -22 1025 69 5000 1 0 06:46 18.12.2020
1090 Smoke -24 1026 76 5000 1 0 05:41 18.12.2020
1091 Smoke -26 1027 68 3600 1 0 04:51 18.12.2020
1092 Smoke -33 1027 67 5000 0.82 134 01:58 18.12.2020
1093 Smoke -33 1027 60 5000 0.82 134 01:38 18.12.2020
1094 Clear -33 1027 67 6000 1 0 23:58 17.12.2020
1095 Clear -33 1027 67 8000 2 160 23:25 17.12.2020
1096 Clear -32 1028 67 8000 1.2 116 22:54 17.12.2020
1097 Clear -32 1028 67 8000 1.33 113 22:29 17.12.2020
1098 Clear -32 1028 67 8000 1 0 21:57 17.12.2020
1099 Clear -31 1028 67 8000 1.33 113 21:37 17.12.2020
1100 Clear -33 1029 74 10000 1.43 112 21:18 17.12.2020
1101 Clear -30 1029 67 10000 1.43 112 20:41 17.12.2020
1102 Clear -32 1029 67 10000 1.44 116 20:19 17.12.2020
1103 Clear -33 1029 67 10000 1.44 116 19:48 17.12.2020
1104 Clear -32 1029 67 10000 1 0 19:24 17.12.2020
1105 Clear -32 1030 67 10000 1 0 18:42 17.12.2020
1106 Clear -31 1030 67 10000 1.11 131 18:23 17.12.2020
1107 Clear -31 1030 67 10000 1.11 131 18:23 17.12.2020
1108 Clear -31 1030 67 10000 2 0 17:54 17.12.2020
1109 Clear -33 1031 67 10000 1 0 17:32 17.12.2020
1110 Clear -31 1031 67 10000 1 0 16:46 17.12.2020
1111 Clear -32 1031 67 10000 0.83 146 16:27 17.12.2020
1112 Clear -32 1031 67 10000 0.83 146 15:56 17.12.2020
1113 Clear -30 1031 67 10000 1 0 15:34 17.12.2020
1114 Clear -27 1031 68 10000 1 0 14:55 17.12.2020
1115 Clear -27 1031 68 10000 1 0 14:37 17.12.2020
1116 Clear -27 1031 68 10000 1 0 14:37 17.12.2020
1117 Clear -28 1031 68 10000 2 0 13:59 17.12.2020
1118 Clear -30 1031 67 10000 1 0 13:39 17.12.2020
1119 Clear -28 1031 68 10000 1 0 12:56 17.12.2020
1120 Clear -27 1031 75 10000 1 0 12:33 17.12.2020
1121 Clear -28 1030 68 10000 3 140 11:47 17.12.2020
1122 Clear -28 1030 68 10000 3 140 11:26 17.12.2020
1123 Clear -25 1030 75 10000 3 180 10:57 17.12.2020
1124 Clear -25 1030 75 10000 3 180 10:33 17.12.2020
1125 Clear -18 1029 64 10000 1.12 316 09:36 17.12.2020
1126 Clear -18 1029 70 10000 3 250 08:39 17.12.2020
1127 Clear -16 1029 65 10000 4 280 07:40 17.12.2020
1128 Clear -16 1029 71 10000 2 0 07:18 17.12.2020
1129 Clear -16 1029 71 10000 1.62 299 06:44 17.12.2020
1130 Clear -16 1029 71 10000 1.55 302 06:26 17.12.2020
1131 Clouds -30 1028 67 6000 1 0 01:57 17.12.2020
1132 Clouds -28 1026 75 6000 2 130 00:19 17.12.2020
1133 Clouds -28 1026 75 6000 2 130 23:38 16.12.2020
1134 Clouds -27 1025 68 6000 2.3 351 23:18 16.12.2020
1135 Clouds -27 1025 68 6000 2.3 351 22:47 16.12.2020
1136 Clouds -27 1025 68 6000 2.34 349 22:27 16.12.2020
1137 Clouds -28 1025 75 6000 1 0 21:41 16.12.2020
1138 Clouds -28 1025 75 6000 1 0 21:21 16.12.2020
1139 Clouds -26 1024 75 6000 3 170 20:46 16.12.2020
1140 Clouds -26 1024 75 6000 3 170 20:20 16.12.2020
1141 Clouds -28 1024 75 6000 1 0 19:37 16.12.2020
1142 Clear -28 1024 75 6000 1 0 19:18 16.12.2020
1143 Clear -28 1023 75 6000 1 0 18:42 16.12.2020
1144 Clear -29 1023 75 6000 3 140 18:22 16.12.2020
1145 Clear -28 1024 68 6000 2 160 17:35 16.12.2020
1146 Clear -28 1023 68 6000 2 160 16:42 16.12.2020
1147 Clear -29 1023 75 8000 1 0 16:22 16.12.2020
1148 Clear -29 1023 75 8000 1 0 15:54 16.12.2020
1149 Clear -29 1023 75 8000 1 0 15:36 16.12.2020
1150 Clear -26 1022 68 8000 2 0 14:56 16.12.2020
1151 Clear -26 1022 68 8000 2 0 14:37 16.12.2020
1152 Clear -26 1022 75 8000 0.63 279 14:19 16.12.2020
1153 Clear -26 1022 68 8000 1 0 13:39 16.12.2020
1154 Clear -28 1022 75 8000 2 180 13:19 16.12.2020
1155 Clear -24 1022 76 8000 1 0 12:42 16.12.2020
1156 Clear -25 1021 75 8000 2 100 11:49 16.12.2020
1157 Clear -26 1021 75 8000 1 0 11:23 16.12.2020
1158 Clear -26 1021 75 8000 1 0 10:53 16.12.2020
1159 Clear -26 1021 75 8000 1 0 10:27 16.12.2020
1160 Clear -26 1021 75 8000 1 0 10:27 16.12.2020
1161 Clear -20 1020 64 6000 1 0 09:54 16.12.2020
1162 Clear -18 1020 64 6000 1 0 09:24 16.12.2020
1163 Smoke -17 1020 59 5000 1.14 263 08:22 16.12.2020
1164 Smoke -18 1020 64 5000 1 0 07:42 16.12.2020
1165 Smoke -18 1020 59 5000 1 0 07:20 16.12.2020
1166 Smoke -28 1022 75 4000 0.89 248 03:35 16.12.2020
1167 Smoke -32 1022 67 4000 1 0 01:57 16.12.2020
1168 Clear -32 1021 60 6000 1 0 23:46 15.12.2020
1169 Clear -32 1021 60 6000 1 0 23:18 15.12.2020
1170 Clear -31 1021 67 6000 1 0 22:40 15.12.2020
1171 Clear -32 1021 67 8000 2 180 22:20 15.12.2020
1172 Clear -32 1021 67 8000 2 180 21:45 15.12.2020
1173 Clear -31 1022 67 8000 0.45 212 21:22 15.12.2020
1174 Clear -33 1022 67 8000 0.45 212 20:45 15.12.2020
1175 Clear -31 1022 67 8000 1 0 20:26 15.12.2020
1176 Clear -31 1022 67 8000 1 0 19:55 15.12.2020
1177 Clear -31 1022 74 8000 0.43 187 19:30 15.12.2020
1178 Clear -31 1022 67 8000 1 0 18:40 15.12.2020
1179 Clear -31 1022 67 8000 2 190 18:22 15.12.2020
1180 Clear -31 1022 67 8000 2 190 17:56 15.12.2020
1181 Clear -30 1022 67 8000 1 0 17:37 15.12.2020
1182 Clear -31 1022 74 8000 1 0 17:18 15.12.2020
1183 Clear -31 1022 74 8000 2 180 16:32 15.12.2020
1184 Clear -31 1023 67 8000 0.82 162 15:50 15.12.2020
1185 Clear -29 1023 68 8000 0.81 158 15:28 15.12.2020
1186 Clear -30 1023 74 8000 0.81 158 14:44 15.12.2020
1187 Clear -30 1023 67 8000 2 160 14:21 15.12.2020
1188 Clear -30 1023 67 8000 1 0 13:51 15.12.2020
1189 Clear -30 1023 67 8000 1 0 13:32 15.12.2020
1190 Clear -29 1024 68 8000 2 160 12:47 15.12.2020
1191 Clear -29 1024 68 8000 2 160 12:47 15.12.2020
1192 Clear -29 1024 75 8000 1 0 12:20 15.12.2020
1193 Clear -29 1024 75 8000 1 0 11:55 15.12.2020
1194 Clear -29 1024 68 8000 0.91 138 11:26 15.12.2020
1195 Clear -28 1023 61 8000 2 170 10:53 15.12.2020
1196 Clear -27 1023 68 8000 2 190 10:24 15.12.2020
1197 Clear -24 1023 63 8000 2 180 09:50 15.12.2020
1198 Clear -24 1023 63 8000 2 180 09:32 15.12.2020
1199 Clear -22 1024 63 6000 2 200 08:49 15.12.2020
1200 Clear -22 1024 63 6000 2 200 08:26 15.12.2020
1201 Smoke -21 1024 53 5000 0.87 192 07:49 15.12.2020
1202 Smoke -20 1025 58 5000 1.12 211 07:24 15.12.2020
1203 Smoke -24 1025 69 5000 1.19 222 06:28 15.12.2020
1204 Smoke -34 1025 66 4000 0.56 240 02:55 15.12.2020
1205 Clear -34 1025 66 6000 0.36 270 00:34 15.12.2020
1206 Clear -33 1024 67 6000 0.3 272 23:26 14.12.2020
1207 Clear -33 1024 67 6000 0.3 272 22:55 14.12.2020
1208 Clear -33 1024 67 6000 0.3 272 22:32 14.12.2020
1209 Clear -34 1024 66 6000 1 0 21:45 14.12.2020
1210 Clear -33 1024 67 6000 1 0 21:22 14.12.2020
1211 Clear -33 1024 67 6000 1 0 20:51 14.12.2020
1212 Clear -33 1024 67 6000 1 0 20:51 14.12.2020
1213 Clear -33 1024 67 6000 1 0 20:29 14.12.2020
1214 Clear -33 1024 67 6000 1 0 19:53 14.12.2020
1215 Clear -33 1024 67 6000 1 0 19:29 14.12.2020
1216 Clear -33 1023 67 6000 1 0 18:44 14.12.2020
1217 Clear -34 1023 66 6000 0.43 277 18:25 14.12.2020
1218 Clear -31 1023 74 6000 1 0 17:46 14.12.2020
1219 Clear -32 1023 67 6000 1 0 17:23 14.12.2020
1220 Clear -33 1023 67 6000 1 0 16:50 14.12.2020
1221 Clear -32 1023 67 6000 1 0 16:29 14.12.2020
1222 Clear -33 1023 67 6000 1 0 15:39 14.12.2020
1223 Clear -32 1023 67 6000 1 0 15:20 14.12.2020
1224 Clear -32 1022 67 6000 1 0 14:42 14.12.2020
1225 Clear -31 1022 67 6000 2 170 14:23 14.12.2020
1226 Clear -30 1022 67 6000 1 0 13:42 14.12.2020
1227 Clouds -27 1022 68 6000 0.53 249 13:18 14.12.2020
1228 Clouds -28 1022 75 6000 0.46 253 12:50 14.12.2020
1229 Clouds -27 1022 68 6000 1 0 12:24 14.12.2020
1230 Snow -27 1022 68 6000 1 0 11:32 14.12.2020
1231 Clouds -26 1021 68 6000 2 160 10:37 14.12.2020
1232 Clouds -26 1021 68 6000 2 160 10:37 14.12.2020
1233 Clouds -25 1021 62 6000 1 0 10:19 14.12.2020
1234 Clouds -24 1021 63 6000 1 0 09:29 14.12.2020
1235 Clouds -23 1021 63 6000 1 0 08:46 14.12.2020
1236 Clear -23 1021 63 6000 1 0 08:27 14.12.2020
1237 Clear -24 1021 63 6000 1 0 07:28 14.12.2020
1238 Smoke -25 1022 62 5000 1 0 06:45 14.12.2020
1239 Smoke -28 1023 75 3000 0.59 180 04:52 14.12.2020
1240 Smoke -37 1023 65 5000 1 0 02:26 14.12.2020
1241 Smoke -35 1022 66 5000 0.3 148 00:55 14.12.2020
1242 Smoke -35 1022 66 5000 0.3 157 00:31 14.12.2020
1243 Clear -37 1022 65 6000 1 0 23:48 13.12.2020
1244 Clear -35 1022 59 6000 0.38 76 23:25 13.12.2020
1245 Clear -36 1022 66 6000 1 0 22:46 13.12.2020
1246 Clear -36 1022 66 6000 1 0 22:19 13.12.2020
1247 Clear -37 1022 59 6000 1 0 21:42 13.12.2020
1248 Clear -36 1023 59 6000 1 0 21:23 13.12.2020
1249 Clear -37 1023 65 6000 1 0 20:35 13.12.2020
1250 Clear -36 1024 59 6000 2 170 19:53 13.12.2020
1251 Clear -36 1024 59 6000 2 170 19:32 13.12.2020
1252 Clear -36 1024 66 6000 1 0 18:58 13.12.2020
1253 Clear -36 1024 66 6000 1 0 18:39 13.12.2020
1254 Clear -36 1024 66 8000 1 0 18:19 13.12.2020
1255 Clear -36 1024 66 8000 1 0 17:46 13.12.2020
1256 Clear -35 1024 66 8000 0.83 247 17:21 13.12.2020
1257 Clear -36 1024 66 8000 1 0 16:54 13.12.2020
1258 Clear -36 1024 66 8000 1 0 16:36 13.12.2020
1259 Clear -37 1024 65 8000 1 0 15:57 13.12.2020
1260 Clear -34 1024 66 10000 1 0 15:38 13.12.2020
1261 Clear -34 1024 66 10000 1 0 15:18 13.12.2020
1262 Clear -33 1024 67 10000 0.72 251 14:42 13.12.2020
1263 Clear -36 1024 59 10000 0.48 281 14:19 13.12.2020
1264 Clear -33 1024 67 10000 1 0 13:41 13.12.2020
1265 Clear -33 1024 67 10000 0.5 296 13:22 13.12.2020
1266 Clear -33 1024 67 10000 0.57 304 12:39 13.12.2020
1267 Clear -33 1024 67 10000 2 180 12:20 13.12.2020
1268 Clear -31 1024 67 10000 3 170 11:35 13.12.2020
1269 Clear -28 1024 61 10000 3 180 10:48 13.12.2020
1270 Clear -28 1024 61 10000 3 180 10:30 13.12.2020
1271 Clear -26 1024 62 10000 2 170 09:52 13.12.2020
1272 Clear -21 1024 70 10000 1 249 08:53 13.12.2020
1273 Clear -21 1024 70 10000 1 249 08:32 13.12.2020
1274 Clear -24 1024 69 10000 1 0 07:27 13.12.2020
1275 Clouds -32 1025 67 8000 1 0 03:26 13.12.2020
1276 Clouds -34 1025 60 8000 1 0 02:32 13.12.2020
1277 Clouds -34 1024 60 8000 1 0 01:37 13.12.2020
1278 Clouds -34 1024 60 8000 1 0 00:46 13.12.2020
1279 Clouds -35 1024 66 8000 1 0 23:45 12.12.2020
1280 Clouds -35 1024 66 8000 1 0 23:27 12.12.2020
1281 Clouds -33 1024 67 8000 1 0 22:39 12.12.2020
1282 Clouds -33 1024 67 8000 1 0 22:39 12.12.2020
1283 Clouds -33 1024 67 8000 1 0 21:49 12.12.2020
1284 Clouds -33 1024 67 8000 1 0 21:31 12.12.2020
1285 Clouds -31 1024 67 8000 1.19 240 20:48 12.12.2020
1286 Clouds -31 1024 67 8000 1.24 236 20:21 12.12.2020
1287 Clouds -31 1025 67 8000 1 0 19:54 12.12.2020
1288 Clouds -31 1025 67 8000 1 0 19:35 12.12.2020
1289 Clouds -31 1025 67 8000 1.29 235 18:58 12.12.2020
1290 Clouds -31 1025 67 8000 1.33 235 18:40 12.12.2020
1291 Clouds -30 1025 67 8000 1.29 234 18:22 12.12.2020
1292 Clouds -31 1025 67 8000 1.29 234 17:41 12.12.2020
1293 Clear -29 1024 68 10000 1.36 231 16:54 12.12.2020
1294 Clear -28 1024 75 10000 1 0 15:59 12.12.2020
1295 Clear -29 1024 68 10000 1 0 15:40 12.12.2020
1296 Clear -28 1024 75 10000 1.26 226 14:55 12.12.2020
1297 Clear -28 1024 75 10000 1.26 226 14:35 12.12.2020
1298 Clear -27 1024 68 10000 1 0 13:47 12.12.2020
1299 Clear -27 1024 68 10000 1 0 13:26 12.12.2020
1300 Clear -25 1024 69 10000 2 0 12:43 12.12.2020
1301 Clear -26 1023 68 10000 2 180 11:41 12.12.2020
1302 Clear -25 1022 69 10000 3 170 10:52 12.12.2020
1303 Clear -24 1022 69 10000 1 0 09:31 12.12.2020
1304 Clear -21 1021 63 10000 2 0 08:42 12.12.2020
1305 Clouds -28 1018 68 8000 1 0 02:28 12.12.2020
1306 Clouds -29 1015 75 6000 2.21 357 23:40 11.12.2020
1307 Clouds -30 1015 67 8000 1 0 22:21 11.12.2020
1308 Clouds -33 1014 60 8000 1.23 1 20:25 11.12.2020
1309 Clear -32 1014 67 10000 1.16 0 17:39 11.12.2020
1310 Clear -32 1014 67 10000 2 160 14:40 11.12.2020
1311 Clear -32 1013 74 8000 2 160 13:57 11.12.2020
1312 Clear -27 1013 75 8000 1 0 12:36 11.12.2020
1313 Clear -30 1012 67 8000 2 190 11:56 11.12.2020
1314 Clear -28 1012 75 8000 1 0 11:37 11.12.2020
1315 Clear -29 1012 61 8000 0.42 290 10:41 11.12.2020
1316 Clouds -18 1011 59 8000 0.83 263 08:23 11.12.2020
1317 Smoke -24 1012 76 4000 0.84 253 05:38 11.12.2020
1318 Smoke -26 1013 68 4000 1 0 04:47 11.12.2020
1319 Clouds -33 1013 67 6000 1.07 117 01:20 11.12.2020
1320 Clouds -33 1013 67 8000 1 0 23:37 10.12.2020
1321 Clear -31 1013 67 10000 1 0 21:59 10.12.2020
1322 Clear -29 1014 68 10000 1 0 21:29 10.12.2020
1323 Clear -30 1014 74 10000 1 0 20:38 10.12.2020
1324 Clear -29 1015 75 10000 1.32 96 19:33 10.12.2020
1325 Clear -31 1015 67 10000 1 0 18:50 10.12.2020
1326 Clear -32 1016 67 10000 1 0 17:36 10.12.2020
1327 Clear -31 1016 74 10000 2 160 16:18 10.12.2020
1328 Clear -31 1016 61 10000 0.66 143 15:24 10.12.2020
1329 Clear -28 1016 75 10000 1 0 14:46 10.12.2020
1330 Clear -26 1016 75 10000 0.52 146 14:21 10.12.2020
1331 Clear -24 1016 76 10000 0.41 232 12:24 10.12.2020
1332 Clear -26 1016 75 10000 2 190 10:59 10.12.2020
1333 Clear -17 1015 59 10000 1 0 08:44 10.12.2020
1334 Clear -17 1015 64 10000 2 0 07:34 10.12.2020
1335 Clear -16 1015 59 10000 1 0 06:33 10.12.2020
1336 Clear -24 1015 69 10000 1.17 302 02:51 10.12.2020
1337 Clear -25 1014 69 10000 2 140 01:56 10.12.2020
1338 Clear -26 1012 75 10000 3 170 23:49 09.12.2020
1339 Clear -25 1011 75 10000 1 0 20:41 09.12.2020
1340 Clear -25 1011 75 10000 1 0 20:20 09.12.2020
1341 Clear -25 1010 75 10000 1 0 18:58 09.12.2020
1342 Clear -24 1010 76 10000 1 0 17:36 09.12.2020
1343 Clear -24 1010 69 10000 1 0 16:40 09.12.2020
1344 Clear -25 1010 75 10000 2.77 282 16:20 09.12.2020
1345 Clear -22 1009 76 10000 1 0 14:51 09.12.2020
1346 Clear -26 1009 68 8000 2 140 14:27 09.12.2020
1347 Clear -21 1009 76 8000 1 0 13:46 09.12.2020
1348 Clouds -23 1009 69 6000 2 170 13:18 09.12.2020
1349 Clouds -23 1009 69 6000 2 170 12:43 09.12.2020
1350 Clouds -19 1009 77 6000 2 271 11:43 09.12.2020
1351 Snow -17 1008 70 6000 1 0 09:54 09.12.2020
1352 Clouds -18 1008 70 6000 1.46 250 08:42 09.12.2020
1353 Snow -19 1009 70 5000 1 0 06:56 09.12.2020
1354 Smoke -21 1010 63 4000 1 0 05:42 09.12.2020
1355 Smoke -27 1011 68 3000 2 0 02:57 09.12.2020
1356 Clear -31 1011 74 8000 1 0 00:52 09.12.2020
1357 Clear -33 1011 67 8000 1 0 23:36 08.12.2020
1358 Clear -29 1011 68 8000 0.52 217 22:27 08.12.2020
1359 Clear -29 1012 68 8000 0.89 252 20:48 08.12.2020
1360 Clear -28 1012 68 8000 1 0 19:31 08.12.2020
1361 Clear -30 1012 67 8000 1 0 18:41 08.12.2020
1362 Clear -29 1012 68 8000 1.04 311 17:20 08.12.2020
1363 Clear -30 1012 67 8000 2 160 15:25 08.12.2020
1364 Clear -27 1012 68 8000 1 0 13:53 08.12.2020
1365 Clouds -24 1012 69 8000 0.64 275 12:46 08.12.2020
1366 Clouds -25 1012 69 8000 0.91 261 11:59 08.12.2020
1367 Clouds -24 1012 69 8000 1 0 11:24 08.12.2020
1368 Clouds -24 1012 69 8000 1 0 10:41 08.12.2020
1369 Clouds -21 1012 70 8000 0.95 245 09:45 08.12.2020
1370 Clouds -21 1012 70 6000 1 0 07:40 08.12.2020
1371 Smoke -22 1013 69 5000 1.11 234 05:35 08.12.2020
1372 Smoke -34 1015 60 4000 1 0 02:29 08.12.2020
1373 Clear -33 1016 67 6000 1 0 00:44 08.12.2020
1374 Clear -33 1016 67 8000 1 0 23:36 07.12.2020
1375 Clear -32 1017 74 8000 1 0 22:21 07.12.2020
1376 Clear -32 1018 67 10000 1 0 21:38 07.12.2020
1377 Clear -33 1019 67 10000 2 190 19:27 07.12.2020
1378 Clear -33 1020 67 10000 0.82 141 17:57 07.12.2020
1379 Clear -31 1020 67 10000 1 0 17:20 07.12.2020
1380 Clear -31 1021 67 10000 0.93 157 16:37 07.12.2020
1381 Clear -28 1022 68 10000 1 0 15:24 07.12.2020
1382 Clear -31 1022 67 10000 2 160 14:31 07.12.2020
1383 Clear -30 1022 67 10000 0.65 128 13:36 07.12.2020
1384 Clear -29 1022 75 10000 2 160 12:28 07.12.2020
1385 Clear -28 1023 75 10000 1 0 11:42 07.12.2020
1386 Clear -23 1023 76 10000 0.49 197 10:32 07.12.2020
1387 Clear -20 1024 70 10000 1 0 08:57 07.12.2020
1388 Clear -21 1024 76 10000 2 320 07:38 07.12.2020
1389 Clear -23 1025 76 8000 0.63 266 05:27 07.12.2020
1390 Clear -27 1026 68 8000 1 0 03:45 07.12.2020
1391 Clear -32 1027 67 10000 2 160 00:39 07.12.2020
1392 Clear -32 1027 67 10000 2 170 22:52 06.12.2020
1393 Clear -30 1028 74 10000 1 0 21:44 06.12.2020
1394 Clear -30 1028 74 10000 1 0 21:44 06.12.2020
1395 Clouds -27 1029 75 10000 1 0 20:41 06.12.2020
1396 Clouds -28 1029 68 10000 1 0 20:19 06.12.2020
1397 Clouds -26 1029 68 10000 1 0 19:20 06.12.2020
1398 Clouds -27 1029 68 10000 1 0 17:28 06.12.2020
1399 Clouds -27 1029 75 10000 1 0 16:33 06.12.2020
1400 Clear -26 1030 75 10000 1 0 14:49 06.12.2020
1401 Clear -29 1030 68 10000 2 150 12:59 06.12.2020
1402 Clear -29 1030 68 10000 2 150 12:30 06.12.2020
1403 Clear -28 1030 68 10000 3 170 11:41 06.12.2020
1404 Clear -25 1030 75 10000 2 180 11:22 06.12.2020
1405 Clear -25 1030 75 10000 2 180 10:32 06.12.2020
1406 Clear -18 1029 70 10000 1 0 08:57 06.12.2020
1407 Clear -18 1029 77 10000 2 0 07:20 06.12.2020
1408 Clear -20 1029 83 10000 1 0 04:41 06.12.2020
1409 Clear -23 1027 83 10000 1 290 00:45 06.12.2020
1410 Clear -23 1027 83 10000 1 290 00:26 06.12.2020
1411 Clear -22 1027 76 10000 2.62 333 23:55 05.12.2020
1412 Clear -20 1026 76 10000 2 0 22:24 05.12.2020
1413 Clear -22 1026 76 10000 3 290 21:53 05.12.2020
1414 Clear -22 1026 76 10000 3 290 21:28 05.12.2020
1415 Clear -24 1024 76 6000 1 0 19:50 05.12.2020
1416 Clear -27 1024 75 10000 1 0 18:45 05.12.2020
1417 Clear -28 1024 68 10000 1 0 17:36 05.12.2020
1418 Clear -28 1023 68 10000 2 170 16:43 05.12.2020
1419 Clear -28 1023 68 10000 2 170 16:23 05.12.2020
1420 Clouds -27 1021 68 8000 1 0 14:30 05.12.2020
1421 Clouds -29 1020 75 8000 2 0 12:32 05.12.2020
1422 Clear -27 1018 75 8000 1 0 11:49 05.12.2020
1423 Clear -25 1018 75 8000 3 170 10:34 05.12.2020
1424 Clear -20 1016 70 6000 2.38 321 07:50 05.12.2020
1425 Clear -20 1016 70 6000 1.9 308 07:26 05.12.2020
1426 Clear -25 1017 75 6000 1.44 310 05:22 05.12.2020
1427 Smoke -32 1017 74 5000 1 0 23:56 04.12.2020
1428 Clear -31 1017 67 6000 1 0 22:41 04.12.2020
1429 Clear -31 1019 67 8000 1 0 20:30 04.12.2020
1430 Clear -32 1019 67 8000 1 0 18:53 04.12.2020
1431 Clear -32 1019 67 8000 0.66 132 18:21 04.12.2020
1432 Clear -30 1020 67 8000 0.66 132 17:41 04.12.2020
1433 Clear -31 1020 74 8000 1 0 15:54 04.12.2020
1434 Clear -28 1021 75 8000 2 130 15:18 04.12.2020
1435 Clear -30 1022 67 8000 2 180 13:35 04.12.2020
1436 Clear -29 1022 68 8000 1 0 12:55 04.12.2020
1437 Clear -28 1022 68 8000 2 180 11:41 04.12.2020
1438 Clear -28 1022 68 8000 1 0 10:30 04.12.2020
1439 Smoke -20 1023 76 5000 1 0 07:53 04.12.2020
1440 Smoke -21 1024 76 4000 1 0 06:40 04.12.2020
1441 Smoke -23 1025 69 4000 1.11 241 04:52 04.12.2020
1442 Clear -32 1027 67 6000 0.81 285 00:24 04.12.2020
1443 Clear -32 1028 74 8000 1 0 22:47 03.12.2020
1444 Clear -30 1029 67 8000 1 0 21:20 03.12.2020
1445 Clear -30 1029 67 8000 1 0 20:39 03.12.2020
1446 Clear -30 1030 67 10000 1.13 293 19:21 03.12.2020
1447 Clear -30 1030 67 10000 1.1 288 18:40 03.12.2020
1448 Clear -28 1031 75 10000 0.97 306 17:21 03.12.2020
1449 Clear -28 1031 75 10000 1.07 319 15:59 03.12.2020
1450 Clear -28 1031 75 10000 1.07 319 15:32 03.12.2020
1451 Clear -27 1032 75 10000 1.28 323 14:48 03.12.2020
1452 Clear -27 1032 75 10000 1.36 325 13:51 03.12.2020
1453 Clear -26 1032 68 10000 1 0 12:33 03.12.2020
1454 Clear -25 1032 75 10000 1 0 11:59 03.12.2020
1455 Clear -23 1032 76 10000 1 0 10:40 03.12.2020
1456 Clear -21 1032 83 10000 3 170 08:41 03.12.2020
1457 Mist -24 1035 69 2000 1.83 317 03:45 03.12.2020
1458 Mist -27 1035 75 2000 1.72 332 01:46 03.12.2020
1459 Mist -28 1034 75 3200 1.83 330 23:56 02.12.2020
1460 Clouds -29 1035 75 8000 1.83 334 22:45 02.12.2020
1461 Clouds -29 1035 68 8000 1.78 333 21:43 02.12.2020
1462 Clouds -28 1035 75 8000 1.94 330 20:49 02.12.2020
1463 Clouds -28 1035 75 8000 1.94 330 20:31 02.12.2020
1464 Clouds -29 1035 68 8000 1 0 19:40 02.12.2020
1465 Clouds -29 1035 68 8000 1 0 17:49 02.12.2020
1466 Clouds -30 1035 74 8000 1 0 17:30 02.12.2020
1467 Clear -27 1036 68 10000 1 0 15:43 02.12.2020
1468 Clear -26 1035 75 10000 1 0 13:26 02.12.2020
1469 Clear -25 1034 69 10000 1 0 11:30 02.12.2020
1470 Clear -23 1034 76 10000 1 0 10:24 02.12.2020
1471 Clear -21 1034 76 8000 2 290 07:42 02.12.2020
1472 Clouds -31 1033 67 8000 1 0 23:30 01.12.2020
1473 Clouds -31 1033 67 8000 1 0 22:20 01.12.2020
1474 Clouds -29 1033 68 8000 0.56 279 19:36 01.12.2020
1475 Clouds -29 1033 68 8000 0.56 279 19:36 01.12.2020
1476 Clouds -29 1033 68 8000 0.62 271 18:56 01.12.2020
1477 Clouds -32 1033 67 8000 0.64 273 16:47 01.12.2020
1478 Clouds -30 1033 67 8000 0.77 281 14:53 01.12.2020
1479 Clear -25 1033 69 10000 1 0 12:48 01.12.2020
1480 Clear -26 1033 75 10000 1 0 11:40 01.12.2020
1481 Clouds -24 1032 83 10000 1 0 10:53 01.12.2020
1482 Clouds -24 1032 83 10000 1 0 10:26 01.12.2020
1483 Clear -18 1032 84 10000 1.67 283 07:46 01.12.2020
1484 Clear -21 1033 76 10000 1 0 05:58 01.12.2020
1485 Clouds -29 1034 68 8000 1.22 292 01:33 01.12.2020
1486 Clouds -29 1033 75 8000 2 170 00:38 01.12.2020
1487 Clouds -25 1033 75 8000 1 0 23:20 30.11.2020
1488 Clouds -25 1033 75 8000 1 0 22:42 30.11.2020
1489 Clouds -24 1034 69 8000 1 0 22:22 30.11.2020
1490 Clouds -26 1034 75 8000 1.26 310 19:50 30.11.2020
1491 Clouds -26 1034 75 8000 1.26 310 19:31 30.11.2020
1492 Clouds -27 1034 68 8000 2 0 18:21 30.11.2020
1493 Clouds -26 1034 75 8000 1 0 17:46 30.11.2020
1494 Clouds -25 1034 69 8000 1 0 16:52 30.11.2020
1495 Clouds -29 1034 68 8000 1.23 313 14:48 30.11.2020
1496 Clear -28 1034 68 10000 1 0 13:55 30.11.2020
1497 Clear -28 1034 68 10000 1 0 12:59 30.11.2020
1498 Clear -24 1034 76 10000 1 0 12:25 30.11.2020
1499 Clear -24 1034 76 10000 1 0 11:34 30.11.2020
1500 Clear -23 1033 76 8000 1 0 10:24 30.11.2020
1501 Clear -21 1032 76 8000 1 0 08:52 30.11.2020
1502 Mist -29 1032 68 5000 1 0 01:28 30.11.2020
1503 Mist -25 1032 75 3000 1 0 23:28 29.11.2020
1504 Clear -26 1032 75 10000 1.17 320 21:44 29.11.2020
1505 Clear -26 1032 75 10000 1.17 320 21:44 29.11.2020
1506 Clear -26 1032 75 10000 1.06 315 21:25 29.11.2020
1507 Clear -29 1032 68 10000 0.95 305 19:19 29.11.2020
1508 Clear -28 1032 75 10000 0.94 303 17:34 29.11.2020
1509 Clear -28 1031 75 10000 1 0 14:22 29.11.2020
1510 Clear -26 1031 83 10000 0.99 318 12:45 29.11.2020
1511 Clear -25 1031 75 10000 2 190 11:37 29.11.2020
1512 Clear -18 1030 70 10000 1 0 08:53 29.11.2020
1513 Clear -18 1030 70 10000 1 0 08:34 29.11.2020
1514 Clouds -20 1031 83 6000 0.95 307 02:31 29.11.2020
1515 Clouds -21 1029 76 10000 1.27 320 22:59 28.11.2020
1516 Clouds -21 1029 76 10000 1.38 326 22:26 28.11.2020
1517 Clouds -23 1030 76 10000 1.6 331 19:59 28.11.2020
1518 Clouds -23 1030 76 10000 1.69 333 19:28 28.11.2020
1519 Clouds -24 1030 76 10000 1 0 18:57 28.11.2020
1520 Clouds -24 1030 76 10000 1 0 18:20 28.11.2020
1521 Clouds -26 1030 75 10000 1.66 329 16:57 28.11.2020
1522 Clear -26 1029 68 10000 2 60 14:58 28.11.2020
1523 Clear -26 1029 75 10000 1.9 333 13:54 28.11.2020
1524 Clear -23 1029 83 10000 1 0 11:27 28.11.2020
1525 Clear -20 1028 70 10000 2 0 09:26 28.11.2020
1526 Clouds -25 1030 75 8000 1 0 03:40 28.11.2020
1527 Clouds -30 1030 74 8000 1.01 335 01:53 28.11.2020
1528 Clouds -27 1031 75 8000 1 0 23:22 27.11.2020
1529 Clouds -27 1031 75 8000 1 0 22:33 27.11.2020
1530 Clouds -31 1032 74 6000 0.48 42 20:39 27.11.2020
1531 Clouds -30 1033 67 6000 1 0 19:34 27.11.2020
1532 Clouds -29 1034 68 6000 0.25 118 18:57 27.11.2020
1533 Clouds -29 1034 75 6000 0.43 140 16:51 27.11.2020
1534 Clear -28 1035 75 6000 1 0 14:45 27.11.2020
1535 Clear -28 1036 75 8000 2 0 13:20 27.11.2020
1536 Clear -28 1036 75 8000 2 0 12:47 27.11.2020
1537 Clear -26 1035 75 10000 2 170 11:34 27.11.2020
1538 Clear -25 1035 75 8000 2 170 10:44 27.11.2020
1539 Clear -22 1036 69 8000 1 0 09:51 27.11.2020
1540 Clear -29 1036 75 10000 1 0 23:39 26.11.2020
1541 Clouds -18 1049 88 10000 0.99 339 22:25 26.11.2020
1542 Clouds -18 1049 88 10000 0.99 339 21:46 26.11.2020
1543 Clear -25 1036 75 10000 1 0 20:43 26.11.2020
1544 Clear -24 1035 76 10000 1 0 18:37 26.11.2020
1545 Clear -24 1035 76 10000 1 0 17:31 26.11.2020
1546 Clear -20 1034 83 10000 1 0 14:24 26.11.2020
1547 Clear -19 1033 84 10000 1 0 12:58 26.11.2020
1548 Clear -19 1033 84 10000 1 0 12:39 26.11.2020
1549 Clear -16 1032 77 10000 2 0 11:20 26.11.2020
1550 Clear -16 1031 77 10000 3 280 10:23 26.11.2020
1551 Clear -14 1031 71 10000 3 270 09:37 26.11.2020
1552 Clear -13 1031 71 10000 4 290 08:58 26.11.2020
1553 Clear -13 1030 71 10000 5 320 08:34 26.11.2020
1554 Clouds -18 1029 84 10000 1.82 332 02:19 26.11.2020
1555 Clouds -17 1028 84 10000 1 0 22:30 25.11.2020
1556 Clouds -12 1028 85 6000 1 0 20:38 25.11.2020
1557 Clouds -12 1028 85 6000 1 0 19:26 25.11.2020
1558 Clouds -12 1028 85 5000 1 0 17:29 25.11.2020
1559 Clouds -13 1028 84 6000 1 0 15:47 25.11.2020
1560 Clouds -13 1028 84 6000 1 0 15:23 25.11.2020
1561 Clouds -11 1028 85 8000 1 0 13:46 25.11.2020
1562 Clouds -12 1028 85 8000 0.84 108 12:58 25.11.2020
1563 Clouds -13 1027 84 8000 3 170 11:26 25.11.2020
1564 Clouds -9 1027 85 5000 1 0 09:22 25.11.2020
1565 Clouds -9 1027 78 6000 1 0 08:50 25.11.2020
1566 Clouds -9 1027 78 8000 1 0 07:53 25.11.2020
1567 Clouds -12 1028 78 10000 1 0 03:54 25.11.2020
1568 Clouds -13 1028 84 10000 1 0 01:50 25.11.2020
1569 Clouds -11 1027 78 10000 2 260 00:21 25.11.2020
1570 Clouds -11 1027 78 10000 2 260 23:36 24.11.2020
1571 Clouds -10 1027 78 10000 1 0 22:41 24.11.2020
1572 Clouds -9 1027 78 10000 4 300 21:50 24.11.2020
1573 Clouds -9 1027 78 10000 4 300 21:27 24.11.2020
1574 Clouds -9 1027 85 10000 3 260 20:19 24.11.2020
1575 Clouds -9 1026 85 10000 2 260 17:47 24.11.2020
1576 Clouds -11 1026 85 10000 1 0 17:27 24.11.2020
1577 Clouds -10 1026 85 10000 1 0 16:38 24.11.2020
1578 Clouds -10 1025 85 10000 1 0 15:56 24.11.2020
1579 Clouds -11 1025 92 10000 1 0 15:20 24.11.2020
1580 Clouds -11 1025 85 10000 2 0 14:45 24.11.2020
1581 Clouds -12 1024 92 10000 2 0 13:56 24.11.2020
1582 Clouds -12 1024 85 10000 2 0 12:40 24.11.2020
1583 Clouds -10 1023 85 10000 2.19 343 12:20 24.11.2020
1584 Clouds -10 1023 85 10000 2.19 343 11:34 24.11.2020
1585 Clouds -10 1023 85 6000 2 180 10:25 24.11.2020
1586 Clouds -9 1022 85 6000 1 0 09:42 24.11.2020
1587 Clouds -9 1022 85 4000 2 160 09:21 24.11.2020
1588 Snow -8 1022 78 2000 2.11 318 06:50 24.11.2020
1589 Snow -12 1021 78 10000 1 0 01:24 24.11.2020
1590 Clouds -14 1021 84 10000 1.25 339 22:25 23.11.2020
1591 Clouds -14 1021 77 10000 1.25 339 21:33 23.11.2020
1592 Clouds -15 1022 84 10000 1.14 339 20:36 23.11.2020
1593 Clouds -15 1022 77 10000 1 0 20:18 23.11.2020
1594 Clear -19 1023 84 10000 1 0 17:58 23.11.2020
1595 Clear -19 1023 84 10000 1 0 17:19 23.11.2020
1596 Clear -21 1023 76 10000 1 0 15:33 23.11.2020
1597 Clear -18 1023 77 10000 1 0 14:37 23.11.2020
1598 Clear -18 1024 77 10000 1 0 12:41 23.11.2020
1599 Clear -18 1024 77 10000 1 0 12:21 23.11.2020
1600 Clear -19 1023 77 10000 2 160 11:43 23.11.2020
1601 Clear -12 1023 72 10000 1 0 10:45 23.11.2020
1602 Clear -10 1023 66 10000 2 250 09:31 23.11.2020
1603 Clear -9 1023 61 10000 1 0 08:37 23.11.2020
1604 Clear -10 1024 61 10000 2 220 06:57 23.11.2020
1605 Clouds -18 1025 77 10000 1 0 00:23 23.11.2020
1606 Clouds -16 1026 77 10000 2 320 22:46 22.11.2020
1607 Clear -17 1026 77 10000 1 0 21:37 22.11.2020
1608 Clear -21 1026 76 10000 1.35 334 20:43 22.11.2020
1609 Clear -21 1026 70 10000 1 0 19:52 22.11.2020
1610 Clouds -21 1027 76 10000 1 0 18:40 22.11.2020
1611 Clear -22 1027 76 10000 1 0 16:50 22.11.2020
1612 Clear -22 1027 76 10000 1 0 15:30 22.11.2020
1613 Clear -22 1027 76 10000 2 170 14:28 22.11.2020
1614 Clear -21 1027 70 10000 2 180 12:49 22.11.2020
1615 Clear -22 1027 76 10000 1 0 11:56 22.11.2020
1616 Clear -20 1026 70 10000 3 170 11:20 22.11.2020
1617 Clear -19 1026 70 10000 2 160 10:38 22.11.2020
1618 Clear -13 1025 55 10000 2 210 08:26 22.11.2020
1619 Clear -27 1027 68 8000 1 0 01:47 22.11.2020
1620 Clear -26 1028 75 10000 0.54 245 22:56 21.11.2020
1621 Clear -26 1028 75 10000 2 170 21:39 21.11.2020
1622 Clear -27 1029 68 10000 2 170 20:55 21.11.2020
1623 Clear -27 1029 68 10000 2 170 20:31 21.11.2020
1624 Clear -26 1030 75 10000 1 0 19:52 21.11.2020
1625 Clear -26 1030 75 10000 1 0 19:25 21.11.2020
1626 Clear -26 1031 75 10000 1 0 17:57 21.11.2020
1627 Clear -25 1031 75 10000 1 0 16:48 21.11.2020
1628 Clear -25 1031 69 10000 1 0 15:45 21.11.2020
1629 Clear -25 1031 75 10000 1 0 15:21 21.11.2020
1630 Clear -24 1032 76 10000 1 0 14:42 21.11.2020
1631 Clear -24 1031 76 10000 2 170 13:27 21.11.2020
1632 Clear -22 1031 76 10000 3 170 12:24 21.11.2020
1633 Clear -23 1031 69 10000 3 140 11:50 21.11.2020
1634 Clear -21 1031 76 10000 3 180 10:28 21.11.2020
1635 Clouds -15 1031 60 10000 1 0 09:22 21.11.2020
1636 Clouds -15 1031 60 10000 1 0 08:50 21.11.2020
1637 Clear -17 1032 70 10000 3 220 05:43 21.11.2020
1638 Clear -18 1032 77 10000 2.37 298 04:23 21.11.2020
1639 Clear -27 1030 68 10000 1.63 313 00:23 21.11.2020
1640 Clear -27 1030 75 10000 2 170 23:21 20.11.2020
1641 Clear -23 1030 76 10000 1.78 319 21:46 20.11.2020
1642 Clear -23 1030 76 10000 1.88 324 21:26 20.11.2020
1643 Clear -23 1030 76 10000 1.88 324 21:26 20.11.2020
1644 Clear -22 1030 83 10000 1.88 324 20:42 20.11.2020
1645 Clear -25 1030 75 10000 2 180 19:37 20.11.2020
1646 Clouds -21 1030 83 10000 1 0 18:28 20.11.2020
1647 Clouds -23 1030 83 10000 2 160 17:32 20.11.2020
1648 Clouds -25 1030 75 10000 2 160 16:48 20.11.2020
1649 Clouds -25 1030 75 10000 2 160 16:29 20.11.2020
1650 Clouds -21 1029 83 10000 1.63 315 15:47 20.11.2020
1651 Clear -25 1029 75 10000 2 0 14:18 20.11.2020
1652 Clear -23 1029 69 10000 3 160 13:22 20.11.2020
1653 Clear -23 1029 69 10000 3 160 12:58 20.11.2020
1654 Clear -24 1028 76 10000 2 160 11:55 20.11.2020
1655 Clear -23 1028 69 10000 2 160 11:35 20.11.2020
1656 Clear -15 1027 71 10000 3 310 09:56 20.11.2020
1657 Clear -13 1026 65 10000 4 320 08:32 20.11.2020
1658 Clear -13 1026 65 10000 4 300 07:51 20.11.2020
1659 Clear -14 1026 77 10000 5 300 05:19 20.11.2020
1660 Clouds -15 1023 77 10000 3 320 00:41 20.11.2020
1661 Clouds -13 1022 78 10000 6 340 22:30 19.11.2020
1662 Clouds -12 1022 72 10000 4 330 21:54 19.11.2020
1663 Clouds -11 1022 72 8000 4 350 20:58 19.11.2020
1664 Clouds -11 1021 72 8000 3 340 20:20 19.11.2020
1665 Clouds -11 1021 72 8000 3 340 19:27 19.11.2020
1666 Clouds -10 1020 78 6000 5 340 18:54 19.11.2020
1667 Clouds -10 1020 85 6000 4 330 17:27 19.11.2020
1668 Clouds -8 1019 78 6000 3 10 16:32 19.11.2020
1669 Clouds -8 1019 78 6000 3 20 15:29 19.11.2020
1670 Clouds -6 1018 85 5000 2 0 13:51 19.11.2020
1671 Snow -6 1018 85 5000 2 0 13:33 19.11.2020
1672 Clouds -6 1017 85 4000 1 0 12:52 19.11.2020
1673 Clouds -6 1017 85 4000 1 0 12:33 19.11.2020
1674 Clouds -6 1017 79 4000 3 130 11:40 19.11.2020
1675 Snow -6 1017 79 3000 4 130 11:21 19.11.2020
1676 Snow -6 1017 79 3200 3 120 10:31 19.11.2020
1677 Clouds -6 1016 79 3000 7 160 09:47 19.11.2020
1678 Clouds -6 1016 79 3000 7 160 09:27 19.11.2020
1679 Clouds -5 1016 73 3000 8 150 08:24 19.11.2020
1680 Clouds -5 1017 73 3000 8 140 07:35 19.11.2020
1681 Clouds -7 1018 67 10000 8 130 01:47 19.11.2020
1682 Clouds -7 1018 67 10000 8 130 00:32 19.11.2020
1683 Clouds -7 1018 67 10000 6 130 23:31 18.11.2020
1684 Clouds -7 1018 73 10000 7 130 22:58 18.11.2020
1685 Clouds -7 1019 73 10000 7 130 22:28 18.11.2020
1686 Clouds -7 1020 67 10000 5 140 21:43 18.11.2020
1687 Clouds -7 1020 67 10000 5 140 21:25 18.11.2020
1688 Clouds -7 1020 73 10000 7 140 20:32 18.11.2020
1689 Clouds -7 1020 73 10000 5 160 19:39 18.11.2020
1690 Clouds -6 1021 67 10000 5 170 18:58 18.11.2020
1691 Clouds -6 1021 67 10000 5 170 18:39 18.11.2020
1692 Clouds -6 1021 73 10000 4 170 17:44 18.11.2020
1693 Clouds -6 1021 73 10000 4 170 16:26 18.11.2020
1694 Clouds -5 1021 67 10000 4 170 15:57 18.11.2020
1695 Clouds -5 1021 67 10000 6 150 14:41 18.11.2020
1696 Clouds -5 1021 67 10000 5 160 13:47 18.11.2020
1697 Clouds -5 1020 67 10000 6 160 13:21 18.11.2020
1698 Clouds -4 1020 68 10000 5 160 12:42 18.11.2020
1699 Clouds -4 1019 68 10000 4 170 11:42 18.11.2020
1700 Clouds -4 1019 68 10000 4 170 11:42 18.11.2020
1701 Clouds -4 1019 68 10000 4 190 10:54 18.11.2020
1702 Clouds -3 1019 63 10000 5 180 10:27 18.11.2020
1703 Clouds -3 1019 68 10000 5 170 08:23 18.11.2020
1704 Clouds -2 1020 63 10000 2 0 06:37 18.11.2020
1705 Clouds -7 1020 85 10000 1.34 121 01:49 18.11.2020
1706 Clouds -7 1020 92 10000 1 0 00:18 18.11.2020
1707 Clouds -7 1020 92 10000 1.21 110 23:21 17.11.2020
1708 Clouds -6 1020 85 10000 1.24 120 22:29 17.11.2020
1709 Clouds -6 1020 85 10000 1 0 21:52 17.11.2020
1710 Clouds -6 1020 85 10000 1 0 21:31 17.11.2020
1711 Clouds -6 1020 92 10000 1 0 20:55 17.11.2020
1712 Clouds -6 1020 92 10000 1.24 130 20:27 17.11.2020
1713 Clouds -6 1020 92 10000 1 0 19:59 17.11.2020
1714 Clouds -6 1021 85 10000 1 0 18:35 17.11.2020
1715 Clouds -5 1021 79 10000 1.56 122 17:44 17.11.2020
1716 Clouds -5 1021 79 10000 1 0 16:55 17.11.2020
1717 Clouds -5 1021 79 10000 1.66 138 16:20 17.11.2020
1718 Clouds -5 1021 73 10000 1.66 138 15:42 17.11.2020
1719 Clouds -5 1021 79 10000 1.27 149 15:23 17.11.2020
1720 Clouds -5 1021 79 10000 1.27 149 14:56 17.11.2020
1721 Clouds -5 1020 73 10000 1.06 149 14:28 17.11.2020
1722 Clouds -5 1021 73 10000 1 0 13:36 17.11.2020
1723 Clouds -4 1020 73 10000 1 0 12:57 17.11.2020
1724 Clouds -4 1020 73 10000 1 0 12:38 17.11.2020
1725 Clouds -3 1020 73 10000 0.3 39 11:43 17.11.2020
1726 Clouds -3 1019 68 10000 2 300 10:49 17.11.2020
1727 Clouds -1 1019 63 10000 1 0 10:23 17.11.2020
1728 Clouds -1 1019 63 10000 1 0 09:50 17.11.2020
1729 Clouds -1 1019 63 10000 1 0 09:27 17.11.2020
1730 Clouds -1 1019 63 10000 1 0 08:22 17.11.2020
1731 Clouds -1 1019 63 10000 1 0 07:44 17.11.2020
1732 Clouds -2 1020 68 10000 2 0 05:21 17.11.2020
1733 Clouds -5 1020 85 10000 1 0 03:31 17.11.2020
1734 Clouds -9 1020 85 10000 2 180 02:31 17.11.2020
1735 Clouds -8 1018 92 10000 1 0 01:23 17.11.2020
1736 Clouds -8 1018 92 10000 1 0 00:42 17.11.2020
1737 Clouds -6 1017 85 10000 4 350 23:41 16.11.2020
1738 Clouds -8 1017 85 10000 2 350 23:22 16.11.2020
1739 Clear -6 1017 85 10000 4 350 22:37 16.11.2020
1740 Clouds -10 1017 85 10000 1 0 22:18 16.11.2020
1741 Clouds -10 1017 85 10000 1 0 21:43 16.11.2020
1742 Clouds -10 1017 85 10000 1 0 21:23 16.11.2020
1743 Clouds -7 1016 85 10000 2 350 20:27 16.11.2020
1744 Clouds -6 1016 79 10000 4 340 19:56 16.11.2020
1745 Clouds -6 1016 79 10000 4 340 19:32 16.11.2020
1746 Clouds -6 1016 79 10000 4 340 18:56 16.11.2020
1747 Clouds -6 1016 79 10000 3 340 18:28 16.11.2020
1748 Clouds -5 1015 79 10000 5 330 17:41 16.11.2020
1749 Clouds -5 1015 79 10000 5 330 17:19 16.11.2020
1750 Rain -4 1014 73 10000 6 350 16:51 16.11.2020
1751 Clouds -4 1014 73 10000 6 350 16:26 16.11.2020
1752 Rain -4 1014 73 10000 6 360 15:47 16.11.2020
1753 Clouds -4 1014 73 10000 6 360 15:28 16.11.2020
1754 Clouds -3 1014 68 10000 5 340 14:53 16.11.2020
1755 Rain -2 1013 68 10000 6 340 13:50 16.11.2020
1756 Rain -1 1012 63 10000 5 330 13:21 16.11.2020
1757 Rain -1 1012 63 10000 5 330 12:30 16.11.2020
1758 Clouds 0 1011 93 10000 4 330 11:43 16.11.2020
1759 Rain 0 1011 93 10000 4 350 11:22 16.11.2020
1760 Clouds 1 1011 55 10000 3 320 10:44 16.11.2020
1761 Clouds 1 1010 55 10000 4 330 10:26 16.11.2020
1762 Clouds 1 1010 55 10000 4 330 09:52 16.11.2020
1763 Clouds 1 1010 55 10000 4 330 09:34 16.11.2020
1764 Clouds 1 1011 55 10000 4 320 08:48 16.11.2020
1765 Clouds 2 1011 51 10000 3 310 08:19 16.11.2020
1766 Clouds 2 1012 51 8000 2 0 06:56 16.11.2020
1767 Clouds 2 1012 51 8000 2 0 06:38 16.11.2020
1768 Clouds 1 1013 50 8000 2 320 05:22 16.11.2020
1769 Clouds 1 1014 50 8000 1 0 03:54 16.11.2020
1770 Clouds 1 1014 50 8000 1 0 03:54 16.11.2020
1771 Clouds -2 1015 63 10000 1 0 01:44 16.11.2020
1772 Clouds -1 1015 58 10000 1 0 00:26 16.11.2020
1773 Clouds -2 1016 63 10000 1 0 23:29 15.11.2020
1774 Clouds -2 1016 63 10000 1 0 22:57 15.11.2020
1775 Clouds -2 1017 63 10000 2.33 102 22:22 15.11.2020
1776 Clouds -2 1018 63 10000 1 0 21:51 15.11.2020
1777 Clouds -2 1018 63 10000 2 50 21:27 15.11.2020
1778 Clear -4 1018 68 10000 2.45 106 20:48 15.11.2020
1779 Clear -4 1018 68 10000 2.68 114 20:28 15.11.2020
1780 Clear -2 1019 58 10000 3 320 19:54 15.11.2020
1781 Clear -2 1019 58 10000 3 320 19:36 15.11.2020
1782 Clouds 0 1019 93 10000 2 0 19:18 15.11.2020
1783 Clouds 0 1019 93 10000 2 0 18:41 15.11.2020
1784 Clouds 0 1019 93 10000 2 0 18:23 15.11.2020
1785 Clouds 0 1020 93 10000 3 340 17:47 15.11.2020
1786 Clouds 0 1020 92 10000 3 340 17:25 15.11.2020
1787 Clouds 0 1020 92 10000 3 340 16:52 15.11.2020
1788 Clouds -1 1021 50 10000 3 350 16:23 15.11.2020
1789 Clouds -1 1021 50 10000 3 350 15:57 15.11.2020
1790 Clouds -1 1021 50 10000 3 350 15:39 15.11.2020
1791 Clear 1 1021 43 10000 2 0 15:20 15.11.2020
1792 Clear 1 1021 43 10000 2 0 14:41 15.11.2020
1793 Clear 2 1022 37 10000 2 0 14:21 15.11.2020
1794 Clear 1 1022 40 10000 3 30 13:40 15.11.2020
1795 Clear 1 1021 40 10000 6 110 12:53 15.11.2020
1796 Clouds 2 1022 37 10000 4 110 12:26 15.11.2020
1797 Clouds 2 1022 37 10000 3 150 11:58 15.11.2020
1798 Clouds 2 1022 37 10000 3 150 11:40 15.11.2020
1799 Clouds 2 1023 40 10000 3 320 11:18 15.11.2020
1800 Clouds 2 1023 40 10000 3 320 10:46 15.11.2020
1801 Clouds 2 1023 40 10000 3 320 10:27 15.11.2020
1802 Clouds 3 1022 34 10000 4 140 09:45 15.11.2020
1803 Clouds 4 1023 32 10000 4 90 09:22 15.11.2020
1804 Clouds 4 1023 32 10000 4 90 08:53 15.11.2020
1805 Clouds 4 1023 32 10000 4 90 08:30 15.11.2020
1806 Clouds 1 1024 43 8000 3 30 07:43 15.11.2020
1807 Clouds -6 1027 73 6000 2.29 133 05:18 15.11.2020
1808 Rain -6 1027 73 6000 1 0 04:49 15.11.2020
1809 Clear -13 1026 84 10000 0.98 129 00:49 15.11.2020
1810 Clear -13 1026 84 10000 1.12 119 00:29 15.11.2020
1811 Clear -13 1026 84 10000 1 0 23:37 14.11.2020
1812 Clear -14 1026 84 10000 1 0 22:50 14.11.2020
1813 Clear -14 1026 84 10000 1 0 22:31 14.11.2020
1814 Clear -14 1026 84 10000 1 0 22:31 14.11.2020
1815 Clear -13 1026 84 10000 1 0 21:44 14.11.2020
1816 Clear -12 1026 85 10000 2 0 21:22 14.11.2020
1817 Clear -12 1026 85 10000 2 0 20:59 14.11.2020
1818 Clear -12 1026 85 10000 2 0 20:30 14.11.2020
1819 Clear -12 1025 85 10000 2 170 19:55 14.11.2020
1820 Clear -12 1025 85 10000 2 170 19:35 14.11.2020
1821 Clear -12 1025 85 10000 2 180 18:44 14.11.2020
1822 Clear -12 1025 85 10000 2 180 18:25 14.11.2020
1823 Clear -12 1025 85 10000 2 180 17:58 14.11.2020
1824 Clear -9 1024 85 10000 2 170 17:40 14.11.2020
1825 Clear -9 1024 85 10000 2 170 17:19 14.11.2020
1826 Clear -10 1024 85 10000 2 170 16:43 14.11.2020
1827 Clear -8 1024 85 10000 3 180 16:20 14.11.2020
1828 Clear -8 1024 85 10000 3 180 15:52 14.11.2020
1829 Clear -8 1024 85 10000 3 180 15:27 14.11.2020
1830 Clear -8 1024 78 10000 2 170 14:47 14.11.2020
1831 Clear -8 1024 78 10000 2 170 14:24 14.11.2020
1832 Clear -9 1023 78 10000 1 0 13:45 14.11.2020
1833 Clear -9 1023 78 10000 1 0 13:24 14.11.2020
1834 Clouds -6 1023 73 10000 1.55 339 12:48 14.11.2020
1835 Clouds -6 1023 73 10000 1.61 352 12:29 14.11.2020
1836 Clouds -4 1022 68 10000 1 0 11:46 14.11.2020
1837 Clouds -4 1022 68 10000 1 0 11:25 14.11.2020
1838 Clouds -2 1021 63 10000 2 310 10:49 14.11.2020
1839 Clouds -2 1021 63 10000 2 310 10:26 14.11.2020
1840 Clear 1 1020 47 10000 5 320 09:50 14.11.2020
1841 Clear 1 1020 47 10000 5 320 09:28 14.11.2020
1842 Clear 2 1019 43 10000 7 310 08:55 14.11.2020
1843 Clear 2 1019 43 10000 7 310 08:37 14.11.2020
1844 Clouds 3 1019 34 10000 7 320 07:50 14.11.2020
1845 Clouds 3 1019 34 10000 7 320 07:28 14.11.2020
1846 Clouds 3 1019 32 10000 5 300 06:32 14.11.2020
1847 Clouds 2 1019 34 10000 1 0 05:33 14.11.2020
1848 Clear -4 1019 53 10000 2.71 336 04:18 14.11.2020
1849 Clear -12 1017 72 10000 2 120 01:20 14.11.2020
1850 Clear -11 1017 72 10000 1 0 23:47 13.11.2020
1851 Clear -11 1017 72 10000 1 0 23:47 13.11.2020
1852 Clear -12 1016 78 10000 1 0 23:25 13.11.2020
1853 Clear -12 1016 78 10000 1 0 22:55 13.11.2020
1854 Clear -10 1016 66 10000 1.07 65 22:28 13.11.2020
1855 Clear -12 1017 72 10000 1 0 21:59 13.11.2020
1856 Clear -12 1017 72 10000 1 0 21:39 13.11.2020
1857 Clear -10 1017 72 10000 1 0 21:20 13.11.2020
1858 Clear -10 1017 72 10000 1 0 20:42 13.11.2020
1859 Clear -10 1017 66 10000 1 0 20:22 13.11.2020
1860 Clear -10 1017 66 10000 1 0 19:46 13.11.2020
1861 Clear -10 1017 66 10000 1 0 19:23 13.11.2020
1862 Clear -8 1017 61 10000 1 0 18:56 13.11.2020
1863 Clear -8 1017 61 10000 1 0 18:25 13.11.2020
1864 Clear -7 1017 62 10000 2 0 17:43 13.11.2020
1865 Clear -7 1017 62 10000 2 0 17:19 13.11.2020
1866 Clear -8 1018 61 10000 2 0 16:49 13.11.2020
1867 Clear -8 1018 61 10000 2 0 16:24 13.11.2020
1868 Clear -5 1018 53 10000 1 0 15:50 13.11.2020
1869 Clear -5 1018 53 10000 1 0 15:27 13.11.2020
1870 Clear -3 1019 49 10000 1 0 14:48 13.11.2020
1871 Clear -2 1018 42 10000 1 0 14:24 13.11.2020
1872 Clear -2 1018 42 10000 1 0 13:47 13.11.2020
1873 Clear -2 1018 42 10000 1 0 13:25 13.11.2020
1874 Clear 1 1018 29 10000 4 120 12:47 13.11.2020
1875 Clear 2 1018 27 10000 6 150 12:24 13.11.2020
1876 Clear 1 1017 29 10000 5 150 11:49 13.11.2020
1877 Clear 1 1017 29 10000 5 150 11:29 13.11.2020
1878 Clear 3 1018 25 10000 6 140 10:57 13.11.2020
1879 Clear 3 1018 25 10000 6 140 10:39 13.11.2020
1880 Clear 7 1017 19 10000 5 150 10:21 13.11.2020
1881 Clear 7 1017 19 10000 5 150 09:42 13.11.2020
1882 Clear 8 1018 19 10000 5 130 09:20 13.11.2020
1883 Clear 8 1018 19 10000 5 130 08:50 13.11.2020
1884 Clear 8 1018 19 10000 6 140 08:20 13.11.2020
1885 Clear 8 1018 19 10000 6 140 07:44 13.11.2020
1886 Clear 8 1018 19 10000 6 140 07:26 13.11.2020
1887 Clear 5 1019 25 10000 1 0 06:49 13.11.2020
1888 Clear 2 1020 29 10000 2.86 120 05:43 13.11.2020
1889 Clear -1 1021 42 10000 1 0 05:23 13.11.2020
1890 Clear -14 1022 77 10000 1 0 01:45 13.11.2020
1891 Clear -13 1022 78 10000 1 0 00:51 13.11.2020
1892 Clear -13 1022 78 10000 1 0 00:31 13.11.2020
1893 Clear -14 1023 77 10000 1 0 23:38 12.11.2020
1894 Clear -15 1023 77 10000 1 0 23:19 12.11.2020
1895 Clear -12 1023 78 10000 1 0 22:50 12.11.2020
1896 Clear -12 1023 78 10000 1 0 22:30 12.11.2020
1897 Clear -13 1023 84 10000 2.08 106 21:43 12.11.2020
1898 Clear -13 1023 84 10000 1.96 108 21:24 12.11.2020
1899 Clear -11 1024 72 10000 1.96 108 20:58 12.11.2020
1900 Clear -11 1024 72 10000 1.96 108 20:39 12.11.2020
1901 Clear -13 1024 78 10000 1 0 20:21 12.11.2020
1902 Clear -13 1024 78 10000 1 0 20:21 12.11.2020
1903 Clear -13 1024 78 10000 1 0 19:45 12.11.2020
1904 Clear -13 1024 78 10000 1 0 19:27 12.11.2020
1905 Clear -12 1024 72 10000 1 0 18:49 12.11.2020
1906 Clear -13 1024 78 10000 1.97 119 18:24 12.11.2020
1907 Clear -12 1024 72 10000 1.97 119 17:46 12.11.2020
1908 Clear -12 1025 78 10000 1 0 17:27 12.11.2020
1909 Clear -12 1025 72 10000 1.93 117 16:47 12.11.2020
1910 Clear -12 1025 72 10000 1.97 116 16:27 12.11.2020
1911 Clear -8 1025 67 10000 1 0 15:59 12.11.2020
1912 Clear -8 1025 67 10000 1 0 15:40 12.11.2020
1913 Clear -7 1025 62 10000 2 0 15:20 12.11.2020
1914 Clear -7 1025 62 10000 2 0 14:46 12.11.2020
1915 Clear -1 1025 36 10000 1.88 127 14:25 12.11.2020
1916 Clear -1 1025 36 10000 1.88 127 13:49 12.11.2020
1917 Clear -2 1025 42 10000 2 0 13:21 12.11.2020
1918 Clear -2 1025 42 10000 2 0 12:59 12.11.2020
1919 Clear -2 1025 42 10000 5 170 12:39 12.11.2020
1920 Clear -2 1025 42 10000 5 170 12:18 12.11.2020
1921 Clear -2 1025 42 10000 5 170 11:45 12.11.2020
1922 Clear -2 1025 42 10000 5 170 11:26 12.11.2020
1923 Clear -2 1025 39 10000 4 180 10:41 12.11.2020
1924 Clear -2 1025 39 10000 4 180 10:23 12.11.2020
1925 Clear 5 1025 21 10000 4 180 09:46 12.11.2020
1926 Clear 6 1025 22 10000 4 230 09:22 12.11.2020
1927 Clear 6 1025 22 10000 4 230 08:56 12.11.2020
1928 Clear 6 1025 22 10000 5 220 08:37 12.11.2020
1929 Clear 5 1025 25 10000 4 200 08:19 12.11.2020
1930 Clear 5 1026 25 10000 4 220 07:42 12.11.2020
1931 Clear 5 1026 25 10000 4 210 07:19 12.11.2020
1932 Clear 5 1026 25 10000 4 210 06:49 12.11.2020
1933 Clouds -3 1028 73 8000 2.41 148 05:23 12.11.2020
1934 Clear -11 1029 92 8000 1.89 135 03:21 12.11.2020
1935 Clear -13 1029 84 8000 1 0 01:33 12.11.2020
1936 Clear -16 1028 84 10000 1 0 23:58 11.11.2020
1937 Clear -14 1028 84 10000 1 0 23:25 11.11.2020
1938 Clear -14 1028 84 10000 2 0 22:58 11.11.2020
1939 Clear -15 1028 84 10000 1 0 22:39 11.11.2020
1940 Clear -11 1028 85 10000 2 0 22:19 11.11.2020
1941 Clear -11 1028 85 10000 2 0 21:41 11.11.2020
1942 Clear -11 1028 85 10000 2 0 21:23 11.11.2020
1943 Clear -11 1028 85 10000 1 0 20:57 11.11.2020
1944 Clear -12 1028 85 10000 2 0 20:39 11.11.2020
1945 Clear -12 1027 85 10000 1 0 20:20 11.11.2020
1946 Clear -12 1027 85 10000 1 0 19:48 11.11.2020
1947 Clear -12 1027 85 10000 1 0 19:30 11.11.2020
1948 Clear -11 1027 85 10000 3 170 18:53 11.11.2020
1949 Clear -11 1027 85 10000 3 170 18:33 11.11.2020
1950 Clear -8 1026 85 10000 1.49 309 17:42 11.11.2020
1951 Clear -7 1026 92 10000 2 0 17:23 11.11.2020
1952 Clear -7 1026 92 10000 2 0 16:54 11.11.2020
1953 Clear -7 1026 85 10000 3 330 16:32 11.11.2020
1954 Clear -5 1026 85 10000 2 280 15:50 11.11.2020
1955 Clear -5 1026 85 10000 2 280 15:27 11.11.2020
1956 Clear -4 1025 73 10000 2 270 14:56 11.11.2020
1957 Clear -4 1025 73 10000 2 270 14:35 11.11.2020
1958 Clear -3 1024 73 10000 3 340 13:57 11.11.2020
1959 Clear -4 1024 73 10000 3 340 13:35 11.11.2020
1960 Clear -2 1023 63 10000 2 340 12:48 11.11.2020
1961 Clouds 1 1022 50 10000 8 350 12:21 11.11.2020
1962 Clouds 1 1022 50 10000 8 350 11:49 11.11.2020
1963 Clouds 1 1022 50 10000 8 350 11:30 11.11.2020
1964 Clouds 1 1022 50 10000 8 350 11:30 11.11.2020
1965 Clear 4 1019 32 10000 7 320 10:43 11.11.2020
1966 Clear 4 1019 32 10000 7 320 10:24 11.11.2020
1967 Clear 5 1018 30 10000 6 310 09:49 11.11.2020
1968 Clear 5 1018 30 10000 6 310 09:28 11.11.2020
1969 Clear 5 1017 30 10000 8 280 08:49 11.11.2020
1970 Clear 5 1017 30 10000 8 280 08:29 11.11.2020
1971 Clouds 5 1017 27 10000 4 230 07:58 11.11.2020
1972 Clouds 5 1017 27 10000 2 0 07:39 11.11.2020
1973 Clouds 4 1017 32 10000 2 0 06:30 11.11.2020
1974 Clouds -2 1017 54 8000 1 0 04:47 11.11.2020
1975 Clouds -13 1016 84 8000 0.11 193 01:33 11.11.2020
1976 Clear -15 1016 84 10000 1 0 00:54 11.11.2020
1977 Clear -14 1016 84 10000 0.33 92 23:57 10.11.2020
1978 Clear -14 1016 84 10000 0.41 72 23:25 10.11.2020
1979 Clear -13 1016 84 10000 1 0 22:58 10.11.2020
1980 Clear -13 1016 78 10000 1 0 22:36 10.11.2020
1981 Clear -14 1016 84 10000 0.52 68 22:18 10.11.2020
1982 Clear -14 1016 84 10000 0.52 68 21:39 10.11.2020
1983 Clear -12 1017 85 10000 1 0 21:19 10.11.2020
1984 Clear -12 1017 85 10000 1 0 20:43 10.11.2020
1985 Clear -12 1016 85 10000 1 0 20:23 10.11.2020
1986 Clear -12 1016 85 10000 1 0 19:56 10.11.2020
1987 Clear -12 1016 85 10000 1 0 19:38 10.11.2020
1988 Clear -11 1016 78 10000 1 0 19:20 10.11.2020
1989 Clear -11 1016 78 10000 1 0 18:41 10.11.2020
1990 Clear -11 1017 78 10000 1 0 18:20 10.11.2020
1991 Clear -12 1017 85 10000 1 0 17:45 10.11.2020
1992 Clear -12 1017 85 10000 1 0 17:45 10.11.2020
1993 Clear -12 1017 85 10000 1 0 17:27 10.11.2020
1994 Clear -10 1017 72 10000 1 0 16:58 10.11.2020
1995 Clear -9 1017 66 10000 1 0 16:39 10.11.2020
1996 Clear -9 1017 72 10000 1 0 16:20 10.11.2020
1997 Clear -9 1017 72 10000 1 0 15:47 10.11.2020
1998 Clear -9 1017 72 10000 1 0 15:27 10.11.2020
1999 Clear -8 1016 67 10000 0.31 292 14:43 10.11.2020
2000 Clear -5 1016 57 10000 0.51 283 14:23 10.11.2020
2001 Clear -5 1016 57 10000 0.51 283 13:58 10.11.2020
2002 Clear -5 1016 57 10000 0.51 283 13:37 10.11.2020
2003 Clear -5 1016 57 10000 1 0 13:19 10.11.2020
2004 Clear -5 1016 57 10000 1 0 12:44 10.11.2020
2005 Clear -5 1016 57 10000 1 0 12:24 10.11.2020
2006 Clear -3 1016 49 10000 3 180 11:41 10.11.2020
2007 Clouds 0 1015 80 10000 2 210 11:21 10.11.2020
2008 Clouds 0 1015 80 10000 2 210 10:56 10.11.2020
2009 Clouds 0 1015 80 10000 2 210 10:36 10.11.2020
2010 Clouds 4 1015 29 10000 5 240 10:18 10.11.2020
2011 Clouds 4 1015 29 10000 5 240 09:41 10.11.2020
2012 Clouds 4 1015 29 10000 5 240 09:23 10.11.2020
2013 Clouds 6 1015 26 10000 3 230 08:52 10.11.2020
2014 Clouds 6 1015 26 10000 3 230 08:26 10.11.2020
2015 Clouds 5 1015 30 10000 2 0 07:44 10.11.2020
2016 Clouds 5 1015 30 10000 2 0 07:21 10.11.2020
2017 Clear 5 1015 30 10000 1 0 06:40 10.11.2020
2018 Clear 3 1016 37 8000 1 0 05:41 10.11.2020
2019 Clear 0 1017 73 8000 2.1 132 04:49 10.11.2020
2020 Clear -11 1017 85 8000 2.27 119 02:18 10.11.2020
2021 Clear -14 1017 84 10000 1 0 01:25 10.11.2020
2022 Clear -12 1017 78 10000 1 0 23:54 09.11.2020
2023 Clear -12 1017 85 10000 1 0 23:24 09.11.2020
2024 Clear -12 1017 85 10000 1 0 22:44 09.11.2020
2025 Clear -12 1017 85 10000 1 0 22:23 09.11.2020
2026 Clear -10 1018 85 10000 1 0 21:46 09.11.2020
2027 Clear -10 1018 85 10000 1 0 21:27 09.11.2020
2028 Clear -12 1018 78 10000 1 0 20:46 09.11.2020
2029 Clear -12 1018 78 10000 1 0 20:24 09.11.2020
2030 Clear -12 1018 78 10000 1 0 19:59 09.11.2020
2031 Clear -10 1018 85 10000 1 0 19:40 09.11.2020
2032 Clear -10 1019 78 10000 1 0 19:21 09.11.2020
2033 Clear -10 1019 78 10000 1 0 18:41 09.11.2020
2034 Clear -10 1019 78 10000 1 0 18:41 09.11.2020
2035 Clear -9 1019 85 10000 1 0 18:20 09.11.2020
2036 Clear -10 1019 72 10000 2.09 117 17:48 09.11.2020
2037 Clear -10 1019 72 10000 1.99 120 17:29 09.11.2020
2038 Clear -6 1020 73 10000 1 0 16:46 09.11.2020
2039 Clear -6 1020 73 10000 1 0 16:27 09.11.2020
2040 Clear -5 1020 73 10000 1 0 15:51 09.11.2020
2041 Clear -5 1020 73 10000 1 0 15:30 09.11.2020
2042 Clear -6 1020 73 10000 3 300 14:57 09.11.2020
2043 Clear -6 1020 73 10000 3 300 14:37 09.11.2020
2044 Clear -2 1020 63 10000 2.03 124 14:19 09.11.2020
2045 Clear 0 1020 85 10000 3 180 13:43 09.11.2020
2046 Clear 0 1020 85 10000 4 170 13:19 09.11.2020
2047 Clear 1 1020 47 10000 4 160 12:46 09.11.2020
2048 Clear -1 1020 54 10000 4 160 12:21 09.11.2020
2049 Clear -1 1020 54 10000 4 160 11:43 09.11.2020
2050 Clear -1 1020 54 10000 4 160 11:25 09.11.2020
2051 Clear 0 1020 84 10000 3 180 10:59 09.11.2020
2052 Clear 0 1020 84 10000 3 180 10:41 09.11.2020
2053 Clear 6 1020 30 10000 4 210 10:22 09.11.2020
2054 Clear 6 1020 30 10000 4 210 09:31 09.11.2020
2055 Clear 7 1020 30 10000 5 200 08:57 09.11.2020
2056 Clear 7 1020 30 10000 5 200 08:28 09.11.2020
2057 Clear 7 1021 30 10000 5 180 07:57 09.11.2020
2058 Clear 7 1021 30 10000 5 180 07:24 09.11.2020
2059 Clear 5 1021 35 10000 1 0 06:58 09.11.2020
2060 Clear 1 1023 47 10000 1 0 05:38 09.11.2020
2061 Clear -9 1024 85 8000 1.35 126 02:57 09.11.2020
2062 Clear -13 1025 84 8000 1.28 118 01:41 09.11.2020
2063 Clear -14 1025 77 10000 1 0 00:56 09.11.2020
2064 Clear -14 1025 84 10000 1 0 23:50 08.11.2020
2065 Clear -14 1025 84 10000 1 0 23:28 08.11.2020
2066 Clear -14 1025 77 10000 0.72 156 22:43 08.11.2020
2067 Clear -13 1026 84 10000 1 0 22:22 08.11.2020
2068 Clear -13 1026 84 10000 1 0 21:49 08.11.2020
2069 Clear -13 1026 84 10000 1 0 21:24 08.11.2020
2070 Clear -14 1027 77 10000 1 0 20:59 08.11.2020
2071 Clear -14 1027 77 10000 1 0 20:38 08.11.2020
2072 Clear -13 1027 78 10000 1 0 20:20 08.11.2020
2073 Clear -13 1027 78 10000 1 0 19:46 08.11.2020
2074 Clear -13 1027 78 10000 1 0 19:24 08.11.2020
2075 Clear -12 1027 85 10000 1 0 18:59 08.11.2020
2076 Clear -12 1027 85 10000 1 0 18:41 08.11.2020
2077 Clear -12 1027 85 10000 1 0 18:21 08.11.2020
2078 Clear -12 1027 85 10000 1 0 17:57 08.11.2020
2079 Clear -11 1027 78 10000 2 180 17:36 08.11.2020
2080 Clear -11 1028 78 10000 2 160 17:18 08.11.2020
2081 Clear -10 1028 78 10000 1 0 16:39 08.11.2020
2082 Clear -9 1028 72 10000 2 0 16:21 08.11.2020
2083 Clear -9 1028 72 10000 2 0 15:50 08.11.2020
2084 Clear -9 1028 72 10000 2 0 15:28 08.11.2020
2085 Clear -9 1028 78 10000 2 0 14:44 08.11.2020
2086 Clear -9 1028 78 10000 2 0 14:24 08.11.2020
2087 Clear -9 1028 78 10000 2 0 14:24 08.11.2020
2088 Clear -9 1028 78 10000 2 0 13:57 08.11.2020
2089 Clear -9 1028 78 10000 3 170 13:39 08.11.2020
2090 Clear -8 1028 72 10000 3 150 13:20 08.11.2020
2091 Clear -8 1028 72 10000 3 150 12:41 08.11.2020
2092 Clear -8 1028 67 10000 3 150 12:23 08.11.2020
2093 Clear -8 1028 67 10000 3 150 11:56 08.11.2020
2094 Clear -8 1028 67 10000 3 150 11:38 08.11.2020
2095 Clear -3 1028 49 10000 2 180 11:19 08.11.2020
2096 Clear 1 1028 37 10000 1 0 10:47 08.11.2020
2097 Clouds 2 1028 34 10000 2 170 10:18 08.11.2020
2098 Clouds 2 1028 34 10000 3 230 09:42 08.11.2020
2099 Clouds 2 1028 34 10000 3 230 09:24 08.11.2020
2100 Clear 1 1028 37 10000 2 0 08:47 08.11.2020
2101 Clear 1 1028 37 10000 2 0 08:47 08.11.2020
2102 Clear 1 1028 37 10000 2 0 08:27 08.11.2020
2103 Clear 1 1027 37 10000 2 0 07:53 08.11.2020
2104 Clear 1 1027 37 10000 2 0 07:33 08.11.2020
2105 Clear 1 1028 34 10000 1 0 06:45 08.11.2020
2106 Clear -1 1028 46 10000 1 0 05:55 08.11.2020
2107 Clear -7 1028 62 8000 1 0 04:54 08.11.2020
2108 Clear -9 1028 66 8000 1 0 03:27 08.11.2020
2109 Clear -16 1027 77 10000 0.27 2 01:20 08.11.2020
2110 Clear -17 1027 77 10000 0.29 356 00:49 08.11.2020
2111 Clear -17 1027 77 10000 1 0 00:20 08.11.2020
2112 Clear -17 1027 84 10000 0.26 59 23:40 07.11.2020
2113 Clear -17 1027 84 10000 0.44 65 23:22 07.11.2020
2114 Clear -17 1027 84 10000 0.44 65 22:40 07.11.2020
2115 Clear -15 1027 77 10000 0.45 71 22:21 07.11.2020
2116 Clear -15 1027 77 10000 0.45 71 21:44 07.11.2020
2117 Clear -15 1027 77 10000 0.4 80 21:21 07.11.2020
2118 Clear -17 1027 77 10000 0.4 80 20:50 07.11.2020
2119 Clear -17 1027 77 10000 0.4 80 20:31 07.11.2020
2120 Clear -16 1027 84 10000 1 0 19:51 07.11.2020
2121 Clear -16 1027 84 10000 1 0 19:29 07.11.2020
2122 Clear -16 1026 77 10000 1 0 18:58 07.11.2020
2123 Clear -16 1026 77 10000 1 0 18:38 07.11.2020
2124 Clear -16 1026 77 10000 1 0 18:18 07.11.2020
2125 Clear -15 1026 77 10000 1 0 17:38 07.11.2020
2126 Clear -15 1026 77 10000 1 0 16:58 07.11.2020
2127 Clear -14 1026 77 10000 1 0 16:40 07.11.2020
2128 Clear -14 1026 71 10000 2 140 16:21 07.11.2020
2129 Clear -14 1026 71 10000 2 140 15:43 07.11.2020
2130 Clear -15 1026 77 10000 1 0 15:23 07.11.2020
2131 Clear -13 1026 71 10000 1 0 14:48 07.11.2020
2132 Clear -13 1026 71 10000 1 0 14:29 07.11.2020
2133 Clear -10 1026 61 10000 1 0 13:59 07.11.2020
2134 Clear -10 1026 61 10000 1 0 13:31 07.11.2020
2135 Clear -13 1026 71 10000 3 170 12:58 07.11.2020
2136 Clear -12 1026 66 10000 2 160 12:30 07.11.2020
2137 Clear -10 1026 61 10000 1 0 11:45 07.11.2020
2138 Clear -4 1026 41 10000 3 350 11:24 07.11.2020
2139 Clear -4 1026 41 10000 3 350 10:46 07.11.2020
2140 Clear -4 1026 41 10000 3 350 10:28 07.11.2020
2141 Clear -3 1025 42 10000 4 360 09:58 07.11.2020
2142 Clear -3 1025 42 10000 4 360 09:37 07.11.2020
2143 Clear -3 1025 38 10000 5 330 08:58 07.11.2020
2144 Clear -3 1025 42 10000 4 350 08:37 07.11.2020
2145 Clear -3 1025 42 10000 4 330 08:18 07.11.2020
2146 Clear -3 1025 42 10000 4 330 07:32 07.11.2020
2147 Clear -3 1025 45 10000 4 340 06:48 07.11.2020
2148 Clear -4 1025 45 10000 5 310 05:37 07.11.2020
2149 Clear -8 1025 61 10000 1 0 03:25 07.11.2020
2150 Clear -15 1024 77 10000 2 120 01:44 07.11.2020
2151 Clear -15 1024 77 10000 2 120 01:25 07.11.2020
2152 Clear -13 1023 65 10000 2.64 314 00:27 07.11.2020
2153 Clear -16 1022 77 10000 2 0 23:25 06.11.2020
2154 Clouds -11 1022 66 10000 3.15 330 22:45 06.11.2020
2155 Clouds -11 1022 66 10000 3.15 330 22:45 06.11.2020
2156 Clouds -8 1021 57 10000 3 360 22:20 06.11.2020
2157 Clouds -8 1021 57 10000 3 360 21:56 06.11.2020
2158 Clouds -8 1021 57 10000 3 360 21:37 06.11.2020
2159 Clouds -8 1020 61 10000 4 340 21:18 06.11.2020
2160 Clouds -8 1020 61 10000 4 340 20:43 06.11.2020
2161 Clouds -7 1020 62 10000 5 20 20:19 06.11.2020
2162 Clouds -7 1020 62 10000 5 20 19:45 06.11.2020
2163 Clouds -7 1020 62 10000 5 20 19:26 06.11.2020
2164 Clouds -6 1019 73 10000 5 350 18:47 06.11.2020
2165 Clouds -6 1019 73 10000 5 350 18:26 06.11.2020
2166 Clouds -5 1018 67 10000 5 50 17:52 06.11.2020
2167 Clouds -5 1018 67 10000 5 50 17:31 06.11.2020
2168 Clouds -5 1018 67 10000 5 50 16:58 06.11.2020
2169 Clouds -3 1016 79 10000 7 350 16:33 06.11.2020
2170 Clouds -2 1015 68 10000 3 300 15:55 06.11.2020
2171 Clouds -2 1015 68 10000 3 300 15:33 06.11.2020
2172 Clouds -2 1014 63 10000 5 330 14:54 06.11.2020
2173 Clouds -2 1014 63 10000 5 330 14:28 06.11.2020
2174 Clouds -1 1012 39 10000 3 290 13:50 06.11.2020
2175 Clouds -1 1012 39 10000 3 290 13:26 06.11.2020
2176 Clouds -3 1011 45 10000 2 0 12:55 06.11.2020
2177 Clouds -3 1011 45 10000 2 0 12:36 06.11.2020
2178 Clouds -4 1010 45 10000 2 0 12:18 06.11.2020
2179 Clouds -4 1010 45 10000 2 0 11:36 06.11.2020
2180 Clouds 1 1010 29 10000 5 300 10:52 06.11.2020
2181 Clouds 1 1010 29 10000 5 300 10:32 06.11.2020
2182 Clouds 3 1009 25 10000 8 280 09:50 06.11.2020
2183 Clouds 3 1009 25 10000 8 280 09:28 06.11.2020
2184 Clouds 3 1009 27 10000 9 300 08:58 06.11.2020
2185 Clouds 2 1008 31 10000 5 290 08:40 06.11.2020
2186 Clouds 2 1009 40 10000 7 260 08:18 06.11.2020
2187 Clouds 3 1009 32 10000 6 270 07:40 06.11.2020
2188 Clouds 2 1009 40 10000 2 0 07:18 06.11.2020
2189 Clouds 2 1009 40 10000 2 0 07:18 06.11.2020
2190 Clouds 2 1009 40 10000 2 0 06:40 06.11.2020
2191 Clouds 1 1009 40 10000 6 270 05:37 06.11.2020
2192 Clouds -6 1007 62 10000 1 0 01:56 06.11.2020
2193 Clouds -6 1006 57 10000 2 0 00:24 06.11.2020
2194 Clouds -4 1005 53 10000 4.1 266 23:50 05.11.2020
2195 Clouds -5 1005 53 10000 1 0 23:20 05.11.2020
2196 Clouds -4 1005 49 10000 1 0 22:44 05.11.2020
2197 Clouds -9 1005 61 10000 2 0 22:25 05.11.2020
2198 Clouds -9 1005 61 10000 2 0 21:56 05.11.2020
2199 Clouds -9 1005 61 10000 2 0 21:38 05.11.2020
2200 Clouds -8 1005 57 10000 4 190 21:18 05.11.2020
2201 Clouds -8 1005 57 10000 4 190 20:42 05.11.2020
2202 Clouds -7 1006 52 10000 2 0 20:21 05.11.2020
2203 Clouds -7 1006 52 10000 2 0 19:44 05.11.2020
2204 Clouds -7 1006 52 10000 2 0 19:26 05.11.2020
2205 Clouds -6 1006 48 10000 2 0 18:56 05.11.2020
2206 Clouds -6 1006 48 10000 2 0 18:38 05.11.2020
2207 Clouds -6 1006 48 10000 2 0 18:20 05.11.2020
2208 Clouds -5 1006 45 10000 4 230 17:42 05.11.2020
2209 Clouds -5 1006 45 10000 4 230 17:23 05.11.2020
2210 Clouds -6 1006 48 10000 4 220 16:46 05.11.2020
2211 Clouds -6 1006 48 10000 4 220 16:26 05.11.2020
2212 Clouds -5 1007 45 10000 2 0 15:51 05.11.2020
2213 Clouds -5 1007 45 10000 2 0 15:27 05.11.2020
2214 Clouds -5 1007 45 10000 4 210 14:55 05.11.2020
2215 Clouds -4 1007 41 10000 5 210 14:36 05.11.2020
2216 Clouds -6 1008 48 10000 4 190 13:59 05.11.2020
2217 Clouds -7 1008 57 10000 5 190 13:39 05.11.2020
2218 Clouds -8 1008 57 10000 4 190 12:56 05.11.2020
2219 Clouds -8 1008 57 10000 4 190 12:37 05.11.2020
2220 Clouds -6 1008 48 10000 4 190 11:59 05.11.2020
2221 Clouds -6 1008 44 10000 4 210 11:41 05.11.2020
2222 Clouds -3 1008 38 10000 4 250 11:22 05.11.2020
2223 Clouds -3 1008 38 10000 4 250 10:47 05.11.2020
2224 Clouds -3 1008 38 10000 4 250 10:26 05.11.2020
2225 Clouds -2 1009 74 10000 3 200 09:49 05.11.2020
2226 Clouds -2 1009 74 10000 3 200 09:24 05.11.2020
2227 Clouds -2 1009 68 8000 4 270 08:49 05.11.2020
2228 Clouds -2 1009 68 8000 4 270 08:30 05.11.2020
2229 Clouds -3 1010 79 10000 3 280 07:46 05.11.2020
2230 Clouds -3 1010 79 10000 3 280 07:27 05.11.2020
2231 Clouds -2 1011 63 10000 5 280 06:42 05.11.2020
2232 Clouds -2 1011 63 10000 5 280 06:42 05.11.2020
2233 Clouds -2 1011 68 10000 5 280 05:55 05.11.2020
2234 Clouds -6 1010 85 10000 2 140 01:42 05.11.2020
2235 Clouds -5 1010 79 8000 1.43 261 00:35 05.11.2020
2236 Clouds -5 1009 79 10000 1 0 23:47 04.11.2020
2237 Clouds -5 1009 79 10000 1 0 23:27 04.11.2020
2238 Clouds -6 1009 79 10000 2 170 22:55 04.11.2020
2239 Clouds -6 1009 79 10000 2 170 22:36 04.11.2020
2240 Clouds -5 1010 73 10000 1 0 22:18 04.11.2020
2241 Clouds -5 1010 73 10000 1 0 21:43 04.11.2020
2242 Clouds -5 1010 73 10000 1 0 21:24 04.11.2020
2243 Clouds -6 1010 79 10000 1 0 20:46 04.11.2020
2244 Clouds -6 1010 79 10000 1 0 20:28 04.11.2020
2245 Clouds -6 1010 79 10000 1.31 72 19:50 04.11.2020
2246 Clouds -6 1010 79 10000 1.31 72 19:31 04.11.2020
2247 Clouds -6 1010 79 10000 1 0 18:58 04.11.2020
2248 Clouds -6 1010 79 10000 1 0 18:39 04.11.2020
2249 Clouds -6 1010 79 10000 1 0 18:39 04.11.2020
2250 Clouds -6 1010 79 10000 1 0 18:20 04.11.2020
2251 Clouds -6 1011 73 10000 2 170 17:45 04.11.2020
2252 Clouds -6 1011 73 10000 2 170 17:24 04.11.2020
2253 Rain -6 1011 73 10000 1.3 121 16:44 04.11.2020
2254 Clouds -7 1011 79 10000 1 0 16:24 04.11.2020
2255 Snow -7 1011 79 10000 1 0 15:55 04.11.2020
2256 Clouds -7 1011 79 10000 1 0 15:36 04.11.2020
2257 Clouds -8 1011 78 10000 1 0 15:18 04.11.2020
2258 Clouds -8 1011 78 10000 1 0 14:41 04.11.2020
2259 Clouds -9 1011 78 10000 1 0 14:23 04.11.2020
2260 Clouds -9 1011 78 10000 1 0 13:48 04.11.2020
2261 Clouds -4 1011 62 10000 1.04 135 13:21 04.11.2020
2262 Clouds -4 1011 62 10000 1.04 135 12:55 04.11.2020
2263 Clouds -3 1011 58 10000 1 0 12:37 04.11.2020
2264 Clouds -5 1011 67 10000 2 0 12:18 04.11.2020
2265 Clouds -5 1011 67 10000 2 0 11:42 04.11.2020
2266 Clouds -4 1011 62 10000 2 180 11:20 04.11.2020
2267 Clouds 1 1011 43 10000 1 0 10:47 04.11.2020
2268 Clouds 2 1011 37 10000 2 0 10:22 04.11.2020
2269 Clouds 2 1011 37 10000 2 0 09:53 04.11.2020
2270 Clouds 2 1011 37 10000 2 0 09:25 04.11.2020
2271 Clouds 2 1011 37 10000 2 0 08:47 04.11.2020
2272 Clouds 2 1011 37 10000 2 0 08:22 04.11.2020
2273 Clouds 2 1011 37 10000 2 0 07:55 04.11.2020
2274 Clouds 1 1012 40 10000 2 0 07:30 04.11.2020
2275 Clouds 0 1012 83 10000 3 250 06:55 04.11.2020
2276 Clouds 0 1012 83 10000 3 250 06:36 04.11.2020
2277 Clear -6 1014 67 8000 1.09 271 03:55 04.11.2020
2278 Clear -10 1015 85 8000 1 0 02:24 04.11.2020
2279 Clouds -13 1014 84 8000 1 0 00:57 04.11.2020
2280 Clear -15 1013 84 10000 2 0 23:48 03.11.2020
2281 Clear -15 1013 84 10000 2 0 23:24 03.11.2020
2282 Clear -15 1013 77 10000 1.42 344 22:42 03.11.2020
2283 Clear -15 1014 84 10000 2 170 22:21 03.11.2020
2284 Clear -15 1014 84 10000 2 170 21:59 03.11.2020
2285 Clear -15 1014 84 10000 2 170 21:40 03.11.2020
2286 Clear -14 1014 84 10000 1 0 21:21 03.11.2020
2287 Clear -14 1014 84 10000 1 0 20:45 03.11.2020
2288 Clear -14 1014 84 10000 1 0 20:26 03.11.2020
2289 Clear -12 1014 85 10000 1.51 340 19:44 03.11.2020
2290 Clear -12 1014 85 10000 1.51 340 19:44 03.11.2020
2291 Clear -13 1015 84 10000 1 0 19:23 03.11.2020
2292 Clear -13 1015 84 10000 1 0 19:23 03.11.2020
2293 Clear -13 1015 84 10000 1 0 18:46 03.11.2020
2294 Clear -12 1015 85 10000 2 0 18:21 03.11.2020
2295 Clear -12 1015 85 10000 2 0 17:59 03.11.2020
2296 Clear -12 1015 85 10000 2 0 17:41 03.11.2020
2297 Clear -12 1015 78 10000 1 0 17:22 03.11.2020
2298 Clear -12 1015 78 10000 1 0 16:45 03.11.2020
2299 Clear -12 1015 78 10000 1 0 16:45 03.11.2020
2300 Clear -12 1015 78 10000 1 0 16:23 03.11.2020
2301 Clear -10 1015 78 10000 1 0 15:46 03.11.2020
2302 Clear -9 1015 72 10000 2 0 15:25 03.11.2020
2303 Clear -9 1015 72 10000 2 0 14:52 03.11.2020
2304 Clear -9 1015 72 10000 1 0 14:33 03.11.2020
2305 Clear -7 1015 67 10000 2 130 13:46 03.11.2020
2306 Clear -7 1015 67 10000 2 130 13:23 03.11.2020
2307 Clouds -6 1015 67 10000 1 0 12:59 03.11.2020
2308 Clouds -5 1015 62 10000 2 0 12:37 03.11.2020
2309 Clouds -6 1015 67 10000 3 160 12:19 03.11.2020
2310 Clouds -4 1015 62 10000 2 170 11:41 03.11.2020
2311 Clouds 1 1015 34 10000 1 0 11:20 03.11.2020
2312 Clouds 2 1015 34 10000 1 0 10:39 03.11.2020
2313 Clouds 3 1015 32 10000 1 0 10:21 03.11.2020
2314 Clouds 3 1015 32 10000 1 0 09:52 03.11.2020
2315 Clouds 3 1015 32 10000 1 0 09:33 03.11.2020
2316 Clouds 3 1016 29 10000 1 0 08:56 03.11.2020
2317 Clouds 3 1016 29 10000 1 0 08:35 03.11.2020
2318 Clouds 4 1016 29 10000 2 0 07:54 03.11.2020
2319 Clouds 4 1016 29 10000 2 0 07:27 03.11.2020
2320 Clouds 2 1017 34 10000 1 0 06:51 03.11.2020
2321 Clouds -1 1018 46 10000 1 0 05:49 03.11.2020
2322 Clear -11 1021 78 8000 1.81 118 03:20 03.11.2020
2323 Clear -16 1021 84 10000 1.68 113 00:42 03.11.2020
2324 Clear -16 1022 77 10000 1.69 109 23:59 02.11.2020
2325 Clear -16 1022 77 10000 1.69 109 23:38 02.11.2020
2326 Clear -16 1022 84 10000 1 0 22:56 02.11.2020
2327 Clear -16 1022 84 10000 1 0 22:36 02.11.2020
2328 Clear -16 1023 84 10000 1 0 21:59 02.11.2020
2329 Clear -16 1023 84 10000 1 0 21:38 02.11.2020
2330 Clear -15 1024 77 10000 1.35 113 21:19 02.11.2020
2331 Clear -15 1024 77 10000 1.35 113 20:41 02.11.2020
2332 Clear -16 1024 84 10000 1.21 107 20:20 02.11.2020
2333 Clear -16 1024 84 10000 1.21 107 19:57 02.11.2020
2334 Clear -16 1024 84 10000 1.21 107 19:38 02.11.2020
2335 Clear -16 1025 84 10000 1.12 105 19:20 02.11.2020
2336 Clear -16 1025 84 10000 1.2 104 18:39 02.11.2020
2337 Clear -15 1025 84 10000 1 0 18:20 02.11.2020
2338 Clear -15 1025 84 10000 1 0 17:43 02.11.2020
2339 Clear -15 1025 84 10000 1 0 17:25 02.11.2020
2340 Clear -15 1025 84 10000 1 0 16:56 02.11.2020
2341 Clear -12 1025 78 10000 0.78 142 16:37 02.11.2020
2342 Clear -12 1025 78 10000 0.61 147 16:18 02.11.2020
2343 Clear -12 1025 85 10000 1 0 15:39 02.11.2020
2344 Clear -10 1025 72 10000 0.23 160 15:20 02.11.2020
2345 Clear -11 1025 78 10000 1 0 14:51 02.11.2020
2346 Clear -12 1025 78 10000 3 170 14:19 02.11.2020
2347 Clear -12 1025 78 10000 3 170 13:51 02.11.2020
2348 Clear -12 1025 85 10000 2 140 13:23 02.11.2020
2349 Clear -12 1025 85 10000 2 140 12:54 02.11.2020
2350 Clear -12 1025 85 10000 2 140 12:29 02.11.2020
2351 Clear -13 1025 78 10000 1 0 11:56 02.11.2020
2352 Clear -11 1025 72 10000 2 160 11:37 02.11.2020
2353 Clear -5 1025 57 10000 2 310 11:18 02.11.2020
2354 Clear -5 1025 57 10000 2 310 10:39 02.11.2020
2355 Clear -3 1025 53 10000 3 310 10:18 02.11.2020
2356 Clear -3 1025 53 10000 3 310 09:42 02.11.2020
2357 Clear -3 1025 53 10000 3 310 09:23 02.11.2020
2358 Clear -3 1025 45 10000 2 0 08:40 02.11.2020
2359 Clear -3 1026 45 10000 1 0 08:20 02.11.2020
2360 Clear -3 1026 45 10000 1 0 07:43 02.11.2020
2361 Clear -4 1026 49 10000 2 0 06:48 02.11.2020
2362 Clear -5 1026 49 10000 3 230 06:22 02.11.2020
2363 Clear -18 1027 84 10000 1 0 01:40 02.11.2020
2364 Clear -19 1027 77 10000 1 0 00:42 02.11.2020
2365 Clear -19 1027 77 10000 1 0 00:23 02.11.2020
2366 Clear -19 1027 84 10000 1 0 23:40 01.11.2020
2367 Clear -18 1027 77 10000 2 170 23:21 01.11.2020
2368 Clear -18 1027 77 10000 2 170 22:45 01.11.2020
2369 Clear -18 1027 77 10000 2 170 22:23 01.11.2020
2370 Clear -18 1027 77 10000 1 0 21:46 01.11.2020
2371 Clear -18 1027 77 10000 1 0 21:27 01.11.2020
2372 Clear -18 1027 77 10000 1 0 21:27 01.11.2020
2373 Clear -17 1027 77 10000 2 100 20:59 01.11.2020
2374 Clear -17 1027 77 10000 2 100 20:40 01.11.2020
2375 Clear -17 1027 77 10000 2 160 20:20 01.11.2020
2376 Clear -17 1027 77 10000 2 160 19:41 01.11.2020
2377 Clear -17 1027 77 10000 2 160 19:22 01.11.2020
2378 Clear -15 1027 77 10000 1 0 18:41 01.11.2020
2379 Clear -15 1027 77 10000 1 0 18:19 01.11.2020
2380 Clear -15 1027 77 10000 1 0 18:19 01.11.2020
2381 Clear -15 1027 77 10000 1 0 17:57 01.11.2020
2382 Clear -16 1027 77 10000 1 0 17:37 01.11.2020
2383 Clear -14 1027 77 10000 1 0 17:19 01.11.2020
2384 Clear -14 1027 77 10000 1 0 16:40 01.11.2020
2385 Clear -14 1027 77 10000 2 140 16:19 01.11.2020
2386 Clear -13 1026 78 10000 1 0 15:41 01.11.2020
2387 Clear -12 1026 78 10000 4.2 332 15:21 01.11.2020
2388 Clear -12 1026 78 10000 4.2 332 14:57 01.11.2020
2389 Clear -11 1026 78 10000 1 0 14:39 01.11.2020
2390 Clear -11 1026 78 10000 1 0 14:18 01.11.2020
2391 Clear -11 1026 78 10000 1 0 13:46 01.11.2020
2392 Clear -11 1026 78 10000 1 0 13:28 01.11.2020
2393 Clouds -9 1026 72 10000 3 360 12:43 01.11.2020
2394 Clouds -8 1025 67 10000 4 360 12:22 01.11.2020
2395 Clouds -8 1025 67 10000 4 360 11:50 01.11.2020
2396 Clouds -7 1025 62 10000 5 360 11:19 01.11.2020
2397 Clouds -7 1024 67 10000 5 10 10:43 01.11.2020
2398 Clouds -7 1024 67 10000 5 10 10:24 01.11.2020
2399 Clouds -7 1024 67 10000 6 350 09:53 01.11.2020
2400 Clouds -7 1024 67 10000 6 350 09:34 01.11.2020
2401 Clouds -5 1024 57 10000 5 360 08:46 01.11.2020
2402 Clouds -4 1023 58 10000 6 350 08:19 01.11.2020
2403 Clouds -4 1023 58 10000 6 350 07:39 01.11.2020
2404 Clouds -8 1023 78 10000 1 0 03:54 01.11.2020
2405 Clouds -12 1022 78 10000 2 170 01:49 01.11.2020
2406 Clouds -12 1021 85 10000 2.45 277 00:26 01.11.2020
2407 Clouds -13 1021 84 10000 2.28 270 23:25 31.10.2020
2408 Clouds -14 1020 77 10000 1 0 22:57 31.10.2020
2409 Clouds -14 1020 77 10000 1 0 22:37 31.10.2020
2410 Clouds -10 1021 78 10000 1.98 270 22:19 31.10.2020
2411 Clouds -10 1021 78 10000 1.98 270 21:43 31.10.2020
2412 Clouds -11 1021 78 10000 1 0 21:19 31.10.2020
2413 Clouds -11 1021 78 10000 1 0 20:38 31.10.2020
2414 Clear -10 1021 78 10000 1 0 20:18 31.10.2020
2415 Clear -10 1021 78 10000 1 0 19:41 31.10.2020
2416 Clear -10 1021 78 10000 1 0 19:22 31.10.2020
2417 Clear -12 1021 85 10000 2 0 18:47 31.10.2020
2418 Clear -12 1021 85 10000 2 0 18:24 31.10.2020
2419 Clear -11 1021 78 10000 1 0 17:40 31.10.2020
2420 Clear -11 1021 78 10000 1 0 17:22 31.10.2020
2421 Clear -12 1021 78 10000 1 0 16:43 31.10.2020
2422 Clear -12 1021 78 10000 1 0 16:25 31.10.2020
2423 Clear -12 1021 78 10000 1 0 16:25 31.10.2020
2424 Clear -12 1020 85 10000 2 170 15:45 31.10.2020
2425 Clear -12 1020 85 10000 2 170 15:24 31.10.2020
2426 Clouds -11 1020 78 10000 1 0 14:50 31.10.2020
2427 Clouds -11 1020 78 10000 1 0 14:31 31.10.2020
2428 Clouds -10 1020 78 10000 1.7 293 13:50 31.10.2020
2429 Clouds -10 1020 78 10000 1.62 308 13:26 31.10.2020
2430 Clouds -9 1020 72 10000 1 0 12:43 31.10.2020
2431 Clouds -5 1018 62 10000 2 340 11:51 31.10.2020
2432 Clouds -5 1018 62 10000 2 340 11:30 31.10.2020
2433 Clouds -4 1018 53 10000 2 340 10:59 31.10.2020
2434 Clouds -4 1018 53 10000 2 340 10:36 31.10.2020
2435 Clouds -2 1018 54 10000 5 320 09:47 31.10.2020
2436 Clouds -2 1018 54 10000 5 320 09:28 31.10.2020
2437 Clouds -2 1018 50 10000 7 300 08:47 31.10.2020
2438 Clouds -2 1017 50 10000 7 300 07:59 31.10.2020
2439 Clouds -2 1018 54 10000 4 310 07:27 31.10.2020
2440 Clouds -3 1018 58 10000 5 290 06:42 31.10.2020
2441 Clear -3 1018 58 10000 4 280 06:20 31.10.2020
2442 Clouds -5 1017 67 10000 1 0 03:46 31.10.2020
2443 Clouds -12 1016 85 10000 1 0 01:44 31.10.2020
2444 Clouds -12 1016 85 10000 1 0 00:47 31.10.2020
2445 Clouds -7 1016 85 10000 1 0 23:53 30.10.2020
2446 Clouds -7 1016 85 10000 1 0 23:27 30.10.2020
2447 Clouds -9 1016 92 10000 1 0 22:56 30.10.2020
2448 Clouds -10 1016 78 10000 1 0 22:28 30.10.2020
2449 Clouds -11 1016 85 10000 1 0 21:59 30.10.2020
2450 Clouds -11 1016 85 10000 1 0 21:40 30.10.2020
2451 Clouds -5 1017 79 10000 2 320 21:21 30.10.2020
2452 Clouds -5 1017 79 10000 2 320 20:43 30.10.2020
2453 Clouds -5 1017 79 10000 2 320 20:24 30.10.2020
2454 Clouds -5 1016 85 10000 4 300 19:53 30.10.2020
2455 Clouds -5 1016 85 10000 4 300 19:21 30.10.2020
2456 Clouds -3 1016 79 10000 5 280 18:52 30.10.2020
2457 Clouds -3 1016 79 10000 5 280 18:34 30.10.2020
2458 Clouds -3 1015 79 10000 7 330 17:57 30.10.2020
2459 Clouds -3 1015 79 10000 7 330 17:39 30.10.2020
2460 Clouds -3 1015 86 10000 4 290 17:20 30.10.2020
2461 Clouds -3 1015 86 10000 5 310 16:49 30.10.2020
2462 Clouds -3 1015 86 10000 4 310 16:19 30.10.2020
2463 Clouds -3 1014 86 10000 5 310 15:41 30.10.2020
2464 Clouds -2 1014 79 10000 7 310 15:20 30.10.2020
2465 Clouds -2 1013 86 10000 6 320 14:45 30.10.2020
2466 Clouds -2 1013 86 10000 6 320 14:26 30.10.2020
2467 Clouds -2 1013 92 10000 6 310 13:55 30.10.2020
2468 Clouds -1 1013 86 10000 4 270 13:37 30.10.2020
2469 Clouds -1 1013 86 10000 2 260 13:18 30.10.2020
2470 Clouds -1 1013 86 10000 4 290 12:24 30.10.2020
2471 Clouds -1 1013 86 10000 4 290 11:59 30.10.2020
2472 Clouds -1 1012 92 10000 4 310 11:40 30.10.2020
2473 Clouds -1 1012 92 2800 2 0 11:19 30.10.2020
2474 Snow -1 1012 92 2000 3 310 10:47 30.10.2020
2475 Clouds -1 1012 92 2000 3 310 10:23 30.10.2020
2476 Rain 0 1011 95 8000 7 330 09:45 30.10.2020
2477 Clouds 0 1011 95 8000 7 330 09:24 30.10.2020
2478 Rain 3 1011 40 10000 7 300 08:46 30.10.2020
2479 Rain 4 1011 41 10000 4 280 08:26 30.10.2020
2480 Clouds 4 1011 41 10000 4 280 07:50 30.10.2020
2481 Rain 4 1011 32 10000 2 270 07:31 30.10.2020
2482 Rain 3 1012 34 10000 3.16 304 06:40 30.10.2020
2483 Clouds 0 1012 56 10000 1 0 05:19 30.10.2020
2484 Clouds -3 1014 63 10000 1 0 02:28 30.10.2020
2485 Clouds -5 1015 67 10000 1 0 00:43 30.10.2020
2486 Clouds -6 1015 73 10000 1 0 23:50 29.10.2020
2487 Clouds -6 1015 73 10000 1 0 23:31 29.10.2020
2488 Clouds -6 1016 67 10000 1 0 22:59 29.10.2020
2489 Clouds -6 1016 67 10000 1 0 22:40 29.10.2020
2490 Clouds -5 1017 62 10000 1.05 93 22:22 29.10.2020
2491 Clouds -5 1017 62 10000 1.05 93 21:39 29.10.2020
2492 Clouds -5 1017 62 10000 1 0 21:20 29.10.2020
2493 Clouds -5 1017 62 10000 1 0 20:42 29.10.2020
2494 Rain -4 1018 58 10000 1 0 20:19 29.10.2020
2495 Clouds -4 1018 58 10000 1 0 19:43 29.10.2020
2496 Clouds -4 1018 58 10000 1 0 19:22 29.10.2020
2497 Clouds -6 1018 67 10000 1 0 18:55 29.10.2020
2498 Clouds -6 1018 67 10000 1 0 18:36 29.10.2020
2499 Clouds -6 1018 67 10000 1 0 18:18 29.10.2020
2500 Clouds -5 1018 62 10000 0.65 83 17:40 29.10.2020
2501 Clouds -5 1018 62 10000 1.09 106 17:20 29.10.2020
2502 Clouds -5 1018 57 10000 1 0 16:45 29.10.2020
2503 Clouds -5 1018 57 10000 1 98 16:20 29.10.2020
2504 Clouds -5 1018 57 10000 1 98 15:56 29.10.2020
2505 Clear -6 1019 57 10000 3 180 15:37 29.10.2020
2506 Clear -3 1018 49 10000 1.21 99 15:19 29.10.2020
2507 Clear -3 1018 49 10000 1.21 99 14:44 29.10.2020
2508 Clouds -3 1018 45 10000 3 120 14:23 29.10.2020
2509 Clouds -3 1018 45 10000 3 120 13:47 29.10.2020
2510 Clouds -3 1018 45 10000 3 120 13:27 29.10.2020
2511 Clouds -1 1018 42 10000 2 0 12:44 29.10.2020
2512 Clouds -2 1017 42 10000 3 160 12:20 29.10.2020
2513 Clouds -2 1017 42 10000 3 160 11:58 29.10.2020
2514 Clouds -2 1017 42 10000 3 160 11:39 29.10.2020
2515 Clouds -1 1017 39 10000 2 160 11:20 29.10.2020
2516 Clouds 3 1017 27 10000 4 180 10:37 29.10.2020
2517 Clouds 3 1017 27 10000 4 180 10:37 29.10.2020
2518 Clouds 3 1017 27 10000 4 180 10:37 29.10.2020
2519 Clouds 8 1017 19 10000 1 0 10:19 29.10.2020
2520 Clouds 8 1017 19 10000 1 0 09:50 29.10.2020
2521 Clouds 8 1017 19 10000 1 0 09:26 29.10.2020
2522 Clouds 8 1017 19 10000 4 230 08:46 29.10.2020
2523 Clouds 8 1017 19 10000 4 230 08:24 29.10.2020
2524 Clouds 8 1017 17 10000 3 230 07:51 29.10.2020
2525 Clouds 8 1017 17 10000 4 240 07:21 29.10.2020
2526 Clouds 8 1017 17 10000 3 240 06:53 29.10.2020
2527 Clear 3 1018 27 10000 1 0 04:50 29.10.2020
2528 Clear 1 1019 69 10000 1.86 116 02:32 29.10.2020
2529 Clear -1 1020 77 10000 1.84 109 00:45 29.10.2020
2530 Clear -1 1020 77 10000 2.13 109 00:23 29.10.2020
2531 Clear -1 1020 77 10000 2.13 109 23:43 28.10.2020
2532 Clear -1 1020 76 10000 1.92 115 23:20 28.10.2020
2533 Clear -1 1020 76 10000 1.92 115 22:44 28.10.2020
2534 Clear -9 1017 66 10000 2.04 122 22:25 28.10.2020
2535 Clear -9 1017 66 10000 2.04 122 21:45 28.10.2020
2536 Clear -9 1017 66 10000 2.22 122 21:26 28.10.2020
2537 Clear -10 1017 66 10000 1 0 20:59 28.10.2020
2538 Clear -10 1017 66 10000 1 0 20:40 28.10.2020
2539 Clear -6 1018 53 10000 1 0 20:18 28.10.2020
2540 Clear -6 1018 53 10000 1 0 19:45 28.10.2020
2541 Clear -6 1018 53 10000 1 0 19:26 28.10.2020
2542 Clear -6 1018 57 10000 1 0 18:43 28.10.2020
2543 Clear -5 1018 53 10000 1 0 18:20 28.10.2020
2544 Clear -5 1018 53 10000 1 0 17:44 28.10.2020
2545 Clear -5 1018 53 10000 1 0 17:22 28.10.2020
2546 Clear -5 1018 53 10000 1 0 16:49 28.10.2020
2547 Clear -5 1018 53 10000 1 0 16:29 28.10.2020
2548 Clear -4 1019 53 10000 2 270 15:45 28.10.2020
2549 Clear 0 1021 70 10000 2.41 118 15:20 28.10.2020
2550 Clear 0 1019 70 10000 1 0 14:53 28.10.2020
2551 Clear 0 1019 70 10000 1 0 14:32 28.10.2020
2552 Clear 1 1021 70 10000 2.4 119 13:59 28.10.2020
2553 Clear 1 1021 69 10000 2.38 120 12:38 28.10.2020
2554 Clear 1 1021 69 10000 2.38 120 12:38 28.10.2020
2555 Clear 1 1021 68 10000 2.39 123 12:20 28.10.2020
2556 Clear 1 1021 68 10000 2.39 123 11:43 28.10.2020
2557 Clear 2 1021 66 10000 2.31 125 11:22 28.10.2020
2558 Clear 10 1018 14 10000 3 240 10:57 28.10.2020
2559 Clear 10 1018 14 10000 3 240 10:57 28.10.2020
2560 Clear 10 1018 14 10000 3 240 10:39 28.10.2020
2561 Clear 11 1019 12 10000 4 230 10:21 28.10.2020
2562 Clear 11 1019 12 10000 4 230 09:38 28.10.2020
2563 Clear 11 1019 12 10000 4 230 09:38 28.10.2020
2564 Clear 11 1019 13 10000 4 240 09:20 28.10.2020
2565 Clear 11 1019 13 10000 4 240 08:47 28.10.2020
2566 Clear 11 1019 13 10000 4 240 08:25 28.10.2020
2567 Clear 11 1019 12 10000 6 210 07:48 28.10.2020
2568 Clear 11 1019 12 10000 6 210 07:30 28.10.2020
2569 Clear 11 1020 11 10000 5 220 06:40 28.10.2020
2570 Clear 7 1021 24 10000 2 0 05:51 28.10.2020
2571 Clear 5 1022 30 10000 2.36 150 04:53 28.10.2020
2572 Clear 2 1022 37 10000 1 0 04:25 28.10.2020
2573 Clear -6 1024 73 10000 1 0 02:25 28.10.2020
2574 Clear -11 1024 85 10000 1 0 01:29 28.10.2020
2575 Clear -12 1024 78 10000 1.71 105 23:54 27.10.2020
2576 Clear -11 1024 78 10000 1.52 105 23:26 27.10.2020
2577 Clear -12 1024 85 10000 1 0 22:57 27.10.2020
2578 Clear -12 1024 85 10000 1 0 22:38 27.10.2020
2579 Clear -11 1025 78 10000 1 0 22:19 27.10.2020
2580 Clear -11 1025 78 10000 1 0 22:19 27.10.2020
2581 Clear -11 1025 78 10000 1 0 21:55 27.10.2020
2582 Clear -11 1025 78 10000 1 0 21:37 27.10.2020
2583 Clear -11 1025 78 10000 1 0 21:37 27.10.2020
2584 Clear -11 1025 78 10000 1 0 21:37 27.10.2020
2585 Clear -11 1025 78 10000 1 0 21:37 27.10.2020
2586 Clear -12 1025 85 10000 1 0 21:18 27.10.2020
2587 Clear -11 1025 78 10000 1 0 20:41 27.10.2020
2588 Clear -12 1025 78 10000 1.13 119 20:22 27.10.2020
2589 Clear -10 1026 78 10000 1 0 19:39 27.10.2020
2590 Clear -10 1026 78 10000 1 0 19:21 27.10.2020
2591 Clear -10 1026 78 10000 0.91 115 18:58 27.10.2020
2592 Clear -10 1026 78 10000 0.91 115 18:40 27.10.2020
2593 Clear -10 1026 78 10000 0.82 136 18:19 27.10.2020
2594 Clear -10 1026 72 10000 0.82 136 17:43 27.10.2020
2595 Clear -10 1026 72 10000 1 0 17:21 27.10.2020
2596 Clear -9 1026 66 10000 1 0 16:49 27.10.2020
2597 Clear -9 1026 66 10000 1 0 16:30 27.10.2020
2598 Clear -6 1026 53 10000 1 0 15:55 27.10.2020
2599 Clear -6 1026 53 10000 1 0 15:37 27.10.2020
2600 Clear -7 1026 62 10000 1 0 15:18 27.10.2020
2601 Clear -5 1025 53 10000 1 0 14:42 27.10.2020
2602 Clear -5 1025 53 10000 1 0 14:23 27.10.2020
2603 Clear -5 1025 53 10000 1 0 13:46 27.10.2020
2604 Clear -6 1025 53 10000 1 0 13:22 27.10.2020
2605 Clear -6 1025 53 10000 1 0 12:40 27.10.2020
2606 Clear -2 1024 42 10000 1 0 12:22 27.10.2020
2607 Clear -2 1024 42 10000 1 0 11:42 27.10.2020
2608 Clear -1 1024 39 10000 2 250 11:23 27.10.2020
2609 Clear 3 1024 27 10000 3 280 10:47 27.10.2020
2610 Clear 3 1024 27 10000 3 280 10:29 27.10.2020
2611 Clear 5 1024 23 10000 2 240 09:47 27.10.2020
2612 Clear 5 1024 23 10000 2 240 09:26 27.10.2020
2613 Clear 5 1023 21 10000 2 0 08:41 27.10.2020
2614 Clear 4 1024 23 10000 2 0 08:22 27.10.2020
2615 Clear 4 1024 23 10000 2 0 07:46 27.10.2020
2616 Clear 4 1024 23 10000 2 0 07:28 27.10.2020
2617 Clear 2 1025 24 10000 3 200 06:38 27.10.2020
2618 Clear 2 1025 24 10000 3 220 06:19 27.10.2020
2619 Clear 2 1025 24 10000 3 220 05:41 27.10.2020
2620 Clear -2 1025 46 10000 1 0 04:50 27.10.2020
2621 Clear -6 1025 57 10000 1.14 269 02:34 27.10.2020
2622 Clear -12 1024 66 10000 1 278 00:58 27.10.2020
2623 Clear -13 1024 65 10000 1 0 23:46 26.10.2020
2624 Clear -13 1024 65 10000 1 0 23:26 26.10.2020
2625 Clear -12 1024 66 10000 1 0 22:49 26.10.2020
2626 Clear -12 1024 66 10000 1 0 22:27 26.10.2020
2627 Clear -13 1024 71 10000 1 0 21:50 26.10.2020
2628 Clear -13 1024 71 10000 1 0 21:50 26.10.2020
2629 Clear -10 1024 61 10000 1.19 272 21:21 26.10.2020
2630 Clear -10 1024 61 10000 1.19 272 20:58 26.10.2020
2631 Clear -10 1024 61 10000 1.19 272 20:39 26.10.2020
2632 Clear -11 1024 61 10000 1 0 20:19 26.10.2020
2633 Clear -11 1024 61 10000 1 0 19:47 26.10.2020
2634 Clear -11 1024 61 10000 1 0 19:24 26.10.2020
2635 Clear -11 1024 61 10000 1 0 18:45 26.10.2020
2636 Clear -11 1024 61 10000 1 0 18:25 26.10.2020
2637 Clear -11 1025 66 10000 1 0 17:59 26.10.2020
2638 Clear -9 1025 56 10000 1 0 17:39 26.10.2020
2639 Clear -10 1025 56 10000 1 0 17:21 26.10.2020
2640 Clear -10 1025 56 10000 1 0 16:43 26.10.2020
2641 Clear -8 1025 52 10000 1 0 16:21 26.10.2020
2642 Clear -8 1025 52 10000 1 0 15:43 26.10.2020
2643 Clear -8 1025 52 10000 1 0 15:24 26.10.2020
2644 Clear -9 1025 56 10000 2 160 14:53 26.10.2020
2645 Clear -9 1025 56 10000 2 160 14:34 26.10.2020
2646 Clouds -10 1025 66 10000 3 160 13:45 26.10.2020
2647 Clouds -10 1025 66 10000 3 160 13:25 26.10.2020
2648 Clouds -7 1025 52 10000 2 150 12:55 26.10.2020
2649 Clouds -7 1025 52 10000 2 150 12:32 26.10.2020
2650 Clouds -5 1025 49 10000 1 0 11:57 26.10.2020
2651 Clouds -5 1025 49 10000 1 0 11:39 26.10.2020
2652 Clouds -2 1025 46 10000 4 280 11:21 26.10.2020
2653 Clouds -2 1025 46 10000 4 280 10:48 26.10.2020
2654 Clouds -2 1025 46 10000 4 280 10:26 26.10.2020
2655 Clouds -1 1025 42 10000 5 290 09:55 26.10.2020
2656 Clouds -1 1025 42 10000 4 290 09:29 26.10.2020
2657 Clouds -1 1026 39 10000 7 310 08:54 26.10.2020
2658 Clouds -1 1026 39 10000 7 310 08:24 26.10.2020
2659 Clouds -2 1026 46 10000 4 310 07:38 26.10.2020
2660 Clouds -2 1026 46 10000 4 310 07:38 26.10.2020
2661 Clouds -2 1026 46 10000 4 310 07:38 26.10.2020
2662 Clouds -2 1027 42 10000 6 310 07:20 26.10.2020
2663 Clouds -4 1028 53 10000 4 330 05:31 26.10.2020
2664 Clouds -6 1028 67 10000 5 330 04:19 26.10.2020
2665 Clouds -6 1028 67 10000 5 330 03:21 26.10.2020
2666 Clouds -7 1028 73 10000 4 300 01:34 26.10.2020
2667 Clouds -6 1026 73 10000 6 320 00:35 26.10.2020
2668 Clouds -6 1026 79 10000 6 320 23:47 25.10.2020
2669 Clouds -6 1026 79 10000 6 320 23:28 25.10.2020
2670 Clouds -5 1025 73 10000 7 340 22:47 25.10.2020
2671 Clouds -5 1025 73 10000 7 340 22:28 25.10.2020
2672 Clouds -5 1023 79 10000 9 330 21:51 25.10.2020
2673 Clouds -5 1023 79 10000 9 330 21:31 25.10.2020
2674 Clouds -4 1022 79 10000 9 330 20:59 25.10.2020
2675 Clouds -4 1022 79 10000 9 330 20:41 25.10.2020
2676 Clouds -3 1021 79 10000 9 330 20:23 25.10.2020
2677 Clouds -3 1021 79 10000 9 330 19:55 25.10.2020
2678 Clouds -3 1021 79 10000 9 330 19:37 25.10.2020
2679 Clouds -2 1021 79 10000 6 310 19:18 25.10.2020
2680 Clouds -2 1021 79 10000 6 310 18:41 25.10.2020
2681 Clouds -2 1021 79 10000 6 310 18:41 25.10.2020
2682 Clouds -1 1020 80 10000 7 290 18:22 25.10.2020
2683 Clouds -1 1020 80 10000 7 290 17:55 25.10.2020
2684 Clouds -1 1020 74 10000 5 300 17:37 25.10.2020
2685 Clouds -1 1019 74 10000 6 300 17:18 25.10.2020
2686 Clouds -1 1019 74 10000 6 300 17:18 25.10.2020
2687 Clouds 1 1018 34 10000 8 290 16:43 25.10.2020
2688 Clouds 1 1018 34 10000 8 290 16:23 25.10.2020
2689 Clouds 2 1018 31 10000 9 270 15:47 25.10.2020
2690 Clouds 2 1018 31 10000 9 270 15:47 25.10.2020
2691 Clouds 2 1018 31 10000 9 270 15:26 25.10.2020
2692 Clouds 1 1017 22 10000 4 270 14:52 25.10.2020
2693 Clouds 1 1017 22 10000 4 270 14:29 25.10.2020
2694 Clouds 2 1017 29 10000 4 260 13:44 25.10.2020
2695 Clouds 1 1016 50 10000 1 0 13:23 25.10.2020
2696 Clouds 1 1016 50 10000 1 0 12:49 25.10.2020
2697 Clouds 1 1016 50 10000 1 0 12:27 25.10.2020
2698 Clouds 5 1015 38 10000 6 290 11:58 25.10.2020
2699 Clouds 5 1015 38 10000 6 290 11:40 25.10.2020
2700 Clouds 6 1015 38 10000 3 280 11:19 25.10.2020
2701 Clouds 8 1015 33 10000 5 290 10:45 25.10.2020
2702 Clouds 8 1015 33 10000 5 290 10:25 25.10.2020
2703 Clouds 8 1014 33 10000 6 280 09:50 25.10.2020
2704 Clear 9 1014 29 10000 6 290 09:21 25.10.2020
2705 Clear 9 1014 29 10000 6 290 08:56 25.10.2020
2706 Clear 9 1014 29 10000 6 290 08:37 25.10.2020
2707 Clear 8 1014 31 10000 4 280 08:19 25.10.2020
2708 Clear 8 1014 28 10000 3 230 07:42 25.10.2020
2709 Clear 8 1014 26 10000 2 0 06:52 25.10.2020
2710 Clear 7 1014 28 10000 3 230 06:19 25.10.2020
2711 Clear 6 1015 30 10000 1 0 05:18 25.10.2020
2712 Clear 1 1015 50 10000 1.45 198 04:20 25.10.2020
2713 Clear -9 1014 72 10000 1.64 126 02:21 25.10.2020
2714 Clear -7 1014 79 10000 1 0 00:52 25.10.2020
2715 Clear -7 1014 79 10000 1 0 00:26 25.10.2020
2716 Clear -7 1014 79 10000 1 0 23:54 24.10.2020
2717 Clear -7 1014 79 10000 1 0 23:29 24.10.2020
2718 Clear -6 1013 67 10000 2.09 111 22:58 24.10.2020
2719 Clear -6 1013 67 10000 2.09 111 22:39 24.10.2020
2720 Clear -7 1014 73 10000 1 0 22:21 24.10.2020
2721 Clear -7 1014 73 10000 1 0 21:43 24.10.2020
2722 Clear -5 1015 67 10000 1 0 21:21 24.10.2020
2723 Clear -5 1015 67 10000 1 0 20:50 24.10.2020
2724 Clear -5 1015 67 10000 1 0 20:27 24.10.2020
2725 Clear -5 1015 67 10000 2 280 19:58 24.10.2020
2726 Clear -5 1015 67 10000 2 280 19:40 24.10.2020
2727 Clear -5 1015 67 10000 2 280 19:22 24.10.2020
2728 Clear -5 1015 73 10000 1 0 18:47 24.10.2020
2729 Clear -5 1015 73 10000 1 0 18:27 24.10.2020
2730 Clear -4 1015 68 10000 2 280 17:42 24.10.2020
2731 Clear -4 1015 68 10000 1 0 17:22 24.10.2020
2732 Clear -4 1015 68 10000 1 0 16:47 24.10.2020
2733 Clear -2 1015 54 10000 2.09 114 16:28 24.10.2020
2734 Clear -2 1015 58 10000 1 0 15:41 24.10.2020
2735 Clear -2 1015 58 10000 1 0 15:20 24.10.2020
2736 Clear -2 1015 58 10000 1 0 14:56 24.10.2020
2737 Clear 0 1015 71 10000 2 300 14:29 24.10.2020
2738 Clear 1 1015 43 10000 2 140 13:50 24.10.2020
2739 Clear 1 1015 43 10000 2 140 13:31 24.10.2020
2740 Clear -1 1014 50 10000 4 170 12:58 24.10.2020
2741 Clouds -1 1014 50 10000 4 160 12:37 24.10.2020
2742 Clouds 1 1014 43 10000 3 150 12:19 24.10.2020
2743 Clouds 11 1014 21 10000 1.43 118 11:43 24.10.2020
2744 Clouds 11 1014 21 10000 1.09 120 11:18 24.10.2020
2745 Clouds 11 1014 20 10000 1 0 10:39 24.10.2020
2746 Clouds 12 1014 18 10000 1 0 10:18 24.10.2020
2747 Clouds 11 1014 20 10000 1 0 09:42 24.10.2020
2748 Clouds 11 1014 23 10000 1 0 09:22 24.10.2020
2749 Clouds 11 1014 23 10000 1 0 08:51 24.10.2020
2750 Clouds 8 1015 28 10000 1.16 118 08:18 24.10.2020
2751 Clouds 8 1015 28 10000 1.16 118 07:48 24.10.2020
2752 Clouds 7 1015 30 10000 1 0 07:19 24.10.2020
2753 Clouds 6 1016 30 10000 1 0 06:44 24.10.2020
2754 Clouds -1 1017 63 10000 1.24 109 04:45 24.10.2020
2755 Clouds -7 1017 79 10000 1 0 02:20 24.10.2020
2756 Clear -10 1017 85 10000 1.54 106 00:44 24.10.2020
2757 Clear -10 1017 85 10000 1 0 00:23 24.10.2020
2758 Clear -10 1017 85 10000 1 0 23:59 23.10.2020
2759 Clear -10 1017 78 10000 1 160 23:37 23.10.2020
2760 Clear -9 1017 78 10000 1.53 109 23:18 23.10.2020
2761 Clear -9 1017 78 10000 1.53 109 22:42 23.10.2020
2762 Clear -8 1017 78 10000 1 0 22:21 23.10.2020
2763 Clear -8 1017 78 10000 1 0 21:53 23.10.2020
2764 Clear -8 1017 78 10000 1 0 21:29 23.10.2020
2765 Clear -9 1017 85 10000 1.6 103 20:57 23.10.2020
2766 Clear -9 1017 85 10000 1.6 103 20:37 23.10.2020
2767 Clear -5 1017 73 10000 1 0 20:18 23.10.2020
2768 Clear -5 1017 73 10000 1 0 19:42 23.10.2020
2769 Clear -5 1017 73 10000 1 0 19:24 23.10.2020
2770 Clear -7 1018 73 10000 1.61 107 18:42 23.10.2020
2771 Clear -7 1018 73 10000 1.64 109 18:22 23.10.2020
2772 Clear -5 1017 67 10000 1.64 109 17:44 23.10.2020
2773 Clear -5 1017 67 10000 1.76 108 17:21 23.10.2020
2774 Clear -7 1017 73 10000 1 0 16:47 23.10.2020
2775 Clear -7 1017 73 10000 1 0 16:26 23.10.2020
2776 Clear -1 1017 54 10000 1 0 15:55 23.10.2020
2777 Clear -1 1017 54 10000 1 0 15:36 23.10.2020
2778 Clear 0 1016 77 10000 1 0 15:18 23.10.2020
2779 Clear 0 1016 77 10000 1 0 14:41 23.10.2020
2780 Clear 3 1016 34 10000 4 180 14:22 23.10.2020
2781 Clear 3 1016 34 10000 4 180 14:22 23.10.2020
2782 Clear 3 1016 34 10000 4 180 13:40 23.10.2020
2783 Clear 2 1015 40 10000 4 170 13:21 23.10.2020
2784 Clear 2 1015 40 10000 4 170 12:48 23.10.2020
2785 Clear 2 1015 40 10000 4 170 12:29 23.10.2020
2786 Clear 12 1015 20 10000 2 210 11:49 23.10.2020
2787 Clear 12 1015 20 10000 2 210 11:25 23.10.2020
2788 Clear 12 1015 20 10000 2 240 10:50 23.10.2020
2789 Clear 12 1015 20 10000 2 240 10:26 23.10.2020
2790 Clear 13 1015 17 10000 2 0 09:50 23.10.2020
2791 Clear 13 1015 17 10000 2 0 09:27 23.10.2020
2792 Clear 12 1016 18 10000 4 190 08:57 23.10.2020
2793 Clear 12 1016 18 10000 4 190 08:38 23.10.2020
2794 Clear 12 1016 22 10000 4 170 07:48 23.10.2020
2795 Clear 12 1016 22 10000 4 170 07:26 23.10.2020
2796 Clear 7 1017 30 10000 1 0 06:43 23.10.2020
2797 Clear 5 1018 32 10000 1 0 05:59 23.10.2020
2798 Clear -4 1019 73 10000 2.14 114 03:29 23.10.2020
2799 Clear -9 1019 85 10000 1 0 02:26 23.10.2020
2800 Clear -11 1019 78 10000 1 0 00:49 23.10.2020
2801 Clear -12 1019 85 10000 1 0 23:59 22.10.2020
2802 Clear -8 1019 78 10000 2.03 111 23:31 22.10.2020
2803 Clear -10 1018 85 10000 1 0 22:56 22.10.2020
2804 Clear -10 1019 85 10000 1 0 22:38 22.10.2020
2805 Clear -10 1019 85 10000 1 0 22:19 22.10.2020
2806 Clear -10 1019 85 10000 1 0 21:43 22.10.2020
2807 Clear -10 1019 78 10000 1 0 21:24 22.10.2020
2808 Clear -10 1019 78 10000 1 0 20:57 22.10.2020
2809 Clear -10 1019 78 10000 1 0 20:39 22.10.2020
2810 Clear -10 1019 78 10000 1 0 20:18 22.10.2020
2811 Clear -10 1019 85 10000 1 0 19:41 22.10.2020
2812 Clear -10 1019 85 10000 1 0 19:19 22.10.2020
2813 Clear -9 1020 85 10000 1 0 18:43 22.10.2020
2814 Clear -9 1020 85 10000 1 0 18:21 22.10.2020
2815 Clear -6 1020 79 10000 1.52 111 17:47 22.10.2020
2816 Clear -6 1020 79 10000 1.42 112 17:26 22.10.2020
2817 Clear -7 1020 73 10000 1.42 112 16:57 22.10.2020
2818 Clear -5 1020 73 10000 1.42 112 16:39 22.10.2020
2819 Clear -6 1020 73 10000 1 0 16:20 22.10.2020
2820 Clear -6 1020 73 10000 1 0 15:44 22.10.2020
2821 Clear -6 1020 73 10000 1 0 15:25 22.10.2020
2822 Clear -3 1020 63 10000 1 0 14:47 22.10.2020
2823 Clear -4 1020 68 10000 1 0 14:25 22.10.2020
2824 Clear -4 1020 68 10000 1 0 13:49 22.10.2020
2825 Clear -4 1020 68 10000 1 0 13:24 22.10.2020
2826 Clear -6 1019 73 10000 3 160 12:53 22.10.2020
2827 Clear -1 1019 54 10000 2 220 12:24 22.10.2020
2828 Clear 5 1019 32 10000 2 230 11:50 22.10.2020
2829 Clear 6 1020 30 10000 2 220 11:20 22.10.2020
2830 Clear 6 1020 33 10000 3 220 10:51 22.10.2020
2831 Clear 6 1020 33 10000 3 220 10:29 22.10.2020
2832 Clear 6 1020 33 10000 3 240 09:52 22.10.2020
2833 Clear 6 1020 33 10000 3 230 09:33 22.10.2020
2834 Clear 6 1020 33 10000 3 220 08:51 22.10.2020
2835 Clear 5 1020 35 10000 3 220 08:31 22.10.2020
2836 Clear 5 1020 35 10000 3 220 07:58 22.10.2020
2837 Clear 5 1021 32 10000 3 230 07:36 22.10.2020
2838 Clear 4 1021 35 10000 3 250 06:58 22.10.2020
2839 Clear 3 1022 40 10000 2 0 06:35 22.10.2020
2840 Clear 1 1022 43 10000 1 0 05:42 22.10.2020
2841 Clear -2 1023 58 10000 1 0 05:19 22.10.2020
2842 Clear -13 1023 78 10000 0.68 89 01:50 22.10.2020
2843 Clear -14 1023 84 10000 0.75 99 00:26 22.10.2020
2844 Clear -13 1023 84 10000 0.75 99 23:51 21.10.2020
2845 Clear -13 1023 84 10000 0.75 99 23:32 21.10.2020
2846 Clear -14 1024 84 10000 1 0 22:43 21.10.2020
2847 Clear -12 1024 85 10000 0.81 203 22:20 21.10.2020
2848 Clear -12 1024 85 10000 0.81 203 22:20 21.10.2020
2849 Clear -12 1024 85 10000 0.81 203 21:57 21.10.2020
2850 Clear -12 1024 85 10000 0.81 203 21:38 21.10.2020
2851 Clear -12 1024 85 10000 2 0 21:18 21.10.2020
2852 Clear -12 1024 85 10000 2 0 20:48 21.10.2020
2853 Clear -11 1024 85 10000 0.87 214 20:19 21.10.2020
2854 Clear -11 1024 85 10000 1.07 228 19:56 21.10.2020
2855 Clear -11 1024 85 10000 1.07 228 19:36 21.10.2020
2856 Clear -11 1024 85 10000 1.02 227 19:18 21.10.2020
2857 Clear -11 1024 78 10000 1 0 18:45 21.10.2020
2858 Clear -11 1024 78 10000 1 0 18:21 21.10.2020
2859 Clear -11 1024 78 10000 1 0 17:42 21.10.2020
2860 Clear -11 1024 78 10000 2 170 17:19 21.10.2020
2861 Clear -11 1024 78 10000 2 170 16:41 21.10.2020
2862 Clear -11 1024 78 10000 2 170 16:21 21.10.2020
2863 Clear -11 1024 78 10000 2 170 15:55 21.10.2020
2864 Clear -9 1023 78 10000 1 0 15:37 21.10.2020
2865 Clear -5 1023 62 10000 2 330 15:18 21.10.2020
2866 Clear -5 1023 62 10000 2 0 14:43 21.10.2020
2867 Clear -5 1023 62 10000 2 0 14:25 21.10.2020
2868 Clear -3 1022 58 10000 4 340 13:42 21.10.2020
2869 Clear -3 1022 58 10000 4 340 13:24 21.10.2020
2870 Clear -3 1022 58 10000 3 340 12:47 21.10.2020
2871 Clouds -2 1022 54 10000 5 340 12:24 21.10.2020
2872 Clouds -2 1022 54 10000 5 340 11:59 21.10.2020
2873 Clouds -1 1021 50 10000 5 340 11:40 21.10.2020
2874 Clouds -1 1021 50 10000 5 340 11:19 21.10.2020
2875 Clouds -1 1021 46 10000 7 340 10:41 21.10.2020
2876 Clouds -1 1021 46 10000 7 340 10:21 21.10.2020
2877 Clouds -1 1021 50 10000 6 340 09:51 21.10.2020
2878 Clouds 0 1020 76 10000 7 340 09:28 21.10.2020
2879 Clouds -1 1020 50 10000 7 340 08:42 21.10.2020
2880 Clouds -1 1020 50 10000 7 340 08:24 21.10.2020
2881 Clouds -1 1020 50 10000 7 350 07:58 21.10.2020
2882 Clouds -1 1020 50 10000 7 350 07:31 21.10.2020
2883 Clouds -2 1020 54 10000 6 340 06:50 21.10.2020
2884 Clouds -2 1020 54 10000 6 340 06:26 21.10.2020
2885 Clouds -7 1020 67 10000 1 0 04:46 21.10.2020
2886 Clouds -14 1018 77 10000 1 0 00:50 21.10.2020
2887 Clouds -13 1017 84 10000 1 0 23:42 20.10.2020
2888 Clouds -14 1017 77 10000 1 0 22:52 20.10.2020
2889 Clouds -14 1017 77 10000 1 0 22:27 20.10.2020
2890 Clouds -14 1017 77 10000 1 0 22:27 20.10.2020
2891 Clouds -15 1018 84 10000 2 150 21:48 20.10.2020
2892 Clear -15 1018 84 10000 2 150 21:20 20.10.2020
2893 Clear -13 1018 78 10000 1 0 20:44 20.10.2020
2894 Clear -13 1018 78 10000 1 0 20:25 20.10.2020
2895 Clear -13 1018 78 10000 1 0 20:25 20.10.2020
2896 Clear -13 1018 78 10000 1 0 20:25 20.10.2020
2897 Clear -12 1018 78 10000 1 0 19:57 20.10.2020
2898 Clear -12 1018 78 10000 1 0 19:39 20.10.2020
2899 Clear -13 1018 84 10000 3 180 19:21 20.10.2020
2900 Clear -12 1018 78 10000 2 160 18:46 20.10.2020
2901 Clear -12 1018 78 10000 2 160 18:26 20.10.2020
2902 Clear -13 1019 84 10000 1 0 17:43 20.10.2020
2903 Clear -12 1019 78 10000 2 180 17:24 20.10.2020
2904 Clear -9 1019 72 10000 2 290 16:48 20.10.2020
2905 Clear -9 1019 72 10000 2 290 16:26 20.10.2020
2906 Clear -11 1019 78 10000 2 190 15:50 20.10.2020
2907 Clear -11 1019 78 10000 2 190 15:32 20.10.2020
2908 Clear -9 1019 72 10000 2 300 14:56 20.10.2020
2909 Clear -8 1019 72 10000 3 280 14:37 20.10.2020
2910 Clouds -8 1019 67 10000 3 290 14:19 20.10.2020
2911 Clouds -8 1019 67 10000 3 290 13:42 20.10.2020
2912 Clouds -8 1019 67 10000 3 290 13:22 20.10.2020
2913 Clouds -6 1019 57 10000 6 320 12:54 20.10.2020
2914 Clouds -5 1019 57 10000 7 330 12:36 20.10.2020
2915 Clouds -5 1018 53 10000 9 340 12:18 20.10.2020
2916 Clouds -5 1018 49 10000 10 340 11:36 20.10.2020
2917 Clouds -5 1017 57 10000 10 330 11:18 20.10.2020
2918 Clouds -4 1017 53 10000 10 350 10:29 20.10.2020
2919 Clouds -4 1016 49 10000 9 340 09:51 20.10.2020
2920 Clouds -4 1016 53 10000 11 340 09:21 20.10.2020
2921 Clouds -4 1016 53 8000 11 340 08:58 20.10.2020
2922 Clouds -4 1015 58 8000 8 350 08:31 20.10.2020
2923 Clouds -4 1015 53 10000 9 350 07:51 20.10.2020
2924 Clouds -4 1015 53 10000 9 350 07:25 20.10.2020
2925 Clouds -4 1014 58 8000 10 350 06:29 20.10.2020
2926 Rain -5 1012 67 10000 11 340 05:22 20.10.2020
2927 Clouds -3 1009 73 10000 9 10 02:44 20.10.2020
2928 Clouds -3 1008 73 10000 9 360 02:18 20.10.2020
2929 Clouds -2 1008 74 10000 9 360 00:57 20.10.2020
2930 Clouds -2 1008 74 10000 9 360 00:39 20.10.2020
2931 Clouds -2 1008 74 10000 7 360 00:19 20.10.2020
2932 Clouds -2 1008 74 10000 6 10 23:40 19.10.2020
2933 Clouds -2 1008 74 10000 7 360 23:19 19.10.2020
2934 Clouds -3 1008 68 10000 2 360 22:42 19.10.2020
2935 Clouds -3 1008 68 10000 1 0 22:20 19.10.2020
2936 Clouds -3 1008 68 10000 1 0 21:42 19.10.2020
2937 Clouds -5 1008 73 10000 2 200 21:20 19.10.2020
2938 Clouds -7 1009 73 10000 2 140 20:45 19.10.2020
2939 Clouds -7 1009 73 10000 2 140 20:27 19.10.2020
2940 Clouds -4 1008 58 10000 1 0 19:47 19.10.2020
2941 Clouds -4 1008 58 10000 1 0 19:22 19.10.2020
2942 Clouds -5 1008 62 10000 2 150 18:53 19.10.2020
2943 Clouds -5 1008 62 10000 2 150 18:33 19.10.2020
2944 Clouds -6 1009 67 10000 2 150 17:57 19.10.2020
2945 Clouds -6 1009 67 10000 2.08 340 17:39 19.10.2020
2946 Clouds -5 1009 57 10000 1 0 17:20 19.10.2020
2947 Clouds -6 1009 62 10000 1 0 16:42 19.10.2020
2948 Clouds -6 1009 62 10000 1 0 16:21 19.10.2020
2949 Clouds 1 1012 73 10000 1.45 306 15:40 19.10.2020
2950 Clear 2 1011 72 10000 1.34 294 15:22 19.10.2020
2951 Clear 2 1011 72 10000 1.34 294 14:50 19.10.2020
2952 Clouds 2 1010 70 10000 1.22 292 14:24 19.10.2020
2953 Clouds 2 1010 71 10000 1.23 285 13:49 19.10.2020
2954 Clouds 2 1010 71 10000 1.23 285 13:31 19.10.2020
2955 Clouds 3 1009 66 10000 1.46 277 12:49 19.10.2020
2956 Clouds 3 1009 66 10000 1.46 277 12:31 19.10.2020
2957 Clouds 9 1009 21 10000 3 260 11:51 19.10.2020
2958 Clouds 9 1009 21 10000 3 260 11:25 19.10.2020
2959 Clouds 9 1009 21 10000 3 260 10:56 19.10.2020
2960 Clouds 10 1009 19 10000 3 250 10:36 19.10.2020
2961 Clouds 10 1009 19 10000 3 250 10:36 19.10.2020
2962 Clouds 10 1010 18 10000 2 0 10:18 19.10.2020
2963 Clouds 10 1010 18 10000 2 0 09:42 19.10.2020
2964 Clouds 10 1010 19 10000 1 0 09:19 19.10.2020
2965 Clouds 9 1011 23 10000 2 0 08:47 19.10.2020
2966 Clouds 9 1011 23 10000 1 0 08:21 19.10.2020
2967 Clouds 7 1012 26 10000 1.71 160 07:22 19.10.2020
2968 Clouds 7 1012 26 10000 1.71 160 06:51 19.10.2020
2969 Clouds 4 1012 35 10000 1 0 06:18 19.10.2020
2970 Clouds -3 1014 68 10000 1.74 113 03:47 19.10.2020
2971 Clouds -9 1013 78 10000 1 0 01:59 19.10.2020
2972 Clouds -11 1014 85 10000 1 0 00:44 19.10.2020
2973 Clouds -10 1014 85 10000 1 0 23:59 18.10.2020
2974 Clouds -10 1014 78 10000 1 0 23:41 18.10.2020
2975 Clouds -10 1014 78 10000 1 0 23:21 18.10.2020
2976 Clouds -9 1015 85 10000 1 0 22:45 18.10.2020
2977 Clouds -8 1015 78 10000 1 0 22:20 18.10.2020
2978 Clouds -8 1015 78 10000 1 0 21:50 18.10.2020
2979 Clouds -8 1015 78 10000 1 0 21:29 18.10.2020
2980 Clouds -9 1016 78 10000 1 0 20:56 18.10.2020
2981 Clouds -9 1016 78 10000 1 0 20:38 18.10.2020
2982 Clouds -8 1016 78 10000 1 0 20:19 18.10.2020
2983 Clouds -8 1016 78 10000 1 0 19:41 18.10.2020
2984 Clear -7 1017 79 10000 1 0 19:19 18.10.2020
2985 Clear -7 1017 79 10000 1 0 18:46 18.10.2020
2986 Clear -7 1017 79 10000 1 0 18:24 18.10.2020
2987 Clear -5 1017 79 10000 1 0 17:42 18.10.2020
2988 Clear -5 1017 79 10000 1 0 17:24 18.10.2020
2989 Clear -4 1017 73 10000 1 0 16:44 18.10.2020
2990 Clear -4 1017 73 10000 1 0 16:26 18.10.2020
2991 Clear -3 1017 63 10000 1.56 119 15:55 18.10.2020
2992 Clear -3 1017 63 10000 1.56 119 15:37 18.10.2020
2993 Clear -3 1018 58 10000 1 0 15:18 18.10.2020
2994 Clear -3 1018 58 10000 1 0 14:43 18.10.2020
2995 Clouds -1 1018 54 10000 2 0 14:25 18.10.2020
2996 Clouds 0 1018 73 10000 3 160 13:45 18.10.2020
2997 Clouds 0 1018 73 10000 3 160 13:26 18.10.2020
2998 Clouds -1 1018 54 10000 3 150 12:57 18.10.2020
2999 Clouds -1 1018 54 10000 3 150 12:39 18.10.2020
3000 Clouds 7 1018 30 10000 2 210 12:19 18.10.2020
3001 Clouds 8 1018 26 10000 3 230 11:40 18.10.2020
3002 Clouds 8 1018 26 10000 3 230 11:22 18.10.2020
3003 Clouds 9 1019 26 10000 4 240 10:40 18.10.2020
3004 Clouds 9 1019 26 10000 4 230 10:19 18.10.2020
3005 Clouds 9 1019 26 10000 4 230 09:47 18.10.2020
3006 Clouds 9 1019 26 10000 4 220 09:21 18.10.2020
3007 Clouds 9 1019 26 10000 4 220 08:56 18.10.2020
3008 Clouds 8 1019 28 10000 4 230 08:36 18.10.2020
3009 Clouds 8 1020 28 10000 3 210 08:18 18.10.2020
3010 Clouds 6 1022 35 10000 3 240 05:59 18.10.2020
3011 Clouds -2 1023 74 10000 0.72 168 03:58 18.10.2020
3012 Clear -6 1022 85 10000 1 0 02:54 18.10.2020
3013 Clear -10 1022 92 10000 2 160 01:36 18.10.2020
3014 Clear -10 1023 85 10000 1 0 00:46 18.10.2020
3015 Clear -10 1022 92 10000 1 0 00:24 18.10.2020
3016 Clear -9 1022 85 10000 1 0 23:42 17.10.2020
3017 Clear -9 1022 85 10000 1 0 23:21 17.10.2020
3018 Clear -9 1022 85 10000 1 0 22:57 17.10.2020
3019 Clear -9 1022 85 10000 1 0 22:39 17.10.2020
3020 Clouds -7 1023 79 10000 1 0 22:19 17.10.2020
3021 Clouds -7 1023 79 10000 1 0 21:43 17.10.2020
3022 Clouds -7 1023 79 10000 1 0 21:21 17.10.2020
3023 Clouds -7 1023 79 10000 1 0 20:46 17.10.2020
3024 Clear -7 1023 85 10000 1.03 223 20:21 17.10.2020
3025 Clear -7 1023 85 10000 0.79 220 19:46 17.10.2020
3026 Clear -7 1023 85 10000 0.8 206 19:24 17.10.2020
3027 Clear -7 1023 85 10000 0.8 206 18:47 17.10.2020
3028 Clear -7 1023 85 10000 0.77 200 18:29 17.10.2020
3029 Clear -7 1023 85 10000 0.77 200 17:59 17.10.2020
3030 Clear -6 1023 67 10000 0.77 200 17:39 17.10.2020
3031 Clear -2 1023 68 10000 0.66 208 17:20 17.10.2020
3032 Clear -2 1023 68 10000 0.66 208 16:48 17.10.2020
3033 Clear -2 1023 63 10000 1 0 16:22 17.10.2020
3034 Clear -2 1023 63 10000 1 0 15:43 17.10.2020
3035 Clear -2 1023 63 10000 1 0 15:23 17.10.2020
3036 Clear -2 1023 63 10000 1 0 14:59 17.10.2020
3037 Clear -2 1023 63 10000 1 0 14:38 17.10.2020
3038 Clouds -3 1023 68 10000 3 130 14:19 17.10.2020
3039 Clouds -2 1023 63 10000 1 0 13:47 17.10.2020
3040 Clouds -2 1023 63 10000 1 0 13:29 17.10.2020
3041 Clouds 3 1023 44 10000 3 270 12:59 17.10.2020
3042 Clouds 3 1023 44 10000 3 270 12:38 17.10.2020
3043 Clouds 6 1023 35 10000 4 270 12:19 17.10.2020
3044 Clouds 6 1023 35 10000 4 270 11:47 17.10.2020
3045 Clouds 7 1023 33 10000 5 310 11:22 17.10.2020
3046 Clouds 7 1023 33 10000 5 310 10:33 17.10.2020
3047 Clouds 8 1023 31 10000 6 290 09:52 17.10.2020
3048 Clouds 8 1023 31 10000 6 290 09:33 17.10.2020
3049 Clouds 8 1023 31 10000 5 300 08:58 17.10.2020
3050 Clouds 8 1023 31 10000 5 300 08:27 17.10.2020
3051 Clouds 7 1023 33 10000 2 0 07:46 17.10.2020
3052 Clouds 7 1024 36 10000 2 0 07:27 17.10.2020
3053 Clear 6 1024 38 10000 2 0 06:18 17.10.2020
3054 Clear -2 1023 74 10000 2.07 330 03:29 17.10.2020
3055 Clouds -5 1023 79 10000 1 0 02:26 17.10.2020
3056 Clouds -7 1022 85 10000 2 160 00:53 17.10.2020
3057 Clouds -7 1021 85 10000 1 0 23:58 16.10.2020
3058 Clouds -7 1021 85 10000 1 0 23:24 16.10.2020
3059 Clouds -5 1020 79 10000 2 140 22:46 16.10.2020
3060 Clouds -5 1020 79 10000 2 140 22:25 16.10.2020
3061 Clouds -5 1020 79 10000 1 0 21:57 16.10.2020
3062 Clouds -5 1020 79 10000 1 0 21:38 16.10.2020
3063 Clouds -6 1020 79 10000 1 0 21:20 16.10.2020
3064 Clouds -6 1020 79 10000 1 0 20:43 16.10.2020
3065 Clouds -6 1020 79 10000 1 0 20:24 16.10.2020
3066 Clouds -6 1020 79 10000 2 170 19:45 16.10.2020
3067 Clouds -6 1020 79 10000 2 170 19:26 16.10.2020
3068 Clouds -5 1019 73 10000 1 0 18:54 16.10.2020
3069 Clouds -5 1019 73 10000 1 0 18:33 16.10.2020
3070 Clouds -3 1018 63 10000 2 190 17:48 16.10.2020
3071 Clouds -3 1018 63 10000 2 190 17:29 16.10.2020
3072 Clouds -4 1018 68 10000 3 140 16:54 16.10.2020
3073 Clouds -4 1018 68 10000 3 140 16:36 16.10.2020
3074 Clouds -3 1018 63 10000 2 170 16:18 16.10.2020
3075 Clouds -3 1018 63 10000 2 170 15:24 16.10.2020
3076 Clouds -3 1017 63 10000 2 0 14:44 16.10.2020
3077 Clouds -1 1017 54 10000 3 160 14:20 16.10.2020
3078 Clouds -1 1017 54 10000 3 160 13:58 16.10.2020
3079 Clouds -1 1017 54 10000 3 160 13:39 16.10.2020
3080 Clouds 4 1016 32 10000 1 0 13:21 16.10.2020
3081 Clouds 6 1016 30 10000 1 0 12:50 16.10.2020
3082 Clouds 8 1016 26 10000 3 300 12:23 16.10.2020
3083 Clouds 8 1016 26 10000 3 300 11:49 16.10.2020
3084 Clouds 8 1016 26 10000 3 300 11:29 16.10.2020
3085 Clouds 9 1016 23 10000 6 300 10:58 16.10.2020
3086 Clouds 9 1016 23 10000 6 300 10:38 16.10.2020
3087 Clouds 9 1016 23 10000 6 310 10:20 16.10.2020
3088 Clouds 9 1016 23 10000 6 310 09:38 16.10.2020
3089 Clouds 7 1016 26 10000 4 310 09:20 16.10.2020
3090 Clouds 7 1016 26 10000 4 310 08:39 16.10.2020
3091 Clouds 7 1017 24 10000 4 270 08:18 16.10.2020
3092 Clouds 7 1017 24 10000 4 270 07:42 16.10.2020
3093 Clouds 5 1017 27 10000 3 230 06:56 16.10.2020
3094 Clouds 2 1018 43 10000 1 0 04:39 16.10.2020
3095 Clouds -2 1019 68 10000 2.24 256 03:50 16.10.2020
3096 Clouds -8 1019 78 10000 1.51 248 01:37 16.10.2020
3097 Clouds -9 1019 85 10000 1 0 00:33 16.10.2020
3098 Clouds -10 1020 85 10000 1 0 23:43 15.10.2020
3099 Clouds -7 1020 73 10000 1.49 233 23:21 15.10.2020
3100 Clouds -7 1020 73 10000 1.49 233 22:58 15.10.2020
3101 Clouds -7 1020 73 10000 1 0 22:39 15.10.2020
3102 Clear -8 1021 78 10000 1 0 22:20 15.10.2020
3103 Clear -8 1021 78 10000 1 0 21:39 15.10.2020
3104 Clear -6 1022 79 10000 1.52 224 21:20 15.10.2020
3105 Clear -6 1022 79 10000 1.52 224 20:47 15.10.2020
3106 Clear -5 1022 67 10000 1 0 20:22 15.10.2020
3107 Clear -5 1022 67 10000 1 0 19:48 15.10.2020
3108 Clear -5 1022 67 10000 1 0 19:28 15.10.2020
3109 Clear -3 1022 63 10000 2 0 18:59 15.10.2020
3110 Clear -6 1023 67 10000 1 0 18:39 15.10.2020
3111 Clear -5 1023 67 10000 1 0 18:20 15.10.2020
3112 Clear -5 1023 67 10000 1 0 17:44 15.10.2020
3113 Clear -4 1023 62 10000 3 170 17:23 15.10.2020
3114 Clear -4 1023 62 10000 3 170 16:46 15.10.2020
3115 Clear -4 1023 62 10000 3 170 16:25 15.10.2020
3116 Clear -4 1024 68 10000 4 180 15:56 15.10.2020
3117 Clear -3 1024 63 10000 4 180 15:37 15.10.2020
3118 Clear -3 1024 63 10000 4 180 15:18 15.10.2020
3119 Clear -2 1024 58 10000 3 190 14:38 15.10.2020
3120 Clear -4 1024 68 10000 3 210 14:20 15.10.2020
3121 Clear -4 1024 68 10000 3 210 13:41 15.10.2020
3122 Clouds -2 1024 54 10000 3 230 13:20 15.10.2020
3123 Clouds 4 1024 32 10000 4 260 12:44 15.10.2020
3124 Clouds 4 1024 32 10000 4 260 12:44 15.10.2020
3125 Clouds 4 1024 32 10000 4 260 12:26 15.10.2020
3126 Clouds 5 1024 32 10000 4 270 11:48 15.10.2020
3127 Clouds 6 1024 30 10000 6 290 11:20 15.10.2020
3128 Clouds 4 1024 35 10000 6 270 10:51 15.10.2020
3129 Clouds 4 1024 35 10000 6 270 10:32 15.10.2020
3130 Clouds 5 1025 32 10000 5 270 09:41 15.10.2020
3131 Clouds 5 1025 32 10000 6 240 09:21 15.10.2020
3132 Clouds 5 1025 32 10000 6 240 08:56 15.10.2020
3133 Clouds 5 1025 32 10000 6 240 08:33 15.10.2020
3134 Clouds 5 1025 32 10000 6 240 08:33 15.10.2020
3135 Clouds 6 1026 28 10000 4 240 07:54 15.10.2020
3136 Clear 3 1027 34 10000 3 230 06:45 15.10.2020
3137 Clouds -1 1028 50 10000 1 0 04:52 15.10.2020
3138 Clear -6 1027 73 10000 1.01 295 02:54 15.10.2020
3139 Clouds -11 1026 78 10000 1 0 01:40 15.10.2020
3140 Clouds -11 1026 78 10000 1 0 00:31 15.10.2020
3141 Clouds -9 1026 78 10000 1.33 345 23:59 14.10.2020
3142 Clouds -9 1026 78 10000 1.33 345 23:39 14.10.2020
3143 Clouds -10 1026 78 10000 2 170 23:19 14.10.2020
3144 Clouds -10 1026 78 10000 2 170 22:43 14.10.2020
3145 Clouds -10 1026 78 10000 2 170 22:25 14.10.2020
3146 Clouds -9 1026 78 10000 1 0 21:45 14.10.2020
3147 Clouds -11 1025 85 10000 2 150 21:23 14.10.2020
3148 Clouds -11 1025 85 10000 2 150 20:57 14.10.2020
3149 Clouds -11 1025 85 10000 2 150 20:38 14.10.2020
3150 Clouds -8 1025 72 10000 1 0 20:18 14.10.2020
3151 Clouds -8 1025 72 10000 1 0 19:44 14.10.2020
3152 Clouds -8 1025 72 10000 1 0 19:22 14.10.2020
3153 Clouds -8 1025 78 10000 2 170 18:42 14.10.2020
3154 Clouds -8 1025 78 10000 2 170 18:22 14.10.2020
3155 Clouds -10 1025 78 10000 2 130 17:47 14.10.2020
3156 Clouds -8 1024 72 10000 1.57 344 17:21 14.10.2020
3157 Clouds -8 1024 72 10000 1.57 344 16:50 14.10.2020
3158 Clear -6 1024 67 10000 1 0 16:23 14.10.2020
3159 Clear -6 1024 67 10000 1 0 15:55 14.10.2020
3160 Clear -5 1023 62 10000 1 0 15:37 14.10.2020
3161 Clear -4 1023 58 10000 2 0 15:19 14.10.2020
3162 Clear -4 1023 58 10000 2 0 14:44 14.10.2020
3163 Clouds -1 1023 50 10000 2 280 14:20 14.10.2020
3164 Clouds -1 1023 50 10000 2 280 13:42 14.10.2020
3165 Clouds 1 1022 40 10000 3 350 13:21 14.10.2020
3166 Clouds 1 1022 40 10000 3 350 12:40 14.10.2020
3167 Clouds 2 1021 37 10000 4 350 12:22 14.10.2020
3168 Clouds 2 1021 37 10000 4 350 11:57 14.10.2020
3169 Clouds 4 1021 32 10000 5 310 11:39 14.10.2020
3170 Clouds 5 1021 27 10000 6 320 11:20 14.10.2020
3171 Clouds 4 1020 32 10000 5 310 10:42 14.10.2020
3172 Clouds 3 1020 32 10000 6 300 10:23 14.10.2020
3173 Clouds 3 1020 32 10000 6 300 09:45 14.10.2020
3174 Clouds 4 1021 29 10000 7 300 08:53 14.10.2020
3175 Clouds 4 1021 29 10000 7 300 08:34 14.10.2020
3176 Rain 4 1021 38 10000 4 300 07:51 14.10.2020
3177 Clouds 4 1021 38 10000 2 0 07:22 14.10.2020
3178 Clouds 4 1021 38 10000 2 0 06:56 14.10.2020
3179 Clouds 4 1021 38 10000 2 0 06:36 14.10.2020
3180 Clouds 2 1021 43 10000 1 0 05:49 14.10.2020
3181 Clouds -9 1020 85 10000 1 0 02:28 14.10.2020
3182 Clouds -8 1020 78 10000 0.62 220 01:43 14.10.2020
3183 Clouds -8 1020 85 10000 1 0 00:35 14.10.2020
3184 Clouds -8 1020 78 10000 2 130 23:56 13.10.2020
3185 Clouds -9 1020 85 10000 1 0 23:24 13.10.2020
3186 Clouds -5 1020 73 10000 1 0 22:50 13.10.2020
3187 Clouds -5 1020 73 10000 1 0 22:26 13.10.2020
3188 Clouds -5 1021 79 10000 1 0 21:57 13.10.2020
3189 Clouds -4 1021 79 10000 1 0 21:38 13.10.2020
3190 Clouds -4 1021 79 10000 1 0 21:38 13.10.2020
3191 Clouds -4 1021 73 10000 1 0 21:19 13.10.2020
3192 Clouds -4 1021 73 10000 1 0 20:43 13.10.2020
3193 Clouds -4 1021 73 10000 1 0 20:24 13.10.2020
3194 Clouds -6 1021 79 10000 0.55 144 19:55 13.10.2020
3195 Clouds -6 1021 79 10000 0.55 144 19:36 13.10.2020
3196 Clouds -4 1021 68 10000 0.7 166 19:18 13.10.2020
3197 Clouds -4 1022 73 10000 1 0 18:42 13.10.2020
3198 Clouds -2 1022 63 10000 0.75 184 18:23 13.10.2020
3199 Clouds -2 1022 63 10000 0.75 184 17:59 13.10.2020
3200 Clouds -3 1022 68 10000 0.75 184 17:38 13.10.2020
3201 Clouds -2 1022 58 10000 1 0 16:49 13.10.2020
3202 Clouds -3 1022 68 10000 0.51 209 16:22 13.10.2020
3203 Clouds -3 1022 68 10000 0.51 209 15:57 13.10.2020
3204 Clouds -3 1022 68 10000 0.51 209 15:38 13.10.2020
3205 Clouds -2 1022 58 10000 1 0 15:19 13.10.2020
3206 Clouds -2 1022 58 10000 1 0 14:42 13.10.2020
3207 Clouds -5 1022 67 10000 2 180 14:23 13.10.2020
3208 Clouds -5 1022 67 10000 2 180 13:48 13.10.2020
3209 Clouds -4 1021 58 10000 3 160 13:21 13.10.2020
3210 Clouds -4 1021 58 10000 3 160 12:46 13.10.2020
3211 Clouds -2 1021 50 10000 2 200 12:22 13.10.2020
3212 Clouds -2 1021 50 10000 2 200 11:57 13.10.2020
3213 Clouds 3 1021 29 10000 2 0 11:37 13.10.2020
3214 Clouds 3 1022 29 10000 3 260 11:19 13.10.2020
3215 Clouds 3 1022 29 10000 3 260 10:42 13.10.2020
3216 Clouds 2 1022 31 10000 3 230 10:21 13.10.2020
3217 Clouds 2 1022 31 10000 3 230 09:55 13.10.2020
3218 Clouds 2 1022 31 10000 3 230 09:36 13.10.2020
3219 Clouds 1 1023 31 10000 3 240 09:18 13.10.2020
3220 Clouds 1 1023 31 10000 3 240 08:41 13.10.2020
3221 Clouds 1 1023 31 10000 4 230 08:21 13.10.2020
3222 Clouds 1 1023 31 10000 4 230 07:35 13.10.2020
3223 Clear 0 1024 72 10000 3 200 06:56 13.10.2020
3224 Clear 0 1024 72 10000 3 200 06:32 13.10.2020
3225 Clear -6 1026 48 10000 1 0 04:29 13.10.2020
3226 Clear -9 1026 66 10000 1.76 188 03:30 13.10.2020
3227 Clear -15 1026 77 10000 0.43 163 01:25 13.10.2020
3228 Clear -16 1026 77 10000 0.43 163 00:43 13.10.2020
3229 Clear -15 1026 77 10000 1 0 23:57 12.10.2020
3230 Clear -15 1026 77 10000 1 0 23:33 12.10.2020
3231 Clear -13 1025 65 10000 1 0 22:53 12.10.2020
3232 Clear -13 1025 65 10000 1 0 22:33 12.10.2020
3233 Clear -16 1025 77 10000 1 0 21:59 12.10.2020
3234 Clear -16 1025 77 10000 1 0 21:41 12.10.2020
3235 Clear -14 1025 71 10000 1 0 21:20 12.10.2020
3236 Clear -14 1025 71 10000 1 0 20:45 12.10.2020
3237 Clear -14 1025 71 10000 3 150 20:22 12.10.2020
3238 Clear -14 1025 71 10000 3 150 19:54 12.10.2020
3239 Clear -14 1025 71 10000 3 150 19:35 12.10.2020
3240 Clear -14 1025 71 10000 3 130 18:59 12.10.2020
3241 Clear -14 1025 77 10000 2 160 18:39 12.10.2020
3242 Clear -15 1025 77 10000 2 160 18:19 12.10.2020
3243 Clear -11 1025 72 10000 0.71 283 17:41 12.10.2020
3244 Clear -12 1025 66 10000 1 0 17:19 12.10.2020
3245 Clear -12 1025 66 10000 1 0 16:41 12.10.2020
3246 Clear -7 1024 52 10000 2 0 16:22 12.10.2020
3247 Clear -7 1024 52 10000 2 0 15:45 12.10.2020
3248 Clear -7 1024 52 10000 2 0 15:27 12.10.2020
3249 Clear -7 1024 52 10000 2 350 14:54 12.10.2020
3250 Clouds -7 1024 52 10000 2 350 14:29 12.10.2020
3251 Clouds -6 1023 48 10000 3 350 13:46 12.10.2020
3252 Clouds -7 1023 52 10000 3 330 13:22 12.10.2020
3253 Clouds -6 1022 48 10000 6 330 12:47 12.10.2020
3254 Clouds -6 1022 48 10000 6 330 12:26 12.10.2020
3255 Clouds -4 1021 45 10000 8 350 11:41 12.10.2020
3256 Clouds -3 1021 42 10000 7 320 11:21 12.10.2020
3257 Clouds -3 1021 42 10000 7 320 10:54 12.10.2020
3258 Clouds -3 1021 42 10000 7 320 10:36 12.10.2020
3259 Clouds -4 1021 62 10000 7 360 10:18 12.10.2020
3260 Clouds -4 1021 62 10000 7 360 09:35 12.10.2020
3261 Clouds -3 1020 49 10000 7 320 08:51 12.10.2020
3262 Clouds -2 1020 46 10000 7 330 08:29 12.10.2020
3263 Clouds -3 1020 49 10000 6 360 07:44 12.10.2020
3264 Clouds -2 1020 50 10000 6 340 06:38 12.10.2020
3265 Clouds -2 1019 58 10000 8 340 05:30 12.10.2020
3266 Clouds -5 1016 67 10000 3.17 310 01:26 12.10.2020
3267 Clouds -5 1015 62 10000 1 0 23:51 11.10.2020
3268 Clouds -5 1015 62 10000 1 0 23:27 11.10.2020
3269 Clouds -5 1015 67 10000 4 190 22:59 11.10.2020
3270 Clouds -5 1015 67 10000 4 190 22:37 11.10.2020
3271 Clouds -6 1015 79 10000 1 0 21:58 11.10.2020
3272 Clouds -6 1015 79 10000 1 0 21:36 11.10.2020
3273 Clouds -4 1016 58 10000 1 0 21:18 11.10.2020
3274 Clouds -4 1016 58 10000 1 0 20:39 11.10.2020
3275 Clouds -8 1016 72 10000 2.48 252 20:18 11.10.2020
3276 Clouds -8 1016 72 10000 2.6 252 19:44 11.10.2020
3277 Clear -8 1016 72 10000 2.73 254 19:24 11.10.2020
3278 Clear -9 1017 72 10000 1 0 18:48 11.10.2020
3279 Clear -9 1017 72 10000 1 0 18:30 11.10.2020
3280 Clear -7 1017 67 10000 1 0 17:46 11.10.2020
3281 Clear -6 1017 62 10000 1 0 17:23 11.10.2020
3282 Clear -6 1017 62 10000 1 0 16:58 11.10.2020
3283 Clear -6 1017 62 10000 1 0 16:40 11.10.2020
3284 Clear -6 1017 62 10000 3 170 16:22 11.10.2020
3285 Clear -5 1017 62 10000 2 170 15:48 11.10.2020
3286 Clear -5 1017 62 10000 2 170 15:28 11.10.2020
3287 Clouds -3 1017 49 10000 1 0 14:44 11.10.2020
3288 Clouds -3 1017 49 10000 1 0 14:25 11.10.2020
3289 Clouds -2 1017 46 10000 1 0 13:45 11.10.2020
3290 Clouds -1 1017 39 10000 3 290 13:23 11.10.2020
3291 Clouds -1 1017 39 10000 3 290 12:47 11.10.2020
3292 Clouds -1 1017 39 10000 3 290 12:47 11.10.2020
3293 Clouds -1 1017 39 10000 3 290 12:28 11.10.2020
3294 Clear 1 1017 26 10000 6 270 11:50 11.10.2020
3295 Clear 1 1017 26 10000 6 270 11:26 11.10.2020
3296 Clouds 2 1017 24 10000 6 280 10:55 11.10.2020
3297 Clouds 2 1017 24 10000 6 280 10:30 11.10.2020
3298 Clouds 2 1018 24 10000 6 270 09:59 11.10.2020
3299 Clouds 2 1018 24 10000 6 280 09:39 11.10.2020
3300 Clouds 2 1018 24 10000 7 270 09:21 11.10.2020
3301 Clouds 2 1019 24 10000 7 280 08:49 11.10.2020
3302 Clouds 2 1019 24 10000 7 280 08:23 11.10.2020
3303 Clouds 1 1020 29 10000 3 250 07:36 11.10.2020
3304 Clear -3 1022 63 10000 1 0 04:57 11.10.2020
3305 Clear -9 1022 85 10000 2.7 253 02:46 11.10.2020
3306 Clear -14 1022 84 10000 1.64 228 02:22 11.10.2020
3307 Clear -12 1022 85 10000 1.36 218 00:51 11.10.2020
3308 Clear -12 1022 85 10000 1.08 211 00:25 11.10.2020
3309 Clear -13 1022 84 10000 1 0 23:35 10.10.2020
3310 Clear -11 1022 78 10000 1 226 22:57 10.10.2020
3311 Clear -11 1022 78 10000 1 226 22:38 10.10.2020
3312 Clear -10 1023 78 10000 1.02 229 22:19 10.10.2020
3313 Clear -10 1023 78 10000 1.02 229 21:41 10.10.2020
3314 Clear -12 1023 85 10000 1 0 21:22 10.10.2020
3315 Clear -12 1023 85 10000 1 0 20:51 10.10.2020
3316 Clear -12 1023 85 10000 1 0 20:29 10.10.2020
3317 Clear -11 1023 78 10000 1 0 19:55 10.10.2020
3318 Clear -11 1023 78 10000 1 0 19:37 10.10.2020
3319 Clear -12 1023 85 10000 1 0 19:18 10.10.2020
3320 Clear -12 1023 85 10000 1 0 18:36 10.10.2020
3321 Clear -11 1024 78 10000 1 0 17:57 10.10.2020
3322 Clear -11 1024 78 10000 1 0 17:38 10.10.2020
3323 Clear -10 1024 78 10000 1 0 17:19 10.10.2020
3324 Clear -10 1024 78 10000 1 0 16:43 10.10.2020
3325 Clear -10 1024 78 10000 1 0 16:24 10.10.2020
3326 Clear -10 1024 85 10000 1 0 15:40 10.10.2020
3327 Clear -9 1024 78 10000 1 0 15:21 10.10.2020
3328 Clear -9 1024 78 10000 1 0 14:53 10.10.2020
3329 Clear -9 1024 78 10000 1 0 14:32 10.10.2020
3330 Clouds -4 1023 58 10000 2 0 13:55 10.10.2020
3331 Clouds -4 1023 58 10000 2 0 13:36 10.10.2020
3332 Clouds -4 1023 53 10000 2 60 13:18 10.10.2020
3333 Clouds -4 1023 53 10000 2 60 12:49 10.10.2020
3334 Clouds -4 1023 53 10000 2 60 12:29 10.10.2020
3335 Clouds -3 1022 49 10000 3 10 11:45 10.10.2020
3336 Clouds -3 1022 49 10000 3 10 11:23 10.10.2020
3337 Clouds -3 1022 49 10000 5 340 10:47 10.10.2020
3338 Clouds -3 1022 49 10000 5 340 10:28 10.10.2020
3339 Clouds -3 1022 53 10000 5 340 09:52 10.10.2020
3340 Clouds -3 1022 53 10000 5 340 09:34 10.10.2020
3341 Clouds -3 1022 53 10000 7 340 08:58 10.10.2020
3342 Clouds -3 1022 53 10000 7 340 08:28 10.10.2020
3343 Clouds -3 1022 58 10000 6 340 07:56 10.10.2020
3344 Clouds -3 1022 58 10000 6 340 07:35 10.10.2020
3345 Clouds -4 1020 73 8000 8 320 03:44 10.10.2020
3346 Clouds -3 1019 49 10000 7 290 01:59 10.10.2020
3347 Clouds -2 1018 36 10000 7 270 00:28 10.10.2020
3348 Clouds -2 1018 36 10000 7 270 23:56 09.10.2020
3349 Clouds -2 1018 33 10000 8 270 23:38 09.10.2020
3350 Clouds -1 1017 33 10000 11 280 23:19 09.10.2020
3351 Clouds -1 1016 36 10000 10 270 22:29 09.10.2020
3352 Clear -3 1023 84 10000 6.81 282 21:57 09.10.2020
3353 Clouds 3 1015 34 10000 8 270 21:37 09.10.2020
3354 Clouds 3 1015 34 10000 8 270 21:18 09.10.2020
3355 Clouds 3 1015 34 10000 8 270 20:47 09.10.2020
3356 Clouds 3 1015 34 10000 8 270 20:21 09.10.2020
3357 Clouds 3 1014 51 10000 4 230 19:40 09.10.2020
3358 Clouds 1 1015 69 10000 2 0 19:20 09.10.2020
3359 Clouds 1 1015 69 10000 2 0 18:58 09.10.2020
3360 Clouds 1 1015 69 10000 2 0 18:27 09.10.2020
3361 Clouds 0 1014 77 10000 2 320 17:59 09.10.2020
3362 Clouds 0 1013 78 10000 1 0 17:22 09.10.2020
3363 Clouds 0 1013 78 10000 1 0 16:59 09.10.2020
3364 Clouds 2 1013 59 10000 1 0 16:40 09.10.2020
3365 Clouds 2 1013 59 10000 1 0 16:19 09.10.2020
3366 Clouds 2 1013 59 10000 2 0 15:43 09.10.2020
3367 Clouds 1 1013 64 10000 3 200 15:21 09.10.2020
3368 Clouds 3 1013 59 10000 3 210 14:37 09.10.2020
3369 Clouds 4 1013 55 10000 3 220 13:47 09.10.2020
3370 Clouds 4 1013 55 10000 3 220 13:27 09.10.2020
3371 Clouds 6 1013 48 10000 4 220 12:55 09.10.2020
3372 Clouds 6 1013 48 10000 4 220 12:36 09.10.2020
3373 Clouds 8 1013 42 10000 4 230 12:18 09.10.2020
3374 Clouds 8 1013 42 10000 3 260 11:43 09.10.2020
3375 Clouds 8 1013 36 10000 4 260 11:22 09.10.2020
3376 Clouds 8 1013 36 10000 4 260 10:52 09.10.2020
3377 Clouds 9 1013 34 10000 4 230 10:32 09.10.2020
3378 Clouds 9 1013 34 10000 5 240 09:44 09.10.2020
3379 Clouds 9 1013 34 10000 5 240 09:44 09.10.2020
3380 Clouds 9 1014 36 10000 4 240 09:22 09.10.2020
3381 Clouds 8 1014 45 10000 4 230 08:50 09.10.2020
3382 Clouds 7 1015 52 10000 3 260 08:20 09.10.2020
3383 Clouds 7 1015 52 10000 3 260 07:51 09.10.2020
3384 Clouds 6 1015 56 10000 2 0 07:20 09.10.2020
3385 Clouds 6 1016 56 10000 2 0 06:43 09.10.2020
3386 Clouds 4 1016 64 10000 2 0 06:23 09.10.2020
3387 Clouds 1 1017 74 10000 1 0 03:44 09.10.2020
3388 Clouds -2 1017 86 10000 1 0 00:57 09.10.2020
3389 Clouds -1 1017 86 10000 1 0 00:37 09.10.2020
3390 Clouds 0 1017 90 10000 1 0 00:19 09.10.2020
3391 Clouds 0 1017 90 10000 3 330 23:41 08.10.2020
3392 Clouds 0 1017 91 10000 3 330 23:21 08.10.2020
3393 Clouds 0 1017 91 10000 3 360 22:39 08.10.2020
3394 Clouds 0 1017 93 10000 2 10 22:19 08.10.2020
3395 Clouds 0 1017 93 10000 2 10 21:53 08.10.2020
3396 Clouds 0 1017 94 10000 2 10 21:24 08.10.2020
3397 Clouds 1 1017 74 10000 2 360 20:57 08.10.2020
3398 Clouds 1 1017 74 10000 2 360 20:38 08.10.2020
3399 Clouds 1 1017 80 10000 3 340 20:20 08.10.2020
3400 Clouds 1 1017 80 10000 3 340 19:46 08.10.2020
3401 Clouds 1 1017 80 10000 3 340 19:26 08.10.2020
3402 Clouds 2 1017 80 10000 3 350 18:47 08.10.2020
3403 Clouds 2 1017 80 10000 5 310 18:21 08.10.2020
3404 Clouds 3 1016 74 10000 3 290 17:51 08.10.2020
3405 Clouds 3 1016 74 10000 5 270 17:19 08.10.2020
3406 Clouds 3 1016 74 10000 5 270 17:19 08.10.2020
3407 Clouds 3 1016 74 10000 5 270 16:54 08.10.2020
3408 Clouds 3 1016 74 10000 5 270 16:36 08.10.2020
3409 Clouds 3 1015 86 10000 4 270 16:18 08.10.2020
3410 Clouds 4 1015 69 10000 4 270 15:42 08.10.2020
3411 Clouds 5 1015 87 10000 3 270 15:18 08.10.2020
3412 Clouds 5 1015 87 10000 3 270 14:39 08.10.2020
3413 Clouds 6 1014 88 10000 5 260 14:18 08.10.2020
3414 Clouds 6 1014 88 10000 5 260 14:18 08.10.2020
3415 Clouds 5 1013 80 10000 3 260 13:46 08.10.2020
3416 Clouds 5 1013 75 10000 4 270 13:22 08.10.2020
3417 Clouds 5 1013 75 10000 4 270 12:50 08.10.2020
3418 Clouds 5 1013 75 10000 4 270 12:32 08.10.2020
3419 Clouds 7 1013 82 10000 4 270 11:54 08.10.2020
3420 Clouds 7 1012 56 10000 5 270 11:35 08.10.2020
3421 Clouds 7 1012 56 10000 6 280 10:59 08.10.2020
3422 Clouds 7 1012 56 10000 4 280 10:41 08.10.2020
3423 Clouds 7 1011 56 10000 6 260 10:21 08.10.2020
3424 Clouds 7 1011 83 10000 6 240 09:48 08.10.2020
3425 Clouds 7 1011 83 10000 6 240 09:30 08.10.2020
3426 Clouds 7 1011 83 10000 6 240 09:30 08.10.2020
3427 Clouds 7 1011 83 10000 6 240 09:30 08.10.2020
3428 Clouds 7 1011 78 10000 6 230 08:44 08.10.2020
3429 Clouds 9 1011 45 10000 7 240 08:22 08.10.2020
3430 Clouds 9 1011 45 10000 7 240 07:52 08.10.2020
3431 Clouds 9 1011 39 10000 7 230 07:29 08.10.2020
3432 Clouds 9 1011 36 10000 8 210 06:51 08.10.2020
3433 Clouds 7 1011 39 10000 6 190 05:20 08.10.2020
3434 Clouds 7 1010 45 10000 10 140 02:59 08.10.2020
3435 Clouds 7 1010 45 10000 10 140 02:26 08.10.2020
3436 Clouds 8 1010 33 10000 13 130 00:26 08.10.2020
3437 Clouds 9 1011 29 10000 13 140 23:37 07.10.2020
3438 Clouds 7 1012 39 10000 1 0 23:19 07.10.2020
3439 Rain 7 1012 39 10000 1 0 22:43 07.10.2020
3440 Clouds 7 1012 39 10000 1 0 22:25 07.10.2020
3441 Clouds 7 1012 39 10000 1 0 22:25 07.10.2020
3442 Clouds 6 1015 48 10000 2 0 21:48 07.10.2020
3443 Clouds 6 1015 48 10000 2 0 21:24 07.10.2020
3444 Clouds 6 1016 45 10000 1 0 20:47 07.10.2020
3445 Clouds 6 1016 45 10000 1 0 20:27 07.10.2020
3446 Clouds 7 1017 42 10000 1 0 19:56 07.10.2020
3447 Clouds 7 1017 42 10000 1 0 19:37 07.10.2020
3448 Clouds 8 1018 39 10000 3 190 19:18 07.10.2020
3449 Clouds 8 1018 39 10000 3 190 18:41 07.10.2020
3450 Clouds 4 1018 51 10000 1 0 18:20 07.10.2020
3451 Clouds 4 1018 51 10000 1 0 17:50 07.10.2020
3452 Clouds 4 1018 51 10000 1 0 17:32 07.10.2020
3453 Clouds 3 1018 59 10000 1 0 16:51 07.10.2020
3454 Clouds 6 1018 41 10000 1 0 16:22 07.10.2020
3455 Clouds 6 1018 41 10000 1 0 16:22 07.10.2020
3456 Clouds 6 1018 41 10000 1 0 15:58 07.10.2020
3457 Clouds 6 1018 41 10000 1 0 15:39 07.10.2020
3458 Clouds 6 1018 41 10000 3 160 15:19 07.10.2020
3459 Clouds 6 1018 41 10000 3 160 14:43 07.10.2020
3460 Clouds 6 1018 41 10000 3 160 14:24 07.10.2020
3461 Clouds 6 1018 45 10000 4 170 13:50 07.10.2020
3462 Clouds 6 1018 45 10000 4 170 13:24 07.10.2020
3463 Clouds 5 1018 48 10000 3 160 12:51 07.10.2020
3464 Clouds 5 1018 48 10000 3 160 12:24 07.10.2020
3465 Clouds 8 1017 36 10000 2 0 11:54 07.10.2020
3466 Clouds 11 1017 25 10000 2 0 11:26 07.10.2020
3467 Clouds 12 1018 23 10000 4 190 10:57 07.10.2020
3468 Clouds 13 1018 22 10000 3 180 10:34 07.10.2020
3469 Clouds 14 1018 17 10000 4 200 09:45 07.10.2020
3470 Clouds 13 1018 20 10000 3 180 09:21 07.10.2020
3471 Clouds 12 1018 23 10000 2 0 08:48 07.10.2020
3472 Clouds 12 1018 23 10000 2 0 08:24 07.10.2020
3473 Clouds 11 1019 29 10000 1 0 07:26 07.10.2020
3474 Clouds 8 1020 42 10000 1 0 05:57 07.10.2020
3475 Clouds 6 1020 45 10000 1 0 05:30 07.10.2020
3476 Clouds -2 1019 86 10000 1.4 124 02:54 07.10.2020
3477 Clear -7 1019 85 10000 1 0 01:31 07.10.2020
3478 Clear -7 1018 92 10000 1 0 00:24 07.10.2020
3479 Clear -7 1018 92 10000 1 0 23:40 06.10.2020
3480 Clear -5 1018 92 10000 0.96 130 23:20 06.10.2020
3481 Clear -5 1018 92 10000 0.96 130 22:40 06.10.2020
3482 Clear -6 1018 85 10000 1 0 22:22 06.10.2020
3483 Clear -6 1018 85 10000 1 0 21:44 06.10.2020
3484 Clear -6 1018 85 10000 1 0 21:25 06.10.2020
3485 Clear -6 1019 85 10000 1 0 20:46 06.10.2020
3486 Clear -4 1019 85 10000 0.88 147 20:20 06.10.2020
3487 Clear -4 1019 85 10000 0.88 147 19:54 06.10.2020
3488 Clear -4 1019 85 10000 0.79 156 19:25 06.10.2020
3489 Clear -5 1019 85 10000 1 0 18:51 06.10.2020
3490 Clear -5 1019 85 10000 1 0 18:27 06.10.2020
3491 Clear -4 1019 85 10000 0.84 160 17:56 06.10.2020
3492 Clear -4 1019 85 10000 0.84 160 17:56 06.10.2020
3493 Clear -4 1019 85 10000 1 0 17:38 06.10.2020
3494 Clear -3 1019 79 10000 2 170 17:18 06.10.2020
3495 Clear -3 1019 79 10000 2 170 16:41 06.10.2020
3496 Clear 0 1018 89 10000 0.8 170 16:20 06.10.2020
3497 Clear 0 1018 89 10000 0.8 170 15:47 06.10.2020
3498 Clear 0 1018 88 10000 0.73 177 15:29 06.10.2020
3499 Clear 0 1018 88 10000 2 140 14:47 06.10.2020
3500 Clear 0 1018 86 10000 3 160 14:23 06.10.2020
3501 Clear 0 1018 86 10000 3 160 13:57 06.10.2020
3502 Clear 2 1017 59 10000 2 190 13:38 06.10.2020
3503 Clear 4 1017 51 10000 3 220 13:19 06.10.2020
3504 Clear 4 1017 51 10000 3 220 12:39 06.10.2020
3505 Clear 9 1017 31 10000 5 240 12:21 06.10.2020
3506 Clear 9 1017 31 10000 5 240 11:42 06.10.2020
3507 Clear 10 1017 31 10000 4 230 11:22 06.10.2020
3508 Clear 10 1017 31 10000 4 230 10:41 06.10.2020
3509 Clear 10 1017 31 10000 4 230 10:23 06.10.2020
3510 Clear 9 1017 34 10000 3 230 09:43 06.10.2020
3511 Clear 9 1018 31 10000 4 240 09:20 06.10.2020
3512 Clear 9 1018 31 10000 4 240 08:47 06.10.2020
3513 Clear 9 1018 31 10000 3 210 08:20 06.10.2020
3514 Clear 8 1019 31 10000 1 0 07:37 06.10.2020
3515 Clear 7 1019 39 10000 1 0 06:59 06.10.2020
3516 Clear 5 1020 41 10000 1 0 05:47 06.10.2020
3517 Clear -8 1020 92 10000 1.43 117 01:55 06.10.2020
3518 Clear -10 1020 92 10000 1 0 00:44 06.10.2020
3519 Clear -10 1020 92 10000 1 0 00:23 06.10.2020
3520 Clear -8 1021 85 10000 1 0 23:50 05.10.2020
3521 Clear -8 1021 85 10000 1 0 23:30 05.10.2020
3522 Clear -8 1021 85 10000 0.94 124 22:50 05.10.2020
3523 Clear -8 1021 85 10000 0.85 120 22:24 05.10.2020
3524 Clear -8 1021 85 10000 1 0 21:46 05.10.2020
3525 Clear -8 1021 85 10000 1 0 21:23 05.10.2020
3526 Clear -5 1021 79 10000 0.67 129 20:48 05.10.2020
3527 Clear -5 1021 79 10000 0.6 144 20:29 05.10.2020
3528 Clear -7 1021 85 10000 1 0 19:52 05.10.2020
3529 Clear -7 1021 85 10000 1 0 19:34 05.10.2020
3530 Clear -7 1021 85 10000 1 0 19:34 05.10.2020
3531 Clear -7 1021 85 10000 1 0 18:51 05.10.2020
3532 Clear -7 1021 85 10000 1 0 18:33 05.10.2020
3533 Clear -4 1021 73 10000 1 0 17:59 05.10.2020
3534 Clear -4 1021 73 10000 1 0 17:40 05.10.2020
3535 Clear -4 1021 79 10000 2 160 17:21 05.10.2020
3536 Clear -4 1021 79 10000 2 160 16:44 05.10.2020
3537 Clear -4 1021 79 10000 2 160 16:25 05.10.2020
3538 Clear -5 1021 85 10000 3 170 15:44 05.10.2020
3539 Clear -5 1021 85 10000 3 170 15:23 05.10.2020
3540 Clear -4 1021 79 10000 2 0 14:45 05.10.2020
3541 Clear -4 1021 79 10000 2 0 14:25 05.10.2020
3542 Clear -4 1020 73 10000 1 0 13:58 05.10.2020
3543 Clear -4 1020 73 10000 1 0 13:39 05.10.2020
3544 Clear 2 1020 47 10000 2 280 13:20 05.10.2020
3545 Clear 2 1020 47 10000 2 280 12:43 05.10.2020
3546 Clear 4 1020 38 10000 4 300 12:20 05.10.2020
3547 Clear 4 1020 38 10000 4 300 11:44 05.10.2020
3548 Clear 5 1020 32 10000 4 300 11:21 05.10.2020
3549 Clear 5 1020 32 10000 4 300 10:43 05.10.2020
3550 Clear 5 1020 32 10000 4 300 10:24 05.10.2020
3551 Clear 5 1021 32 10000 3 300 09:54 05.10.2020
3552 Clear 5 1021 32 10000 3 300 09:30 05.10.2020
3553 Clear 5 1021 32 10000 3 300 09:30 05.10.2020
3554 Clear 5 1021 30 10000 3 290 08:44 05.10.2020
3555 Clear 5 1021 30 10000 3 290 08:25 05.10.2020
3556 Clear 4 1022 35 10000 2 0 07:54 05.10.2020
3557 Clear 3 1022 34 10000 1 0 06:53 05.10.2020
3558 Clear -2 1023 63 10000 1 0 04:28 05.10.2020
3559 Clouds -11 1023 85 10000 0.17 30 01:51 05.10.2020
3560 Clear -9 1023 78 10000 1 0 00:20 05.10.2020
3561 Clear -10 1023 85 10000 0.36 54 23:40 04.10.2020
3562 Clouds -10 1023 85 10000 0.47 46 22:49 04.10.2020
3563 Clouds -10 1023 85 10000 0.36 32 22:25 04.10.2020
3564 Clouds -9 1024 78 10000 0.36 32 21:59 04.10.2020
3565 Clouds -9 1024 78 10000 0.36 32 21:40 04.10.2020
3566 Clouds -9 1024 85 10000 0.2 5 21:19 04.10.2020
3567 Clouds -9 1024 85 10000 0.2 5 20:42 04.10.2020
3568 Clouds -8 1024 78 10000 1 0 20:22 04.10.2020
3569 Clear -8 1024 78 10000 1 0 19:56 04.10.2020
3570 Clear -8 1024 78 10000 1 0 19:37 04.10.2020
3571 Clear -8 1024 78 10000 2 160 19:18 04.10.2020
3572 Clear -8 1024 78 10000 2 160 18:42 04.10.2020
3573 Clear -8 1024 85 10000 2 160 18:21 04.10.2020
3574 Clear -8 1024 85 10000 2 160 17:39 04.10.2020
3575 Clear -8 1024 85 10000 2 180 17:21 04.10.2020
3576 Clear -7 1024 79 10000 1 0 16:43 04.10.2020
3577 Clear -5 1024 73 10000 0.82 23 16:23 04.10.2020
3578 Clear -5 1024 73 10000 0.82 23 15:59 04.10.2020
3579 Clear -4 1024 68 10000 1 0 15:41 04.10.2020
3580 Clear -6 1024 79 10000 2 0 15:18 04.10.2020
3581 Clear -6 1024 79 10000 2 0 14:48 04.10.2020
3582 Clear -6 1024 79 10000 2 0 14:27 04.10.2020
3583 Clear -5 1024 73 10000 1 0 13:46 04.10.2020
3584 Clear -1 1024 54 10000 2 320 13:21 04.10.2020
3585 Clear 1 1024 40 10000 3 320 12:45 04.10.2020
3586 Clear 1 1024 40 10000 3 320 12:26 04.10.2020
3587 Clear 2 1024 37 10000 3 320 11:59 04.10.2020
3588 Clear 3 1024 32 10000 3 220 11:41 04.10.2020
3589 Clear 3 1024 29 10000 3 220 11:22 04.10.2020
3590 Clear 3 1025 27 10000 3 200 10:48 04.10.2020
3591 Clear 3 1025 27 10000 3 200 10:29 04.10.2020
3592 Clear 2 1025 34 10000 2 0 09:45 04.10.2020
3593 Clear 2 1025 34 10000 2 0 09:24 04.10.2020
3594 Clear 3 1025 32 10000 2 0 08:53 04.10.2020
3595 Clear 2 1026 37 10000 2 0 08:27 04.10.2020
3596 Clear 2 1026 34 10000 2 0 07:52 04.10.2020
3597 Clear 1 1026 40 10000 1 0 07:25 04.10.2020
3598 Clear 0 1027 66 10000 3 270 06:48 04.10.2020
3599 Clear 0 1027 71 10000 3 270 06:29 04.10.2020
3600 Clear -1 1027 54 10000 2 0 05:52 04.10.2020
3601 Clear -12 1027 85 10000 0.86 305 01:59 04.10.2020
3602 Clear -11 1027 78 10000 2 170 00:55 04.10.2020
3603 Clear -11 1027 78 10000 2 160 00:20 04.10.2020
3604 Clear -10 1027 78 10000 1 0 23:28 03.10.2020
3605 Clear -7 1033 86 10000 1.48 336 22:58 03.10.2020
3606 Clear -10 1028 85 10000 1 0 22:38 03.10.2020
3607 Clear -10 1028 85 10000 1 0 22:20 03.10.2020
3608 Clear -10 1028 85 10000 1 0 21:44 03.10.2020
3609 Clear -10 1028 85 10000 1 0 21:25 03.10.2020
3610 Clear -11 1028 85 10000 1 0 20:46 03.10.2020
3611 Clear -11 1028 85 10000 1 0 20:28 03.10.2020
3612 Clear -9 1027 85 10000 1.82 325 19:57 03.10.2020
3613 Clear -9 1027 85 10000 1.85 325 19:37 03.10.2020
3614 Clear -8 1028 78 10000 1.99 319 19:19 03.10.2020
3615 Clear -8 1028 78 10000 1.99 319 18:45 03.10.2020
3616 Clear -8 1028 78 10000 2.15 313 18:24 03.10.2020
3617 Clear -8 1028 85 10000 1 0 17:47 03.10.2020
3618 Clear -8 1028 85 10000 1 0 17:28 03.10.2020
3619 Clear -7 1027 85 10000 2 300 16:50 03.10.2020
3620 Clear -7 1027 85 10000 2 270 16:30 03.10.2020
3621 Clear -6 1027 79 10000 2 280 15:57 03.10.2020
3622 Clear -6 1027 79 10000 2 280 15:38 03.10.2020
3623 Clouds -6 1027 79 10000 2 300 15:19 03.10.2020
3624 Clouds -5 1027 73 10000 2 350 14:46 03.10.2020
3625 Clouds -5 1027 73 10000 2 350 14:27 03.10.2020
3626 Clouds -4 1026 68 10000 5 350 13:59 03.10.2020
3627 Clouds -4 1026 68 10000 5 340 13:41 03.10.2020
3628 Clouds -3 1026 63 10000 5 350 13:21 03.10.2020
3629 Clouds -3 1025 63 10000 7 340 12:40 03.10.2020
3630 Clouds -2 1025 58 10000 8 330 12:20 03.10.2020
3631 Clouds -2 1025 58 10000 8 330 11:51 03.10.2020
3632 Clouds -2 1025 58 10000 8 330 11:23 03.10.2020
3633 Clouds -3 1024 63 10000 10 330 10:46 03.10.2020
3634 Clouds -3 1024 63 10000 10 330 10:27 03.10.2020
3635 Clouds -3 1024 63 10000 9 320 09:56 03.10.2020
3636 Clouds -3 1024 63 10000 9 320 09:37 03.10.2020
3637 Clouds -2 1024 58 10000 8 330 09:18 03.10.2020
3638 Clouds -2 1024 58 10000 9 320 08:41 03.10.2020
3639 Clouds -2 1024 58 10000 9 320 08:23 03.10.2020
3640 Clouds -2 1024 58 10000 9 340 07:39 03.10.2020
3641 Clouds -3 1024 63 10000 10 330 07:21 03.10.2020
3642 Clouds -3 1024 68 8000 10 330 06:18 03.10.2020
3643 Clouds -3 1024 63 8000 10 330 05:40 03.10.2020
3644 Clouds -4 1023 62 10000 8 340 03:47 03.10.2020
3645 Clouds -5 1022 67 10000 8 340 02:22 03.10.2020
3646 Clouds -5 1021 73 10000 6 340 00:28 03.10.2020
3647 Clouds -5 1021 73 10000 6 340 23:57 02.10.2020
3648 Clouds -4 1020 68 10000 8 350 23:39 02.10.2020
3649 Clouds -4 1020 62 10000 6 350 23:18 02.10.2020
3650 Clouds -4 1020 62 10000 6 350 22:42 02.10.2020
3651 Clouds -4 1020 62 10000 6 360 22:20 02.10.2020
3652 Clouds -4 1020 62 10000 6 360 21:43 02.10.2020
3653 Clouds -4 1020 62 10000 6 360 21:24 02.10.2020
3654 Clouds -4 1020 62 10000 5 360 20:55 02.10.2020
3655 Clouds -4 1020 62 10000 5 360 20:30 02.10.2020
3656 Clouds -4 1020 62 10000 6 360 19:50 02.10.2020
3657 Clouds -4 1020 62 10000 6 360 19:24 02.10.2020
3658 Clouds -4 1020 68 10000 5 10 18:59 02.10.2020
3659 Clouds -4 1020 68 10000 5 10 18:41 02.10.2020
3660 Clouds -4 1020 62 10000 5 10 18:19 02.10.2020
3661 Clouds -4 1020 62 10000 5 10 18:19 02.10.2020
3662 Clouds -4 1020 62 10000 5 10 18:19 02.10.2020
3663 Clouds -4 1020 62 10000 5 10 17:47 02.10.2020
3664 Clouds -4 1020 62 10000 5 10 17:28 02.10.2020
3665 Clouds -4 1020 58 10000 5 360 16:53 02.10.2020
3666 Clouds -3 1019 58 10000 7 360 16:22 02.10.2020
3667 Clouds -3 1019 58 10000 7 360 15:52 02.10.2020
3668 Clouds -3 1019 58 10000 4 10 15:30 02.10.2020
3669 Clouds -3 1019 63 10000 5 10 14:43 02.10.2020
3670 Clouds -3 1018 63 10000 6 10 14:25 02.10.2020
3671 Clouds -3 1018 63 10000 6 10 13:52 02.10.2020
3672 Clouds -2 1017 63 10000 6 350 13:20 02.10.2020
3673 Clouds -2 1017 63 10000 6 350 12:49 02.10.2020
3674 Clouds -2 1017 63 10000 6 350 12:25 02.10.2020
3675 Clouds -1 1016 58 10000 7 340 11:58 02.10.2020
3676 Clouds -1 1016 58 10000 7 340 11:39 02.10.2020
3677 Clouds -1 1016 63 10000 8 320 11:21 02.10.2020
3678 Clouds 0 1016 80 10000 8 320 10:44 02.10.2020
3679 Clouds 0 1016 74 10000 8 320 10:26 02.10.2020
3680 Clouds -1 1016 63 10000 8 320 09:41 02.10.2020
3681 Clouds 0 1016 68 10000 8 310 09:19 02.10.2020
3682 Clouds 0 1016 68 10000 8 310 08:46 02.10.2020
3683 Clouds 0 1016 65 10000 8 310 08:24 02.10.2020
3684 Clouds 1 1016 47 10000 8 320 07:33 02.10.2020
3685 Clouds 2 1016 43 10000 7 320 06:39 02.10.2020
3686 Clouds 0 1016 62 10000 3 320 05:37 02.10.2020
3687 Clouds -5 1018 79 10000 1.56 15 02:23 02.10.2020
3688 Clouds -7 1017 85 10000 1.47 3 00:43 02.10.2020
3689 Clouds -9 1017 85 10000 1 0 00:00 02.10.2020
3690 Clouds -10 1017 85 10000 1 0 23:41 01.10.2020
3691 Clouds -10 1017 85 10000 1 0 23:23 01.10.2020
3692 Clouds -9 1018 85 10000 2 0 22:58 01.10.2020
3693 Clouds -9 1018 85 10000 2 0 22:39 01.10.2020
3694 Clouds -8 1018 85 10000 2 190 22:19 01.10.2020
3695 Clouds -8 1018 85 10000 2 190 21:40 01.10.2020
3696 Clouds -6 1018 79 10000 1.87 326 21:20 01.10.2020
3697 Clouds -6 1018 79 10000 1.87 326 20:42 01.10.2020
3698 Clear -7 1018 85 10000 1.77 326 20:20 01.10.2020
3699 Clear -7 1018 85 10000 1.63 331 19:44 01.10.2020
3700 Clear -7 1018 85 10000 1.75 327 19:25 01.10.2020
3701 Clear -7 1018 85 10000 2 330 18:57 01.10.2020
3702 Clear -7 1018 85 10000 2 330 18:30 01.10.2020
3703 Clear -7 1018 85 10000 2 330 17:54 01.10.2020
3704 Clear -6 1018 85 10000 2 330 17:29 01.10.2020
3705 Clear -6 1018 85 10000 2 330 16:56 01.10.2020
3706 Clear -5 1018 79 10000 1 0 16:38 01.10.2020
3707 Clear -5 1018 85 10000 2 310 16:19 01.10.2020
3708 Clear -5 1018 85 10000 2 310 15:41 01.10.2020
3709 Clouds -5 1018 79 10000 2 330 15:19 01.10.2020
3710 Clouds -5 1018 79 10000 2 330 14:43 01.10.2020
3711 Clouds -5 1018 79 10000 2 330 14:24 01.10.2020
3712 Clouds -4 1018 73 10000 3 330 13:39 01.10.2020
3713 Clouds -4 1018 73 10000 3 330 13:39 01.10.2020
3714 Clouds -3 1017 73 10000 4 350 12:49 01.10.2020
3715 Clouds -2 1017 68 10000 6 330 12:21 01.10.2020
3716 Clouds -2 1017 68 10000 8 320 11:46 01.10.2020
3717 Clouds -2 1017 68 10000 7 340 11:25 01.10.2020
3718 Clouds -2 1017 68 10000 7 340 10:48 01.10.2020
3719 Clouds -2 1017 68 10000 7 340 10:48 01.10.2020
3720 Clouds -2 1017 68 10000 7 340 10:28 01.10.2020
3721 Clouds -1 1016 68 10000 7 350 09:58 01.10.2020
3722 Clouds -1 1016 68 10000 7 350 09:40 01.10.2020
3723 Clouds -1 1016 68 10000 7 350 09:21 01.10.2020
3724 Clouds -1 1016 68 10000 7 350 08:45 01.10.2020
3725 Clouds -1 1016 68 10000 7 350 08:20 01.10.2020
3726 Clouds -1 1016 68 10000 7 350 07:48 01.10.2020
3727 Clouds -1 1016 68 10000 7 350 07:23 01.10.2020
3728 Clouds -3 1015 79 10000 8 330 05:59 01.10.2020
3729 Clouds -2 1011 79 8000 7 340 01:22 01.10.2020
3730 Clouds -1 1010 74 10000 8 350 23:48 30.09.2020
3731 Clouds -1 1010 74 10000 8 350 23:29 30.09.2020
3732 Snow -1 1009 80 10000 8 340 22:44 30.09.2020
3733 Snow -1 1009 80 10000 8 340 22:23 30.09.2020
3734 Snow -1 1008 86 10000 6 350 21:45 30.09.2020
3735 Rain 0 1008 95 10000 5 340 21:22 30.09.2020
3736 Snow 0 1008 95 10000 5 340 20:45 30.09.2020
3737 Rain 0 1008 95 10000 5 340 20:26 30.09.2020
3738 Rain 1 1007 80 10000 5 330 19:43 30.09.2020
3739 Rain 1 1007 80 10000 5 330 19:24 30.09.2020
3740 Rain 1 1006 80 10000 4 340 18:57 30.09.2020
3741 Rain 1 1006 80 10000 6 340 18:39 30.09.2020
3742 Clouds 1 1005 86 10000 8 340 18:20 30.09.2020
3743 Clouds 1 1004 86 10000 8 350 17:46 30.09.2020
3744 Rain 2 1004 80 10000 7 350 17:22 30.09.2020
3745 Rain 2 1003 80 10000 8 340 16:49 30.09.2020
3746 Clouds 2 1003 80 10000 8 10 16:22 30.09.2020
3747 Clouds 2 1003 89 10000 5 350 15:47 30.09.2020
3748 Clouds 2 1003 90 10000 6 340 15:19 30.09.2020
3749 Rain 2 1003 90 10000 6 340 14:44 30.09.2020
3750 Clouds 2 1002 80 10000 6 360 14:22 30.09.2020
3751 Clouds 2 1002 80 10000 6 360 13:57 30.09.2020
3752 Rain 3 1002 91 10000 6 10 13:38 30.09.2020
3753 Clouds 3 1002 92 10000 6 30 12:48 30.09.2020
3754 Clouds 3 1002 92 10000 6 30 12:26 30.09.2020
3755 Clouds 3 1001 86 10000 4 10 11:59 30.09.2020
3756 Rain 2 1001 92 8000 8 320 11:38 30.09.2020
3757 Clouds 2 1005 91 32 2.9 60 11:19 30.09.2020
3758 Rain 2 1000 93 6000 10 40 10:46 30.09.2020
3759 Rain 3 1001 86 6000 9 40 10:20 30.09.2020
3760 Rain 3 1002 86 6000 7 40 09:43 30.09.2020
3761 Rain 3 1002 86 6000 7 40 09:23 30.09.2020
3762 Clouds 5 1003 80 8000 5 50 08:43 30.09.2020
3763 Clouds 7 1004 70 10000 2 0 08:25 30.09.2020
3764 Clouds 6 1005 70 10000 4 80 07:37 30.09.2020
3765 Clouds 6 1006 70 10000 4 70 06:46 30.09.2020
3766 Clouds 6 1006 70 10000 4 60 06:22 30.09.2020
3767 Clouds 5 1009 75 10000 4 70 04:43 30.09.2020
3768 Rain 4 1009 80 10000 4 70 03:34 30.09.2020
3769 Clouds 4 1011 80 10000 3 90 00:54 30.09.2020
3770 Clouds 4 1011 80 10000 3 90 00:54 30.09.2020
3771 Clouds 3 1011 86 10000 5 130 00:25 30.09.2020
3772 Rain 3 1012 86 10000 6 160 23:48 29.09.2020
3773 Rain 5 1012 80 10000 6 170 23:21 29.09.2020
3774 Rain 6 1012 75 10000 9 170 22:43 29.09.2020
3775 Clouds 4 1012 64 10000 5 160 22:22 29.09.2020
3776 Rain 4 1012 64 10000 2.31 155 21:42 29.09.2020
3777 Rain 4 1012 64 10000 2.84 184 21:23 29.09.2020
3778 Rain 4 1013 64 10000 2.84 184 20:58 29.09.2020
3779 Rain 4 1013 64 10000 2.84 184 20:39 29.09.2020
3780 Rain 5 1013 56 10000 1 0 20:21 29.09.2020
3781 Rain 5 1013 56 10000 1 0 19:39 29.09.2020
3782 Clouds 5 1014 56 10000 1 0 19:19 29.09.2020
3783 Clouds 5 1014 56 10000 1 0 18:43 29.09.2020
3784 Clouds 5 1014 56 10000 1 0 18:18 29.09.2020
3785 Clouds 4 1014 55 10000 3 170 17:48 29.09.2020
3786 Clouds 4 1014 55 10000 3 170 17:23 29.09.2020
3787 Clouds 5 1015 52 10000 2 160 16:42 29.09.2020
3788 Clouds 5 1015 52 10000 2 160 16:42 29.09.2020
3789 Clouds 5 1014 44 10000 3 190 16:22 29.09.2020
3790 Clouds 5 1014 44 10000 3 190 15:50 29.09.2020
3791 Clouds 5 1014 44 10000 3 190 15:29 29.09.2020
3792 Clouds 7 1014 39 10000 4 180 14:43 29.09.2020
3793 Clouds 10 1014 29 10000 4 200 14:24 29.09.2020
3794 Clouds 10 1014 29 10000 4 200 13:58 29.09.2020
3795 Clouds 10 1014 29 10000 4 200 13:28 29.09.2020
3796 Clouds 12 1014 23 10000 5 220 12:55 29.09.2020
3797 Clouds 12 1014 23 10000 5 220 12:33 29.09.2020
3798 Clouds 14 1014 26 10000 5 220 11:59 29.09.2020
3799 Clouds 14 1014 26 10000 5 220 11:34 29.09.2020
3800 Clouds 15 1014 22 10000 3 240 10:55 29.09.2020
3801 Clouds 15 1014 22 10000 3 240 10:55 29.09.2020
3802 Clouds 15 1014 22 10000 3 240 10:37 29.09.2020
3803 Clouds 15 1016 22 10000 6 250 09:47 29.09.2020
3804 Clouds 15 1016 22 10000 6 250 09:28 29.09.2020
3805 Clouds 14 1016 24 10000 6 240 08:56 29.09.2020
3806 Clouds 14 1016 24 10000 6 240 08:38 29.09.2020
3807 Clouds 13 1017 24 10000 6 240 07:56 29.09.2020
3808 Clouds 13 1017 24 10000 6 240 07:37 29.09.2020
3809 Clouds 12 1019 25 10000 1 0 05:56 29.09.2020
3810 Clouds 9 1020 31 10000 1 0 05:24 29.09.2020
3811 Clear -2 1021 79 10000 1.97 132 02:48 29.09.2020
3812 Clouds -6 1022 85 10000 1 0 02:19 29.09.2020
3813 Clouds -5 1023 79 10000 1 0 23:46 28.09.2020
3814 Clouds -5 1023 79 10000 1 0 23:27 28.09.2020
3815 Clouds -5 1023 79 10000 1.18 104 22:41 28.09.2020
3816 Clouds -6 1024 85 10000 1 0 22:22 28.09.2020
3817 Clouds -6 1024 85 10000 1 0 21:56 28.09.2020
3818 Clouds -6 1024 85 10000 1 0 21:38 28.09.2020
3819 Clouds -3 1024 73 10000 0.62 138 21:19 28.09.2020
3820 Clouds -3 1024 73 10000 0.62 138 20:54 28.09.2020
3821 Clouds -3 1024 73 10000 0.62 138 20:36 28.09.2020
3822 Clouds -4 1024 79 10000 0.57 121 20:18 28.09.2020
3823 Clouds -4 1024 79 10000 0.57 112 19:37 28.09.2020
3824 Clouds -3 1025 68 10000 0.41 109 19:18 28.09.2020
3825 Clouds -3 1025 68 10000 0.41 109 18:45 28.09.2020
3826 Clouds -3 1025 68 10000 0.52 71 18:27 28.09.2020
3827 Clouds -3 1025 68 10000 2 150 17:46 28.09.2020
3828 Clouds -3 1025 68 10000 2 150 17:28 28.09.2020
3829 Clouds -4 1025 73 10000 1 0 16:55 28.09.2020
3830 Clouds -4 1025 73 10000 1 0 16:36 28.09.2020
3831 Clouds -3 1025 63 10000 1 0 16:18 28.09.2020
3832 Clouds -3 1025 63 10000 1 0 15:36 28.09.2020
3833 Clouds -2 1025 63 10000 1 0 15:18 28.09.2020
3834 Clouds -2 1025 63 10000 1 0 14:41 28.09.2020
3835 Clear 5 1024 38 10000 2 0 14:22 28.09.2020
3836 Clear 5 1024 38 10000 2 0 13:51 28.09.2020
3837 Clear 5 1024 38 10000 2 0 13:25 28.09.2020
3838 Clear 8 1024 28 10000 4 330 12:44 28.09.2020
3839 Clear 8 1024 28 10000 4 330 12:26 28.09.2020
3840 Clouds 10 1024 25 10000 6 310 11:46 28.09.2020
3841 Clouds 10 1024 25 10000 6 310 11:27 28.09.2020
3842 Clouds 11 1024 25 10000 5 340 10:55 28.09.2020
3843 Clouds 11 1024 25 10000 5 340 10:36 28.09.2020
3844 Clouds 11 1024 29 10000 5 320 10:18 28.09.2020
3845 Clouds 11 1024 29 10000 5 320 09:32 28.09.2020
3846 Clouds 10 1025 31 10000 4 320 08:50 28.09.2020
3847 Clouds 10 1025 31 10000 4 320 08:28 28.09.2020
3848 Clouds 10 1025 31 10000 5 310 07:54 28.09.2020
3849 Clouds 10 1025 31 10000 5 310 07:35 28.09.2020
3850 Clouds 8 1026 42 10000 2 0 05:46 28.09.2020
3851 Clear 4 1027 51 10000 1 0 03:29 28.09.2020
3852 Clouds -6 1025 85 10000 2 160 00:57 28.09.2020
3853 Clouds -6 1025 85 10000 2 160 00:25 28.09.2020
3854 Clouds -5 1025 85 10000 1 0 23:42 27.09.2020
3855 Clouds -4 1025 79 10000 1 0 23:20 27.09.2020
3856 Clouds -4 1025 79 10000 1 0 22:47 27.09.2020
3857 Clouds -4 1025 79 10000 1 0 22:29 27.09.2020
3858 Clouds -2 1025 79 10000 1 0 21:44 27.09.2020
3859 Clouds -2 1025 79 10000 1 0 21:25 27.09.2020
3860 Clouds 0 1025 82 10000 1 0 20:49 27.09.2020
3861 Clouds 0 1025 78 10000 1 0 20:26 27.09.2020
3862 Clouds 0 1024 78 10000 1 0 19:49 27.09.2020
3863 Clouds 2 1024 59 10000 1.67 7 19:19 27.09.2020
3864 Clouds 2 1024 59 10000 1.67 7 18:55 27.09.2020
3865 Clouds 2 1024 59 10000 1.67 7 18:36 27.09.2020
3866 Clouds 1 1024 64 10000 1 0 18:18 27.09.2020
3867 Clouds 1 1024 64 10000 1 0 17:41 27.09.2020
3868 Clouds 1 1024 64 10000 1 0 17:41 27.09.2020
3869 Clouds 1 1024 64 10000 1 0 17:21 27.09.2020
3870 Clouds 5 1023 44 10000 3 350 16:48 27.09.2020
3871 Clouds 5 1023 44 10000 3 350 16:27 27.09.2020
3872 Clouds 5 1023 48 10000 1 0 15:45 27.09.2020
3873 Clouds 5 1023 48 10000 1 0 15:24 27.09.2020
3874 Clouds 5 1022 52 10000 2 0 14:41 27.09.2020
3875 Clouds 5 1022 52 10000 2 0 14:23 27.09.2020
3876 Clouds 7 1022 39 10000 3 360 13:56 27.09.2020
3877 Clouds 7 1022 39 10000 3 360 13:37 27.09.2020
3878 Clouds 9 1021 34 10000 5 350 13:18 27.09.2020
3879 Clouds 9 1021 34 10000 5 350 12:40 27.09.2020
3880 Clouds 10 1020 29 10000 4 330 12:20 27.09.2020
3881 Clouds 10 1020 29 10000 4 330 11:43 27.09.2020
3882 Clouds 10 1020 29 10000 4 330 11:23 27.09.2020
3883 Clouds 11 1020 27 10000 4 340 10:40 27.09.2020
3884 Clouds 12 1020 27 10000 4 330 10:21 27.09.2020
3885 Clouds 12 1020 27 10000 4 330 09:40 27.09.2020
3886 Clouds 10 1021 29 10000 3 320 09:22 27.09.2020
3887 Clouds 10 1021 29 10000 5 300 08:45 27.09.2020
3888 Clouds 10 1021 29 10000 5 300 08:25 27.09.2020
3889 Clouds 10 1021 27 10000 5 300 07:40 27.09.2020
3890 Clouds 10 1022 31 10000 2 0 06:48 27.09.2020
3891 Clouds 8 1022 31 10000 1 0 05:44 27.09.2020
3892 Clouds 2 1022 55 10000 0.95 354 03:24 27.09.2020
3893 Clouds -3 1020 73 10000 0.85 16 01:45 27.09.2020
3894 Clouds -3 1020 73 10000 0.85 16 01:45 27.09.2020
3895 Clouds -2 1020 68 10000 1 0 00:56 27.09.2020
3896 Clouds -5 1020 79 10000 2 160 00:34 27.09.2020
3897 Clouds -4 1019 68 10000 1 0 23:42 26.09.2020
3898 Clear -4 1019 68 10000 1 0 23:23 26.09.2020
3899 Clear -4 1019 79 10000 1 0 22:43 26.09.2020
3900 Clear -4 1019 79 10000 1 0 22:22 26.09.2020
3901 Clear -5 1018 73 10000 1 0 21:50 26.09.2020
3902 Clear -5 1018 73 10000 1 0 21:27 26.09.2020
3903 Clear -2 1018 63 10000 0.93 261 20:58 26.09.2020
3904 Clear -2 1018 63 10000 0.93 261 20:40 26.09.2020
3905 Clear -2 1018 63 10000 1.17 254 20:21 26.09.2020
3906 Clear 0 1018 74 10000 0.96 259 19:55 26.09.2020
3907 Clear 0 1018 74 10000 0.96 259 19:37 26.09.2020
3908 Clear -1 1017 58 10000 1 0 19:18 26.09.2020
3909 Clear -1 1017 58 10000 1 0 18:37 26.09.2020
3910 Clear 2 1017 40 10000 1 0 18:18 26.09.2020
3911 Clear 1 1017 47 10000 2 0 17:35 26.09.2020
3912 Clear -1 1016 58 10000 3 170 16:46 26.09.2020
3913 Clear -1 1016 58 10000 3 170 16:25 26.09.2020
3914 Clear 0 1016 67 10000 3 160 15:58 26.09.2020
3915 Clear 0 1016 67 10000 3 160 15:39 26.09.2020
3916 Clear 5 1015 27 10000 1 0 15:19 26.09.2020
3917 Clear 5 1015 27 10000 1 0 14:42 26.09.2020
3918 Clear 6 1015 26 10000 3 240 14:18 26.09.2020
3919 Clear 6 1015 26 10000 3 240 14:18 26.09.2020
3920 Clear 9 1014 19 10000 4 260 13:42 26.09.2020
3921 Clear 10 1014 16 10000 5 260 13:23 26.09.2020
3922 Clear 11 1013 18 10000 5 270 12:43 26.09.2020
3923 Clear 12 1013 17 10000 6 280 12:20 26.09.2020
3924 Clear 12 1013 17 10000 6 280 11:53 26.09.2020
3925 Clear 12 1013 16 10000 7 270 11:23 26.09.2020
3926 Clear 12 1013 16 10000 7 270 10:50 26.09.2020
3927 Clear 12 1013 16 10000 7 270 10:29 26.09.2020
3928 Clear 12 1013 18 10000 6 300 09:56 26.09.2020
3929 Clear 12 1013 18 10000 6 300 09:37 26.09.2020
3930 Clear 12 1012 20 10000 6 250 09:19 26.09.2020
3931 Clear 12 1012 20 10000 5 260 08:31 26.09.2020
3932 Clear 11 1012 23 10000 6 290 07:28 26.09.2020
3933 Clouds 9 1011 57 10000 5 290 03:46 26.09.2020
3934 Clouds 6 1010 87 10000 2 0 02:18 26.09.2020
3935 Clouds 5 1009 86 10000 1.93 276 00:52 26.09.2020
3936 Clouds 8 1008 75 10000 2 0 23:43 25.09.2020
3937 Clouds 9 1008 70 10000 1 0 23:20 25.09.2020
3938 Clouds 9 1008 70 10000 1 0 22:59 25.09.2020
3939 Clouds 9 1008 70 10000 1 0 22:40 25.09.2020
3940 Clouds 9 1008 76 10000 2 0 22:18 25.09.2020
3941 Clouds 9 1008 76 10000 2 0 21:41 25.09.2020
3942 Clouds 8 1008 87 10000 3 290 21:21 25.09.2020
3943 Clouds 8 1008 87 10000 3 290 20:38 25.09.2020
3944 Clouds 11 1007 66 10000 12 290 19:56 25.09.2020
3945 Clouds 11 1007 66 10000 12 290 19:27 25.09.2020
3946 Clouds 13 1006 50 10000 6 280 18:52 25.09.2020
3947 Clouds 13 1006 50 10000 6 280 18:24 25.09.2020
3948 Clouds 11 1005 62 10000 1 0 17:43 25.09.2020
3949 Clouds 13 1005 54 10000 1 0 17:21 25.09.2020
3950 Clouds 13 1005 54 10000 1 0 16:49 25.09.2020
3951 Clouds 14 1005 54 10000 3 280 16:22 25.09.2020
3952 Clouds 14 1004 50 10000 4 290 15:29 25.09.2020
3953 Clouds 16 1004 41 10000 1.84 338 14:46 25.09.2020
3954 Clouds 16 1004 41 10000 1.73 125 14:23 25.09.2020
3955 Clouds 19 1003 24 10000 4 210 13:38 25.09.2020
3956 Clouds 21 1003 19 10000 6 220 13:18 25.09.2020
3957 Clouds 22 1003 18 10000 7 230 12:40 25.09.2020
3958 Clouds 23 1004 17 10000 9 230 12:22 25.09.2020
3959 Clouds 23 1004 15 10000 9 230 11:46 25.09.2020
3960 Clouds 23 1004 15 10000 10 230 10:51 25.09.2020
3961 Clouds 24 1004 16 10000 10 230 10:27 25.09.2020
3962 Clouds 24 1004 16 10000 11 220 09:56 25.09.2020
3963 Clouds 24 1004 16 10000 10 220 09:36 25.09.2020
3964 Clouds 24 1004 17 10000 8 230 08:56 25.09.2020
3965 Clouds 23 1004 18 10000 7 230 08:28 25.09.2020
3966 Clouds 22 1005 30 10000 6 240 07:37 25.09.2020
3967 Clouds 22 1006 21 10000 6 230 06:57 25.09.2020
3968 Clouds 17 1008 29 10000 4 180 04:28 25.09.2020
3969 Clouds 6 1008 70 10000 1 0 01:58 25.09.2020
3970 Clouds 11 1008 50 10000 2 0 23:44 24.09.2020
3971 Clouds 13 1009 35 10000 4 160 22:59 24.09.2020
3972 Clouds 13 1009 35 10000 4 160 22:38 24.09.2020
3973 Clouds 13 1009 37 10000 5 160 22:20 24.09.2020
3974 Clouds 13 1009 37 10000 5 160 21:47 24.09.2020
3975 Clouds 9 1010 57 10000 2 0 21:21 24.09.2020
3976 Clouds 9 1010 57 10000 2 0 20:45 24.09.2020
3977 Clouds 9 1010 57 10000 2 0 20:26 24.09.2020
3978 Clouds 8 1010 65 10000 1 0 19:57 24.09.2020
3979 Clouds 8 1010 65 10000 1 0 19:27 24.09.2020
3980 Clouds 9 1010 57 10000 1 0 18:49 24.09.2020
3981 Clouds 9 1010 61 10000 1 0 18:20 24.09.2020
3982 Clouds 9 1010 61 10000 1 0 17:40 24.09.2020
3983 Clouds 12 1011 46 10000 1 0 16:50 24.09.2020
3984 Clouds 12 1011 46 10000 1 0 16:31 24.09.2020
3985 Clouds 14 1011 62 10000 5 140 15:44 24.09.2020
3986 Clouds 15 1011 61 10000 4 180 15:18 24.09.2020
3987 Clouds 12 1011 46 10000 3 160 14:40 24.09.2020
3988 Clouds 11 1011 50 10000 3 160 13:52 24.09.2020
3989 Clouds 18 1011 31 10000 1 0 13:23 24.09.2020
3990 Clouds 18 1011 31 10000 1 0 12:54 24.09.2020
3991 Clouds 18 1011 31 10000 1 0 12:35 24.09.2020
3992 Clouds 19 1011 54 10000 3 190 11:49 24.09.2020
3993 Clouds 20 1012 47 10000 6 220 11:19 24.09.2020
3994 Clouds 19 1012 47 10000 4 180 10:49 24.09.2020
3995 Clouds 19 1012 45 10000 4 180 10:27 24.09.2020
3996 Clouds 19 1013 45 10000 6 210 09:38 24.09.2020
3997 Clouds 19 1013 46 10000 7 200 09:18 24.09.2020
3998 Clouds 18 1014 46 10000 7 160 08:46 24.09.2020
3999 Clouds 18 1014 48 10000 7 160 08:26 24.09.2020
4000 Clouds 17 1015 36 10000 5 190 06:37 24.09.2020
4001 Clouds 11 1017 53 10000 1 0 03:55 24.09.2020
4002 Clouds 3 1017 88 10000 1 0 00:23 24.09.2020
4003 Clouds 2 1017 74 10000 2.07 111 23:59 23.09.2020
4004 Clouds 2 1017 80 10000 1 0 23:23 23.09.2020
4005 Clouds 1 1017 80 10000 1 0 22:53 23.09.2020
4006 Clouds 1 1017 80 10000 1 0 22:32 23.09.2020
4007 Clouds 3 1017 87 10000 2.13 113 21:55 23.09.2020
4008 Clouds 3 1017 87 10000 2.13 113 21:33 23.09.2020
4009 Clouds 5 1018 85 10000 2.18 112 20:57 23.09.2020
4010 Clouds 5 1018 85 10000 2.18 112 20:36 23.09.2020
4011 Clouds 5 1018 82 10000 1 0 19:51 23.09.2020
4012 Clouds 5 1018 72 10000 1 0 19:23 23.09.2020
4013 Clouds 5 1018 72 10000 1 0 19:23 23.09.2020
4014 Clouds 7 1018 72 10000 2 0 18:38 23.09.2020
4015 Clouds 5 1018 75 10000 1.15 112 17:56 23.09.2020
4016 Clouds 5 1018 75 10000 1.15 112 17:34 23.09.2020
4017 Clouds 5 1018 75 10000 2 160 16:47 23.09.2020
4018 Clouds 5 1018 75 10000 2 160 16:28 23.09.2020
4019 Clouds 5 1018 75 10000 3 180 15:45 23.09.2020
4020 Clouds 9 1017 61 10000 1.77 25 15:22 23.09.2020
4021 Clouds 9 1017 61 10000 1.77 25 15:22 23.09.2020
4022 Clouds 9 1017 61 10000 2 280 14:42 23.09.2020
4023 Clouds 10 1017 57 10000 1 0 13:57 23.09.2020
4024 Clouds 12 1017 50 10000 2 0 13:39 23.09.2020
4025 Clouds 13 1017 43 10000 2 350 13:21 23.09.2020
4026 Clouds 13 1017 43 10000 2 350 12:26 23.09.2020
4027 Clouds 15 1016 38 10000 4 340 11:49 23.09.2020
4028 Clouds 15 1016 38 10000 4 340 11:25 23.09.2020
4029 Clouds 16 1016 51 10000 4 320 10:46 23.09.2020
4030 Clouds 16 1016 49 10000 4 320 10:25 23.09.2020
4031 Clouds 17 1016 49 10000 5 320 09:44 23.09.2020
4032 Clouds 17 1017 48 10000 3 310 09:19 23.09.2020
4033 Clouds 16 1017 47 10000 4 280 08:20 23.09.2020
4034 Clouds 16 1017 46 10000 4 280 07:44 23.09.2020
4035 Clear 12 1018 46 10000 2 0 05:51 23.09.2020
4036 Clear 11 1018 50 10000 1 0 04:38 23.09.2020
4037 Clear 0 1017 82 10000 2.33 5 01:30 23.09.2020
4038 Clear -1 1016 86 10000 2 140 00:18 23.09.2020
4039 Clear 1 1016 80 10000 1 0 23:33 22.09.2020
4040 Clear -1 1016 86 10000 1 0 22:44 22.09.2020
4041 Clear 3 1016 69 10000 1 0 22:22 22.09.2020
4042 Clear 3 1016 69 10000 1 0 21:42 22.09.2020
4043 Clear 3 1016 69 10000 1 0 21:23 22.09.2020
4044 Clear 1 1015 74 10000 2 150 20:47 22.09.2020
4045 Clear 1 1015 74 10000 2 150 20:26 22.09.2020
4046 Clear 1 1015 80 10000 1 0 19:52 22.09.2020
4047 Clear 1 1015 80 10000 1 0 19:31 22.09.2020
4048 Clear 1 1015 80 10000 1 0 18:57 22.09.2020
4049 Clear 1 1015 80 10000 1 0 18:34 22.09.2020
4050 Clear 5 1015 60 10000 1 0 17:36 22.09.2020
4051 Clear 4 1015 60 10000 1 0 16:51 22.09.2020
4052 Clear 5 1014 60 10000 0.63 30 16:28 22.09.2020
4053 Clear 6 1014 56 10000 3 170 15:46 22.09.2020
4054 Clear 7 1014 52 10000 2 160 15:22 22.09.2020
4055 Clear 11 1014 34 10000 2 30 14:35 22.09.2020
4056 Clear 13 1014 32 10000 1 0 13:57 22.09.2020
4057 Clear 15 1014 26 10000 3 270 13:25 22.09.2020
4058 Clear 17 1014 27 10000 2 280 12:49 22.09.2020
4059 Clear 17 1014 27 10000 2 280 12:30 22.09.2020
4060 Clouds 19 1014 19 10000 4 250 11:50 22.09.2020
4061 Clouds 19 1014 19 10000 4 250 11:50 22.09.2020
4062 Clouds 20 1014 20 10000 2 240 11:20 22.09.2020
4063 Clouds 20 1014 20 10000 2 240 11:20 22.09.2020
4064 Clouds 19 1015 22 10000 5 230 10:37 22.09.2020
4065 Clouds 19 1015 22 10000 5 240 09:59 22.09.2020
4066 Clouds 18 1015 23 10000 5 260 09:37 22.09.2020
4067 Clouds 18 1016 23 10000 4 240 08:55 22.09.2020
4068 Clouds 17 1017 25 10000 4 240 08:20 22.09.2020
4069 Clouds 17 1017 25 10000 4 240 07:52 22.09.2020
4070 Clouds 16 1017 29 10000 4 230 07:30 22.09.2020
4071 Clear 15 1018 30 10000 3 0 06:32 22.09.2020
4072 Clear 9 1019 43 10000 1 0 04:55 22.09.2020
4073 Clear -2 1021 92 10000 1 0 01:58 22.09.2020
4074 Clear -3 1021 86 10000 1 0 00:56 22.09.2020
4075 Clear -3 1021 86 10000 1 0 00:38 22.09.2020
4076 Clear -3 1021 86 10000 1 0 23:23 21.09.2020
4077 Clear -2 1021 86 10000 1 0 22:44 21.09.2020
4078 Clear -2 1021 86 10000 1 0 22:23 21.09.2020
4079 Clear -2 1022 86 10000 0.75 142 21:41 21.09.2020
4080 Clear -2 1022 86 10000 0.76 145 21:22 21.09.2020
4081 Clear 1 1022 80 10000 2 80 20:47 21.09.2020
4082 Clear 1 1022 80 10000 2 80 20:29 21.09.2020
4083 Clear 0 1022 67 10000 1 0 19:45 21.09.2020
4084 Clear 0 1022 67 10000 1 0 19:21 21.09.2020
4085 Clear 2 1023 69 10000 1 0 18:49 21.09.2020
4086 Clear 2 1023 69 10000 1 0 18:24 21.09.2020
4087 Clear 6 1023 52 10000 1 0 17:42 21.09.2020
4088 Clear 6 1023 52 10000 1 0 17:24 21.09.2020
4089 Clear 4 1023 64 10000 3 150 16:29 21.09.2020
4090 Clear 5 1023 60 10000 1 0 15:38 21.09.2020
4091 Clear 6 1023 56 10000 2 0 15:19 21.09.2020
4092 Clear 6 1023 56 10000 2 0 14:32 21.09.2020
4093 Clouds 9 1022 45 10000 3 250 13:55 21.09.2020
4094 Clouds 13 1022 32 10000 4 280 13:20 21.09.2020
4095 Clouds 13 1022 32 10000 4 280 12:38 21.09.2020
4096 Clouds 15 1022 26 10000 4 290 12:18 21.09.2020
4097 Clouds 16 1022 25 10000 5 300 11:22 21.09.2020
4098 Clouds 16 1022 25 10000 5 300 10:56 21.09.2020
4099 Clouds 16 1022 25 10000 5 300 10:26 21.09.2020
4100 Clouds 16 1023 25 10000 5 280 09:54 21.09.2020
4101 Clouds 16 1023 25 10000 6 270 09:35 21.09.2020
4102 Clouds 14 1024 33 10000 4 250 08:25 21.09.2020
4103 Clouds 14 1025 35 10000 3 220 07:46 21.09.2020
4104 Clouds 12 1026 37 10000 4 230 06:49 21.09.2020
4105 Clear 10 1027 46 10000 2 0 05:22 21.09.2020
4106 Clear 2 1027 80 10000 1 0 02:55 21.09.2020
4107 Clear -3 1027 86 10000 2 120 00:45 21.09.2020
4108 Clear -3 1027 86 10000 1 0 22:55 20.09.2020
4109 Clear -1 1027 80 10000 2 0 22:23 20.09.2020
4110 Clear -1 1027 80 10000 2 0 21:55 20.09.2020
4111 Clear -1 1027 80 10000 2 0 21:29 20.09.2020
4112 Clear -1 1027 86 10000 2 150 20:28 20.09.2020
4113 Clear -2 1026 86 10000 3 150 19:59 20.09.2020
4114 Clear -2 1026 86 10000 3 150 19:40 20.09.2020
4115 Clear -1 1026 86 10000 2 190 19:18 20.09.2020
4116 Clear -1 1026 86 10000 2 190 18:44 20.09.2020
4117 Clear -1 1026 86 10000 1 0 18:22 20.09.2020
4118 Clear -1 1026 86 10000 1 0 17:44 20.09.2020
4119 Clear -1 1026 86 10000 1 0 17:24 20.09.2020
4120 Clear 1 1025 74 10000 2.23 346 16:30 20.09.2020
4121 Clear 4 1025 69 10000 2 290 15:41 20.09.2020
4122 Clear 5 1024 65 10000 2 0 14:50 20.09.2020
4123 Clear 7 1024 52 10000 4 340 14:20 20.09.2020
4124 Clouds 7 1024 52 10000 4 340 13:30 20.09.2020
4125 Clouds 9 1023 45 10000 6 340 12:51 20.09.2020
4126 Clouds 9 1023 45 10000 6 340 12:51 20.09.2020
4127 Clouds 9 1023 45 10000 6 340 12:28 20.09.2020
4128 Clouds 11 1023 43 10000 7 340 11:41 20.09.2020
4129 Clouds 10 1023 43 10000 6 360 11:22 20.09.2020
4130 Clouds 10 1023 43 10000 6 360 10:53 20.09.2020
4131 Clouds 10 1023 43 10000 6 360 10:29 20.09.2020
4132 Clouds 11 1023 43 10000 8 330 09:57 20.09.2020
4133 Clouds 11 1023 59 10000 9 330 08:46 20.09.2020
4134 Clouds 9 1023 64 10000 7 350 07:36 20.09.2020
4135 Clouds 9 1023 66 10000 6 340 04:59 20.09.2020
4136 Clouds 7 1019 87 10000 5 300 00:52 20.09.2020
4137 Clouds 7 1019 87 10000 5 300 00:52 20.09.2020
4138 Clouds 8 1019 81 10000 3 310 00:29 20.09.2020
4139 Clouds 9 1019 81 10000 2 0 23:26 19.09.2020
4140 Clouds 9 1018 81 10000 3 300 22:30 19.09.2020
4141 Clouds 11 1018 62 10000 3 350 21:59 19.09.2020
4142 Clouds 11 1018 62 10000 3 350 21:37 19.09.2020
4143 Clouds 12 1017 54 10000 4 340 20:54 19.09.2020
4144 Clouds 9 1016 57 10000 0.6 2 19:51 19.09.2020
4145 Clouds 7 1016 65 10000 2 0 19:22 19.09.2020
4146 Clouds 7 1016 65 10000 2 0 18:30 19.09.2020
4147 Clouds 8 1015 61 10000 2 170 17:46 19.09.2020
4148 Clouds 8 1015 61 10000 2 170 17:26 19.09.2020
4149 Rain 7 1014 65 10000 3 140 16:54 19.09.2020
4150 Clouds 7 1014 65 10000 3 140 16:24 19.09.2020
4151 Clouds 9 1014 66 10000 3 290 15:43 19.09.2020
4152 Clouds 15 1013 26 10000 5 160 13:36 19.09.2020
4153 Clouds 16 1013 31 10000 3 170 12:27 19.09.2020
4154 Clouds 24 1014 15 10000 4 230 11:37 19.09.2020
4155 Clouds 23 1014 15 10000 5 220 10:37 19.09.2020
4156 Clouds 23 1014 17 10000 5 190 09:56 19.09.2020
4157 Clouds 23 1014 17 10000 5 190 09:30 19.09.2020
4158 Clouds 23 1015 15 10000 4 190 08:55 19.09.2020
4159 Clouds 22 1015 19 10000 4 160 07:54 19.09.2020
4160 Clouds 18 1016 34 10000 2 0 06:53 19.09.2020
4161 Clouds 16 1017 41 10000 2 0 05:52 19.09.2020
4162 Clear 8 1018 65 10000 2.13 122 04:21 19.09.2020
4163 Clear -1 1019 86 10000 1 0 00:53 19.09.2020
4164 Clear -1 1018 86 10000 1.69 103 00:19 19.09.2020
4165 Clear -1 1019 86 10000 1.72 97 23:19 18.09.2020
4166 Clear -1 1019 86 10000 1.72 97 22:39 18.09.2020
4167 Clear 1 1019 86 10000 1.72 100 21:44 18.09.2020
4168 Clear 1 1019 86 10000 1.38 104 21:26 18.09.2020
4169 Clear 0 1018 69 10000 1 0 20:44 18.09.2020
4170 Clear 1 1018 86 10000 1 0 19:47 18.09.2020
4171 Clear 1 1018 86 10000 1 0 19:21 18.09.2020
4172 Clear 4 1018 80 10000 1 0 18:36 18.09.2020
4173 Clear 3 1018 86 10000 1.21 86 17:27 18.09.2020
4174 Clear 5 1018 75 10000 1 0 16:47 18.09.2020
4175 Clear 5 1018 75 10000 1 0 16:25 18.09.2020
4176 Clear 7 1018 70 10000 1 0 15:52 18.09.2020
4177 Clear 7 1018 70 10000 1 0 15:28 18.09.2020
4178 Clear 10 1017 61 10000 1 0 14:22 18.09.2020
4179 Clear 10 1017 61 10000 1 0 13:44 18.09.2020
4180 Clouds 17 1017 36 10000 2 290 12:39 18.09.2020
4181 Clouds 19 1016 24 10000 3 280 11:33 18.09.2020
4182 Clouds 19 1017 25 10000 4 290 10:42 18.09.2020
4183 Clouds 18 1017 27 10000 4 300 10:22 18.09.2020
4184 Clouds 18 1017 27 10000 4 300 09:28 18.09.2020
4185 Clouds 17 1017 33 10000 1 0 08:44 18.09.2020
4186 Clouds 17 1018 33 10000 1 0 07:42 18.09.2020
4187 Clouds 15 1018 52 10000 2 0 06:29 18.09.2020
4188 Clear -1 1019 86 10000 0.6 115 02:22 18.09.2020
4189 Clear -1 1019 86 10000 0.6 115 01:41 18.09.2020
4190 Clear -2 1020 86 10000 1 0 23:52 17.09.2020
4191 Clear -1 1019 92 10000 0.55 59 22:55 17.09.2020
4192 Clear -1 1019 92 10000 0.55 59 22:37 17.09.2020
4193 Clear 0 1019 77 10000 1 0 21:56 17.09.2020
4194 Clear 0 1019 77 10000 1 0 21:26 17.09.2020
4195 Clear -2 1019 92 10000 1 0 20:40 17.09.2020
4196 Clear -1 1019 92 10000 1 0 19:52 17.09.2020
4197 Clear 0 1019 72 10000 1 0 18:58 17.09.2020
4198 Clear 0 1019 71 10000 1 0 18:31 17.09.2020
4199 Clear 2 1019 80 10000 1 0 17:48 17.09.2020
4200 Clear 3 1019 69 10000 2 160 17:22 17.09.2020
4201 Clear 2 1019 68 10000 2 160 16:28 17.09.2020
4202 Clear 4 1019 68 10000 1 0 15:43 17.09.2020
4203 Clear 7 1018 70 10000 2 0 14:47 17.09.2020
4204 Clear 7 1018 70 10000 2 0 14:25 17.09.2020
4205 Clear 12 1018 46 10000 2 360 13:52 17.09.2020
4206 Clouds 15 1017 38 10000 3 350 13:22 17.09.2020
4207 Clouds 15 1017 38 10000 3 350 12:27 17.09.2020
4208 Clouds 15 1017 33 10000 4 320 11:37 17.09.2020
4209 Clouds 17 1017 33 10000 4 330 10:43 17.09.2020
4210 Clouds 17 1017 33 10000 4 330 10:25 17.09.2020
4211 Clouds 16 1017 31 10000 5 300 09:50 17.09.2020
4212 Clouds 15 1018 41 10000 3 270 09:22 17.09.2020
4213 Clouds 15 1018 41 10000 3 270 08:40 17.09.2020
4214 Clouds 14 1018 44 10000 2 0 08:21 17.09.2020
4215 Clouds 13 1019 47 10000 2 0 07:20 17.09.2020
4216 Clouds 13 1019 47 10000 2 0 06:47 17.09.2020
4217 Clouds 8 1020 61 10000 1 0 04:48 17.09.2020
4218 Clouds -2 1020 92 10000 0.98 6 01:43 17.09.2020
4219 Clouds -2 1020 92 10000 1.06 13 01:25 17.09.2020
4220 Clouds -2 1020 92 10000 1.06 13 01:25 17.09.2020
4221 Clouds -2 1020 92 10000 1.06 13 01:25 17.09.2020
4222 Clouds -2 1020 92 10000 1.06 13 01:25 17.09.2020
4223 Clouds -2 1020 92 10000 1.06 13 01:25 17.09.2020
4224 Clouds -2 1020 92 10000 1.06 13 01:25 17.09.2020
4225 Clouds -2 1020 92 10000 1.06 13 01:25 17.09.2020
4226 Clouds -2 1020 92 10000 1.06 13 01:25 17.09.2020
4227 Clear -3 1020 92 10000 1 0 00:21 17.09.2020
4228 Clear -2 1020 92 10000 1.11 12 23:31 16.09.2020
4229 Clear -3 1020 92 10000 1.18 2 22:42 16.09.2020
4230 Clear -2 1019 92 10000 1 0 22:18 16.09.2020
4231 Clear -2 1019 92 10000 1 0 21:26 16.09.2020
4232 Clear 0 1020 82 10000 1 0 20:40 16.09.2020
4233 Clouds 0 1019 81 10000 1.12 13 19:58 16.09.2020
4234 Clear 1 1019 86 10000 2 170 18:49 16.09.2020
4235 Clouds 2 1019 78 10000 2 160 16:57 16.09.2020
4236 Clouds 2 1019 78 10000 2 160 16:32 16.09.2020
4237 Clouds 2 1019 77 10000 2 180 15:52 16.09.2020
4238 Clouds 6 1018 75 10000 2 310 14:57 16.09.2020
4239 Clouds 6 1018 75 10000 2 310 14:28 16.09.2020
4240 Clouds 8 1018 65 10000 2 350 13:40 16.09.2020
4241 Clouds 11 1018 50 10000 4 330 12:46 16.09.2020
4242 Clouds 12 1018 46 10000 4 330 11:37 16.09.2020
4243 Clouds 12 1018 52 10000 4 330 10:38 16.09.2020
4244 Clouds 12 1018 46 10000 3 320 09:48 16.09.2020
4245 Clouds 11 1018 48 10000 4 310 09:22 16.09.2020
4246 Clouds 11 1018 50 10000 4 310 08:44 16.09.2020
4247 Clouds 10 1018 46 10000 4 320 07:32 16.09.2020
4248 Clouds 2 1018 93 10000 3 310 01:52 16.09.2020
4249 Clouds 1 1017 86 10000 2 330 23:51 15.09.2020
4250 Clouds 1 1017 86 10000 2 330 23:32 15.09.2020
4251 Clouds 2 1017 84 10000 2 260 22:50 15.09.2020
4252 Clouds 3 1017 86 10000 3 340 22:20 15.09.2020
4253 Clouds 3 1017 86 10000 3 340 21:40 15.09.2020
4254 Clouds 2 1017 87 10000 2 320 20:51 15.09.2020
4255 Clouds 2 1017 90 10000 2 320 20:23 15.09.2020
4256 Clouds 4 1017 89 10000 1 0 19:40 15.09.2020
4257 Clouds 2 1016 89 10000 2 0 18:28 15.09.2020
4258 Clouds 3 1016 89 10000 3 330 17:32 15.09.2020
4259 Clouds 4 1016 88 10000 3 340 16:52 15.09.2020
4260 Clouds 4 1016 87 10000 3 340 16:28 15.09.2020
4261 Clouds 5 1015 86 10000 4 340 15:20 15.09.2020
4262 Clouds 6 1015 86 10000 4 340 14:42 15.09.2020
4263 Clouds 7 1014 56 10000 7 340 12:35 15.09.2020
4264 Clouds 8 1013 59 10000 8 330 10:22 15.09.2020
4265 Clouds 8 1013 59 10000 8 330 09:22 15.09.2020
4266 Clouds 8 1013 59 10000 8 330 08:36 15.09.2020
4267 Clouds 6 1013 70 10000 7 320 07:27 15.09.2020
4268 Clouds 5 1013 75 10000 8 340 06:22 15.09.2020
4269 Clouds 3 1012 86 10000 2 330 23:41 14.09.2020
4270 Clouds 3 1012 86 10000 3 320 22:43 14.09.2020
4271 Clouds 3 1012 86 10000 2 320 22:23 14.09.2020
4272 Clouds 3 1011 86 10000 1 0 20:38 14.09.2020
4273 Clouds 3 1012 86 10000 2 270 18:33 14.09.2020
4274 Clouds 3 1012 86 10000 1 0 16:50 14.09.2020
4275 Clouds 3 1012 86 10000 1 190 16:21 14.09.2020
4276 Clouds 4 1012 86 10000 1 0 14:50 14.09.2020
4277 Clouds 4 1012 86 10000 1 0 14:21 14.09.2020
4278 Clouds 5 1011 75 10000 6 300 12:47 14.09.2020
4279 Clouds 7 1010 56 10000 9 220 11:28 14.09.2020
4280 Clouds 9 1011 45 10000 6 240 08:52 14.09.2020
4281 Clouds 8 1012 52 10000 3 240 07:52 14.09.2020
4282 Clear 3 1016 74 10000 1 0 21:58 13.09.2020
4283 Clear 3 1016 74 10000 1 0 21:37 13.09.2020
4284 Clouds 4 1018 86 10000 2 0 17:40 13.09.2020
4285 Clouds 5 1017 80 10000 2 0 14:51 13.09.2020
4286 Clouds 7 1018 64 10000 2 0 11:58 13.09.2020
4287 Clouds 9 1017 49 10000 5 280 10:21 13.09.2020
4288 Clouds 8 1017 61 10000 6 340 07:38 13.09.2020
4289 Clouds 7 1017 70 10000 6 280 06:52 13.09.2020
4290 Clouds 5 1017 80 10000 4 290 21:22 12.09.2020
4291 Clouds 5 1017 80 10000 4 290 20:58 12.09.2020
4292 Clouds 6 1016 81 10000 8 270 19:43 12.09.2020
4293 Clouds 8 1015 87 10000 1 0 18:18 12.09.2020
4294 Clouds 8 1015 87 10000 2 0 17:46 12.09.2020
4295 Clouds 8 1014 87 10000 1 0 16:53 12.09.2020
4296 Clouds 11 1016 81 10000 2 0 14:37 12.09.2020
4297 Clouds 12 1016 71 10000 2 300 12:55 12.09.2020
4298 Clouds 13 1016 71 10000 1 0 10:58 12.09.2020
4299 Clouds 11 1018 81 10000 3 270 06:45 12.09.2020
4300 Clouds 10 1018 81 10000 2 0 04:59 12.09.2020
4301 Clouds 14 1016 35 10000 10 150 00:50 12.09.2020
4302 Clouds 15 1018 33 10000 9 170 22:36 11.09.2020
4303 Clouds 15 1016 43 10000 12 140 21:32 11.09.2020
4304 Clouds 13 1014 46 10000 3.92 130 19:35 11.09.2020
4305 Clouds 13 1014 50 10000 5.51 123 17:47 11.09.2020
4306 Clouds 18 1017 31 10000 10 140 16:32 11.09.2020
4307 Clouds 19 1017 22 10000 8 140 14:23 11.09.2020
4308 Clouds 22 1017 49 10000 10 140 11:45 11.09.2020
4309 Clouds 23 1017 23 10000 8 140 10:41 11.09.2020
4310 Clouds 21 1018 26 10000 8 150 07:33 11.09.2020
4311 Clouds 17 1019 36 9998 5 150 21:37 10.09.2020
4312 Clouds 18 1017 31 10000 12 140 19:33 10.09.2020
4313 Clouds 18 1016 31 10000 11 140 17:54 10.09.2020
4314 Clouds 20 1016 28 10000 10 140 15:54 10.09.2020
4315 Clouds 16 1013 50 10000 3.06 136 14:21 10.09.2020
4316 Clouds 16 1013 50 10000 3.06 136 14:21 10.09.2020
4317 Clouds 23 1015 25 10000 6 150 11:36 10.09.2020
4318 Clouds 24 1015 25 10000 8 160 09:30 10.09.2020
4319 Clouds 24 1016 25 10000 8 160 07:47 10.09.2020
4320 Clouds 24 1016 25 10000 8 160 07:20 10.09.2020
4321 Clouds 14 1015 57 10000 1.83 103 21:49 09.09.2020
4322 Clouds 14 1015 58 10000 2.27 116 18:18 09.09.2020
4323 Rain 18 1017 42 10000 8 130 17:22 09.09.2020
4324 Rain 18 1017 42 10000 8 130 17:22 09.09.2020
4325 Clouds 18 1016 39 10000 4 140 14:39 09.09.2020
4326 Clouds 25 1017 25 10000 4 230 10:41 09.09.2020
4327 Clouds 24 1017 27 10000 5 230 09:54 09.09.2020
4328 Clouds 25 1017 27 10000 5 210 08:40 09.09.2020
4329 Clouds 21 1019 35 10000 5 180 06:31 09.09.2020
4330 Clouds 19 1019 42 10000 3 150 04:41 09.09.2020
4331 Clouds 19 1019 42 10000 3 150 04:41 09.09.2020
4332 Clouds 14 1021 62 10000 1 0 23:39 08.09.2020
4333 Clouds 17 1020 48 10000 3 160 22:44 08.09.2020
4334 Clouds 17 1020 48 10000 3 160 21:37 08.09.2020
4335 Rain 17 1020 48 10000 3 160 21:19 08.09.2020
4336 Clouds 18 1020 42 10000 3 160 18:21 08.09.2020
4337 Clouds 19 1019 42 10000 6 140 14:54 08.09.2020
4338 Clouds 24 1019 31 10000 2 0 11:40 08.09.2020
4339 Clouds 24 1019 31 10000 3 220 10:54 08.09.2020
4340 Clouds 24 1019 31 10000 3 160 10:18 08.09.2020
4341 Clouds 23 1020 33 10000 4 160 09:38 08.09.2020
4342 Clouds 21 1021 40 10000 5 170 07:39 08.09.2020
4343 Clear 7 1022 87 10000 1 0 00:19 08.09.2020
4344 Clear 8 1022 81 10000 1 0 22:38 07.09.2020
4345 Clear 9 1022 81 10000 1 0 20:31 07.09.2020
4346 Clear 14 1021 58 10000 1 0 17:36 07.09.2020
4347 Clear 18 1019 48 10000 2 0 13:32 07.09.2020
4348 Clear 22 1019 33 10000 1 0 12:27 07.09.2020
4349 Clouds 22 1019 35 10000 2 0 11:50 07.09.2020
4350 Clouds 22 1019 35 10000 1 0 11:21 07.09.2020
4351 Clouds 22 1019 35 10000 1 0 10:26 07.09.2020
4352 Mist 9 1022 87 3200 2 0 03:30 07.09.2020
4353 Clouds 5 1020 86 10000 2 0 21:54 06.09.2020
4354 Clouds 5 1020 86 10000 2 0 21:33 06.09.2020
4355 Clouds 4 1020 93 10000 2 150 20:35 06.09.2020
4356 Clouds 6 1020 87 10000 1 0 19:18 06.09.2020
4357 Clouds 12 1019 81 10000 3 360 15:55 06.09.2020
4358 Clouds 12 1018 81 10000 3 330 14:25 06.09.2020
4359 Clouds 13 1018 76 10000 5 320 13:42 06.09.2020
4360 Clouds 17 1017 59 10000 7 340 11:33 06.09.2020
4361 Clouds 19 1016 55 10000 5 320 08:57 06.09.2020
4362 Clouds 8 1013 93 10000 2 290 00:28 06.09.2020
4363 Clouds 7 1012 87 10000 1 0 22:37 05.09.2020
4364 Clouds 9 1010 87 10000 1 0 18:21 05.09.2020
4365 Clouds 16 1009 55 10000 5 40 14:46 05.09.2020
4366 Clouds 16 1009 55 10000 6 60 13:52 05.09.2020
4367 Clouds 16 1008 59 10000 6 60 12:42 05.09.2020
4368 Rain 15 1008 67 10000 6 320 11:42 05.09.2020
4369 Clouds 19 1007 48 10000 7 320 10:36 05.09.2020
4370 Clouds 22 1006 37 10000 2 0 09:25 05.09.2020
4371 Clouds 17 1007 59 10000 2 0 06:57 05.09.2020
4372 Clouds 6 1008 93 10000 1 0 23:56 04.09.2020
4373 Clouds 8 1008 87 10000 1 0 19:55 04.09.2020
4374 Clouds 9 1009 81 10000 1 0 18:49 04.09.2020
4375 Clouds 10 1009 81 10000 1 0 17:56 04.09.2020
4376 Clear 12 1009 81 10000 1 0 15:32 04.09.2020
4377 Clouds 18 1009 55 10000 1 0 14:21 04.09.2020
4378 Clouds 21 1010 40 10000 3 280 10:55 04.09.2020
4379 Clouds 17 1013 45 10000 1 0 07:23 04.09.2020
4380 Clouds 15 1014 58 10000 1 0 05:56 04.09.2020
4381 Clear 6 1015 93 10000 3 170 22:42 03.09.2020
4382 Clear 6 1015 93 10000 2 170 21:45 03.09.2020
4383 Clear 7 1015 93 10000 1 0 20:56 03.09.2020
4384 Clear 7 1015 87 10000 2 170 20:25 03.09.2020
4385 Clear 8 1015 87 10000 2 180 18:20 03.09.2020
4386 Clear 10 1015 81 10000 1 0 16:27 03.09.2020
4387 Clouds 14 1015 71 10000 3 330 14:45 03.09.2020
4388 Clouds 19 1014 48 10000 6 350 12:27 03.09.2020
4389 Clouds 21 1014 35 10000 4 300 10:49 03.09.2020
4390 Clouds 19 1015 42 10000 2 0 08:39 03.09.2020
4391 Clouds 10 1017 100 10000 1.02 136 00:18 03.09.2020
4392 Clear 7 1017 87 10000 1.18 134 20:44 02.09.2020
4393 Clouds 7 1017 87 10000 1.21 131 20:25 02.09.2020
4394 Clouds 9 1016 81 10000 1 0 17:58 02.09.2020
4395 Clouds 11 1016 76 10000 3 170 15:26 02.09.2020
4396 Clouds 19 1016 45 10000 4 230 11:51 02.09.2020
4397 Clouds 19 1017 45 10000 3 210 08:46 02.09.2020
4398 Clouds 17 1017 48 10000 2 0 07:26 02.09.2020
4399 Clear 2 1019 83 10000 1 0 00:20 02.09.2020
4400 Clear 2 1019 83 10000 1 0 00:20 02.09.2020
4401 Clear 3 1019 93 10000 2 150 21:38 01.09.2020
4402 Clear 3 1019 93 10000 1 0 19:50 01.09.2020
4403 Clear 4 1019 86 10000 2 130 18:36 01.09.2020
4404 Clear 4 1020 86 10000 2 0 18:18 01.09.2020
4405 Clear 5 1019 86 10000 2 160 16:34 01.09.2020
4406 Clouds 8 1019 81 10000 1 0 15:34 01.09.2020
4407 Clouds 13 1018 62 10000 4 340 13:38 01.09.2020
4408 Rain 15 1018 51 10000 6 330 10:37 01.09.2020
4409 Clouds 15 1018 47 10000 6 350 09:45 01.09.2020
4410 Clouds 14 1019 58 10000 5 300 07:34 01.09.2020
4411 Clouds 4 1018 93 10000 2.39 325 23:20 31.08.2020
4412 Clouds 6 1017 87 10000 2.19 324 20:30 31.08.2020
4413 Clouds 9 1017 87 10000 1 0 17:42 31.08.2020
4414 Clouds 10 1017 81 10000 1 0 16:29 31.08.2020
4415 Clouds 11 1016 76 10000 3 330 13:58 31.08.2020
4416 Clouds 13 1015 71 10000 5 330 12:19 31.08.2020
4417 Rain 13 1015 71 10000 6 320 09:27 31.08.2020
4418 Clouds 11 1014 87 10000 7 330 06:51 31.08.2020
4419 Rain 10 1013 93 10000 2 290 01:50 31.08.2020
4420 Rain 10 1013 93 10000 2 290 01:50 31.08.2020
4421 Rain 10 1013 93 10000 2.38 345 23:18 30.08.2020
4422 Rain 11 1014 87 10000 1 0 21:22 30.08.2020
4423 Rain 11 1013 87 10000 0.94 62 18:57 30.08.2020
4424 Rain 11 1013 87 10000 0.94 62 18:39 30.08.2020
4425 Rain 11 1014 87 10000 0.66 81 17:31 30.08.2020
4426 Clouds 11 1013 87 10000 0.17 81 15:24 30.08.2020
4427 Clouds 11 1013 87 10000 1 0 14:50 30.08.2020
4428 Clouds 16 1012 59 10000 1.1 172 11:53 30.08.2020
4429 Clouds 17 1012 55 10000 1 0 11:34 30.08.2020
4430 Clouds 16 1012 63 10000 1 0 09:24 30.08.2020
4431 Rain 15 1012 72 10000 2 0 08:46 30.08.2020
4432 Clouds 14 1014 76 10000 4 160 23:20 29.08.2020
4433 Clouds 15 1014 62 10000 4 130 20:30 29.08.2020
4434 Clouds 15 1014 72 10000 1 0 19:37 29.08.2020
4435 Clouds 15 1015 72 10000 1.13 92 17:59 29.08.2020
4436 Clouds 15 1015 72 10000 1.03 97 17:25 29.08.2020
4437 Clouds 15 1015 72 10000 3 150 15:56 29.08.2020
4438 Clouds 15 1015 72 10000 2 140 14:38 29.08.2020
4439 Clouds 19 1014 52 10000 2 0 10:51 29.08.2020
4440 Clouds 19 1014 52 10000 3 230 08:23 29.08.2020
4441 Clouds 8 1015 93 10000 1 0 23:38 28.08.2020
4442 Clouds 9 1015 87 10000 1 0 22:22 28.08.2020
4443 Clouds 10 1014 87 10000 1 0 20:27 28.08.2020
4444 Clouds 11 1014 81 10000 1 0 19:20 28.08.2020
4445 Clouds 13 1014 76 10000 3 20 17:41 28.08.2020
4446 Clouds 13 1014 76 10000 3 360 16:54 28.08.2020
4447 Clouds 15 1014 67 10000 4 30 16:22 28.08.2020
4448 Clouds 15 1013 67 10000 3 360 14:27 28.08.2020
4449 Clouds 16 1013 63 10000 5 360 13:52 28.08.2020
4450 Clouds 18 1011 55 10000 3 50 11:34 28.08.2020
4451 Clouds 18 1010 55 10000 7 310 09:53 28.08.2020
4452 Clouds 17 1011 59 10000 5 320 08:48 28.08.2020
4453 Clouds 16 1011 59 10000 3 350 06:24 28.08.2020
4454 Clouds 14 1011 71 10000 5 330 05:39 28.08.2020
4455 Clouds 8 1009 93 10000 1 0 23:51 27.08.2020
4456 Clouds 9 1008 87 10000 1 0 22:55 27.08.2020
4457 Clouds 10 1007 81 10000 2 0 20:55 27.08.2020
4458 Clouds 10 1006 81 10000 1 0 19:49 27.08.2020
4459 Clouds 10 1006 81 10000 1 0 19:24 27.08.2020
4460 Clouds 10 1005 81 10000 2 0 17:24 27.08.2020
4461 Clouds 12 1005 66 10000 1 0 16:44 27.08.2020
4462 Clouds 16 1004 59 10000 1 0 13:57 27.08.2020
4463 Clouds 17 1003 48 10000 4 250 13:23 27.08.2020
4464 Clouds 17 1002 55 10000 4 190 11:19 27.08.2020
4465 Clouds 18 1002 48 10000 3 220 09:28 27.08.2020
4466 Clouds 16 1002 59 10000 2 0 08:31 27.08.2020
4467 Clouds 11 1001 81 10000 2 270 02:42 27.08.2020
4468 Thunderstorm 9 1000 87 10000 4 340 23:44 26.08.2020
4469 Clouds 13 1000 87 10000 3 300 22:28 26.08.2020
4470 Clouds 13 1002 87 10000 3 240 20:33 26.08.2020
4471 Clouds 10 1001 93 10000 2 170 19:56 26.08.2020
4472 Clouds 16 1001 72 10000 2 0 17:23 26.08.2020
4473 Rain 16 1002 77 10000 2 0 14:59 26.08.2020
4474 Clouds 17 1001 72 10000 4 40 13:57 26.08.2020
4475 Rain 22 1002 46 10000 8 140 10:38 26.08.2020
4476 Clouds 20 1004 52 10000 10 130 07:55 26.08.2020
4477 Clouds 10 1009 87 10000 2 0 22:42 25.08.2020
4478 Clouds 6 1008 93 10000 1.69 108 21:38 25.08.2020
4479 Clouds 8 1008 87 10000 1.39 110 21:19 25.08.2020
4480 Clouds 8 1008 87 10000 1.39 112 20:24 25.08.2020
4481 Clouds 9 1008 87 10000 1 0 19:54 25.08.2020
4482 Clouds 9 1009 93 10000 1 0 18:44 25.08.2020
4483 Clouds 10 1009 87 10000 1 0 17:38 25.08.2020
4484 Clouds 13 1008 82 10000 2 0 16:56 25.08.2020
4485 Clouds 13 1008 82 10000 2 0 15:30 25.08.2020
4486 Clouds 13 1008 82 10000 1.58 34 14:40 25.08.2020
4487 Clouds 18 1007 55 10000 1 0 12:22 25.08.2020
4488 Rain 15 1008 72 10000 3 50 10:57 25.08.2020
4489 Clouds 19 1008 55 10000 2 0 07:58 25.08.2020
4490 Clouds 19 1008 55 10000 2 0 07:27 25.08.2020
4491 Clouds 17 1008 59 10000 3.19 255 06:54 25.08.2020
4492 Clouds 15 1009 62 10000 2.4 267 06:23 25.08.2020
4493 Clouds 15 1009 62 10000 2.4 267 05:44 25.08.2020
4494 Clouds 14 1009 71 10000 2 0 05:20 25.08.2020
4495 Clouds 11 1008 87 10000 3 20 03:45 25.08.2020
4496 Clouds 11 1008 87 10000 3 20 03:27 25.08.2020
4497 Clouds 11 1008 87 10000 2 100 02:44 25.08.2020
4498 Rain 11 1009 81 10000 5 150 22:42 24.08.2020
4499 Rain 11 1009 81 10000 2 0 21:50 24.08.2020
4500 Clouds 12 1009 58 10000 3 110 20:38 24.08.2020
4501 Clouds 12 1008 58 10000 1 0 19:51 24.08.2020
4502 Clouds 12 1008 58 10000 2 0 17:56 24.08.2020
4503 Clouds 12 1008 58 10000 2 0 17:33 24.08.2020
4504 Clouds 9 1008 66 10000 1 0 16:33 24.08.2020
4505 Clear 12 1008 54 10000 2 0 15:24 24.08.2020
4506 Clear 17 1008 36 10000 2 0 14:30 24.08.2020
4507 Clouds 18 1007 36 10000 3 360 13:28 24.08.2020
4508 Clouds 20 1007 32 10000 5 360 12:20 24.08.2020
4509 Clouds 20 1007 32 10000 5 360 12:20 24.08.2020
4510 Clouds 20 1007 32 10000 5 360 11:53 24.08.2020
4511 Clouds 21 1007 28 10000 5 330 11:32 24.08.2020
4512 Clouds 21 1007 30 10000 6 330 10:34 24.08.2020
4513 Clouds 20 1008 28 10000 7 310 08:46 24.08.2020
4514 Clouds 19 1008 34 10000 3 280 07:52 24.08.2020
4515 Clouds 5 1009 86 10000 1 0 00:39 24.08.2020
4516 Clear 5 1009 86 10000 3 190 00:21 24.08.2020
4517 Clear 5 1009 86 10000 3 190 23:42 23.08.2020
4518 Clear 8 1009 81 10000 1 0 21:40 23.08.2020
4519 Clear 11 1008 71 10000 4 320 19:54 23.08.2020
4520 Clear 13 1008 66 10000 2 0 18:45 23.08.2020
4521 Clear 14 1008 62 10000 2 0 17:53 23.08.2020
4522 Clouds 15 1008 58 10000 2 330 16:40 23.08.2020
4523 Clouds 18 1007 45 10000 5 300 15:28 23.08.2020
4524 Clouds 18 1006 45 10000 4 280 14:50 23.08.2020
4525 Clouds 23 1006 31 10000 6 280 13:20 23.08.2020
4526 Clouds 23 1006 33 10000 5 250 10:56 23.08.2020
4527 Clouds 23 1006 33 10000 5 250 10:30 23.08.2020
4528 Clouds 23 1007 28 10000 2 0 08:22 23.08.2020
4529 Clouds 21 1007 40 10000 2 0 06:37 23.08.2020
4530 Clear 6 1009 87 10000 0.24 354 00:38 23.08.2020
4531 Clear 6 1009 93 10000 0.36 333 00:20 23.08.2020
4532 Clear 8 1008 87 10000 0.47 337 23:21 22.08.2020
4533 Clear 8 1008 87 10000 0.47 337 22:50 22.08.2020
4534 Clear 9 1008 87 10000 1 0 19:55 22.08.2020
4535 Clear 11 1008 81 10000 2 140 18:31 22.08.2020
4536 Clear 11 1008 87 10000 2 170 17:43 22.08.2020
4537 Clear 11 1008 87 10000 3 160 16:57 22.08.2020
4538 Clouds 21 1006 35 10000 4 260 13:49 22.08.2020
4539 Clouds 21 1006 35 10000 4 260 13:31 22.08.2020
4540 Clouds 23 1006 40 10000 5 250 11:47 22.08.2020
4541 Clouds 23 1007 43 10000 3 350 10:28 22.08.2020
4542 Clouds 22 1008 46 10000 2 0 09:22 22.08.2020
4543 Clouds 16 1010 59 10000 2 0 02:56 22.08.2020
4544 Clouds 9 1010 81 10000 2 120 23:29 21.08.2020
4545 Clouds 13 1011 71 10000 1 0 21:27 21.08.2020
4546 Clouds 16 1012 55 10000 1 0 19:25 21.08.2020
4547 Clouds 18 1013 45 10000 6 140 16:48 21.08.2020
4548 Clouds 20 1013 42 10000 6 140 14:39 21.08.2020
4549 Clouds 22 1013 37 10000 4 130 12:36 21.08.2020
4550 Clouds 24 1013 31 10000 5 150 11:24 21.08.2020
4551 Clouds 22 1016 37 10000 2 0 08:29 21.08.2020
4552 Clouds 21 1016 37 10000 1 0 07:21 21.08.2020
4553 Clouds 17 1017 39 10000 4 170 00:19 21.08.2020
4554 Clouds 18 1016 36 10000 5 140 22:36 20.08.2020
4555 Clear 19 1016 37 10000 7 150 19:31 20.08.2020
4556 Clear 20 1016 37 10000 6 150 18:21 20.08.2020
4557 Clear 21 1015 32 10000 10 140 16:47 20.08.2020
4558 Clear 22 1014 37 10000 6 150 14:56 20.08.2020
4559 Clouds 25 1014 31 10000 4 190 13:31 20.08.2020
4560 Clouds 27 1014 30 10000 6 230 11:44 20.08.2020
4561 Clouds 26 1014 29 10000 5 180 10:50 20.08.2020
4562 Clouds 25 1015 31 10000 6 190 09:37 20.08.2020
4563 Clouds 23 1016 33 10000 6 180 08:47 20.08.2020
4564 Clouds 22 1017 37 10000 7 170 07:32 20.08.2020
4565 Clouds 18 1018 45 10000 8 140 04:50 20.08.2020
4566 Clouds 15 1018 51 10000 9 140 02:19 20.08.2020
4567 Clouds 14 1018 50 10000 9 140 00:40 20.08.2020
4568 Clear 14 1018 58 10000 5 130 21:51 19.08.2020
4569 Clouds 15 1018 54 10000 6 140 20:24 19.08.2020
4570 Clouds 15 1017 62 10000 8 140 17:57 19.08.2020
4571 Clouds 15 1018 62 10000 8 150 17:33 19.08.2020
4572 Clouds 16 1018 63 10000 8 150 15:40 19.08.2020
4573 Clouds 14 1017 71 10000 3 120 14:42 19.08.2020
4574 Rain 14 1018 82 10000 4 130 13:35 19.08.2020
4575 Clouds 21 1016 46 10000 8 160 10:51 19.08.2020
4576 Clouds 21 1016 46 10000 8 160 10:31 19.08.2020
4577 Clouds 22 1016 46 10000 8 140 09:45 19.08.2020
4578 Clouds 19 1018 55 10000 9 150 07:19 19.08.2020
4579 Clouds 11 1017 81 10000 2 0 22:41 18.08.2020
4580 Clouds 10 1017 87 10000 2 0 22:18 18.08.2020
4581 Clouds 10 1017 87 10000 2 0 21:44 18.08.2020
4582 Clouds 10 1017 81 10000 1 0 20:44 18.08.2020
4583 Clear 10 1017 81 10000 1 0 20:23 18.08.2020
4584 Clear 11 1017 71 10000 1 0 18:38 18.08.2020
4585 Clear 13 1017 71 10000 6 140 17:46 18.08.2020
4586 Clear 13 1017 76 10000 6 140 16:24 18.08.2020
4587 Clear 11 1015 66 10000 3 160 14:39 18.08.2020
4588 Clouds 20 1015 30 10000 1 62 13:30 18.08.2020
4589 Clouds 19 1015 55 10000 2 0 12:49 18.08.2020
4590 Clouds 19 1015 29 10000 3 270 10:35 18.08.2020
4591 Clouds 19 1015 39 10000 3 260 08:49 18.08.2020
4592 Clouds 18 1016 39 10000 3 280 07:56 18.08.2020
4593 Clouds 17 1016 45 10000 2 0 06:32 18.08.2020
4594 Clouds 6 1015 93 10000 1 0 23:47 17.08.2020
4595 Clouds 6 1015 93 10000 1 0 23:24 17.08.2020
4596 Clouds 7 1015 87 10000 2 180 21:49 17.08.2020
4597 Clouds 9 1014 81 10000 1 0 20:50 17.08.2020
4598 Clouds 9 1014 81 10000 1 0 20:21 17.08.2020
4599 Clear 10 1014 71 10000 1 0 18:19 17.08.2020
4600 Clouds 12 1014 66 10000 2 0 16:22 17.08.2020
4601 Clouds 13 1013 62 10000 1 0 15:22 17.08.2020
4602 Clouds 13 1013 66 10000 3 350 14:55 17.08.2020
4603 Clouds 14 1012 71 10000 6 330 12:50 17.08.2020
4604 Clouds 15 1011 72 10000 6 340 11:42 17.08.2020
4605 Clouds 15 1011 72 10000 6 340 11:22 17.08.2020
4606 Clouds 17 1010 63 10000 5 330 10:20 17.08.2020
4607 Clouds 17 1011 63 10000 4 330 08:45 17.08.2020
4608 Clouds 17 1011 67 10000 4 250 06:47 17.08.2020
4609 Clouds 9 1010 87 10000 1.23 346 00:20 17.08.2020
4610 Thunderstorm 12 1009 93 10000 2 70 22:19 16.08.2020
4611 Thunderstorm 12 1009 93 10000 2 70 21:26 16.08.2020
4612 Clouds 13 1006 85 10000 1.63 85 18:39 16.08.2020
4613 Clear 12 1007 85 10000 1.89 86 17:57 16.08.2020
4614 Clear 13 1006 85 10000 2.26 88 16:34 16.08.2020
4615 Rain 13 1006 83 10000 2.21 89 15:45 16.08.2020
4616 Rain 14 1005 81 10000 2.79 98 15:18 16.08.2020
4617 Clouds 17 1004 73 10000 3.16 94 12:54 16.08.2020
4618 Rain 19 1004 70 10000 3.22 97 12:28 16.08.2020
4619 Rain 19 1005 69 9024 5.06 108 11:25 16.08.2020
4620 Rain 19 1005 69 9024 5.06 108 10:52 16.08.2020
4621 Rain 19 1005 71 10000 5.44 120 10:29 16.08.2020
4622 Clouds 19 1008 68 10000 2 0 08:32 16.08.2020
4623 Rain 15 1008 87 10000 5 300 07:21 16.08.2020
4624 Rain 15 1009 87 10000 2 0 05:43 16.08.2020
4625 Clouds 9 1009 93 10000 1.6 75 22:49 15.08.2020
4626 Clouds 10 1010 87 10000 1.1 77 20:39 15.08.2020
4627 Clouds 10 1010 87 10000 1.19 72 20:21 15.08.2020
4628 Clouds 11 1010 87 10000 0.95 76 19:19 15.08.2020
4629 Clouds 11 1010 87 10000 2 160 16:50 15.08.2020
4630 Clouds 11 1010 87 10000 2 150 16:20 15.08.2020
4631 Clouds 11 1010 87 10000 2 150 16:20 15.08.2020
4632 Clouds 11 1010 87 10000 2 150 16:20 15.08.2020
4633 Clouds 11 1010 87 10000 2 150 16:20 15.08.2020
4634 Clouds 11 1010 87 10000 2 150 16:20 15.08.2020
4635 Clouds 11 1010 87 10000 2 150 16:20 15.08.2020
4636 Clouds 11 1010 87 10000 2 150 16:20 15.08.2020
4637 Clouds 15 1010 72 10000 1 0 14:51 15.08.2020
4638 Clouds 19 1009 55 10000 4 40 13:28 15.08.2020
4639 Thunderstorm 17 1009 72 10000 6 350 12:31 15.08.2020
4640 Clouds 22 1008 43 10000 2 240 11:31 15.08.2020
4641 Clouds 22 1008 43 10000 2 240 11:31 15.08.2020
4642 Clouds 22 1008 43 10000 2 240 11:31 15.08.2020
4643 Clouds 23 1008 40 10000 1 0 10:51 15.08.2020
4644 Clouds 24 1008 41 10000 2 0 10:33 15.08.2020
4645 Clouds 22 1008 43 10000 2 0 09:32 15.08.2020
4646 Clouds 22 1008 43 10000 2 0 09:32 15.08.2020
4647 Clouds 23 1008 33 10000 2 0 08:30 15.08.2020
4648 Clouds 21 1009 46 10000 2 0 05:56 15.08.2020
4649 Clear 12 1009 76 10000 0.68 51 01:58 15.08.2020
4650 Clear 8 1009 87 10000 1 0 23:52 14.08.2020
4651 Clouds 9 1009 93 10000 1 0 22:27 14.08.2020
4652 Clear 11 1009 81 10000 0.86 97 20:37 14.08.2020
4653 Clear 11 1008 81 10000 1 0 18:49 14.08.2020
4654 Clouds 14 1007 76 10000 1 0 15:33 14.08.2020
4655 Clouds 16 1007 67 10000 1 0 14:52 14.08.2020
4656 Clouds 20 1006 45 10000 2 0 13:57 14.08.2020
4657 Clouds 21 1006 40 10000 1 0 12:59 14.08.2020
4658 Clouds 20 1006 52 10000 5 230 10:34 14.08.2020
4659 Clouds 21 1006 49 10000 5 230 08:51 14.08.2020
4660 Clouds 19 1007 52 10000 1 0 05:56 14.08.2020
4661 Clouds 7 1007 93 10000 1.62 356 00:47 14.08.2020
4662 Clouds 7 1007 93 10000 1 0 23:46 13.08.2020
4663 Clouds 8 1006 87 10000 1.56 349 22:28 13.08.2020
4664 Clouds 9 1006 87 10000 1 0 21:22 13.08.2020
4665 Clouds 12 1005 81 10000 1.49 6 20:59 13.08.2020
4666 Clouds 11 1006 81 10000 2 150 19:52 13.08.2020
4667 Clouds 12 1005 87 10000 2 180 17:58 13.08.2020
4668 Clouds 15 1005 77 10000 1 0 16:58 13.08.2020
4669 Clouds 18 1004 63 10000 3 290 14:36 13.08.2020
4670 Clouds 23 1003 46 10000 5 310 12:51 13.08.2020
4671 Clouds 22 1003 46 10000 4 300 12:27 13.08.2020
4672 Clouds 22 1004 46 10000 4 320 09:20 13.08.2020
4673 Clouds 20 1004 52 10000 5 20 07:47 13.08.2020
4674 Clouds 18 1005 63 10000 6 10 07:29 13.08.2020
4675 Clouds 12 1006 93 10000 1 0 22:48 12.08.2020
4676 Clouds 12 1006 93 10000 1 0 22:21 12.08.2020
4677 Clouds 12 1006 93 10000 2 170 21:57 12.08.2020
4678 Clouds 12 1007 93 10000 2 160 20:58 12.08.2020
4679 Clouds 12 1007 93 10000 2 160 20:40 12.08.2020
4680 Clouds 12 1007 93 10000 2 160 20:21 12.08.2020
4681 Clouds 13 1007 87 10000 1 0 19:48 12.08.2020
4682 Rain 13 1009 93 10000 2 0 17:55 12.08.2020
4683 Rain 13 1009 93 10000 4 290 16:18 12.08.2020
4684 Rain 15 1008 82 10000 4 230 14:55 12.08.2020
4685 Clouds 19 1007 63 10000 4 340 13:58 12.08.2020
4686 Clouds 20 1007 60 10000 6 300 12:41 12.08.2020
4687 Clouds 20 1007 60 10000 6 300 12:22 12.08.2020
4688 Clouds 22 1008 37 10000 3 80 10:45 12.08.2020
4689 Clouds 18 1012 63 10000 3 260 05:56 12.08.2020
4690 Clouds 14 1012 82 10000 1 0 01:25 12.08.2020
4691 Clouds 15 1011 67 10000 1 0 22:23 11.08.2020
4692 Clouds 16 1011 67 10000 2 0 21:51 11.08.2020
4693 Clouds 16 1011 67 10000 2 0 21:21 11.08.2020
4694 Clouds 17 1012 63 10000 2 0 20:22 11.08.2020
4695 Clouds 16 1012 77 10000 2 0 19:30 11.08.2020
4696 Rain 16 1012 72 10000 4 120 18:30 11.08.2020
4697 Clouds 18 1011 52 10000 3 160 16:35 11.08.2020
4698 Clouds 20 1011 42 10000 6 140 15:32 11.08.2020
4699 Clouds 19 1010 45 10000 5 140 14:51 11.08.2020
4700 Clouds 22 1010 37 10000 4 130 13:58 11.08.2020
4701 Clouds 25 1009 27 10000 4 150 12:40 11.08.2020
4702 Clouds 25 1009 27 10000 4 150 12:20 11.08.2020
4703 Clouds 25 1010 29 10000 4 130 10:55 11.08.2020
4704 Clouds 25 1010 25 10000 3 180 09:52 11.08.2020
4705 Clouds 23 1011 33 10000 2 0 07:39 11.08.2020
4706 Clouds 20 1012 45 10000 2 0 05:52 11.08.2020
4707 Clouds 13 1013 71 10000 1 0 03:21 11.08.2020
4708 Clouds 12 1012 71 10000 0.39 99 02:51 11.08.2020
4709 Clouds 11 1012 76 10000 0.48 115 02:22 11.08.2020
4710 Clouds 5 1012 93 10000 1 0 00:35 11.08.2020
4711 Clouds 5 1011 93 10000 1 0 23:42 10.08.2020
4712 Clouds 6 1010 87 10000 1.21 29 21:50 10.08.2020
4713 Clouds 7 1010 87 10000 1 0 20:56 10.08.2020
4714 Clouds 7 1010 87 10000 1 0 20:29 10.08.2020
4715 Clouds 7 1010 87 10000 3 170 19:36 10.08.2020
4716 Clouds 8 1010 87 10000 2 140 19:18 10.08.2020
4717 Clear 10 1010 81 10000 2 180 16:46 10.08.2020
4718 Clear 15 1009 62 10000 2 0 15:43 10.08.2020
4719 Clouds 20 1008 42 10000 5 340 12:56 10.08.2020
4720 Clouds 21 1008 32 10000 6 340 11:43 10.08.2020
4721 Clouds 21 1008 32 10000 7 330 10:41 10.08.2020
4722 Clouds 20 1007 42 10000 7 350 09:48 10.08.2020
4723 Clouds 20 1008 45 10000 6 340 08:44 10.08.2020
4724 Clear 6 1007 93 10000 1 0 22:54 09.08.2020
4725 Clouds 8 1007 93 10000 1 0 21:35 09.08.2020
4726 Clouds 9 1007 93 10000 1 0 19:47 09.08.2020
4727 Clouds 9 1007 93 10000 1 0 19:27 09.08.2020
4728 Clouds 12 1006 81 10000 2.02 311 18:21 09.08.2020
4729 Clouds 11 1006 81 10000 1 0 17:39 09.08.2020
4730 Clouds 11 1006 81 10000 1 0 17:20 09.08.2020
4731 Clouds 15 1006 67 10000 3 360 15:24 09.08.2020
4732 Clouds 15 1005 67 10000 3 340 14:34 09.08.2020
4733 Clouds 16 1005 67 10000 5 360 13:29 09.08.2020
4734 Clouds 18 1004 55 10000 7 320 12:54 09.08.2020
4735 Clouds 19 1004 52 10000 7 330 11:47 09.08.2020
4736 Clouds 19 1004 52 10000 8 330 10:38 09.08.2020
4737 Clouds 16 1004 63 10000 6 330 08:57 09.08.2020
4738 Clouds 17 1004 59 10000 8 330 08:27 09.08.2020
4739 Clouds 10 1004 87 10000 3.16 316 02:24 09.08.2020
4740 Clouds 6 1004 93 10000 2 180 23:19 08.08.2020
4741 Clouds 9 1004 87 10000 1 0 19:37 08.08.2020
4742 Clouds 10 1004 81 10000 1 0 18:26 08.08.2020
4743 Clouds 9 1004 87 10000 2 0 17:46 08.08.2020
4744 Clouds 9 1004 87 10000 3 150 15:53 08.08.2020
4745 Clouds 11 1004 81 10000 1 0 15:25 08.08.2020
4746 Clouds 14 1004 67 10000 1 0 14:47 08.08.2020
4747 Clouds 15 1004 67 10000 1 0 14:21 08.08.2020
4748 Clouds 16 1004 55 10000 3 300 12:22 08.08.2020
4749 Clouds 14 1005 67 10000 4 120 10:24 08.08.2020
4750 Clouds 20 1005 40 10000 3 340 07:39 08.08.2020
4751 Clouds 17 1007 59 10000 2 0 04:27 08.08.2020
4752 Clouds 12 1007 87 10000 2 0 02:23 08.08.2020
4753 Clear 7 1008 93 10000 2 170 22:20 07.08.2020
4754 Clear 8 1008 93 10000 3 170 21:20 07.08.2020
4755 Clouds 9 1009 87 10000 1 0 20:41 07.08.2020
4756 Clear 13 1009 82 10000 1.6 316 17:46 07.08.2020
4757 Clear 13 1008 82 10000 3 320 16:39 07.08.2020
4758 Clouds 18 1008 59 10000 4 350 14:29 07.08.2020
4759 Clouds 21 1007 49 10000 5 340 12:50 07.08.2020
4760 Clouds 21 1007 49 10000 4 340 11:34 07.08.2020
4761 Thunderstorm 20 1007 60 10000 6 360 09:59 07.08.2020
4762 Thunderstorm 22 1007 49 10000 8 330 08:52 07.08.2020
4763 Clouds 19 1008 59 10000 2 0 03:45 07.08.2020
4764 Clouds 13 1008 87 10000 2 190 01:41 07.08.2020
4765 Clouds 13 1008 93 10000 0.4 23 00:28 07.08.2020
4766 Clouds 16 1009 67 10000 3 190 22:26 06.08.2020
4767 Clouds 14 1009 71 10000 0.87 164 20:46 06.08.2020
4768 Clouds 15 1009 67 10000 3 170 20:18 06.08.2020
4769 Clouds 15 1009 67 10000 3 170 19:32 06.08.2020
4770 Clouds 14 1009 71 10000 3 170 18:49 06.08.2020
4771 Clouds 17 1009 63 10000 3 160 17:44 06.08.2020
4772 Clouds 17 1009 63 10000 3 160 17:22 06.08.2020
4773 Clouds 20 1009 56 10000 4 150 15:42 06.08.2020
4774 Thunderstorm 21 1008 56 10000 8 140 14:44 06.08.2020
4775 Clouds 23 1007 46 10000 10 140 13:36 06.08.2020
4776 Clouds 23 1007 49 10000 9 140 12:29 06.08.2020
4777 Clouds 23 1007 56 10000 10 140 11:33 06.08.2020
4778 Clouds 25 1008 44 10000 10 150 09:59 06.08.2020
4779 Clouds 23 1009 49 10000 10 140 08:55 06.08.2020
4780 Clouds 23 1009 46 10000 10 140 08:34 06.08.2020
4781 Clouds 22 1009 53 10000 10 140 07:37 06.08.2020
4782 Clouds 20 1012 49 10000 6 150 01:53 06.08.2020
4783 Clouds 16 1012 72 10000 2 0 23:23 05.08.2020
4784 Clouds 19 1012 59 10000 2 0 22:55 05.08.2020
4785 Clouds 19 1012 55 10000 3 40 22:19 05.08.2020
4786 Clouds 17 1012 67 10000 2 0 21:24 05.08.2020
4787 Clouds 18 1013 68 10000 6 40 20:40 05.08.2020
4788 Clouds 19 1014 63 10000 5 60 19:34 05.08.2020
4789 Clouds 20 1014 56 10000 2 0 18:18 05.08.2020
4790 Rain 19 1014 68 10000 2 0 16:58 05.08.2020
4791 Thunderstorm 23 1014 38 10000 3 30 15:46 05.08.2020
4792 Thunderstorm 21 1013 49 10000 3 90 15:26 05.08.2020
4793 Clouds 21 1013 52 10000 7 120 14:48 05.08.2020
4794 Clouds 23 1013 40 10000 5 140 13:47 05.08.2020
4795 Clouds 22 1013 49 10000 8 130 13:18 05.08.2020
4796 Thunderstorm 21 1013 56 10000 7 160 11:56 05.08.2020
4797 Clouds 27 1012 32 10000 4 320 10:55 05.08.2020
4798 Clouds 27 1012 32 10000 3 260 10:21 05.08.2020
4799 Clouds 27 1012 32 10000 3 260 10:21 05.08.2020
4800 Clouds 28 1012 30 10000 3 260 09:29 05.08.2020
4801 Clouds 26 1013 34 10000 4 190 07:53 05.08.2020
4802 Clouds 22 1014 53 10000 2 0 05:22 05.08.2020
4803 Clouds 14 1014 87 10000 1.32 95 01:24 05.08.2020
4804 Clouds 11 1014 87 10000 1 0 23:56 04.08.2020
4805 Clouds 12 1014 87 10000 1 0 23:34 04.08.2020
4806 Clouds 13 1014 82 10000 1 0 22:52 04.08.2020
4807 Clouds 13 1014 87 10000 1 0 22:27 04.08.2020
4808 Clouds 14 1014 87 10000 2 160 21:32 04.08.2020
4809 Clouds 16 1014 72 10000 1 0 19:37 04.08.2020
4810 Clouds 16 1014 72 10000 1 0 18:56 04.08.2020
4811 Clouds 18 1014 68 10000 3 300 17:40 04.08.2020
4812 Clouds 17 1014 77 10000 1 0 16:56 04.08.2020
4813 Clouds 20 1013 64 10000 1.3 33 15:57 04.08.2020
4814 Clouds 20 1013 64 10000 1.57 23 15:29 04.08.2020
4815 Clouds 21 1013 56 10000 2 320 13:58 04.08.2020
4816 Clouds 23 1013 46 10000 2 0 12:34 04.08.2020
4817 Clouds 23 1013 49 10000 2 0 11:32 04.08.2020
4818 Clouds 23 1013 43 10000 3 290 10:53 04.08.2020
4819 Clouds 23 1013 43 10000 3 300 10:33 04.08.2020
4820 Clouds 22 1014 49 10000 2 0 08:44 04.08.2020
4821 Clouds 21 1014 52 10000 3 290 06:57 04.08.2020
4822 Clouds 8 1015 93 10000 2 160 23:40 03.08.2020
4823 Clouds 10 1015 87 10000 1 0 22:34 03.08.2020
4824 Clouds 10 1015 87 10000 2 160 21:49 03.08.2020
4825 Clouds 9 1015 93 10000 1 0 21:22 03.08.2020
4826 Clouds 9 1015 93 10000 2 140 20:51 03.08.2020
4827 Clouds 12 1015 87 10000 2 290 19:45 03.08.2020
4828 Clouds 13 1014 82 10000 2 300 18:43 03.08.2020
4829 Clouds 14 1014 82 10000 3 360 18:20 03.08.2020
4830 Clouds 14 1014 82 10000 3 360 17:37 03.08.2020
4831 Clouds 14 1014 82 10000 3 340 15:54 03.08.2020
4832 Clouds 16 1014 72 10000 5 350 14:51 03.08.2020
4833 Clouds 17 1013 67 10000 4 10 14:25 03.08.2020
4834 Clouds 18 1012 68 10000 8 340 12:47 03.08.2020
4835 Clouds 18 1012 63 10000 7 350 11:38 03.08.2020
4836 Clouds 19 1013 63 10000 7 320 10:38 03.08.2020
4837 Clouds 18 1013 68 10000 7 340 09:27 03.08.2020
4838 Clouds 18 1013 68 10000 7 340 09:27 03.08.2020
4839 Clouds 16 1013 72 10000 6 310 07:36 03.08.2020
4840 Clouds 13 1012 82 10000 5 330 02:24 03.08.2020
4841 Clouds 13 1012 82 10000 5 330 01:51 03.08.2020
4842 Clouds 12 1012 87 10000 3 340 00:46 03.08.2020
4843 Clouds 13 1011 82 10000 6 340 21:57 02.08.2020
4844 Clouds 13 1011 87 10000 3 330 21:22 02.08.2020
4845 Clouds 13 1011 87 10000 3 330 20:50 02.08.2020
4846 Clouds 13 1011 87 10000 5 320 20:31 02.08.2020
4847 Clouds 14 1011 76 10000 6 340 19:42 02.08.2020
4848 Clouds 14 1011 76 10000 6 340 19:19 02.08.2020
4849 Clouds 14 1010 76 10000 7 340 18:37 02.08.2020
4850 Clouds 15 1010 72 10000 5 340 16:45 02.08.2020
4851 Clouds 15 1010 72 10000 5 360 15:19 02.08.2020
4852 Clouds 16 1009 67 10000 4 350 14:46 02.08.2020
4853 Clouds 16 1009 67 10000 6 350 14:23 02.08.2020
4854 Clouds 17 1009 63 10000 8 340 13:28 02.08.2020
4855 Clouds 17 1008 63 10000 8 340 12:48 02.08.2020
4856 Clouds 17 1008 63 10000 7 320 11:34 02.08.2020
4857 Clouds 16 1008 67 10000 8 320 10:50 02.08.2020
4858 Clouds 16 1008 72 10000 7 330 10:28 02.08.2020
4859 Clouds 17 1008 63 10000 8 340 08:59 02.08.2020
4860 Clouds 17 1007 67 10000 8 340 08:26 02.08.2020
4861 Clouds 16 1007 72 10000 7 330 06:53 02.08.2020
4862 Clouds 14 1007 82 10000 8 320 04:45 02.08.2020
4863 Rain 13 1006 87 10000 3 300 01:34 02.08.2020
4864 Rain 13 1006 87 10000 5 300 00:21 02.08.2020
4865 Rain 13 1006 87 10000 4 310 22:49 01.08.2020
4866 Rain 13 1005 87 10000 5 320 20:46 01.08.2020
4867 Rain 13 1005 87 10000 5 320 20:25 01.08.2020
4868 Rain 13 1005 87 10000 7 330 19:27 01.08.2020
4869 Rain 13 1005 87 10000 5 310 18:40 01.08.2020
4870 Rain 14 1005 82 10000 5 310 17:43 01.08.2020
4871 Clouds 15 1004 72 10000 5 350 16:31 01.08.2020
4872 Clouds 14 1004 76 10000 4 340 15:44 01.08.2020
4873 Clouds 14 1004 76 10000 6 330 15:21 01.08.2020
4874 Clouds 14 1003 76 10000 7 330 14:29 01.08.2020
4875 Clouds 17 1002 63 10000 10 330 12:58 01.08.2020
4876 Clouds 18 1000 59 10000 7 330 11:45 01.08.2020
4877 Clouds 17 1000 59 10000 5 330 10:38 01.08.2020
4878 Clouds 15 1001 72 10000 2 0 05:52 01.08.2020
4879 Clouds 14 1001 71 10000 3 290 03:18 01.08.2020
4880 Clouds 14 1001 71 10000 1 0 01:51 01.08.2020
4881 Clouds 13 1001 76 10000 2 280 01:30 01.08.2020
4882 Clouds 14 1000 67 10000 2 0 23:31 31.07.2020
4883 Clouds 12 1001 76 10000 1 0 21:25 31.07.2020
4884 Clouds 14 1001 62 10000 2 0 20:42 31.07.2020
4885 Clouds 14 1001 62 10000 2 0 20:22 31.07.2020
4886 Clouds 16 1001 51 10000 3 60 19:33 31.07.2020
4887 Clouds 16 1002 48 10000 3 80 17:54 31.07.2020
4888 Rain 15 1005 58 10000 9 150 16:42 31.07.2020
4889 Clouds 15 1005 67 10000 3 170 15:47 31.07.2020
4890 Clouds 14 1005 76 10000 8 230 14:43 31.07.2020
4891 Clouds 20 1003 56 10000 2 30 13:38 31.07.2020
4892 Clouds 19 1003 59 10000 7 60 12:40 31.07.2020
4893 Rain 18 1005 72 10000 2 90 11:39 31.07.2020
4894 Rain 18 1005 72 10000 2 90 11:18 31.07.2020
4895 Rain 18 1006 72 10000 4 150 10:25 31.07.2020
4896 Thunderstorm 21 1005 43 10000 12 230 09:35 31.07.2020
4897 Clouds 27 1004 32 10000 9 140 08:53 31.07.2020
4898 Clouds 27 1005 34 10000 7 130 07:35 31.07.2020
4899 Clouds 22 1008 53 10000 2 80 04:39 31.07.2020
4900 Clear 17 1010 67 10000 1.32 91 02:24 31.07.2020
4901 Clear 11 1010 87 10000 0.73 92 00:57 31.07.2020
4902 Clear 9 1010 93 10000 1 0 00:26 31.07.2020
4903 Clear 11 1010 87 10000 1 0 22:54 30.07.2020
4904 Clear 10 1010 93 10000 1 0 22:36 30.07.2020
4905 Clear 10 1010 93 10000 2 170 21:19 30.07.2020
4906 Clear 10 1010 87 10000 1 0 20:58 30.07.2020
4907 Clear 12 1011 81 10000 0.36 27 19:56 30.07.2020
4908 Clear 12 1011 81 10000 0.63 23 19:22 30.07.2020
4909 Clear 13 1010 82 10000 1 0 17:59 30.07.2020
4910 Clear 15 1010 77 10000 0.95 16 16:59 30.07.2020
4911 Clear 15 1010 77 10000 1 0 16:39 30.07.2020
4912 Clear 15 1010 77 10000 1 0 16:21 30.07.2020
4913 Clear 21 1010 52 10000 2 0 15:38 30.07.2020
4914 Clouds 21 1009 49 10000 3 350 14:58 30.07.2020
4915 Clouds 23 1009 40 10000 4 350 14:39 30.07.2020
4916 Clouds 23 1009 40 10000 4 350 14:21 30.07.2020
4917 Clouds 24 1009 38 10000 6 330 13:43 30.07.2020
4918 Clouds 25 1009 38 10000 5 340 13:19 30.07.2020
4919 Clouds 26 1009 34 10000 5 300 12:39 30.07.2020
4920 Clouds 25 1009 33 10000 5 300 11:31 30.07.2020
4921 Clouds 26 1009 29 10000 5 290 10:27 30.07.2020
4922 Clouds 26 1009 29 10000 5 290 10:27 30.07.2020
4923 Clouds 25 1009 31 10000 7 260 09:43 30.07.2020
4924 Clouds 25 1009 31 10000 7 260 09:18 30.07.2020
4925 Clouds 23 1009 40 10000 5 290 08:41 30.07.2020
4926 Clouds 21 1010 56 10000 2 0 05:23 30.07.2020
4927 Clouds 18 1010 63 10000 3 180 02:19 30.07.2020
4928 Clouds 14 1010 87 10000 1 0 01:22 30.07.2020
4929 Clouds 15 1010 87 10000 1 0 22:58 29.07.2020
4930 Clouds 15 1010 87 10000 1 0 22:22 29.07.2020
4931 Clouds 15 1010 87 10000 3 70 21:47 29.07.2020
4932 Clouds 15 1010 87 10000 3 70 21:19 29.07.2020
4933 Clouds 17 1010 77 10000 3 50 20:41 29.07.2020
4934 Rain 16 1010 77 10000 7 140 19:53 29.07.2020
4935 Rain 16 1010 77 10000 7 140 19:27 29.07.2020
4936 Rain 17 1011 72 10000 5 170 18:56 29.07.2020
4937 Rain 17 1011 72 10000 5 170 18:32 29.07.2020
4938 Rain 18 1010 63 10000 5 170 17:57 29.07.2020
4939 Rain 18 1010 63 10000 8 170 17:21 29.07.2020
4940 Clouds 22 1009 37 10000 6 190 16:27 29.07.2020
4941 Clouds 23 1009 33 10000 6 190 15:45 29.07.2020
4942 Clouds 23 1009 33 10000 6 190 15:20 29.07.2020
4943 Clouds 23 1008 43 10000 6 150 14:22 29.07.2020
4944 Clouds 24 1007 44 10000 6 130 13:46 29.07.2020
4945 Clouds 24 1008 44 10000 6 140 13:18 29.07.2020
4946 Clouds 25 1008 41 10000 6 130 12:24 29.07.2020
4947 Clouds 25 1008 41 10000 5 130 11:55 29.07.2020
4948 Clouds 25 1008 38 10000 7 130 11:37 29.07.2020
4949 Clouds 25 1009 36 10000 7 140 10:43 29.07.2020
4950 Clouds 26 1009 34 10000 6 140 09:46 29.07.2020
4951 Clouds 26 1009 36 10000 1 0 08:44 29.07.2020
4952 Clouds 25 1009 41 10000 2 0 08:19 29.07.2020
4953 Clouds 24 1010 41 10000 3 40 07:23 29.07.2020
4954 Clouds 16 1012 72 10000 1.88 121 02:47 29.07.2020
4955 Clouds 12 1013 87 10000 1.52 106 00:38 29.07.2020
4956 Clouds 12 1013 87 10000 1.25 58 23:20 28.07.2020
4957 Clouds 13 1012 76 10000 3 20 22:24 28.07.2020
4958 Clear 11 1012 87 10000 1 0 21:53 28.07.2020
4959 Clear 11 1012 87 10000 1 0 21:24 28.07.2020
4960 Clear 10 1013 87 10000 2 150 20:49 28.07.2020
4961 Clear 10 1013 87 10000 2 150 20:21 28.07.2020
4962 Clear 11 1013 81 10000 1 0 19:50 28.07.2020
4963 Clear 11 1013 81 10000 1 0 19:22 28.07.2020
4964 Clear 11 1013 87 10000 2 0 18:51 28.07.2020
4965 Clear 11 1013 87 10000 2 0 18:21 28.07.2020
4966 Clear 13 1013 82 10000 2 160 17:22 28.07.2020
4967 Clear 13 1013 82 10000 2 160 17:22 28.07.2020
4968 Clear 13 1013 82 10000 1.49 23 16:45 28.07.2020
4969 Clear 19 1013 55 10000 1 0 15:43 28.07.2020
4970 Clear 20 1013 52 10000 2 0 14:58 28.07.2020
4971 Clear 21 1012 46 10000 3 340 14:38 28.07.2020
4972 Clouds 22 1012 46 10000 3 340 13:53 28.07.2020
4973 Clouds 22 1012 43 10000 6 330 12:59 28.07.2020
4974 Clouds 22 1012 43 10000 5 340 12:26 28.07.2020
4975 Clouds 23 1012 43 10000 6 340 11:58 28.07.2020
4976 Clouds 23 1012 43 10000 5 340 11:25 28.07.2020
4977 Clouds 23 1012 43 10000 7 330 10:44 28.07.2020
4978 Clouds 23 1012 43 10000 7 330 10:23 28.07.2020
4979 Clouds 22 1012 43 10000 7 330 09:42 28.07.2020
4980 Clouds 22 1012 43 10000 7 330 09:24 28.07.2020
4981 Clouds 22 1012 46 10000 7 350 08:48 28.07.2020
4982 Clouds 22 1012 49 10000 6 360 08:25 28.07.2020
4983 Clouds 22 1013 46 10000 6 330 07:49 28.07.2020
4984 Clouds 16 1013 72 10000 1 0 02:51 28.07.2020
4985 Clouds 14 1012 82 10000 1 0 02:20 28.07.2020
4986 Clouds 14 1012 82 10000 1 0 02:20 28.07.2020
4987 Clouds 13 1012 87 10000 1 0 01:48 28.07.2020
4988 Clouds 9 1012 87 10000 2 160 00:22 28.07.2020
4989 Clouds 9 1011 87 10000 2 180 23:26 27.07.2020
4990 Clouds 9 1011 93 10000 2 150 22:55 27.07.2020
4991 Clouds 9 1011 93 10000 1 0 22:22 27.07.2020
4992 Clouds 10 1010 87 10000 1 0 21:49 27.07.2020
4993 Clouds 10 1010 87 10000 1 0 21:28 27.07.2020
4994 Clouds 10 1010 93 10000 2 160 20:42 27.07.2020
4995 Clear 10 1010 93 10000 2 160 20:20 27.07.2020
4996 Clear 11 1010 87 10000 1 0 19:39 27.07.2020
4997 Clear 11 1010 87 10000 1 0 19:20 27.07.2020
4998 Clear 12 1009 93 10000 1 0 18:30 27.07.2020
4999 Clear 13 1009 87 10000 2.49 342 17:45 27.07.2020
5000 Clear 13 1009 87 10000 2.44 330 17:25 27.07.2020
5001 Clouds 16 1008 77 10000 1 0 16:26 27.07.2020
5002 Clouds 17 1008 72 10000 2 0 15:51 27.07.2020
5003 Clouds 18 1008 63 10000 3 360 15:33 27.07.2020
5004 Clouds 18 1008 68 10000 3 350 14:59 27.07.2020
5005 Clouds 20 1008 56 10000 5 340 14:41 27.07.2020
5006 Clouds 20 1008 56 10000 5 340 14:18 27.07.2020
5007 Clouds 21 1007 52 10000 4 350 13:28 27.07.2020
5008 Clouds 21 1007 52 10000 6 360 12:53 27.07.2020
5009 Clouds 21 1007 52 10000 6 350 12:35 27.07.2020
5010 Clouds 21 1007 52 10000 7 340 11:41 27.07.2020
5011 Clouds 21 1007 52 10000 7 340 11:19 27.07.2020
5012 Clouds 20 1007 60 10000 6 340 09:59 27.07.2020
5013 Clouds 20 1007 60 10000 6 340 09:41 27.07.2020
5014 Clouds 20 1007 60 10000 6 340 09:19 27.07.2020
5015 Clouds 20 1007 56 10000 6 330 08:54 27.07.2020
5016 Clouds 20 1007 60 10000 7 310 08:32 27.07.2020
5017 Clouds 20 1007 56 10000 6 310 07:48 27.07.2020
5018 Clouds 20 1007 60 10000 5 330 06:36 27.07.2020
5019 Clouds 20 1007 60 10000 5 330 06:36 27.07.2020
5020 Clouds 18 1007 68 10000 4 330 04:30 27.07.2020
5021 Clouds 15 1007 82 10000 2 300 02:18 27.07.2020
5022 Clouds 13 1007 93 10000 2 300 00:19 27.07.2020
5023 Clouds 12 1006 87 10000 1 0 23:29 26.07.2020
5024 Clouds 12 1006 93 10000 1 0 22:47 26.07.2020
5025 Clouds 13 1005 87 10000 1 0 22:29 26.07.2020
5026 Clouds 13 1005 87 10000 1 0 21:54 26.07.2020
5027 Clouds 13 1005 87 10000 1 0 21:22 26.07.2020
5028 Clouds 14 1006 87 10000 2 310 20:54 26.07.2020
5029 Clouds 14 1006 87 10000 2 310 20:33 26.07.2020
5030 Clouds 16 1006 82 10000 3 10 19:50 26.07.2020
5031 Clouds 16 1006 82 10000 3 10 19:32 26.07.2020
5032 Clouds 16 1006 82 10000 1.95 332 18:59 26.07.2020
5033 Clouds 16 1006 82 10000 1.95 332 18:38 26.07.2020
5034 Clouds 16 1006 82 10000 1.71 324 18:19 26.07.2020
5035 Clouds 15 1006 87 10000 1 0 17:42 26.07.2020
5036 Clouds 15 1006 87 10000 1 0 17:20 26.07.2020
5037 Clouds 16 1006 82 10000 2 320 16:48 26.07.2020
5038 Clouds 17 1006 77 10000 2 350 16:24 26.07.2020
5039 Clouds 18 1006 72 10000 5 320 15:42 26.07.2020
5040 Clouds 18 1006 72 10000 5 320 15:24 26.07.2020
5041 Clouds 18 1006 72 10000 4 320 14:53 26.07.2020
5042 Clouds 20 1006 64 10000 5 330 14:28 26.07.2020
5043 Clouds 21 1006 60 10000 6 340 13:46 26.07.2020
5044 Clouds 21 1006 64 10000 8 330 12:55 26.07.2020
5045 Clouds 21 1005 64 10000 6 10 12:37 26.07.2020
5046 Clouds 21 1006 64 10000 6 350 12:18 26.07.2020
5047 Clouds 21 1006 64 10000 7 340 11:39 26.07.2020
5048 Clouds 22 1006 64 10000 7 330 10:56 26.07.2020
5049 Clouds 21 1006 64 10000 7 330 10:35 26.07.2020
5050 Clouds 21 1006 68 10000 6 340 09:53 26.07.2020
5051 Clouds 21 1006 68 10000 8 330 09:30 26.07.2020
5052 Clouds 20 1006 68 10000 7 330 08:53 26.07.2020
5053 Clouds 19 1007 77 10000 7 340 07:23 26.07.2020
5054 Clouds 19 1007 72 10000 5 340 05:45 26.07.2020
5055 Clouds 18 1007 77 10000 5 330 03:48 26.07.2020
5056 Rain 15 1007 87 10000 2 350 00:51 26.07.2020
5057 Rain 15 1007 87 10000 3 300 23:51 25.07.2020
5058 Rain 15 1007 87 8000 4 330 23:28 25.07.2020
5059 Clouds 15 1007 87 10000 4 330 22:26 25.07.2020
5060 Clouds 15 1008 87 10000 5 330 21:39 25.07.2020
5061 Clouds 15 1008 87 10000 5 330 21:19 25.07.2020
5062 Rain 16 1008 87 10000 2 340 20:42 25.07.2020
5063 Rain 16 1008 87 10000 4 350 19:57 25.07.2020
5064 Rain 16 1008 87 10000 4 350 19:29 25.07.2020
5065 Rain 16 1009 87 10000 1 0 18:56 25.07.2020
5066 Rain 16 1009 87 10000 1 0 18:33 25.07.2020
5067 Rain 16 1009 87 10000 2.37 324 17:57 25.07.2020
5068 Rain 16 1009 87 10000 2.37 324 17:57 25.07.2020
5069 Rain 16 1009 87 10000 1 0 17:39 25.07.2020
5070 Rain 16 1009 87 10000 1 0 17:20 25.07.2020
5071 Rain 17 1009 82 10000 4 360 16:49 25.07.2020
5072 Clouds 16 1009 87 10000 3 350 16:26 25.07.2020
5073 Clouds 16 1010 87 10000 2 330 15:45 25.07.2020
5074 Rain 16 1010 87 10000 2 330 15:21 25.07.2020
5075 Rain 16 1010 87 10000 2 350 14:37 25.07.2020
5076 Rain 16 1010 87 10000 2 350 14:18 25.07.2020
5077 Rain 17 1009 88 10000 3 30 13:40 25.07.2020
5078 Rain 17 1009 88 10000 3 30 13:21 25.07.2020
5079 Rain 17 1009 88 10000 2 0 12:55 25.07.2020
5080 Rain 17 1009 88 10000 3 340 12:21 25.07.2020
5081 Rain 17 1009 88 10000 2 0 11:43 25.07.2020
5082 Rain 17 1009 88 10000 3 340 11:20 25.07.2020
5083 Rain 17 1009 88 10000 2 0 10:42 25.07.2020
5084 Rain 17 1009 88 10000 2 0 10:24 25.07.2020
5085 Rain 17 1009 88 8000 2 0 09:47 25.07.2020
5086 Rain 17 1009 88 8000 2 0 09:24 25.07.2020
5087 Rain 17 1009 82 8000 1 0 08:56 25.07.2020
5088 Rain 17 1009 88 8000 1 0 08:24 25.07.2020
5089 Rain 17 1009 88 8000 1 0 07:52 25.07.2020
5090 Rain 17 1009 88 8000 1 0 07:31 25.07.2020
5091 Rain 19 1009 72 10000 2 60 05:37 25.07.2020
5092 Clouds 19 1008 77 10000 1 0 03:22 25.07.2020
5093 Clouds 19 1008 72 10000 4 50 02:23 25.07.2020
5094 Clouds 18 1008 82 10000 7 50 01:33 25.07.2020
5095 Rain 18 1008 77 10000 6 50 00:58 25.07.2020
5096 Rain 18 1009 82 10000 3 30 00:39 25.07.2020
5097 Rain 18 1009 82 10000 3 30 00:20 25.07.2020
5098 Rain 18 1009 82 10000 5 100 23:49 24.07.2020
5099 Rain 18 1009 82 10000 2 70 23:28 24.07.2020
5100 Rain 18 1009 77 10000 1 0 22:45 24.07.2020
5101 Rain 18 1009 77 10000 1 0 22:23 24.07.2020
5102 Clouds 19 1009 72 10000 3 170 21:56 24.07.2020
5103 Clouds 19 1009 72 10000 3 170 21:36 24.07.2020
5104 Clouds 20 1009 64 10000 1 0 20:58 24.07.2020
5105 Clouds 20 1009 64 10000 1 0 20:40 24.07.2020
5106 Clouds 20 1009 64 10000 1 0 20:19 24.07.2020
5107 Clouds 22 1009 49 10000 2 0 19:42 24.07.2020
5108 Clouds 22 1009 49 10000 2 0 19:23 24.07.2020
5109 Clouds 23 1008 46 10000 3 360 18:34 24.07.2020
5110 Clouds 24 1008 44 10000 3 20 17:53 24.07.2020
5111 Clouds 25 1008 38 10000 2 0 17:19 24.07.2020
5112 Clouds 24 1008 38 10000 5 130 16:52 24.07.2020
5113 Clouds 23 1009 43 10000 4 140 16:28 24.07.2020
5114 Clouds 24 1009 44 10000 4 140 15:51 24.07.2020
5115 Clouds 25 1009 38 10000 6 180 15:32 24.07.2020
5116 Clouds 25 1009 38 10000 2 0 14:47 24.07.2020
5117 Clouds 25 1009 38 10000 2 310 14:29 24.07.2020
5118 Clouds 27 1008 30 10000 4 360 13:52 24.07.2020
5119 Clouds 28 1008 30 10000 4 320 13:22 24.07.2020
5120 Clouds 29 1008 26 10000 3 350 12:53 24.07.2020
5121 Clouds 29 1008 26 10000 3 300 12:28 24.07.2020
5122 Clouds 29 1008 26 10000 3 270 11:57 24.07.2020
5123 Clouds 29 1008 26 10000 3 280 11:22 24.07.2020
5124 Clouds 29 1009 26 10000 2 0 10:50 24.07.2020
5125 Clouds 29 1009 26 10000 3 330 10:22 24.07.2020
5126 Clouds 29 1009 28 10000 2 0 09:59 24.07.2020
5127 Clouds 28 1010 32 10000 2 0 09:40 24.07.2020
5128 Clouds 28 1010 32 10000 2 0 09:21 24.07.2020
5129 Clouds 28 1010 28 10000 2 0 08:47 24.07.2020
5130 Clouds 27 1011 28 10000 2 0 08:27 24.07.2020
5131 Clouds 26 1011 36 10000 2 0 07:40 24.07.2020
5132 Clouds 26 1011 36 10000 2 0 07:22 24.07.2020
5133 Clouds 24 1011 47 10000 3 300 06:38 24.07.2020
5134 Clouds 23 1012 49 10000 2 0 05:54 24.07.2020
5135 Clouds 22 1012 56 10000 1 0 05:30 24.07.2020
5136 Clouds 19 1012 68 10000 1 0 03:32 24.07.2020
5137 Clouds 14 1012 87 10000 1.2 12 01:41 24.07.2020
5138 Clouds 13 1012 87 10000 2 190 00:30 24.07.2020
5139 Clouds 13 1012 87 10000 2 160 23:59 23.07.2020
5140 Clouds 13 1012 87 10000 1 0 23:37 23.07.2020
5141 Clouds 13 1012 87 10000 1 0 23:19 23.07.2020
5142 Clouds 13 1011 87 10000 1 0 22:43 23.07.2020
5143 Clouds 13 1011 87 10000 1 0 22:20 23.07.2020
5144 Clouds 13 1011 87 10000 1 0 21:40 23.07.2020
5145 Clouds 13 1011 87 10000 1 0 21:22 23.07.2020
5146 Clouds 14 1011 82 10000 2 160 20:59 23.07.2020
5147 Clouds 14 1011 82 10000 2 160 20:41 23.07.2020
5148 Clouds 14 1011 82 10000 2 160 20:19 23.07.2020
5149 Clouds 16 1011 77 10000 1 0 19:58 23.07.2020
5150 Clouds 16 1011 77 10000 1 0 19:58 23.07.2020
5151 Clouds 16 1011 77 10000 1 0 19:37 23.07.2020
5152 Clouds 18 1011 72 10000 2 0 19:19 23.07.2020
5153 Clouds 18 1011 72 10000 2 0 18:41 23.07.2020
5154 Clouds 20 1011 64 10000 3 360 18:21 23.07.2020
5155 Clouds 20 1011 64 10000 3 360 17:48 23.07.2020
5156 Clouds 20 1010 64 10000 4 10 17:24 23.07.2020
5157 Clouds 21 1010 60 10000 6 20 16:48 23.07.2020
5158 Clouds 21 1010 60 10000 3 360 16:25 23.07.2020
5159 Clouds 21 1010 60 10000 3 350 15:59 23.07.2020
5160 Clouds 23 1009 53 10000 3 20 15:26 23.07.2020
5161 Clouds 23 1009 53 10000 3 360 14:58 23.07.2020
5162 Clouds 24 1008 50 10000 7 350 14:38 23.07.2020
5163 Clouds 24 1008 50 10000 7 350 14:19 23.07.2020
5164 Clouds 25 1008 47 10000 6 340 13:56 23.07.2020
5165 Clouds 26 1008 41 10000 7 340 13:38 23.07.2020
5166 Clouds 26 1008 41 10000 7 340 13:19 23.07.2020
5167 Clouds 27 1007 42 10000 8 350 12:41 23.07.2020
5168 Clouds 30 1006 30 10000 8 270 12:20 23.07.2020
5169 Clouds 30 1006 27 10000 8 290 11:42 23.07.2020
5170 Clouds 30 1006 27 10000 8 290 11:23 23.07.2020
5171 Clouds 30 1006 27 10000 8 290 10:50 23.07.2020
5172 Clouds 31 1006 25 10000 8 290 10:26 23.07.2020
5173 Clouds 31 1006 23 10000 5 270 09:58 23.07.2020
5174 Clouds 32 1005 21 10000 8 230 09:39 23.07.2020
5175 Clouds 32 1005 21 10000 8 230 09:20 23.07.2020
5176 Clouds 32 1005 21 10000 9 230 08:44 23.07.2020
5177 Clouds 32 1005 21 10000 9 230 08:24 23.07.2020
5178 Clouds 32 1005 22 10000 8 240 07:50 23.07.2020
5179 Clouds 32 1004 24 10000 7 180 07:18 23.07.2020
5180 Clouds 30 1005 25 10000 9 170 06:34 23.07.2020
5181 Clouds 30 1005 27 10000 7 170 05:47 23.07.2020
5182 Clouds 28 1005 34 10000 8 140 05:25 23.07.2020
5183 Clouds 26 1005 36 10000 8 130 04:36 23.07.2020
5184 Clouds 26 1005 36 10000 7 120 03:28 23.07.2020
5185 Clouds 20 1004 52 10000 2 0 00:39 23.07.2020
5186 Clouds 20 1004 56 10000 6 130 00:21 23.07.2020
5187 Rain 21 1005 52 10000 8 130 23:42 22.07.2020
5188 Rain 21 1005 52 10000 8 130 23:23 22.07.2020
5189 Rain 21 1006 52 10000 5 170 22:42 22.07.2020
5190 Rain 21 1006 52 10000 5 170 22:24 22.07.2020
5191 Clouds 23 1005 40 10000 8 140 21:59 22.07.2020
5192 Rain 20 1006 52 10000 4 160 21:40 22.07.2020
5193 Rain 20 1006 52 10000 4 160 21:20 22.07.2020
5194 Rain 21 1005 56 10000 1 0 20:58 22.07.2020
5195 Rain 22 1006 43 10000 3 90 20:38 22.07.2020
5196 Rain 22 1006 43 10000 3 90 20:20 22.07.2020
5197 Clouds 22 1006 46 10000 3 290 19:55 22.07.2020
5198 Clouds 23 1005 35 10000 4 60 19:37 22.07.2020
5199 Clouds 23 1005 35 10000 4 60 19:19 22.07.2020
5200 Rain 23 1005 35 10000 2 0 18:41 22.07.2020
5201 Clouds 25 1004 29 10000 6 140 18:22 22.07.2020
5202 Clouds 26 1004 27 10000 8 140 17:41 22.07.2020
5203 Clouds 26 1004 27 10000 8 140 17:23 22.07.2020
5204 Clouds 26 1004 29 10000 12 130 16:56 22.07.2020
5205 Clouds 26 1004 29 10000 10 130 16:37 22.07.2020
5206 Clouds 26 1004 29 10000 10 130 16:19 22.07.2020
5207 Clouds 26 1004 24 10000 4 170 15:47 22.07.2020
5208 Clouds 26 1003 27 10000 2 190 15:27 22.07.2020
5209 Clouds 28 1002 23 10000 5 150 14:57 22.07.2020
5210 Clouds 28 1002 23 10000 5 180 14:39 22.07.2020
5211 Clouds 28 1002 23 10000 5 180 14:18 22.07.2020
5212 Clouds 29 1002 21 10000 10 210 13:40 22.07.2020
5213 Clouds 30 1001 19 10000 4 130 13:22 22.07.2020
5214 Clouds 30 1001 19 10000 4 130 12:49 22.07.2020
5215 Clouds 30 1001 19 10000 4 130 12:30 22.07.2020
5216 Clouds 32 1002 34 10000 5 140 11:57 22.07.2020
5217 Clouds 33 1002 34 10000 4 140 11:39 22.07.2020
5218 Clouds 34 1002 10 10000 3 160 11:19 22.07.2020
5219 Clouds 34 1002 10 10000 3 160 10:56 22.07.2020
5220 Clouds 34 1003 10 10000 7 150 10:37 22.07.2020
5221 Clouds 33 1003 14 10000 6 140 10:18 22.07.2020
5222 Clouds 32 1003 13 10000 5 140 09:42 22.07.2020
5223 Clouds 32 1003 13 10000 5 140 09:20 22.07.2020
5224 Clouds 33 1004 25 10000 7 160 08:40 22.07.2020
5225 Clouds 33 1004 26 10000 7 160 08:21 22.07.2020
5226 Clouds 32 1004 26 10000 5 170 07:37 22.07.2020
5227 Clouds 32 1004 13 10000 7 150 07:18 22.07.2020
5228 Clouds 32 1005 15 10000 6 190 06:18 22.07.2020
5229 Clouds 32 1005 15 10000 6 190 05:51 22.07.2020
5230 Clouds 30 1005 23 10000 4 140 05:19 22.07.2020
5231 Clouds 26 1006 29 10000 2 0 04:24 22.07.2020
5232 Clouds 20 1006 42 10000 2.76 119 02:53 22.07.2020
5233 Clouds 14 1006 62 10000 2.48 108 01:44 22.07.2020
5234 Clouds 11 1006 76 10000 2.32 101 00:31 22.07.2020
5235 Clouds 9 1006 70 10000 1 0 23:55 21.07.2020
5236 Clouds 10 1005 71 10000 2.23 103 23:37 21.07.2020
5237 Clouds 10 1005 71 10000 2.14 94 23:18 21.07.2020
5238 Clouds 11 1005 66 10000 2.14 94 22:55 21.07.2020
5239 Clouds 12 1005 66 10000 1 0 22:36 21.07.2020
5240 Clouds 12 1005 66 10000 1 0 22:18 21.07.2020
5241 Clouds 12 1005 62 10000 1.99 87 21:54 21.07.2020
5242 Clouds 12 1005 62 10000 1 0 21:36 21.07.2020
5243 Clouds 12 1005 62 10000 1 0 21:18 21.07.2020
5244 Clear 14 1005 54 10000 1.94 96 20:42 21.07.2020
5245 Clouds 14 1005 54 10000 1.9 103 20:22 21.07.2020
5246 Clouds 13 1005 62 10000 2 0 19:45 21.07.2020
5247 Clouds 14 1005 58 10000 1 0 19:20 21.07.2020
5248 Clouds 15 1005 58 10000 1 0 18:45 21.07.2020
5249 Clouds 15 1005 58 10000 1 0 18:25 21.07.2020
5250 Clouds 16 1005 48 10000 1 0 17:58 21.07.2020
5251 Clouds 17 1005 42 10000 1 0 17:38 21.07.2020
5252 Clouds 17 1005 42 10000 1 0 17:19 21.07.2020
5253 Clouds 21 1005 32 10000 1.63 89 16:41 21.07.2020
5254 Clouds 21 1005 32 10000 1.61 76 16:21 21.07.2020
5255 Clouds 23 1005 28 10000 2 0 15:45 21.07.2020
5256 Clouds 22 1004 35 10000 2 0 15:24 21.07.2020
5257 Clouds 23 1004 35 10000 2 130 14:57 21.07.2020
5258 Clouds 26 1004 31 10000 2 130 14:37 21.07.2020
5259 Clear 26 1004 31 10000 2 130 14:18 21.07.2020
5260 Clouds 29 1004 17 10000 3 140 13:42 21.07.2020
5261 Clouds 29 1004 17 10000 3 140 13:22 21.07.2020
5262 Clouds 29 1004 48 10000 2 0 12:56 21.07.2020
5263 Clouds 30 1004 15 10000 1 0 12:38 21.07.2020
5264 Clouds 30 1004 15 10000 1 0 12:19 21.07.2020
5265 Clouds 30 1004 15 10000 2 0 11:42 21.07.2020
5266 Clouds 30 1004 15 10000 2 0 11:22 21.07.2020
5267 Clouds 29 1005 16 10000 2 0 10:59 21.07.2020
5268 Clouds 29 1005 16 10000 2 0 10:40 21.07.2020
5269 Clouds 29 1005 16 10000 2 0 10:21 21.07.2020
5270 Clouds 28 1005 31 10000 3 320 09:43 21.07.2020
5271 Clouds 28 1005 32 10000 3 320 09:23 21.07.2020
5272 Clouds 28 1005 20 10000 3 280 08:46 21.07.2020
5273 Clouds 28 1006 14 10000 3 250 08:25 21.07.2020
5274 Clouds 27 1006 21 10000 4 270 07:53 21.07.2020
5275 Clouds 27 1006 21 10000 4 270 07:53 21.07.2020
5276 Clouds 27 1006 26 10000 2 0 07:34 21.07.2020
5277 Clouds 27 1006 26 10000 2 0 06:58 21.07.2020
5278 Clear 26 1006 27 10000 3 200 06:29 21.07.2020
5279 Clear 21 1007 43 10000 1 0 04:29 21.07.2020
5280 Clear 17 1007 51 10000 1 0 03:31 21.07.2020
5281 Clear 13 1008 71 10000 1.21 96 01:58 21.07.2020
5282 Clear 8 1007 81 10000 1 0 00:53 21.07.2020
5283 Clear 8 1007 81 10000 1 0 00:30 21.07.2020
5284 Clear 7 1007 87 10000 1 0 23:59 20.07.2020
5285 Clear 7 1007 93 10000 1 0 23:39 20.07.2020
5286 Clear 7 1007 93 10000 1 0 23:21 20.07.2020
5287 Clear 7 1007 87 10000 1.34 104 22:56 20.07.2020
5288 Clear 7 1007 87 10000 1.34 104 22:38 20.07.2020
5289 Clouds 7 1007 87 10000 1.18 92 22:18 20.07.2020
5290 Clouds 8 1007 81 10000 1 0 21:44 20.07.2020
5291 Clear 8 1007 81 10000 1 0 21:24 20.07.2020
5292 Clear 8 1007 81 10000 1.62 89 20:56 20.07.2020
5293 Clear 11 1008 76 10000 1.62 89 20:37 20.07.2020
5294 Rain 11 1008 76 10000 1.74 86 20:19 20.07.2020
5295 Rain 12 1007 71 10000 2 70 19:38 20.07.2020
5296 Rain 12 1007 66 10000 2 0 19:18 20.07.2020
5297 Rain 12 1007 66 10000 2 0 18:43 20.07.2020
5298 Clouds 12 1007 66 10000 2 0 18:25 20.07.2020
5299 Clouds 12 1007 66 10000 2 0 17:58 20.07.2020
5300 Clouds 12 1007 71 10000 1 0 17:39 20.07.2020
5301 Clouds 12 1007 71 10000 1 0 17:20 20.07.2020
5302 Clouds 13 1007 66 10000 1 0 16:46 20.07.2020
5303 Rain 13 1007 66 10000 1 0 16:20 20.07.2020
5304 Clouds 17 1006 55 10000 2 0 15:44 20.07.2020
5305 Clouds 17 1006 55 10000 2 0 15:19 20.07.2020
5306 Clouds 22 1006 33 10000 2 0 14:46 20.07.2020
5307 Clouds 23 1006 28 10000 1 0 14:20 20.07.2020
5308 Clouds 24 1006 25 10000 1 0 13:59 20.07.2020
5309 Clouds 24 1006 25 10000 1 0 13:40 20.07.2020
5310 Clouds 24 1006 25 10000 1 0 13:21 20.07.2020
5311 Clouds 25 1006 25 10000 1 0 12:57 20.07.2020
5312 Clouds 24 1006 27 10000 3 20 12:38 20.07.2020
5313 Clouds 24 1006 27 10000 2 0 12:19 20.07.2020
5314 Clouds 24 1006 27 10000 2 0 11:57 20.07.2020
5315 Clouds 24 1007 27 10000 2 0 11:39 20.07.2020
5316 Clouds 24 1007 27 10000 2 0 11:21 20.07.2020
5317 Clouds 23 1007 28 10000 2 0 10:44 20.07.2020
5318 Clouds 23 1007 28 10000 2 0 10:25 20.07.2020
5319 Clouds 23 1007 27 10000 1 0 09:55 20.07.2020
5320 Clouds 22 1008 30 10000 1 0 09:37 20.07.2020
5321 Clouds 22 1008 30 10000 1 0 09:19 20.07.2020
5322 Clouds 21 1009 28 10000 2 0 08:43 20.07.2020
5323 Clouds 21 1009 28 10000 2 0 08:24 20.07.2020
5324 Clouds 19 1009 34 10000 2 0 07:43 20.07.2020
5325 Clouds 19 1010 32 10000 2 0 07:21 20.07.2020
5326 Clouds 19 1010 32 10000 2 0 06:43 20.07.2020
5327 Clouds 18 1010 49 10000 1 0 05:32 20.07.2020
5328 Clouds 12 1011 58 10000 0.61 197 02:45 20.07.2020
5329 Clouds 7 1011 81 10000 1 0 00:56 20.07.2020
5330 Clouds 7 1012 75 10000 1 0 23:59 19.07.2020
5331 Clouds 4 1012 86 10000 2 0 23:41 19.07.2020
5332 Clouds 4 1012 86 10000 2 0 23:23 19.07.2020
5333 Clouds 3 1011 86 10000 2 160 22:55 19.07.2020
5334 Clouds 3 1011 74 10000 2 190 22:36 19.07.2020
5335 Clear 3 1011 76 10000 2 190 22:18 19.07.2020
5336 Clear 4 1011 80 10000 1 0 21:42 19.07.2020
5337 Clear 4 1011 80 10000 1 0 21:23 19.07.2020
5338 Clear 6 1011 81 10000 1 0 20:56 19.07.2020
5339 Clear 6 1011 81 10000 1 0 20:38 19.07.2020
5340 Clear 6 1011 81 10000 1 0 20:18 19.07.2020
5341 Clear 6 1011 75 10000 2 140 19:56 19.07.2020
5342 Clear 6 1011 75 10000 2 140 19:36 19.07.2020
5343 Clear 6 1011 81 10000 2 160 19:18 19.07.2020
5344 Clear 6 1011 81 10000 2 160 18:40 19.07.2020
5345 Clear 9 1011 76 10000 1 0 18:22 19.07.2020
5346 Clear 9 1011 76 10000 1 0 17:47 19.07.2020
5347 Clear 9 1011 76 10000 1 0 17:27 19.07.2020
5348 Clear 10 1011 71 10000 2 290 16:57 19.07.2020
5349 Clear 12 1011 62 10000 2 350 16:38 19.07.2020
5350 Clear 12 1011 62 10000 2 350 16:19 19.07.2020
5351 Clear 13 1011 58 10000 3 360 15:48 19.07.2020
5352 Clear 13 1010 58 10000 3 340 15:29 19.07.2020
5353 Clear 14 1010 54 10000 3 320 14:47 19.07.2020
5354 Clouds 16 1010 44 10000 5 340 14:27 19.07.2020
5355 Clouds 17 1010 42 10000 4 350 13:59 19.07.2020
5356 Clouds 17 1010 42 10000 4 350 13:40 19.07.2020
5357 Clouds 17 1010 39 10000 7 340 13:21 19.07.2020
5358 Clouds 18 1010 34 10000 6 350 12:47 19.07.2020
5359 Clouds 18 1010 34 10000 6 350 12:24 19.07.2020
5360 Clouds 18 1010 36 10000 6 340 11:46 19.07.2020
5361 Clouds 18 1010 36 10000 5 330 11:27 19.07.2020
5362 Clouds 18 1010 36 10000 6 340 10:58 19.07.2020
5363 Clouds 18 1010 39 10000 6 330 10:40 19.07.2020
5364 Clouds 18 1010 39 10000 6 330 10:21 19.07.2020
5365 Clouds 18 1010 39 10000 5 320 09:44 19.07.2020
5366 Clouds 18 1010 39 10000 5 320 09:22 19.07.2020
5367 Clouds 17 1010 39 10000 5 340 08:47 19.07.2020
5368 Clouds 19 1010 37 10000 5 340 08:26 19.07.2020
5369 Clouds 18 1010 34 10000 7 350 07:51 19.07.2020
5370 Clouds 17 1011 45 10000 7 340 07:27 19.07.2020
5371 Clouds 17 1011 48 10000 7 330 06:48 19.07.2020
5372 Clouds 15 1011 54 10000 6 320 06:21 19.07.2020
5373 Clouds 15 1011 54 10000 6 320 05:51 19.07.2020
5374 Clouds 14 1012 58 10000 4 350 04:44 19.07.2020
5375 Clouds 13 1012 66 10000 2 310 02:46 19.07.2020
5376 Clouds 13 1012 66 10000 2 10 02:23 19.07.2020
5377 Clouds 11 1012 76 10000 1.75 347 01:44 19.07.2020
5378 Clouds 9 1012 81 10000 1 0 00:53 19.07.2020
5379 Clouds 9 1012 81 10000 1 0 00:23 19.07.2020
5380 Clouds 8 1012 81 10000 3 170 23:55 18.07.2020
5381 Clouds 7 1011 81 10000 1 0 23:36 18.07.2020
5382 Clouds 7 1011 81 10000 1 0 23:18 18.07.2020
5383 Clouds 7 1011 81 10000 1 0 23:18 18.07.2020
5384 Clouds 6 1011 87 10000 2 160 22:40 18.07.2020
5385 Clouds 6 1011 87 10000 2 160 22:18 18.07.2020
5386 Clouds 10 1011 76 10000 1 0 21:46 18.07.2020
5387 Clouds 10 1011 76 10000 1 0 21:28 18.07.2020
5388 Clouds 8 1011 81 10000 0.82 27 20:58 18.07.2020
5389 Clouds 8 1011 81 10000 0.82 27 20:39 18.07.2020
5390 Clouds 8 1011 81 10000 0.77 14 20:20 18.07.2020
5391 Clouds 8 1012 81 10000 2 0 19:41 18.07.2020
5392 Clouds 8 1012 81 10000 2 0 19:21 18.07.2020
5393 Clouds 8 1012 81 10000 1 0 18:46 18.07.2020
5394 Clouds 8 1012 81 10000 1 0 18:21 18.07.2020
5395 Clouds 11 1012 66 10000 1 0 17:48 18.07.2020
5396 Clear 11 1012 66 10000 1 0 17:23 18.07.2020
5397 Clouds 10 1012 76 10000 1 0 16:59 18.07.2020
5398 Clouds 13 1011 62 10000 1 0 16:38 18.07.2020
5399 Clouds 13 1011 62 10000 1 0 16:20 18.07.2020
5400 Clouds 14 1011 58 10000 2 0 15:47 18.07.2020
5401 Clouds 15 1011 54 10000 3 340 15:28 18.07.2020
5402 Clouds 16 1011 51 10000 4 330 14:57 18.07.2020
5403 Clouds 17 1011 48 10000 4 340 14:39 18.07.2020
5404 Clouds 17 1011 48 10000 4 340 14:20 18.07.2020
5405 Clouds 18 1010 42 10000 5 360 13:44 18.07.2020
5406 Clouds 18 1010 42 10000 5 360 13:26 18.07.2020
5407 Clouds 19 1011 39 10000 5 360 12:57 18.07.2020
5408 Clouds 18 1011 42 10000 6 330 12:39 18.07.2020
5409 Clouds 19 1011 34 10000 6 320 12:19 18.07.2020
5410 Clouds 19 1011 34 10000 6 320 11:57 18.07.2020
5411 Clouds 20 1011 37 10000 6 340 11:39 18.07.2020
5412 Clouds 20 1011 37 10000 6 340 11:18 18.07.2020
5413 Clouds 20 1011 37 10000 6 340 10:44 18.07.2020
5414 Clouds 20 1011 37 10000 6 340 10:26 18.07.2020
5415 Clouds 20 1011 34 10000 7 350 09:49 18.07.2020
5416 Clouds 20 1011 34 10000 6 340 09:28 18.07.2020
5417 Clouds 20 1011 37 10000 7 340 08:56 18.07.2020
5418 Clouds 19 1011 37 10000 6 340 08:37 18.07.2020
5419 Clouds 19 1011 37 10000 6 340 07:59 18.07.2020
5420 Clouds 18 1011 42 10000 6 340 07:41 18.07.2020
5421 Clouds 17 1011 48 10000 6 350 07:23 18.07.2020
5422 Clouds 17 1011 48 10000 6 350 06:46 18.07.2020
5423 Clouds 15 1012 51 10000 2 0 04:29 18.07.2020
5424 Clouds 13 1012 58 10000 1 0 03:58 18.07.2020
5425 Clouds 10 1012 71 10000 1 0 02:30 18.07.2020
5426 Clouds 8 1012 81 10000 2.22 346 01:24 18.07.2020
5427 Clouds 4 1012 86 10000 2 170 00:39 18.07.2020
5428 Clouds 5 1011 80 10000 1 0 23:58 17.07.2020
5429 Clouds 5 1011 80 10000 2 0 23:39 17.07.2020
5430 Clouds 5 1011 80 10000 2 0 23:19 17.07.2020
5431 Clear 4 1011 86 10000 2 160 22:43 17.07.2020
5432 Clear 4 1011 86 10000 2 160 22:22 17.07.2020
5433 Clear 4 1011 86 10000 2 170 21:59 17.07.2020
5434 Clear 4 1011 86 10000 2 170 21:41 17.07.2020
5435 Clear 4 1011 86 10000 2 170 21:22 17.07.2020
5436 Clear 6 1011 81 10000 1 0 20:56 17.07.2020
5437 Clear 6 1011 81 10000 1 0 20:37 17.07.2020
5438 Clear 6 1011 81 10000 1 0 20:18 17.07.2020
5439 Clear 5 1011 80 10000 2 150 19:44 17.07.2020
5440 Clear 6 1012 81 10000 2 200 19:20 17.07.2020
5441 Clear 6 1012 81 10000 2 200 18:49 17.07.2020
5442 Clear 6 1012 81 10000 2 200 18:49 17.07.2020
5443 Clear 6 1012 81 10000 2 200 18:26 17.07.2020
5444 Clear 8 1011 75 10000 1.65 355 17:46 17.07.2020
5445 Clear 8 1011 75 10000 1.59 7 17:27 17.07.2020
5446 Clouds 9 1011 70 10000 1 0 16:58 17.07.2020
5447 Clouds 10 1011 71 10000 2 320 16:39 17.07.2020
5448 Clouds 10 1011 71 10000 2 320 16:19 17.07.2020
5449 Clouds 14 1011 47 10000 2 360 15:40 17.07.2020
5450 Clouds 14 1011 47 10000 2 360 15:19 17.07.2020
5451 Clouds 15 1010 44 10000 4 350 14:43 17.07.2020
5452 Clouds 15 1010 44 10000 4 350 14:22 17.07.2020
5453 Clouds 16 1010 41 10000 4 350 13:57 17.07.2020
5454 Clouds 16 1010 41 10000 5 340 13:39 17.07.2020
5455 Clouds 16 1010 41 10000 5 340 13:19 17.07.2020
5456 Clouds 17 1010 36 10000 5 340 12:42 17.07.2020
5457 Clouds 17 1010 36 10000 5 340 12:42 17.07.2020
5458 Clouds 16 1010 36 10000 7 350 12:21 17.07.2020
5459 Clouds 16 1010 36 10000 7 350 11:56 17.07.2020
5460 Clouds 16 1010 38 10000 6 350 11:38 17.07.2020
5461 Clouds 16 1010 38 10000 6 350 11:20 17.07.2020
5462 Clouds 16 1010 36 10000 7 330 10:55 17.07.2020
5463 Clouds 16 1010 36 10000 9 330 10:36 17.07.2020
5464 Clouds 16 1010 36 10000 9 330 10:18 17.07.2020
5465 Clouds 16 1010 38 10000 8 330 09:55 17.07.2020
5466 Clouds 16 1010 38 10000 6 340 09:36 17.07.2020
5467 Clouds 16 1010 36 10000 7 330 09:18 17.07.2020
5468 Clouds 16 1010 36 10000 8 330 08:39 17.07.2020
5469 Clouds 16 1010 36 10000 8 330 08:18 17.07.2020
5470 Clouds 16 1011 36 10000 6 350 07:39 17.07.2020
5471 Clouds 14 1011 41 10000 7 340 07:18 17.07.2020
5472 Clouds 14 1011 44 10000 6 330 06:48 17.07.2020
5473 Clouds 14 1011 50 10000 8 320 05:49 17.07.2020
5474 Clouds 14 1012 44 10000 6 350 04:47 17.07.2020
5475 Clouds 11 1012 71 10000 5 340 02:24 17.07.2020
5476 Clouds 10 1012 71 10000 5 350 01:26 17.07.2020
5477 Clouds 9 1011 76 10000 6 340 00:43 17.07.2020
5478 Clouds 9 1011 76 10000 6 340 00:21 17.07.2020
5479 Clouds 9 1011 76 10000 6 360 23:43 16.07.2020
5480 Clouds 9 1011 76 10000 6 360 23:20 16.07.2020
5481 Clouds 9 1011 76 10000 5 340 22:46 16.07.2020
5482 Clouds 9 1011 76 10000 5 340 22:46 16.07.2020
5483 Clouds 9 1011 76 10000 5 330 22:25 16.07.2020
5484 Clouds 10 1011 71 10000 6 350 21:58 16.07.2020
5485 Clouds 10 1011 71 10000 6 350 21:39 16.07.2020
5486 Clouds 10 1011 71 10000 6 350 21:39 16.07.2020
5487 Clouds 10 1011 71 10000 6 350 21:21 16.07.2020
5488 Clouds 10 1011 71 10000 6 360 20:59 16.07.2020
5489 Clouds 10 1012 71 10000 5 350 20:41 16.07.2020
5490 Clouds 10 1012 71 10000 5 350 20:22 16.07.2020
5491 Clouds 10 1012 71 10000 5 350 19:57 16.07.2020
5492 Clouds 11 1012 66 10000 5 360 19:39 16.07.2020
5493 Clouds 11 1012 71 10000 6 360 19:21 16.07.2020
5494 Clouds 11 1012 71 10000 5 360 18:42 16.07.2020
5495 Clouds 11 1012 71 10000 5 360 18:23 16.07.2020
5496 Clouds 11 1012 71 10000 6 350 17:55 16.07.2020
5497 Clouds 11 1012 71 10000 4 360 17:36 16.07.2020
5498 Clouds 11 1012 71 10000 4 360 17:18 16.07.2020
5499 Clouds 11 1011 71 10000 6 350 16:42 16.07.2020
5500 Clouds 11 1011 71 10000 6 350 16:22 16.07.2020
5501 Clouds 11 1011 71 10000 7 350 15:59 16.07.2020
5502 Clouds 11 1011 71 10000 8 350 15:40 16.07.2020
5503 Clouds 11 1011 71 10000 8 350 15:22 16.07.2020
5504 Clouds 11 1011 76 10000 8 350 14:54 16.07.2020
5505 Clouds 11 1011 76 10000 7 350 14:36 16.07.2020
5506 Clouds 11 1011 76 10000 7 350 14:18 16.07.2020
5507 Clouds 12 1010 71 10000 7 340 13:39 16.07.2020
5508 Clouds 12 1010 71 10000 7 340 13:20 16.07.2020
5509 Clouds 13 1009 71 10000 9 340 12:45 16.07.2020
5510 Clouds 13 1009 71 10000 9 340 12:22 16.07.2020
5511 Clouds 13 1009 71 10000 7 340 11:59 16.07.2020
5512 Clouds 13 1009 71 10000 8 350 11:37 16.07.2020
5513 Clouds 13 1009 71 10000 8 350 11:18 16.07.2020
5514 Clouds 13 1009 71 10000 9 350 10:56 16.07.2020
5515 Clouds 14 1008 71 10000 10 350 10:37 16.07.2020
5516 Clouds 14 1008 71 10000 10 350 10:18 16.07.2020
5517 Clouds 14 1008 71 10000 10 340 09:44 16.07.2020
5518 Clouds 14 1008 71 10000 10 340 09:25 16.07.2020
5519 Clouds 14 1008 71 10000 8 350 08:45 16.07.2020
5520 Clouds 14 1008 71 10000 8 340 08:27 16.07.2020
5521 Clouds 14 1008 71 10000 8 350 07:55 16.07.2020
5522 Clouds 15 1008 72 10000 7 340 07:37 16.07.2020
5523 Clouds 15 1008 72 10000 7 340 07:18 16.07.2020
5524 Clouds 14 1008 76 10000 7 350 06:44 16.07.2020
5525 Clouds 15 1008 77 10000 8 330 06:19 16.07.2020
5526 Clouds 15 1008 77 10000 8 330 05:38 16.07.2020
5527 Clouds 16 1007 72 10000 7 350 04:42 16.07.2020
5528 Clouds 16 1007 72 10000 6 350 03:52 16.07.2020
5529 Clouds 16 1007 72 10000 7 340 03:23 16.07.2020
5530 Clouds 16 1006 72 10000 7 330 02:33 16.07.2020
5531 Clouds 16 1006 67 10000 4 10 01:52 16.07.2020
5532 Clouds 15 1006 72 10000 4 350 01:24 16.07.2020
5533 Clouds 15 1006 72 10000 3 40 00:40 16.07.2020
5534 Clouds 15 1006 72 10000 4 20 23:59 15.07.2020
5535 Clouds 15 1006 72 0 4 350 23:40 15.07.2020
5536 Clouds 15 1006 72 0 4 350 23:22 15.07.2020
5537 Clouds 15 1006 72 10000 4 30 22:59 15.07.2020
5538 Clouds 15 1006 72 10000 6 340 22:39 15.07.2020
5539 Clouds 15 1006 72 10000 6 340 22:19 15.07.2020
5540 Clear 13 1006 76 10000 2 0 21:55 15.07.2020
5541 Clear 13 1006 76 10000 2 0 21:55 15.07.2020
5542 Clear 12 1006 76 10000 1 0 21:37 15.07.2020
5543 Clouds 12 1006 76 10000 1 0 21:19 15.07.2020
5544 Clouds 13 1005 71 10000 2 0 20:57 15.07.2020
5545 Clouds 13 1005 71 10000 2 0 20:38 15.07.2020
5546 Clouds 13 1005 71 10000 2 0 20:19 15.07.2020
5547 Clouds 13 1005 71 10000 2 0 19:55 15.07.2020
5548 Clouds 13 1005 71 10000 2 0 19:55 15.07.2020
5549 Clouds 11 1003 81 10000 1 0 19:37 15.07.2020
5550 Clouds 12 1004 81 10000 1 0 19:19 15.07.2020
5551 Clouds 12 1004 81 10000 1 0 18:44 15.07.2020
5552 Clouds 12 1004 81 10000 1 0 18:26 15.07.2020
5553 Clouds 14 1004 67 10000 1 0 17:58 15.07.2020
5554 Clouds 14 1004 67 10000 1 0 17:39 15.07.2020
5555 Clouds 14 1004 67 10000 1 0 17:20 15.07.2020
5556 Clouds 14 1004 67 10000 1 0 16:57 15.07.2020
5557 Clouds 17 1004 55 10000 1 0 16:39 15.07.2020
5558 Clouds 17 1004 55 10000 1 0 16:20 15.07.2020
5559 Clouds 17 1004 67 10000 3 150 15:42 15.07.2020
5560 Clouds 17 1004 67 10000 3 150 15:23 15.07.2020
5561 Clouds 21 1004 43 10000 1 0 14:58 15.07.2020
5562 Clouds 21 1004 43 10000 1 0 14:58 15.07.2020
5563 Clouds 24 1004 36 10000 1 0 14:39 15.07.2020
5564 Clouds 24 1004 36 10000 1 0 14:39 15.07.2020
5565 Clouds 24 1004 36 10000 1 0 14:19 15.07.2020
5566 Clouds 25 1004 31 10000 2 0 13:43 15.07.2020
5567 Clouds 25 1004 31 10000 2 0 13:43 15.07.2020
5568 Clouds 25 1004 31 10000 2 0 13:25 15.07.2020
5569 Clouds 25 1004 31 10000 3 300 12:58 15.07.2020
5570 Clouds 25 1004 31 10000 4 310 12:39 15.07.2020
5571 Clouds 25 1004 27 10000 4 250 12:20 15.07.2020
5572 Clouds 25 1004 27 10000 4 250 11:54 15.07.2020
5573 Clouds 26 1004 29 10000 3 280 11:36 15.07.2020
5574 Clouds 26 1004 29 10000 3 280 11:18 15.07.2020
5575 Clouds 26 1004 36 10000 4 330 10:41 15.07.2020
5576 Clouds 26 1004 36 10000 4 330 10:23 15.07.2020
5577 Clouds 26 1004 36 10000 2 0 09:55 15.07.2020
5578 Clouds 25 1005 36 10000 3 240 09:36 15.07.2020
5579 Clouds 25 1005 36 10000 3 240 09:18 15.07.2020
5580 Clouds 24 1005 47 10000 4 290 08:42 15.07.2020
5581 Clouds 24 1005 47 10000 4 290 08:24 15.07.2020
5582 Clouds 25 1005 44 10000 3 240 07:45 15.07.2020
5583 Clouds 25 1006 44 10000 3 260 07:25 15.07.2020
5584 Clouds 25 1006 47 10000 3 200 06:42 15.07.2020
5585 Clouds 24 1006 50 10000 4 250 05:55 15.07.2020
5586 Clouds 24 1006 50 10000 3 240 05:26 15.07.2020
5587 Clear 23 1006 53 10000 5 170 04:29 15.07.2020
5588 Clear 23 1006 49 10000 6 140 03:25 15.07.2020
5589 Clouds 21 1006 56 10000 3 140 01:53 15.07.2020
5590 Clouds 19 1006 63 10000 1 0 01:25 15.07.2020
5591 Clouds 19 1006 59 10000 3.02 110 00:49 15.07.2020
5592 Clouds 19 1006 59 10000 2.72 105 00:27 15.07.2020
5593 Thunderstorm 18 1006 72 10000 2 0 23:46 14.07.2020
5594 Thunderstorm 18 1006 68 10000 1 0 23:27 14.07.2020
5595 Clouds 17 1006 77 10000 1 0 22:41 14.07.2020
5596 Clouds 17 1006 77 10000 1 0 22:20 14.07.2020
5597 Clouds 17 1006 77 10000 3 320 21:57 14.07.2020
5598 Clouds 17 1006 77 10000 3 320 21:57 14.07.2020
5599 Clouds 17 1006 77 10000 3 320 21:39 14.07.2020
5600 Clouds 17 1006 77 10000 3 320 21:21 14.07.2020
5601 Clouds 17 1007 77 10000 2 0 20:59 14.07.2020
5602 Clouds 17 1007 77 10000 2 0 20:40 14.07.2020
5603 Clouds 17 1007 77 10000 2 0 20:20 14.07.2020
5604 Clouds 17 1008 77 10000 1 0 19:40 14.07.2020
5605 Clouds 17 1008 77 10000 1 0 19:22 14.07.2020
5606 Clouds 17 1008 77 10000 2 0 18:59 14.07.2020
5607 Clouds 17 1008 77 10000 2 0 18:41 14.07.2020
5608 Clouds 17 1008 82 10000 1 0 18:19 14.07.2020
5609 Clouds 17 1008 82 10000 1 0 17:55 14.07.2020
5610 Clouds 17 1008 77 10000 2.14 129 17:37 14.07.2020
5611 Clouds 17 1008 77 10000 2.4 114 17:19 14.07.2020
5612 Clouds 19 1009 72 10000 1 0 16:43 14.07.2020
5613 Clouds 19 1009 72 10000 1 0 16:25 14.07.2020
5614 Clouds 19 1009 72 10000 2 60 15:57 14.07.2020
5615 Clouds 20 1009 68 10000 3 90 15:38 14.07.2020
5616 Clouds 20 1009 68 10000 3 90 15:20 14.07.2020
5617 Clouds 21 1009 60 10000 4 50 14:45 14.07.2020
5618 Clouds 21 1008 60 10000 3 40 14:27 14.07.2020
5619 Clouds 22 1008 56 10000 3 30 13:55 14.07.2020
5620 Clouds 23 1008 53 10000 2 0 13:37 14.07.2020
5621 Clouds 23 1008 53 10000 2 0 13:19 14.07.2020
5622 Clouds 23 1009 43 10000 2 0 12:39 14.07.2020
5623 Clouds 23 1009 43 10000 2 0 12:21 14.07.2020
5624 Clouds 22 1009 53 10000 3 90 11:50 14.07.2020
5625 Rain 19 1010 72 10000 4 120 11:28 14.07.2020
5626 Rain 19 1010 68 10000 3 170 10:59 14.07.2020
5627 Rain 20 1010 64 10000 7 200 10:40 14.07.2020
5628 Rain 20 1010 64 10000 7 200 10:40 14.07.2020
5629 Rain 20 1010 64 10000 7 200 10:21 14.07.2020
5630 Thunderstorm 20 1009 64 10000 6 140 09:41 14.07.2020
5631 Thunderstorm 20 1009 64 10000 6 140 09:22 14.07.2020
5632 Thunderstorm 19 1009 68 10000 16 130 08:58 14.07.2020
5633 Thunderstorm 25 1010 50 10000 7 160 08:38 14.07.2020
5634 Thunderstorm 25 1010 50 10000 7 160 08:20 14.07.2020
5635 Clouds 28 1010 39 10000 5 160 07:44 14.07.2020
5636 Clouds 28 1010 39 10000 5 150 07:19 14.07.2020
5637 Clouds 27 1011 39 10000 5 140 06:57 14.07.2020
5638 Clouds 26 1011 44 10000 4 150 06:26 14.07.2020
5639 Clouds 26 1011 44 10000 4 150 05:50 14.07.2020
5640 Clouds 25 1011 47 10000 2 0 04:52 14.07.2020
5641 Clouds 23 1012 53 10000 3 40 04:33 14.07.2020
5642 Clouds 21 1012 60 10000 4 40 03:29 14.07.2020
5643 Clouds 16 1012 82 10000 2 0 02:27 14.07.2020
5644 Clouds 16 1012 77 10000 2.04 104 01:41 14.07.2020
5645 Clouds 16 1012 77 10000 1.82 98 01:22 14.07.2020
5646 Clouds 15 1012 87 10000 1.82 98 00:42 14.07.2020
5647 Clouds 15 1012 87 10000 1.86 99 00:22 14.07.2020
5648 Clouds 14 1012 82 10000 1 0 23:39 13.07.2020
5649 Clouds 14 1012 82 10000 1 0 23:19 13.07.2020
5650 Clouds 13 1012 87 10000 1 0 22:57 13.07.2020
5651 Clouds 12 1012 87 10000 1.94 95 22:39 13.07.2020
5652 Clouds 12 1012 87 10000 1.61 98 22:19 13.07.2020
5653 Clouds 14 1012 82 10000 1 0 21:54 13.07.2020
5654 Clouds 15 1012 82 10000 1 0 21:36 13.07.2020
5655 Clear 15 1012 82 10000 1 0 21:18 13.07.2020
5656 Clear 15 1012 82 10000 1 0 21:18 13.07.2020
5657 Clear 16 1012 77 10000 1 0 20:42 13.07.2020
5658 Clear 16 1012 77 10000 1 0 20:23 13.07.2020
5659 Clear 14 1012 87 10000 1 0 19:59 13.07.2020
5660 Clear 14 1012 87 10000 1 0 19:41 13.07.2020
5661 Clear 14 1012 87 10000 1 0 19:22 13.07.2020
5662 Clear 16 1013 77 10000 2.01 95 18:56 13.07.2020
5663 Clear 16 1013 77 10000 2.01 95 18:38 13.07.2020
5664 Clear 16 1013 77 10000 2.01 95 18:38 13.07.2020
5665 Clear 16 1012 77 10000 1 0 18:19 13.07.2020
5666 Clear 16 1012 77 10000 1 0 17:43 13.07.2020
5667 Clear 16 1012 77 10000 1 0 17:22 13.07.2020
5668 Clear 19 1012 68 10000 1 0 16:59 13.07.2020
5669 Clear 18 1012 68 10000 1 0 16:41 13.07.2020
5670 Clear 18 1012 68 10000 1 0 16:20 13.07.2020
5671 Clouds 18 1012 77 10000 2 190 15:57 13.07.2020
5672 Clouds 20 1012 68 10000 1 0 15:38 13.07.2020
5673 Clouds 20 1012 68 10000 1 0 15:20 13.07.2020
5674 Clouds 21 1012 60 10000 2 0 14:57 13.07.2020
5675 Clouds 24 1012 50 10000 2 320 14:39 13.07.2020
5676 Clouds 24 1012 50 10000 2 320 14:20 13.07.2020
5677 Clouds 25 1011 38 10000 2 290 13:43 13.07.2020
5678 Clouds 25 1011 38 10000 2 290 13:22 13.07.2020
5679 Clouds 25 1011 38 10000 2 290 12:57 13.07.2020
5680 Clouds 26 1011 34 10000 2 0 12:39 13.07.2020
5681 Clouds 26 1011 34 10000 2 0 12:21 13.07.2020
5682 Clouds 25 1011 31 10000 2 0 11:46 13.07.2020
5683 Clouds 25 1011 31 10000 2 0 11:27 13.07.2020
5684 Clouds 25 1011 41 10000 2 0 10:59 13.07.2020
5685 Clouds 25 1011 36 10000 3 330 10:37 13.07.2020
5686 Clouds 25 1011 36 10000 3 330 10:19 13.07.2020
5687 Clouds 25 1012 44 10000 4 330 09:41 13.07.2020
5688 Clouds 25 1012 44 10000 4 330 09:23 13.07.2020
5689 Clouds 25 1012 44 10000 2 0 08:51 13.07.2020
5690 Clouds 24 1013 41 10000 2 0 08:32 13.07.2020
5691 Clouds 23 1013 38 10000 2 0 07:34 13.07.2020
5692 Clouds 23 1013 43 10000 1 0 06:55 13.07.2020
5693 Clouds 23 1013 43 10000 1 0 06:37 13.07.2020
5694 Clouds 20 1013 60 10000 2 0 06:19 13.07.2020
5695 Rain 18 1014 72 10000 1 0 04:35 13.07.2020
5696 Clouds 15 1013 77 10000 1 0 01:53 13.07.2020
5697 Clouds 15 1013 77 10000 1 0 01:26 13.07.2020
5698 Clouds 15 1013 77 10000 3 40 00:57 13.07.2020
5699 Clouds 13 1012 87 10000 1 0 00:25 13.07.2020
5700 Clouds 13 1012 87 10000 1 0 23:57 12.07.2020
5701 Clouds 13 1012 87 10000 2 0 23:39 12.07.2020
5702 Clouds 13 1012 87 10000 2 0 23:21 12.07.2020
5703 Clouds 14 1012 82 10000 1 0 22:39 12.07.2020
5704 Clouds 14 1012 82 10000 1 0 22:20 12.07.2020
5705 Clouds 13 1012 87 10000 1.55 38 21:58 12.07.2020
5706 Clouds 13 1012 87 10000 1.55 38 21:40 12.07.2020
5707 Clouds 13 1012 87 10000 1.55 38 21:40 12.07.2020
5708 Clouds 13 1012 87 10000 1.23 46 21:20 12.07.2020
5709 Clouds 15 1012 82 10000 2 140 20:58 12.07.2020
5710 Clouds 15 1012 82 10000 2 140 20:58 12.07.2020
5711 Clouds 15 1012 82 10000 2 140 20:39 12.07.2020
5712 Clouds 15 1012 82 10000 2 140 20:20 12.07.2020
5713 Clouds 13 1011 87 10000 2 140 19:55 12.07.2020
5714 Clouds 13 1011 87 10000 2 140 19:36 12.07.2020
5715 Clouds 17 1012 77 10000 1 0 19:18 12.07.2020
5716 Clouds 17 1012 77 10000 1 0 18:42 12.07.2020
5717 Clouds 16 1011 82 10000 2 320 18:19 12.07.2020
5718 Clouds 16 1011 82 10000 2 320 17:57 12.07.2020
5719 Clouds 16 1011 82 10000 2 320 17:36 12.07.2020
5720 Clouds 16 1011 82 10000 2 320 17:18 12.07.2020
5721 Clouds 17 1011 77 10000 1 0 16:42 12.07.2020
5722 Clouds 17 1011 77 10000 1 0 16:20 12.07.2020
5723 Clouds 19 1011 68 10000 3 340 15:43 12.07.2020
5724 Clouds 19 1011 68 10000 3 340 15:24 12.07.2020
5725 Clouds 22 1010 53 10000 3 340 14:45 12.07.2020
5726 Clouds 22 1010 53 10000 3 340 14:27 12.07.2020
5727 Clouds 23 1010 43 10000 4 350 13:56 12.07.2020
5728 Clouds 23 1010 43 10000 4 350 13:56 12.07.2020
5729 Clouds 23 1010 43 10000 4 350 13:38 12.07.2020
5730 Clouds 23 1010 43 10000 4 350 13:19 12.07.2020
5731 Clouds 24 1009 47 10000 5 330 12:42 12.07.2020
5732 Clouds 24 1009 47 10000 4 340 12:20 12.07.2020
5733 Clouds 24 1009 47 10000 4 340 11:59 12.07.2020
5734 Clouds 24 1009 47 10000 4 340 11:41 12.07.2020
5735 Clouds 24 1009 47 10000 4 340 11:19 12.07.2020
5736 Clouds 24 1009 47 10000 4 330 10:42 12.07.2020
5737 Clouds 24 1009 47 10000 4 330 10:21 12.07.2020
5738 Clouds 24 1010 47 10000 3 340 09:43 12.07.2020
5739 Clouds 24 1010 47 10000 3 340 09:24 12.07.2020
5740 Clouds 24 1010 41 10000 2 0 08:59 12.07.2020
5741 Clouds 23 1010 46 10000 2 0 08:41 12.07.2020
5742 Clouds 23 1010 46 10000 2 0 08:22 12.07.2020
5743 Clouds 23 1010 46 10000 4 320 07:54 12.07.2020
5744 Clouds 23 1010 46 10000 4 320 07:36 12.07.2020
5745 Clouds 23 1010 46 10000 3 320 07:18 12.07.2020
5746 Clouds 23 1010 46 10000 1 0 06:47 12.07.2020
5747 Clouds 22 1010 49 10000 1 0 06:19 12.07.2020
5748 Clouds 21 1010 56 10000 2 0 05:22 12.07.2020
5749 Clouds 19 1010 63 10000 1 0 04:29 12.07.2020
5750 Clouds 18 1010 68 10000 1 0 03:48 12.07.2020
5751 Clear 17 1011 72 10000 1 0 03:28 12.07.2020
5752 Clear 16 1010 72 10000 0.56 315 02:45 12.07.2020
5753 Clouds 13 1010 87 10000 0.19 113 01:36 12.07.2020
5754 Clouds 10 1010 93 10000 0.59 99 00:41 12.07.2020
5755 Clouds 10 1010 93 10000 0.82 95 00:22 12.07.2020
5756 Clouds 10 1010 93 10000 0.82 95 23:55 11.07.2020
5757 Clouds 10 1010 93 10000 0.82 95 23:37 11.07.2020
5758 Clouds 10 1010 93 10000 0.79 71 23:18 11.07.2020
5759 Clouds 10 1009 93 10000 0.79 71 22:44 11.07.2020
5760 Clouds 10 1009 93 10000 0.78 62 22:25 11.07.2020
5761 Clouds 11 1009 87 10000 1 0 21:57 11.07.2020
5762 Clouds 11 1009 87 10000 1 0 21:38 11.07.2020
5763 Clouds 11 1009 87 10000 1 0 21:20 11.07.2020
5764 Clouds 12 1009 87 10000 0.38 64 20:55 11.07.2020
5765 Clouds 12 1009 87 10000 0.38 64 20:37 11.07.2020
5766 Clouds 12 1009 87 10000 0.45 140 20:18 11.07.2020
5767 Clouds 13 1009 87 10000 1 0 19:50 11.07.2020
5768 Clouds 13 1009 87 10000 1 0 19:31 11.07.2020
5769 Clouds 14 1008 82 10000 1 0 18:58 11.07.2020
5770 Clouds 14 1008 82 10000 1 0 18:40 11.07.2020
5771 Clouds 14 1008 82 10000 1 0 18:21 11.07.2020
5772 Clouds 13 1008 87 10000 1 0 17:58 11.07.2020
5773 Clouds 14 1008 87 10000 1 0 17:38 11.07.2020
5774 Clouds 15 1008 82 10000 1 0 17:19 11.07.2020
5775 Clouds 15 1008 82 10000 1 0 16:56 11.07.2020
5776 Clouds 15 1008 87 10000 1 0 16:37 11.07.2020
5777 Clouds 15 1008 87 10000 1 0 16:18 11.07.2020
5778 Clouds 18 1007 72 10000 1 0 15:41 11.07.2020
5779 Clouds 18 1007 72 10000 1 0 15:21 11.07.2020
5780 Clouds 20 1007 60 10000 1 0 14:58 11.07.2020
5781 Clouds 21 1007 52 10000 1 0 14:39 11.07.2020
5782 Clouds 21 1007 52 10000 1 0 14:21 11.07.2020
5783 Clouds 20 1006 60 10000 1 0 13:44 11.07.2020
5784 Clouds 20 1006 60 10000 1 0 13:22 11.07.2020
5785 Clouds 20 1006 60 10000 1 0 12:59 11.07.2020
5786 Clouds 20 1006 60 10000 2 0 12:40 11.07.2020
5787 Clouds 20 1006 60 10000 2 0 12:21 11.07.2020
5788 Clouds 20 1006 64 10000 4 300 11:56 11.07.2020
5789 Clouds 21 1006 52 10000 3 320 11:38 11.07.2020
5790 Clouds 20 1005 52 10000 3 340 11:19 11.07.2020
5791 Clouds 22 1006 53 10000 3 340 10:43 11.07.2020
5792 Clouds 22 1006 53 10000 3 340 10:25 11.07.2020
5793 Clouds 20 1005 56 10000 1 0 09:45 11.07.2020
5794 Clouds 20 1005 56 10000 1 0 09:21 11.07.2020
5795 Rain 20 1005 56 10000 3 330 08:59 11.07.2020
5796 Clouds 20 1006 56 10000 4 360 08:37 11.07.2020
5797 Clouds 20 1006 56 10000 4 360 08:18 11.07.2020
5798 Clouds 20 1006 56 10000 3 330 07:41 11.07.2020
5799 Clouds 19 1006 59 10000 3 330 07:20 11.07.2020
5800 Clouds 19 1006 59 10000 3 330 06:56 11.07.2020
5801 Clouds 19 1006 55 10000 3 270 06:22 11.07.2020
5802 Clouds 18 1006 63 10000 2 0 05:22 11.07.2020
5803 Clouds 17 1006 63 10000 2 0 04:55 11.07.2020
5804 Clouds 17 1005 67 10000 3 330 04:32 11.07.2020
5805 Clouds 15 1006 77 10000 2 0 03:24 11.07.2020
5806 Clouds 14 1005 82 10000 2 0 02:38 11.07.2020
5807 Clouds 13 1005 87 10000 1 0 01:37 11.07.2020
5808 Clouds 13 1005 87 10000 1 0 01:18 11.07.2020
5809 Clouds 13 1005 87 0 3 290 00:41 11.07.2020
5810 Clouds 13 1005 87 0 3 290 00:22 11.07.2020
5811 Clouds 13 1005 87 10000 2 290 23:57 10.07.2020
5812 Clouds 13 1004 87 10000 2 280 23:39 10.07.2020
5813 Clouds 13 1004 87 10000 2 280 23:19 10.07.2020
5814 Clouds 13 1004 87 10000 3 310 22:45 10.07.2020
5815 Clouds 13 1004 87 10000 3 310 22:21 10.07.2020
5816 Clouds 13 1004 87 10000 3 330 21:56 10.07.2020
5817 Clouds 13 1004 87 10000 3 330 21:36 10.07.2020
5818 Clouds 13 1004 87 10000 3 330 21:18 10.07.2020
5819 Clouds 13 1004 87 10000 4 290 20:41 10.07.2020
5820 Clouds 13 1004 87 10000 4 290 20:23 10.07.2020
5821 Clouds 13 1004 87 10000 2 280 19:57 10.07.2020
5822 Clouds 13 1004 87 10000 2 280 19:57 10.07.2020
5823 Clouds 13 1004 87 10000 2 280 19:39 10.07.2020
5824 Clouds 14 1004 82 10000 1 0 19:20 10.07.2020
5825 Clouds 14 1004 82 10000 1 0 18:42 10.07.2020
5826 Clouds 14 1004 82 10000 1 0 18:21 10.07.2020
5827 Clouds 14 1004 82 10000 3 330 17:58 10.07.2020
5828 Clouds 14 1004 82 10000 3 330 17:39 10.07.2020
5829 Clouds 14 1004 82 10000 3 330 17:21 10.07.2020
5830 Clouds 14 1004 82 10000 4 320 16:43 10.07.2020
5831 Clouds 14 1004 82 10000 4 320 16:21 10.07.2020
5832 Clouds 14 1004 82 10000 5 330 15:49 10.07.2020
5833 Clouds 15 1004 77 10000 5 330 15:27 10.07.2020
5834 Clouds 15 1003 77 10000 5 350 15:00 10.07.2020
5835 Clouds 15 1003 77 10000 5 340 14:40 10.07.2020
5836 Clouds 15 1003 77 10000 5 340 14:20 10.07.2020
5837 Clouds 15 1002 82 10000 4 330 13:58 10.07.2020
5838 Clouds 15 1002 82 10000 5 350 13:38 10.07.2020
5839 Clouds 15 1002 82 10000 6 350 13:20 10.07.2020
5840 Clouds 15 1002 82 10000 6 350 12:56 10.07.2020
5841 Clouds 14 1002 87 10000 5 330 12:37 10.07.2020
5842 Clouds 14 1002 87 10000 5 330 12:19 10.07.2020
5843 Rain 14 1002 87 10000 5 320 11:41 10.07.2020
5844 Rain 14 1002 82 10000 5 330 11:21 10.07.2020
5845 Rain 14 1002 82 10000 5 330 10:57 10.07.2020
5846 Clouds 14 1002 82 10000 6 330 10:38 10.07.2020
5847 Clouds 14 1002 82 10000 6 330 10:19 10.07.2020
5848 Clouds 14 1002 82 10000 7 330 09:40 10.07.2020
5849 Clouds 14 1002 82 10000 7 330 09:22 10.07.2020
5850 Clouds 15 1002 77 10000 7 340 08:58 10.07.2020
5851 Clouds 15 1002 77 10000 7 340 08:40 10.07.2020
5852 Clouds 15 1001 77 10000 7 340 08:22 10.07.2020
5853 Clouds 15 1001 77 10000 7 340 07:44 10.07.2020
5854 Clouds 15 1001 77 10000 7 340 07:23 10.07.2020
5855 Clouds 15 1001 77 10000 8 320 06:52 10.07.2020
5856 Clouds 15 1001 82 10000 6 330 06:32 10.07.2020
5857 Clouds 15 1001 77 10000 6 340 05:20 10.07.2020
5858 Rain 14 1000 87 10000 2 350 03:43 10.07.2020
5859 Rain 13 1000 87 10000 3 330 02:53 10.07.2020
5860 Rain 13 1000 87 8000 4 280 01:53 10.07.2020
5861 Rain 13 1000 87 6000 2 280 00:53 10.07.2020
5862 Rain 13 1000 87 10000 5 340 00:22 10.07.2020
5863 Clouds 13 999 87 10000 3 340 23:55 09.07.2020
5864 Rain 13 999 87 10000 5 340 23:37 09.07.2020
5865 Rain 13 999 87 10000 5 340 23:18 09.07.2020
5866 Clouds 13 999 87 10000 5 350 22:55 09.07.2020
5867 Clouds 14 999 82 10000 4 320 22:36 09.07.2020
5868 Clouds 14 999 82 10000 4 320 22:18 09.07.2020
5869 Clouds 14 999 82 10000 3 360 21:39 09.07.2020
5870 Clouds 14 999 82 10000 3 360 21:19 09.07.2020
5871 Clouds 14 999 82 0 5 330 20:58 09.07.2020
5872 Clouds 14 999 82 0 5 330 20:39 09.07.2020
5873 Clouds 14 999 82 0 5 330 20:21 09.07.2020
5874 Clouds 13 999 87 10000 5 320 19:43 09.07.2020
5875 Clouds 13 999 87 10000 5 320 19:21 09.07.2020
5876 Clouds 13 999 87 10000 3 320 18:56 09.07.2020
5877 Clouds 13 999 87 10000 3 320 18:38 09.07.2020
5878 Clouds 14 999 76 10000 4 350 18:18 09.07.2020
5879 Thunderstorm 14 999 76 10000 4 10 17:42 09.07.2020
5880 Thunderstorm 14 999 76 10000 4 10 17:22 09.07.2020
5881 Thunderstorm 15 999 72 10000 5 50 16:56 09.07.2020
5882 Thunderstorm 14 999 82 10000 5 40 16:38 09.07.2020
5883 Thunderstorm 14 999 82 10000 5 40 16:19 09.07.2020
5884 Thunderstorm 14 999 82 10000 6 40 15:56 09.07.2020
5885 Thunderstorm 14 999 82 10000 5 40 15:37 09.07.2020
5886 Thunderstorm 14 999 82 10000 6 350 15:18 09.07.2020
5887 Thunderstorm 14 999 82 10000 6 350 14:57 09.07.2020
5888 Thunderstorm 15 999 77 10000 5 300 14:39 09.07.2020
5889 Thunderstorm 15 999 77 10000 5 300 14:20 09.07.2020
5890 Clouds 15 999 77 10000 3 30 13:56 09.07.2020
5891 Clouds 15 998 82 10000 5 40 13:37 09.07.2020
5892 Thunderstorm 15 999 82 10000 2 0 13:18 09.07.2020
5893 Thunderstorm 15 998 82 10000 5 30 12:41 09.07.2020
5894 Thunderstorm 15 998 82 10000 5 30 12:22 09.07.2020
5895 Thunderstorm 16 998 82 10000 6 30 11:56 09.07.2020
5896 Thunderstorm 16 998 82 10000 4 50 11:38 09.07.2020
5897 Thunderstorm 16 998 82 10000 4 50 11:18 09.07.2020
5898 Thunderstorm 16 998 82 10000 4 70 10:55 09.07.2020
5899 Thunderstorm 15 997 87 8000 5 110 10:37 09.07.2020
5900 Thunderstorm 15 997 87 8000 5 110 10:18 09.07.2020
5901 Thunderstorm 23 996 49 10000 6 120 09:41 09.07.2020
5902 Thunderstorm 23 996 49 10000 6 120 09:22 09.07.2020
5903 Thunderstorm 23 996 49 10000 6 120 09:22 09.07.2020
5904 Thunderstorm 24 997 44 10000 5 130 08:49 09.07.2020
5905 Clouds 25 997 41 10000 6 120 08:26 09.07.2020
5906 Clouds 25 998 44 10000 6 110 07:50 09.07.2020
5907 Clouds 25 998 41 10000 7 140 07:26 09.07.2020
5908 Clouds 23 999 49 10000 3 70 06:57 09.07.2020
5909 Clouds 23 999 49 10000 3 70 06:20 09.07.2020
5910 Clouds 22 999 53 10000 2 50 05:47 09.07.2020
5911 Clouds 19 1001 63 10000 2 0 04:28 09.07.2020
5912 Clouds 17 1001 72 10000 1 0 02:37 09.07.2020
5913 Clouds 16 1000 82 10000 1 0 01:40 09.07.2020
5914 Clouds 15 1000 87 10000 1 0 00:56 09.07.2020
5915 Clouds 15 1000 87 10000 1 0 00:37 09.07.2020
5916 Clouds 15 1000 82 10000 2 0 00:18 09.07.2020
5917 Clouds 15 1000 82 10000 2 0 23:43 08.07.2020
5918 Clouds 15 1000 82 10000 2 0 23:24 08.07.2020
5919 Clouds 16 1000 77 10000 2 0 22:54 08.07.2020
5920 Clouds 17 1000 72 10000 1 0 22:36 08.07.2020
5921 Clouds 17 1000 72 10000 1 0 22:36 08.07.2020
5922 Clouds 17 1000 72 10000 1 0 22:18 08.07.2020
5923 Clouds 18 1000 63 10000 5 100 21:39 08.07.2020
5924 Clouds 18 1000 63 10000 5 100 21:21 08.07.2020
5925 Clouds 18 1000 68 10000 8 140 20:58 08.07.2020
5926 Clouds 19 1001 59 0 5 130 20:39 08.07.2020
5927 Clouds 19 1001 59 0 5 130 20:39 08.07.2020
5928 Clouds 19 1001 59 0 5 130 20:21 08.07.2020
5929 Clouds 18 1001 72 10000 2 0 19:43 08.07.2020
5930 Clouds 18 1001 72 10000 2 0 19:25 08.07.2020
5931 Clouds 20 1001 64 10000 2 0 18:58 08.07.2020
5932 Clouds 20 1001 64 10000 2 0 18:40 08.07.2020
5933 Clouds 20 1001 64 10000 2 0 18:20 08.07.2020
5934 Rain 19 1001 68 10000 3 150 17:56 08.07.2020
5935 Rain 19 1001 68 10000 3 150 17:37 08.07.2020
5936 Rain 19 1001 68 10000 3 150 17:19 08.07.2020
5937 Clouds 18 1001 77 10000 4 160 16:43 08.07.2020
5938 Clouds 18 1001 77 10000 4 160 16:24 08.07.2020
5939 Rain 20 1002 60 10000 1 0 15:59 08.07.2020
5940 Clouds 21 1001 56 10000 3 150 15:41 08.07.2020
5941 Clouds 21 1001 56 10000 3 150 15:20 08.07.2020
5942 Clouds 23 1000 43 10000 6 230 14:59 08.07.2020
5943 Clouds 23 999 46 10000 5 180 14:41 08.07.2020
5944 Clouds 23 999 46 10000 5 180 14:19 08.07.2020
5945 Thunderstorm 23 999 49 10000 6 200 13:45 08.07.2020
5946 Thunderstorm 23 999 49 10000 6 200 13:26 08.07.2020
5947 Clouds 26 998 39 10000 6 60 12:46 08.07.2020
5948 Clouds 26 998 39 10000 6 60 12:22 08.07.2020
5949 Clouds 26 998 39 10000 6 60 12:22 08.07.2020
5950 Thunderstorm 28 999 34 10000 5 50 11:59 08.07.2020
5951 Thunderstorm 26 999 31 10000 6 270 11:38 08.07.2020
5952 Thunderstorm 26 999 31 10000 6 270 11:38 08.07.2020
5953 Thunderstorm 26 999 31 10000 6 270 11:20 08.07.2020
5954 Thunderstorm 29 999 26 10000 2 260 10:54 08.07.2020
5955 Clouds 30 1000 25 10000 2 0 10:36 08.07.2020
5956 Clouds 30 1000 25 10000 2 0 10:36 08.07.2020
5957 Clouds 30 1000 25 10000 2 0 10:18 08.07.2020
5958 Clouds 31 1000 25 10000 3 70 09:41 08.07.2020
5959 Clouds 31 1000 25 10000 3 70 09:21 08.07.2020
5960 Clouds 30 1002 27 10000 2 0 08:43 08.07.2020
5961 Clouds 30 1002 27 10000 2 0 08:24 08.07.2020
5962 Clouds 29 1003 28 10000 3 110 07:47 08.07.2020
5963 Clouds 29 1003 26 10000 5 140 07:24 08.07.2020
5964 Clouds 28 1003 30 10000 2 0 06:55 08.07.2020
5965 Clouds 28 1003 28 10000 4 80 06:35 08.07.2020
5966 Clouds 27 1004 34 10000 6 120 05:55 08.07.2020
5967 Clouds 26 1004 41 10000 4 140 05:24 08.07.2020
5968 Clouds 23 1005 46 10000 2 0 04:36 08.07.2020
5969 Clouds 18 1005 68 10000 3 70 02:42 08.07.2020
5970 Clouds 17 1004 72 10000 2 0 01:52 08.07.2020
5971 Clouds 18 1004 63 10000 4 170 01:32 08.07.2020
5972 Clouds 17 1005 72 10000 1 0 00:28 08.07.2020
5973 Thunderstorm 17 1005 67 10000 3 190 23:59 07.07.2020
5974 Thunderstorm 19 1005 55 10000 7 30 23:40 07.07.2020
5975 Thunderstorm 19 1005 55 10000 7 30 23:19 07.07.2020
5976 Thunderstorm 17 1006 67 10000 2 0 22:43 07.07.2020
5977 Thunderstorm 17 1006 67 10000 2 0 22:24 07.07.2020
5978 Thunderstorm 17 1005 63 10000 3 300 21:59 07.07.2020
5979 Thunderstorm 21 1005 43 10000 3 120 21:40 07.07.2020
5980 Thunderstorm 21 1005 43 10000 3 120 21:21 07.07.2020
5981 Thunderstorm 18 1005 55 10000 1 0 20:57 07.07.2020
5982 Thunderstorm 21 1006 43 10000 1 0 20:39 07.07.2020
5983 Thunderstorm 21 1006 43 10000 1 0 20:21 07.07.2020
5984 Clouds 21 1006 43 10000 3 140 19:41 07.07.2020
5985 Clouds 23 1006 38 10000 2 0 19:21 07.07.2020
5986 Clouds 23 1006 38 10000 2 0 18:58 07.07.2020
5987 Clouds 22 1007 40 10000 4 100 18:40 07.07.2020
5988 Clouds 22 1007 40 10000 4 100 18:21 07.07.2020
5989 Clouds 22 1006 40 10000 7 130 17:58 07.07.2020
5990 Clouds 22 1006 40 10000 9 130 17:38 07.07.2020
5991 Clouds 22 1006 40 10000 9 130 17:20 07.07.2020
5992 Clouds 23 1006 38 10000 7 140 16:43 07.07.2020
5993 Clouds 23 1006 38 10000 7 140 16:24 07.07.2020
5994 Clouds 23 1006 38 10000 7 150 15:58 07.07.2020
5995 Clouds 23 1006 38 10000 7 130 15:39 07.07.2020
5996 Clouds 23 1006 38 10000 7 130 15:20 07.07.2020
5997 Clouds 24 1006 36 10000 7 130 14:47 07.07.2020
5998 Clouds 24 1006 38 10000 8 130 14:26 07.07.2020
5999 Clouds 25 1007 36 10000 4 130 13:59 07.07.2020
6000 Clouds 25 1007 36 10000 2 0 13:38 07.07.2020
6001 Clouds 25 1007 33 10000 3 100 13:18 07.07.2020
6002 Clouds 25 1007 36 10000 4 140 12:40 07.07.2020
6003 Clouds 26 1007 31 10000 6 150 12:22 07.07.2020
6004 Clouds 26 1007 31 10000 6 150 11:50 07.07.2020
6005 Clouds 26 1007 31 10000 7 140 11:26 07.07.2020
6006 Thunderstorm 25 1007 36 10000 4 120 10:59 07.07.2020
6007 Thunderstorm 26 1007 39 10000 5 130 10:41 07.07.2020
6008 Thunderstorm 26 1007 39 10000 5 130 10:22 07.07.2020
6009 Thunderstorm 27 1008 32 10000 8 160 09:59 07.07.2020
6010 Clouds 29 1008 28 10000 6 140 09:38 07.07.2020
6011 Clouds 29 1008 28 10000 6 140 09:20 07.07.2020
6012 Clouds 29 1009 25 10000 5 190 08:42 07.07.2020
6013 Clouds 29 1009 25 10000 5 190 08:23 07.07.2020
6014 Clouds 28 1009 30 10000 7 150 07:45 07.07.2020
6015 Clouds 28 1009 30 10000 7 150 07:23 07.07.2020
6016 Clouds 28 1010 30 10000 6 190 06:49 07.07.2020
6017 Clouds 28 1010 30 10000 6 190 06:30 07.07.2020
6018 Clouds 26 1010 34 0 6 170 05:53 07.07.2020
6019 Clear 25 1011 41 10000 6 160 05:22 07.07.2020
6020 Clear 24 1011 41 10000 5 150 04:38 07.07.2020
6021 Clear 22 1011 46 10000 4 150 03:35 07.07.2020
6022 Clouds 18 1012 63 10000 2.36 124 02:27 07.07.2020
6023 Clouds 15 1012 77 10000 1 0 01:23 07.07.2020
6024 Clouds 12 1012 81 10000 2.47 106 00:43 07.07.2020
6025 Clouds 12 1012 81 10000 2.1 102 00:24 07.07.2020
6026 Clouds 11 1011 87 10000 1 0 23:55 06.07.2020
6027 Clouds 11 1011 81 10000 1 0 23:37 06.07.2020
6028 Clouds 11 1011 81 10000 1 0 23:18 06.07.2020
6029 Clouds 12 1011 81 10000 1 0 22:41 06.07.2020
6030 Clouds 12 1011 81 10000 1 0 22:41 06.07.2020
6031 Clouds 12 1011 81 10000 1 0 22:20 06.07.2020
6032 Clouds 13 1011 82 10000 1 0 21:57 06.07.2020
6033 Clouds 12 1011 81 10000 2.27 101 21:39 06.07.2020
6034 Clouds 12 1011 81 10000 2.27 101 21:39 06.07.2020
6035 Clouds 12 1011 81 10000 2.15 102 21:19 06.07.2020
6036 Clouds 13 1011 82 10000 2 240 20:59 06.07.2020
6037 Clouds 13 1011 82 10000 2.15 102 20:38 06.07.2020
6038 Clouds 13 1011 82 10000 2.02 100 20:20 06.07.2020
6039 Clouds 13 1011 82 10000 1 0 19:56 06.07.2020
6040 Clouds 13 1011 82 10000 1 0 19:38 06.07.2020
6041 Clouds 13 1011 82 10000 1 0 19:20 06.07.2020
6042 Clouds 13 1011 82 10000 1 0 18:55 06.07.2020
6043 Clouds 15 1011 72 10000 2.16 100 18:36 06.07.2020
6044 Clouds 15 1010 72 10000 1.66 105 18:18 06.07.2020
6045 Clouds 14 1011 76 10000 1 0 17:41 06.07.2020
6046 Clear 14 1011 76 10000 1 0 17:23 06.07.2020
6047 Clear 17 1010 63 10000 1 0 16:55 06.07.2020
6048 Clear 17 1010 67 10000 1 0 16:37 06.07.2020
6049 Clear 17 1010 67 10000 1 0 16:18 06.07.2020
6050 Clouds 21 1010 49 10000 3 60 15:42 06.07.2020
6051 Clouds 21 1010 49 10000 3 60 15:24 06.07.2020
6052 Clouds 23 1009 40 10000 2 50 14:57 06.07.2020
6053 Clouds 23 1009 40 10000 2 30 14:37 06.07.2020
6054 Clouds 23 1009 40 10000 2 30 14:19 06.07.2020
6055 Clouds 24 1008 33 10000 2 0 13:46 06.07.2020
6056 Clouds 24 1008 33 10000 2 0 13:27 06.07.2020
6057 Clouds 24 1008 41 10000 3 50 12:57 06.07.2020
6058 Clouds 23 1008 38 10000 2 150 12:39 06.07.2020
6059 Clouds 24 1009 38 10000 4 150 12:18 06.07.2020
6060 Clouds 24 1009 38 10000 4 150 11:57 06.07.2020
6061 Clouds 25 1009 33 10000 3 120 11:37 06.07.2020
6062 Clouds 25 1009 33 10000 3 120 11:18 06.07.2020
6063 Thunderstorm 23 1009 38 10000 7 80 10:42 06.07.2020
6064 Thunderstorm 23 1009 38 10000 7 80 10:42 06.07.2020
6065 Thunderstorm 23 1009 38 10000 7 80 10:21 06.07.2020
6066 Thunderstorm 24 1009 38 10000 4 350 09:56 06.07.2020
6067 Clouds 24 1009 38 10000 2 0 09:38 06.07.2020
6068 Clouds 24 1009 38 10000 2 0 09:20 06.07.2020
6069 Clouds 24 1009 33 10000 2 0 08:41 06.07.2020
6070 Clouds 24 1009 33 10000 2 0 08:23 06.07.2020
6071 Clouds 23 1009 35 10000 2 0 07:54 06.07.2020
6072 Clouds 24 1009 33 10000 2 0 07:36 06.07.2020
6073 Clouds 23 1009 40 10000 2 0 06:57 06.07.2020
6074 Clouds 23 1009 40 10000 2 0 06:39 06.07.2020
6075 Clouds 22 1009 46 10000 2 0 06:19 06.07.2020
6076 Clouds 20 1009 56 10000 2 0 05:29 06.07.2020
6077 Clouds 19 1009 55 10000 1 0 04:36 06.07.2020
6078 Clouds 16 1009 67 10000 1 0 02:58 06.07.2020
6079 Clouds 15 1009 72 10000 1 0 02:19 06.07.2020
6080 Clouds 14 1009 82 10000 1 0 00:59 06.07.2020
6081 Clouds 12 1008 87 10000 2 190 00:32 06.07.2020
6082 Clouds 12 1008 81 10000 2 170 23:59 05.07.2020
6083 Clouds 11 1008 87 10000 2 170 23:40 05.07.2020
6084 Clouds 11 1008 87 10000 2 170 23:22 05.07.2020
6085 Clouds 11 1007 81 10000 1 0 22:58 05.07.2020
6086 Clouds 13 1007 76 10000 1.47 27 22:38 05.07.2020
6087 Clouds 13 1007 76 10000 1.59 25 22:19 05.07.2020
6088 Clouds 15 1006 72 10000 2 50 21:56 05.07.2020
6089 Clouds 15 1006 72 10000 2 50 21:37 05.07.2020
6090 Clouds 15 1006 72 10000 2 50 21:18 05.07.2020
6091 Clouds 14 1007 76 10000 1 0 20:42 05.07.2020
6092 Clouds 14 1007 76 10000 1 0 20:24 05.07.2020
6093 Clouds 14 1007 76 10000 1 0 19:58 05.07.2020
6094 Clouds 14 1007 76 10000 1 0 19:40 05.07.2020
6095 Clouds 14 1007 76 10000 1 0 19:20 05.07.2020
6096 Clouds 14 1007 71 10000 1 0 18:55 05.07.2020
6097 Clouds 14 1007 71 10000 1 0 18:36 05.07.2020
6098 Clouds 15 1006 67 10000 3 320 18:18 05.07.2020
6099 Clouds 15 1006 67 10000 3 320 17:42 05.07.2020
6100 Clouds 15 1006 67 10000 3 320 17:42 05.07.2020
6101 Clouds 15 1006 67 10000 3 320 17:19 05.07.2020
6102 Clouds 16 1006 63 10000 2 360 16:45 05.07.2020
6103 Clouds 17 1006 55 10000 2 30 16:26 05.07.2020
6104 Clouds 17 1006 55 10000 3 30 15:59 05.07.2020
6105 Clouds 18 1006 55 10000 4 360 15:39 05.07.2020
6106 Clouds 18 1006 55 10000 4 360 15:19 05.07.2020
6107 Clouds 19 1005 48 10000 4 60 14:42 05.07.2020
6108 Clouds 19 1005 48 10000 4 60 14:23 05.07.2020
6109 Clouds 19 1005 48 10000 3 40 13:58 05.07.2020
6110 Clouds 19 1005 48 10000 3 10 13:40 05.07.2020
6111 Clouds 19 1005 48 10000 3 10 13:20 05.07.2020
6112 Thunderstorm 20 1006 52 10000 6 10 12:42 05.07.2020
6113 Thunderstorm 20 1006 52 10000 6 10 12:20 05.07.2020
6114 Clouds 21 1005 49 10000 6 330 11:55 05.07.2020
6115 Clouds 21 1005 49 10000 2 320 11:37 05.07.2020
6116 Clouds 21 1005 49 10000 2 320 11:18 05.07.2020
6117 Clouds 21 1005 49 10000 5 280 10:42 05.07.2020
6118 Clouds 21 1005 49 10000 5 280 10:21 05.07.2020
6119 Clouds 23 1004 35 10000 3 360 09:59 05.07.2020
6120 Thunderstorm 23 1005 38 10000 5 30 09:41 05.07.2020
6121 Thunderstorm 23 1005 38 10000 5 30 09:20 05.07.2020
6122 Thunderstorm 24 1004 31 10000 5 70 08:55 05.07.2020
6123 Thunderstorm 23 1005 40 10000 6 70 08:37 05.07.2020
6124 Thunderstorm 23 1005 40 10000 6 70 07:56 05.07.2020
6125 Thunderstorm 22 1004 43 10000 6 60 07:30 05.07.2020
6126 Thunderstorm 25 1005 36 10000 3 260 06:55 05.07.2020
6127 Thunderstorm 25 1005 36 10000 3 260 06:25 05.07.2020
6128 Rain 19 1007 55 10000 1 0 03:55 05.07.2020
6129 Clouds 16 1007 63 10000 1 0 02:57 05.07.2020
6130 Clouds 16 1007 67 10000 1 0 02:33 05.07.2020
6131 Clouds 14 1007 71 10000 1 110 01:43 05.07.2020
6132 Clouds 14 1007 71 10000 1 110 01:20 05.07.2020
6133 Clouds 10 1007 87 10000 0.97 39 00:45 05.07.2020
6134 Clouds 10 1007 87 10000 0.88 50 00:26 05.07.2020
6135 Clouds 9 1007 87 10000 0.88 50 23:54 04.07.2020
6136 Clouds 11 1007 87 10000 0.88 50 23:31 04.07.2020
6137 Clouds 10 1007 87 10000 1 0 22:59 04.07.2020
6138 Clouds 10 1007 87 10000 1 0 22:40 04.07.2020
6139 Clouds 10 1007 87 10000 1 0 22:22 04.07.2020
6140 Clouds 11 1007 81 10000 0.61 56 21:56 04.07.2020
6141 Clouds 11 1007 81 10000 0.61 56 21:38 04.07.2020
6142 Clouds 11 1007 81 10000 0.78 47 21:20 04.07.2020
6143 Clouds 12 1007 81 10000 0.78 47 20:41 04.07.2020
6144 Clouds 12 1007 81 10000 0.82 61 20:20 04.07.2020
6145 Clouds 13 1007 82 10000 1 0 19:55 04.07.2020
6146 Clouds 13 1007 82 10000 1 0 19:37 04.07.2020
6147 Clouds 13 1007 82 10000 1 0 19:19 04.07.2020
6148 Clouds 12 1007 81 10000 1 0 18:42 04.07.2020
6149 Clouds 12 1007 87 10000 1 0 18:22 04.07.2020
6150 Clouds 14 1008 76 10000 1 0 17:45 04.07.2020
6151 Clouds 14 1008 76 10000 1 0 17:26 04.07.2020
6152 Clouds 15 1007 77 10000 1 0 16:59 04.07.2020
6153 Clouds 15 1007 77 10000 1 0 16:59 04.07.2020
6154 Clouds 16 1007 72 10000 0.55 142 16:39 04.07.2020
6155 Clouds 16 1007 72 10000 0.5 128 16:21 04.07.2020
6156 Clouds 17 1008 72 10000 1 0 15:57 04.07.2020
6157 Clouds 18 1008 63 10000 1 330 15:38 04.07.2020
6158 Clouds 18 1008 63 10000 1 330 15:19 04.07.2020
6159 Clouds 18 1007 63 10000 3 320 14:55 04.07.2020
6160 Clouds 19 1007 55 10000 2 230 14:36 04.07.2020
6161 Clouds 19 1007 55 10000 2 230 14:36 04.07.2020
6162 Clouds 19 1007 55 10000 2 230 14:18 04.07.2020
6163 Clouds 19 1007 55 10000 2 230 14:18 04.07.2020
6164 Clouds 20 1008 52 10000 2 240 13:41 04.07.2020
6165 Clouds 21 1008 52 10000 3 200 13:19 04.07.2020
6166 Clouds 22 1008 49 10000 2 0 12:43 04.07.2020
6167 Clouds 22 1008 49 10000 2 0 12:23 04.07.2020
6168 Clouds 21 1008 49 10000 4 20 11:59 04.07.2020
6169 Clouds 21 1007 43 10000 3 60 11:40 04.07.2020
6170 Clouds 21 1007 43 10000 3 60 11:21 04.07.2020
6171 Thunderstorm 20 1007 49 10000 6 20 10:42 04.07.2020
6172 Thunderstorm 20 1007 49 10000 6 20 10:22 04.07.2020
6173 Thunderstorm 22 1008 40 10000 9 30 09:59 04.07.2020
6174 Thunderstorm 24 1008 36 10000 5 80 09:40 04.07.2020
6175 Thunderstorm 24 1008 36 10000 5 80 09:20 04.07.2020
6176 Thunderstorm 23 1008 38 10000 2 0 08:49 04.07.2020
6177 Thunderstorm 24 1008 38 10000 2 0 08:30 04.07.2020
6178 Clouds 23 1008 43 10000 1 0 07:54 04.07.2020
6179 Clouds 23 1009 43 10000 2 0 07:35 04.07.2020
6180 Clouds 22 1009 46 10000 2 0 06:56 04.07.2020
6181 Clouds 22 1010 53 10000 2 0 06:23 04.07.2020
6182 Clouds 21 1010 56 10000 1 0 05:40 04.07.2020
6183 Clouds 21 1011 52 10000 1 0 04:55 04.07.2020
6184 Clouds 18 1011 63 10000 1.31 142 03:19 04.07.2020
6185 Clouds 15 1012 77 10000 2 0 02:27 04.07.2020
6186 Clouds 14 1011 76 10000 1 0 01:35 04.07.2020
6187 Clouds 12 1011 81 10000 1 0 00:45 04.07.2020
6188 Clouds 12 1011 81 10000 1 0 00:26 04.07.2020
6189 Clouds 10 1012 87 10000 1 0 23:41 03.07.2020
6190 Clouds 10 1012 87 10000 1 0 23:19 03.07.2020
6191 Clouds 10 1012 87 10000 2 0 22:59 03.07.2020
6192 Clouds 10 1012 87 10000 2 0 22:39 03.07.2020
6193 Clouds 10 1012 87 10000 2 0 22:21 03.07.2020
6194 Clouds 11 1012 87 10000 1 0 21:54 03.07.2020
6195 Clouds 11 1012 87 10000 1 0 21:36 03.07.2020
6196 Clouds 11 1012 87 10000 1 0 21:18 03.07.2020
6197 Clouds 13 1012 82 10000 3 310 20:42 03.07.2020
6198 Clouds 13 1012 82 10000 3 310 20:23 03.07.2020
6199 Clouds 14 1008 75 0 1.35 77 19:42 03.07.2020
6200 Clouds 15 1012 77 10000 1 0 19:21 03.07.2020
6201 Clouds 15 1012 77 10000 1 0 19:21 03.07.2020
6202 Clouds 15 1012 77 10000 1 0 18:57 03.07.2020
6203 Clouds 15 1012 77 10000 1 0 18:39 03.07.2020
6204 Clouds 14 1012 82 10000 1 0 18:21 03.07.2020
6205 Clouds 16 1012 72 10000 1 0 17:44 03.07.2020
6206 Clouds 16 1012 72 10000 1 0 17:23 03.07.2020
6207 Clouds 17 1012 72 10000 1 0 16:51 03.07.2020
6208 Clouds 16 1012 77 10000 2 160 16:31 03.07.2020
6209 Clouds 17 1012 72 10000 2 160 15:57 03.07.2020
6210 Clouds 20 1012 52 10000 2 50 15:39 03.07.2020
6211 Clouds 20 1012 52 10000 2 50 15:20 03.07.2020
6212 Clouds 21 1012 49 10000 2 0 14:41 03.07.2020
6213 Clouds 21 1012 49 10000 2 0 14:23 03.07.2020
6214 Clouds 21 1012 56 10000 1 0 13:59 03.07.2020
6215 Clouds 22 1011 49 10000 2 0 13:40 03.07.2020
6216 Clouds 22 1011 49 10000 3 30 13:22 03.07.2020
6217 Clouds 21 1011 56 10000 3 60 12:40 03.07.2020
6218 Clouds 21 1012 49 10000 4 30 12:22 03.07.2020
6219 Clouds 20 1012 56 10000 4 60 11:44 03.07.2020
6220 Clouds 20 1012 56 10000 4 60 11:25 03.07.2020
6221 Clouds 21 1012 49 10000 7 60 10:59 03.07.2020
6222 Thunderstorm 23 1012 38 10000 3 130 10:41 03.07.2020
6223 Thunderstorm 23 1012 38 10000 3 130 10:21 03.07.2020
6224 Clouds 22 1012 43 10000 4 140 09:58 03.07.2020
6225 Clouds 23 1012 38 10000 2 0 09:39 03.07.2020
6226 Clouds 23 1012 38 10000 2 0 09:19 03.07.2020
6227 Clouds 23 1012 40 10000 3 220 08:56 03.07.2020
6228 Clouds 23 1013 46 10000 2 170 08:37 03.07.2020
6229 Clouds 23 1013 46 10000 2 170 08:18 03.07.2020
6230 Clouds 22 1013 49 10000 2 0 07:43 03.07.2020
6231 Clouds 22 1013 49 10000 2 0 07:21 03.07.2020
6232 Clouds 21 1013 52 10000 3 140 06:29 03.07.2020
6233 Clouds 20 1014 60 10000 1 0 05:34 03.07.2020
6234 Clouds 18 1015 68 10000 1 0 03:59 03.07.2020
6235 Clouds 15 1015 82 10000 1 0 02:52 03.07.2020
6236 Clouds 14 1015 82 10000 1 0 02:30 03.07.2020
6237 Clouds 13 1014 87 10000 1.19 122 01:41 03.07.2020
6238 Clouds 13 1014 87 10000 1.28 94 01:20 03.07.2020
6239 Clouds 11 1014 93 10000 1 0 00:40 03.07.2020
6240 Clouds 10 1014 93 10000 1 0 23:54 02.07.2020
6241 Clouds 10 1014 87 10000 1 0 23:22 02.07.2020
6242 Clouds 10 1014 87 10000 1 0 22:59 02.07.2020
6243 Clouds 11 1014 87 10000 1 0 22:41 02.07.2020
6244 Clouds 11 1014 87 10000 1 0 22:21 02.07.2020
6245 Clouds 12 1014 87 10000 1.65 89 21:58 02.07.2020
6246 Clouds 12 1014 87 10000 1.65 89 21:39 02.07.2020
6247 Clouds 12 1014 87 10000 1.83 92 21:19 02.07.2020
6248 Clouds 13 1014 82 10000 1.88 89 20:58 02.07.2020
6249 Clouds 13 1014 82 10000 1.88 89 20:39 02.07.2020
6250 Clouds 13 1014 82 10000 2.12 91 20:19 02.07.2020
6251 Clouds 12 1014 81 10000 1 0 19:42 02.07.2020
6252 Clouds 13 1014 82 10000 2 160 19:24 02.07.2020
6253 Clouds 13 1014 82 10000 2 160 18:58 02.07.2020
6254 Clouds 13 1014 82 10000 2 160 18:40 02.07.2020
6255 Clouds 13 1014 82 10000 2 160 18:21 02.07.2020
6256 Clouds 14 1014 82 10000 2.22 97 17:57 02.07.2020
6257 Clouds 16 1014 72 10000 1 0 17:38 02.07.2020
6258 Clouds 16 1014 72 10000 1 0 17:18 02.07.2020
6259 Clouds 16 1014 72 0 1 0 16:42 02.07.2020
6260 Clouds 16 1014 72 0 1 0 16:20 02.07.2020
6261 Clouds 16 1013 77 10000 2 0 15:58 02.07.2020
6262 Clouds 17 1013 72 10000 2.27 97 15:38 02.07.2020
6263 Clouds 17 1013 72 10000 1.95 93 15:20 02.07.2020
6264 Clouds 18 1013 59 10000 2 0 14:45 02.07.2020
6265 Clouds 18 1013 59 10000 2 0 14:23 02.07.2020
6266 Clouds 19 1013 59 10000 2 0 13:57 02.07.2020
6267 Clouds 19 1012 55 10000 1 0 13:38 02.07.2020
6268 Clouds 18 1012 68 10000 3 140 13:19 02.07.2020
6269 Clouds 17 1013 72 10000 4 140 12:42 02.07.2020
6270 Clouds 17 1013 72 10000 4 140 12:22 02.07.2020
6271 Clouds 16 1013 77 10000 4 140 11:59 02.07.2020
6272 Thunderstorm 16 1013 77 10000 2 0 11:40 02.07.2020
6273 Thunderstorm 16 1013 77 10000 2 0 11:22 02.07.2020
6274 Thunderstorm 18 1013 68 10000 6 300 10:44 02.07.2020
6275 Thunderstorm 18 1013 68 10000 6 300 10:26 02.07.2020
6276 Clouds 21 1012 46 10000 5 210 09:56 02.07.2020
6277 Thunderstorm 21 1012 56 10000 6 180 09:37 02.07.2020
6278 Thunderstorm 21 1012 56 10000 6 180 09:18 02.07.2020
6279 Clouds 21 1012 52 10000 7 160 08:42 02.07.2020
6280 Clouds 21 1012 52 10000 7 160 08:22 02.07.2020
6281 Clouds 22 1013 46 10000 2 350 07:43 02.07.2020
6282 Clouds 22 1013 46 10000 2 350 07:25 02.07.2020
6283 Clouds 22 1013 40 10000 3 80 06:53 02.07.2020
6284 Clouds 21 1013 46 10000 2 0 06:35 02.07.2020
6285 Clouds 21 1013 43 10000 1 0 05:50 02.07.2020
6286 Clouds 19 1014 55 10000 1 0 05:29 02.07.2020
6287 Clouds 17 1015 67 10000 1 0 03:35 02.07.2020
6288 Clouds 17 1014 67 10000 1 0 02:38 02.07.2020
6289 Rain 13 1014 87 10000 1 0 00:46 02.07.2020
6290 Rain 13 1014 87 10000 1 0 00:22 02.07.2020
6291 Clouds 13 1014 82 10000 2 0 23:45 01.07.2020
6292 Clouds 13 1014 82 10000 2 0 23:27 01.07.2020
6293 Clouds 13 1014 82 10000 1 0 22:56 01.07.2020
6294 Clouds 13 1014 82 10000 1 0 22:38 01.07.2020
6295 Clouds 13 1014 82 10000 1 0 22:19 01.07.2020
6296 Clouds 12 1013 87 10000 1 0 21:58 01.07.2020
6297 Clouds 12 1013 87 10000 1 0 21:39 01.07.2020
6298 Clouds 12 1013 87 10000 1 0 21:20 01.07.2020
6299 Clouds 14 1013 76 10000 1 0 20:47 01.07.2020
6300 Clouds 14 1013 76 10000 1 0 20:29 01.07.2020
6301 Clouds 14 1013 76 10000 2 140 19:58 01.07.2020
6302 Clouds 14 1013 76 10000 2 140 19:40 01.07.2020
6303 Clouds 14 1013 76 10000 2 140 19:21 01.07.2020
6304 Clouds 16 1013 63 10000 1 0 18:58 01.07.2020
6305 Clouds 16 1013 63 10000 1 0 18:40 01.07.2020
6306 Clouds 16 1013 63 10000 1 0 18:21 01.07.2020
6307 Clouds 17 1013 59 10000 4 20 17:55 01.07.2020
6308 Clouds 17 1013 59 10000 4 20 17:55 01.07.2020
6309 Clouds 17 1013 63 10000 4 30 17:37 01.07.2020
6310 Clouds 18 1013 59 10000 2 0 17:18 01.07.2020
6311 Clouds 18 1013 59 10000 2 0 16:42 01.07.2020
6312 Clouds 18 1013 59 10000 2 0 16:42 01.07.2020
6313 Clouds 18 1013 59 10000 2 0 16:23 01.07.2020
6314 Clouds 18 1013 59 10000 4 70 15:43 01.07.2020
6315 Clouds 18 1013 59 10000 4 70 15:23 01.07.2020
6316 Clouds 18 1013 59 10000 5 70 14:58 01.07.2020
6317 Clouds 19 1013 59 10000 4 60 14:38 01.07.2020
6318 Clouds 19 1013 59 10000 4 60 14:20 01.07.2020
6319 Clouds 20 1012 49 10000 5 50 13:54 01.07.2020
6320 Clouds 20 1012 49 10000 5 50 13:36 01.07.2020
6321 Clouds 20 1012 49 10000 4 60 13:18 01.07.2020
6322 Clouds 21 1012 49 10000 3 350 12:41 01.07.2020
6323 Clouds 21 1012 49 10000 3 350 12:22 01.07.2020
6324 Clouds 20 1012 45 10000 2 0 11:58 01.07.2020
6325 Clouds 19 1012 55 10000 3 150 11:39 01.07.2020
6326 Clouds 19 1012 55 10000 3 150 11:20 01.07.2020
6327 Rain 17 1012 72 10000 4 150 10:43 01.07.2020
6328 Rain 17 1012 72 10000 4 150 10:23 01.07.2020
6329 Rain 18 1012 68 10000 5 140 09:59 01.07.2020
6330 Clouds 20 1012 42 10000 5 350 09:38 01.07.2020
6331 Clouds 20 1012 42 10000 5 350 09:20 01.07.2020
6332 Clouds 20 1012 42 10000 5 350 09:20 01.07.2020
6333 Clouds 21 1012 46 10000 4 320 08:56 01.07.2020
6334 Clouds 21 1012 46 10000 3 360 08:38 01.07.2020
6335 Clouds 21 1012 49 10000 3 340 08:18 01.07.2020
6336 Rain 20 1013 52 10000 4 360 07:40 01.07.2020
6337 Rain 20 1013 52 10000 4 360 07:21 01.07.2020
6338 Rain 20 1013 52 10000 4 360 07:21 01.07.2020
6339 Clouds 21 1013 49 10000 3 10 06:50 01.07.2020
6340 Clouds 20 1013 45 10000 4 20 06:28 01.07.2020
6341 Clouds 21 1013 46 10000 3 60 05:28 01.07.2020
6342 Clouds 19 1014 52 10000 3 360 03:48 01.07.2020
6343 Clouds 17 1014 63 10000 5 320 03:28 01.07.2020
6344 Clouds 17 1014 59 10000 2 0 02:41 01.07.2020
6345 Clouds 15 1014 67 10000 2 0 01:49 01.07.2020
6346 Clouds 14 1014 67 10000 3 350 00:45 01.07.2020
6347 Clouds 14 1014 67 10000 3 350 00:25 01.07.2020
6348 Clouds 15 1013 62 10000 3 20 23:42 30.06.2020
6349 Clouds 15 1013 62 10000 3 20 23:23 30.06.2020
6350 Clouds 15 1014 62 10000 4 30 22:59 30.06.2020
6351 Clouds 14 1014 67 10000 3 350 22:40 30.06.2020
6352 Clouds 14 1014 67 10000 3 350 22:18 30.06.2020
6353 Clouds 13 1014 71 10000 2 300 21:41 30.06.2020
6354 Clouds 13 1014 71 10000 2 300 21:41 30.06.2020
6355 Clouds 13 1014 71 10000 2 300 21:19 30.06.2020
6356 Clouds 13 1014 71 10000 2 300 21:19 30.06.2020
6357 Clouds 11 1014 87 10000 2 0 20:55 30.06.2020
6358 Clouds 11 1014 87 10000 2 0 20:37 30.06.2020
6359 Clouds 11 1014 87 10000 2 0 20:19 30.06.2020
6360 Clouds 14 1014 67 10000 1 0 19:42 30.06.2020
6361 Clouds 15 1014 72 10000 1.97 1 19:19 30.06.2020
6362 Clouds 15 1014 72 10000 1.97 1 19:19 30.06.2020
6363 Clouds 16 1014 59 10000 1 0 18:46 30.06.2020
6364 Clouds 16 1014 59 10000 1 0 18:21 30.06.2020
6365 Clouds 16 1015 63 10000 1 0 17:59 30.06.2020
6366 Clouds 16 1015 63 10000 2 330 17:38 30.06.2020
6367 Clouds 16 1015 63 10000 2 330 17:19 30.06.2020
6368 Clouds 16 1014 59 10000 3 320 16:43 30.06.2020
6369 Clouds 16 1014 59 10000 3 320 16:24 30.06.2020
6370 Clear 16 1014 63 10000 2 320 15:59 30.06.2020
6371 Clear 18 1014 48 10000 2 350 15:40 30.06.2020
6372 Clear 18 1014 48 10000 2 350 15:40 30.06.2020
6373 Clear 18 1014 48 10000 2 350 15:21 30.06.2020
6374 Clouds 20 1013 37 10000 2 60 14:54 30.06.2020
6375 Clouds 21 1013 37 10000 4 30 14:36 30.06.2020
6376 Clouds 21 1013 37 10000 4 30 14:18 30.06.2020
6377 Clouds 21 1013 35 10000 5 30 13:40 30.06.2020
6378 Clouds 21 1014 35 10000 8 60 13:20 30.06.2020
6379 Clouds 21 1014 35 10000 8 60 12:58 30.06.2020
6380 Clouds 21 1014 35 10000 8 60 12:58 30.06.2020
6381 Clouds 22 1013 37 10000 10 30 12:39 30.06.2020
6382 Clouds 26 1012 26 10000 8 350 12:20 30.06.2020
6383 Clouds 26 1012 26 10000 8 350 11:58 30.06.2020
6384 Clouds 26 1012 26 10000 7 320 11:38 30.06.2020
6385 Clouds 26 1012 26 10000 7 320 11:19 30.06.2020
6386 Clouds 25 1012 27 10000 6 340 10:56 30.06.2020
6387 Clouds 15 1008 77 10000 1 0 16:38 28.06.2020
6388 Clouds 15 1008 77 10000 1 0 16:19 28.06.2020
6389 Clouds 19 1008 55 10000 1 0 15:56 28.06.2020
6390 Clouds 19 1008 52 10000 1 0 15:37 28.06.2020
6391 Clouds 19 1008 52 10000 1 0 15:18 28.06.2020
6392 Clouds 19 1008 52 10000 1 0 15:18 28.06.2020
6393 Clouds 21 1007 46 10000 3 40 14:43 28.06.2020
6394 Clouds 21 1007 46 10000 3 40 14:24 28.06.2020
6395 Clouds 22 1007 43 10000 3 20 13:55 28.06.2020
6396 Clouds 23 1007 40 10000 4 20 13:36 28.06.2020
6397 Clouds 24 1007 33 10000 2 0 13:18 28.06.2020
6398 Clouds 24 1007 33 10000 2 0 12:55 28.06.2020
6399 Clouds 23 1007 38 10000 5 80 12:36 28.06.2020
6400 Clouds 21 1007 46 10000 6 60 12:18 28.06.2020
6401 Clouds 20 1008 56 10000 4 60 11:43 28.06.2020
6402 Clouds 20 1008 56 10000 4 60 11:21 28.06.2020
6403 Clouds 20 1008 56 10000 4 60 11:21 28.06.2020
6404 Clouds 19 1008 55 10000 2 0 10:59 28.06.2020
6405 Clouds 19 1008 55 10000 2 0 10:59 28.06.2020
6406 Thunderstorm 18 1008 63 10000 5 330 10:40 28.06.2020
6407 Thunderstorm 18 1008 63 10000 5 330 10:22 28.06.2020
6408 Thunderstorm 18 1007 68 10000 10 290 09:42 28.06.2020
6409 Thunderstorm 18 1007 68 10000 10 290 09:23 28.06.2020
6410 Thunderstorm 26 1007 31 10000 1 0 08:57 28.06.2020
6411 Clouds 25 1008 36 10000 1 0 08:38 28.06.2020
6412 Clouds 25 1008 36 10000 1 0 08:20 28.06.2020
6413 Clouds 25 1008 31 10000 2 300 07:33 28.06.2020
6414 Clouds 26 1008 36 10000 1 0 06:56 28.06.2020
6415 Clouds 26 1008 36 10000 1 0 06:32 28.06.2020
6416 Clouds 23 1008 40 10000 3 40 05:45 28.06.2020
6417 Clouds 22 1009 43 10000 1 0 04:27 28.06.2020
6418 Clouds 19 1009 59 10000 1 0 02:57 28.06.2020
6419 Clouds 20 1009 52 10000 1 0 02:21 28.06.2020
6420 Clouds 18 1009 59 10000 1 0 01:30 28.06.2020
6421 Clouds 17 1009 72 10000 2 270 00:56 28.06.2020
6422 Clouds 17 1009 72 10000 2 270 00:30 28.06.2020
6423 Clouds 17 1008 67 10000 2 0 23:58 27.06.2020
6424 Clouds 18 1008 59 10000 1 0 23:39 27.06.2020
6425 Clouds 18 1008 59 10000 1 0 23:19 27.06.2020
6426 Clouds 19 1009 55 10000 5 80 22:42 27.06.2020
6427 Clouds 19 1009 55 10000 5 80 22:23 27.06.2020
6428 Clouds 17 1009 67 10000 3 270 21:59 27.06.2020
6429 Clouds 17 1009 67 10000 3 270 21:40 27.06.2020
6430 Clouds 17 1009 67 10000 3 270 21:20 27.06.2020
6431 Clouds 16 1009 72 10000 1 0 20:55 27.06.2020
6432 Clouds 16 1009 72 10000 1 0 20:37 27.06.2020
6433 Clouds 16 1009 72 10000 1 0 20:18 27.06.2020
6434 Clouds 16 1009 67 10000 2 0 19:37 27.06.2020
6435 Clouds 20 1009 49 10000 2 0 19:19 27.06.2020
6436 Clouds 20 1009 49 10000 2 0 18:48 27.06.2020
6437 Clouds 20 1009 49 10000 2 0 18:28 27.06.2020
6438 Clouds 19 1009 55 10000 2 0 17:59 27.06.2020
6439 Clouds 19 1009 55 10000 2 0 17:40 27.06.2020
6440 Clouds 19 1009 55 10000 2 0 17:20 27.06.2020
6441 Clouds 20 1009 49 10000 5 120 16:56 27.06.2020
6442 Clouds 20 1009 49 10000 4 150 16:38 27.06.2020
6443 Clouds 20 1009 49 10000 4 150 16:18 27.06.2020
6444 Clouds 23 1008 43 10000 3 190 15:42 27.06.2020
6445 Clouds 23 1008 43 10000 3 190 15:23 27.06.2020
6446 Clouds 23 1008 40 10000 4 140 14:55 27.06.2020
6447 Clouds 24 1008 36 10000 4 130 14:37 27.06.2020
6448 Clouds 24 1008 36 10000 4 130 14:18 27.06.2020
6449 Clouds 26 1008 31 10000 5 140 13:39 27.06.2020
6450 Clouds 26 1008 29 10000 4 140 13:20 27.06.2020
6451 Clouds 26 1008 29 10000 4 140 12:58 27.06.2020
6452 Clouds 27 1008 26 10000 4 150 12:40 27.06.2020
6453 Clouds 27 1008 28 10000 4 150 12:21 27.06.2020
6454 Clouds 27 1008 28 10000 4 150 11:55 27.06.2020
6455 Clouds 27 1008 26 10000 3 150 11:37 27.06.2020
6456 Clouds 27 1008 26 10000 3 150 11:18 27.06.2020
6457 Clouds 27 1009 22 10000 2 0 10:39 27.06.2020
6458 Clouds 27 1009 22 10000 2 0 10:19 27.06.2020
6459 Rain 26 1009 26 10000 2 0 09:54 27.06.2020
6460 Clouds 26 1009 26 10000 3 230 09:36 27.06.2020
6461 Clouds 26 1009 26 10000 3 230 09:18 27.06.2020
6462 Clouds 26 1010 29 10000 4 220 08:41 27.06.2020
6463 Clouds 26 1010 29 10000 4 220 08:22 27.06.2020
6464 Clouds 26 1010 29 10000 6 230 07:46 27.06.2020
6465 Clouds 27 1010 26 10000 5 190 07:24 27.06.2020
6466 Clouds 26 1010 27 10000 5 180 06:50 27.06.2020
6467 Clouds 26 1010 27 10000 5 180 06:29 27.06.2020
6468 Clouds 22 1012 49 10000 2 0 04:24 27.06.2020
6469 Clouds 21 1012 46 10000 1 0 03:53 27.06.2020
6470 Clouds 19 1012 55 10000 3 30 03:23 27.06.2020
6471 Clouds 17 1012 63 10000 2 0 02:36 27.06.2020
6472 Clouds 15 1012 72 10000 2 0 01:45 27.06.2020
6473 Clouds 15 1012 72 10000 2 0 01:24 27.06.2020
6474 Clouds 13 1012 76 10000 1 0 00:38 27.06.2020
6475 Clear 12 1012 81 10000 1 0 23:46 26.06.2020
6476 Clear 12 1012 81 10000 2 0 23:26 26.06.2020
6477 Clear 12 1012 81 10000 1 0 22:57 26.06.2020
6478 Clear 12 1012 81 10000 1 0 22:38 26.06.2020
6479 Clouds 12 1012 81 10000 1 0 22:19 26.06.2020
6480 Clouds 12 1012 81 10000 1 0 21:57 26.06.2020
6481 Clouds 12 1012 81 10000 1 0 21:37 26.06.2020
6482 Clouds 12 1012 81 10000 1 0 21:19 26.06.2020
6483 Clouds 12 1011 81 10000 2 260 20:43 26.06.2020
6484 Clouds 12 1011 81 10000 2 260 20:23 26.06.2020
6485 Clouds 14 1011 76 10000 1.61 95 19:47 26.06.2020
6486 Clouds 14 1011 76 10000 1.61 95 19:47 26.06.2020
6487 Clouds 14 1011 76 10000 1 0 19:24 26.06.2020
6488 Clouds 14 1011 76 10000 1 0 18:58 26.06.2020
6489 Clouds 14 1011 76 10000 1.33 100 18:38 26.06.2020
6490 Clouds 17 1011 63 10000 1 0 18:19 26.06.2020
6491 Clouds 18 1011 55 10000 1.42 82 17:44 26.06.2020
6492 Clear 18 1011 55 10000 1.59 69 17:25 26.06.2020
6493 Clear 17 1011 59 10000 1 0 16:49 26.06.2020
6494 Clear 16 1011 67 10000 3 140 16:27 26.06.2020
6495 Clear 16 1011 77 10000 3 150 15:55 26.06.2020
6496 Clouds 20 1011 60 10000 1 0 15:37 26.06.2020
6497 Clouds 20 1011 60 10000 1 0 15:19 26.06.2020
6498 Clouds 22 1011 43 10000 1 0 14:57 26.06.2020
6499 Clouds 23 1011 31 10000 0.98 31 14:38 26.06.2020
6500 Clouds 23 1011 31 10000 1.76 31 14:20 26.06.2020
6501 Clouds 25 1011 27 10000 1 0 13:44 26.06.2020
6502 Clouds 25 1011 27 10000 1 0 13:23 26.06.2020
6503 Clouds 25 1011 27 10000 1 0 12:55 26.06.2020
6504 Clouds 24 1010 29 10000 2 0 12:37 26.06.2020
6505 Clouds 24 1010 29 10000 2 0 12:18 26.06.2020
6506 Clouds 24 1010 29 10000 2 0 11:54 26.06.2020
6507 Clouds 24 1010 31 10000 2 0 11:36 26.06.2020
6508 Clouds 24 1010 31 10000 2 0 11:18 26.06.2020
6509 Clouds 24 1010 31 10000 3 260 10:40 26.06.2020
6510 Clouds 24 1010 31 10000 3 260 10:19 26.06.2020
6511 Clouds 24 1010 36 10000 3 220 09:56 26.06.2020
6512 Clouds 23 1011 38 10000 3 170 09:38 26.06.2020
6513 Clouds 23 1011 38 10000 3 170 09:18 26.06.2020
6514 Clouds 23 1011 38 10000 2 0 08:44 26.06.2020
6515 Clouds 23 1011 38 10000 2 0 08:25 26.06.2020
6516 Clouds 22 1012 40 10000 3 220 07:47 26.06.2020
6517 Clouds 21 1012 40 10000 1 0 07:23 26.06.2020
6518 Clouds 21 1012 40 10000 2 0 06:49 26.06.2020
6519 Clouds 21 1012 40 10000 2 0 06:30 26.06.2020
6520 Clouds 20 1012 52 10000 2 0 05:52 26.06.2020
6521 Clouds 19 1012 52 10000 1 0 04:55 26.06.2020
6522 Clear 14 1012 71 10000 0.38 265 02:32 26.06.2020
6523 Clear 11 1012 87 10000 0.89 152 01:34 26.06.2020
6524 Clouds 10 1012 93 10000 0.83 128 00:46 26.06.2020
6525 Clouds 10 1012 93 10000 0.8 109 00:27 26.06.2020
6526 Clouds 8 1012 93 10000 0.8 109 23:47 25.06.2020
6527 Clouds 8 1012 87 10000 1 0 23:22 25.06.2020
6528 Clouds 9 1012 93 10000 1.03 100 22:58 25.06.2020
6529 Clouds 8 1011 93 10000 1.03 100 22:39 25.06.2020
6530 Clouds 8 1011 93 10000 1.17 93 22:20 25.06.2020
6531 Clouds 10 1012 87 10000 2 0 21:57 25.06.2020
6532 Clouds 9 1012 87 10000 1.17 93 21:39 25.06.2020
6533 Clouds 9 1012 87 10000 1.05 96 21:20 25.06.2020
6534 Clouds 9 1012 93 10000 1 0 20:57 25.06.2020
6535 Clouds 9 1012 93 10000 1 0 20:37 25.06.2020
6536 Clouds 9 1012 93 10000 1 0 20:19 25.06.2020
6537 Clouds 10 1011 93 10000 1 0 19:41 25.06.2020
6538 Clouds 10 1011 93 10000 1 0 19:20 25.06.2020
6539 Clouds 11 1011 87 10000 1 0 18:59 25.06.2020
6540 Clouds 11 1011 87 10000 1 0 18:39 25.06.2020
6541 Clouds 11 1011 87 10000 1 0 18:20 25.06.2020
6542 Clouds 13 1011 82 10000 1 0 17:44 25.06.2020
6543 Clouds 13 1011 82 10000 1 0 17:20 25.06.2020
6544 Clouds 12 1010 87 10000 2 0 16:58 25.06.2020
6545 Clouds 14 1010 71 10000 1 0 16:37 25.06.2020
6546 Clouds 14 1010 71 10000 1 0 16:19 25.06.2020
6547 Clouds 16 1010 63 10000 3 20 15:43 25.06.2020
6548 Clouds 16 1010 63 10000 3 20 15:24 25.06.2020
6549 Clouds 17 1010 59 10000 2 0 14:54 25.06.2020
6550 Clouds 17 1009 59 10000 2 0 14:36 25.06.2020
6551 Clouds 17 1009 59 10000 2 0 14:18 25.06.2020
6552 Clouds 17 1009 63 10000 7 50 13:42 25.06.2020
6553 Clouds 17 1009 63 10000 7 50 13:20 25.06.2020
6554 Thunderstorm 18 1009 59 10000 7 50 12:58 25.06.2020
6555 Clouds 19 1008 52 10000 8 50 12:40 25.06.2020
6556 Thunderstorm 20 1008 49 10000 2 0 12:19 25.06.2020
6557 Thunderstorm 21 1008 43 10000 2 0 11:42 25.06.2020
6558 Thunderstorm 21 1008 43 10000 2 0 11:22 25.06.2020
6559 Thunderstorm 18 1008 63 10000 3 320 10:44 25.06.2020
6560 Thunderstorm 18 1008 63 10000 3 320 10:26 25.06.2020
6561 Thunderstorm 19 1008 42 10000 3 60 09:58 25.06.2020
6562 Clouds 19 1008 42 10000 6 10 09:40 25.06.2020
6563 Clouds 19 1008 42 10000 6 10 09:18 25.06.2020
6564 Thunderstorm 19 1008 52 10000 2 0 08:43 25.06.2020
6565 Thunderstorm 19 1008 52 10000 2 0 08:19 25.06.2020
6566 Clouds 18 1009 55 10000 6 350 07:44 25.06.2020
6567 Clouds 19 1009 52 10000 3 300 07:26 25.06.2020
6568 Clouds 19 1009 52 10000 3 290 06:45 25.06.2020
6569 Clouds 19 1009 55 10000 2 0 06:25 25.06.2020
6570 Clouds 18 1009 59 10000 2 0 05:40 25.06.2020
6571 Clouds 15 1010 72 10000 4 340 03:55 25.06.2020
6572 Clouds 15 1010 72 10000 3 20 03:25 25.06.2020
6573 Clouds 13 1009 82 10000 3 300 02:41 25.06.2020
6574 Clouds 12 1009 81 10000 1 0 01:43 25.06.2020
6575 Clouds 9 1009 93 10000 1 0 00:59 25.06.2020
6576 Clouds 9 1009 93 10000 1 0 00:26 25.06.2020
6577 Clouds 7 1009 93 10000 1 0 23:59 24.06.2020
6578 Clouds 8 1009 93 10000 1 0 23:39 24.06.2020
6579 Clouds 8 1009 93 10000 1 0 23:21 24.06.2020
6580 Clouds 8 1009 87 10000 2 150 22:55 24.06.2020
6581 Clouds 10 1009 87 10000 1 0 22:36 24.06.2020
6582 Clouds 10 1009 87 10000 1 0 22:18 24.06.2020
6583 Clouds 10 1009 87 10000 1 0 21:54 24.06.2020
6584 Clouds 10 1008 87 10000 1 0 21:36 24.06.2020
6585 Clouds 10 1008 87 10000 1 0 21:18 24.06.2020
6586 Clouds 10 1008 87 10000 1 0 20:55 24.06.2020
6587 Clouds 10 1008 87 10000 1 0 20:37 24.06.2020
6588 Clouds 10 1008 87 10000 1 0 20:18 24.06.2020
6589 Clouds 10 1009 87 10000 1 0 19:39 24.06.2020
6590 Clouds 10 1009 87 10000 1 0 19:21 24.06.2020
6591 Clouds 10 1008 93 10000 2 10 18:59 24.06.2020
6592 Clouds 10 1008 87 10000 1.74 359 18:40 24.06.2020
6593 Clouds 11 1008 81 10000 1 0 18:22 24.06.2020
6594 Clouds 11 1008 81 10000 1 0 17:56 24.06.2020
6595 Clouds 11 1008 87 10000 1 0 17:38 24.06.2020
6596 Clouds 11 1008 87 10000 1 0 17:19 24.06.2020
6597 Clouds 11 1008 87 10000 2 90 16:56 24.06.2020
6598 Rain 11 1008 93 10000 1 0 16:38 24.06.2020
6599 Rain 11 1008 93 10000 1 0 16:20 24.06.2020
6600 Rain 12 1008 81 10000 1 0 15:56 24.06.2020
6601 Rain 12 1008 81 10000 1 0 15:37 24.06.2020
6602 Clouds 12 1008 76 10000 2.51 359 15:19 24.06.2020
6603 Clouds 12 1008 81 10000 1 0 14:42 24.06.2020
6604 Clouds 12 1008 81 10000 1 0 14:24 24.06.2020
6605 Clouds 12 1008 81 10000 1 0 13:43 24.06.2020
6606 Clouds 12 1007 81 10000 2 0 13:22 24.06.2020
6607 Thunderstorm 13 1006 82 10000 3 140 12:56 24.06.2020
6608 Thunderstorm 13 1006 82 10000 3 140 12:37 24.06.2020
6609 Thunderstorm 14 1006 76 10000 2 190 12:18 24.06.2020
6610 Thunderstorm 14 1006 76 10000 2 190 11:54 24.06.2020
6611 Thunderstorm 14 1006 82 10000 4 210 11:36 24.06.2020
6612 Thunderstorm 14 1006 82 10000 4 210 11:36 24.06.2020
6613 Thunderstorm 14 1006 76 10000 3 180 11:18 24.06.2020
6614 Clouds 14 1006 71 10000 2 100 10:41 24.06.2020
6615 Clouds 14 1005 76 10000 1 0 10:18 24.06.2020
6616 Clouds 13 1005 82 10000 2 0 09:42 24.06.2020
6617 Clouds 13 1005 82 10000 2 0 09:21 24.06.2020
6618 Thunderstorm 13 1005 76 8000 3 100 08:43 24.06.2020
6619 Thunderstorm 16 1004 63 10000 5 360 08:21 24.06.2020
6620 Thunderstorm 16 1004 63 10000 5 360 07:51 24.06.2020
6621 Thunderstorm 16 1004 63 10000 5 360 07:31 24.06.2020
6622 Clouds 17 1004 55 10000 7 340 06:51 24.06.2020
6623 Clouds 16 1005 63 10000 2 0 06:25 24.06.2020
6624 Clouds 16 1005 63 10000 2 0 05:56 24.06.2020
6625 Clouds 13 1006 71 10000 1 0 04:46 24.06.2020
6626 Clouds 13 1006 71 10000 1 0 04:27 24.06.2020
6627 Clouds 11 1006 81 10000 2 60 03:34 24.06.2020
6628 Clouds 11 1006 81 10000 2 280 02:45 24.06.2020
6629 Rain 10 1006 87 10000 1 0 01:35 24.06.2020
6630 Rain 11 1006 87 10000 2 0 00:47 24.06.2020
6631 Rain 11 1006 87 10000 2 0 00:27 24.06.2020
6632 Rain 11 1006 81 10000 5 210 23:44 23.06.2020
6633 Rain 11 1006 81 10000 5 210 23:19 23.06.2020
6634 Clouds 11 1005 87 10000 1 0 22:42 23.06.2020
6635 Rain 11 1005 87 10000 2 150 22:19 23.06.2020
6636 Rain 11 1005 87 10000 2 150 21:59 23.06.2020
6637 Rain 11 1006 81 10000 2 170 21:40 23.06.2020
6638 Rain 11 1006 81 10000 2 170 21:19 23.06.2020
6639 Clouds 12 1006 76 10000 3 230 20:55 23.06.2020
6640 Clouds 12 1006 76 10000 3 230 20:37 23.06.2020
6641 Clouds 12 1006 76 10000 6 220 20:18 23.06.2020
6642 Clouds 12 1006 76 10000 6 220 20:18 23.06.2020
6643 Clouds 13 1004 66 10000 3 70 19:44 23.06.2020
6644 Clouds 13 1004 66 10000 3 70 19:25 23.06.2020
6645 Clouds 14 1004 54 10000 7 360 18:42 23.06.2020
6646 Clouds 14 1004 54 10000 7 360 18:42 23.06.2020
6647 Rain 13 1004 62 10000 14 360 18:19 23.06.2020
6648 Rain 13 1004 62 10000 14 360 17:56 23.06.2020
6649 Rain 12 1007 76 10000 5 300 17:38 23.06.2020
6650 Rain 12 1007 76 10000 5 300 17:19 23.06.2020
6651 Rain 12 1008 76 10000 4 40 16:55 23.06.2020
6652 Thunderstorm 12 1007 76 10000 4 70 16:36 23.06.2020
6653 Thunderstorm 11 1007 81 8000 5 210 16:18 23.06.2020
6654 Thunderstorm 13 1006 71 3600 15 220 15:43 23.06.2020
6655 Thunderstorm 13 1006 71 3600 15 220 15:24 23.06.2020
6656 Thunderstorm 17 1003 59 10000 4 350 14:56 23.06.2020
6657 Thunderstorm 17 1003 59 10000 4 350 14:37 23.06.2020
6658 Rain 16 1003 67 10000 6 310 14:18 23.06.2020
6659 Clouds 20 1003 37 10000 3 40 13:45 23.06.2020
6660 Clouds 20 1003 37 10000 4 40 13:26 23.06.2020
6661 Clouds 20 1003 37 10000 4 40 12:59 23.06.2020
6662 Clouds 21 1002 30 10000 4 20 12:39 23.06.2020
6663 Clouds 21 1003 30 10000 4 60 12:19 23.06.2020
6664 Clouds 20 1003 37 10000 6 60 11:43 23.06.2020
6665 Clouds 20 1003 37 10000 6 60 11:23 23.06.2020
6666 Clouds 19 1004 48 10000 6 60 10:58 23.06.2020
6667 Clouds 19 1005 45 10000 5 60 10:40 23.06.2020
6668 Clouds 19 1005 45 10000 5 60 10:22 23.06.2020
6669 Clouds 18 1005 52 10000 5 20 09:57 23.06.2020
6670 Clouds 17 1005 55 10000 3 10 09:38 23.06.2020
6671 Clouds 17 1005 55 10000 3 10 09:19 23.06.2020
6672 Clouds 16 1005 63 10000 8 320 08:46 23.06.2020
6673 Clouds 16 1005 63 10000 8 320 08:26 23.06.2020
6674 Clouds 15 1006 67 10000 9 280 07:47 23.06.2020
6675 Thunderstorm 15 1005 72 10000 8 270 07:24 23.06.2020
6676 Thunderstorm 23 1003 31 10000 2 0 06:53 23.06.2020
6677 Thunderstorm 23 1003 31 10000 2 0 06:32 23.06.2020
6678 Clouds 21 1004 37 10000 2 0 05:56 23.06.2020
6679 Clouds 20 1004 37 10000 2 0 04:52 23.06.2020
6680 Clouds 17 1004 55 10000 3 30 03:21 23.06.2020
6681 Clouds 15 1005 62 10000 3 20 02:48 23.06.2020
6682 Clouds 15 1005 62 10000 3 20 02:29 23.06.2020
6683 Clouds 13 1005 76 10000 1 0 01:46 23.06.2020
6684 Clouds 12 1005 81 10000 1 0 01:22 23.06.2020
6685 Clouds 12 1006 81 10000 1 0 00:41 23.06.2020
6686 Clouds 12 1006 81 10000 3 350 00:20 23.06.2020
6687 Clouds 11 1005 81 10000 1 0 23:39 22.06.2020
6688 Clouds 11 1005 81 10000 1 0 23:19 22.06.2020
6689 Clouds 11 1005 81 10000 1 0 22:59 22.06.2020
6690 Clouds 14 1005 67 10000 4 40 22:41 22.06.2020
6691 Clouds 14 1005 67 10000 4 40 22:20 22.06.2020
6692 Clouds 14 1005 71 10000 3 40 21:59 22.06.2020
6693 Clouds 14 1006 71 10000 3 30 21:40 22.06.2020
6694 Clouds 14 1006 71 10000 3 30 21:21 22.06.2020
6695 Rain 14 1006 76 10000 1 0 20:58 22.06.2020
6696 Rain 14 1007 76 10000 4 300 20:39 22.06.2020
6697 Rain 14 1007 76 10000 4 300 20:20 22.06.2020
6698 Clouds 13 1007 76 10000 2 0 19:44 22.06.2020
6699 Clouds 13 1007 76 10000 2 0 19:19 22.06.2020
6700 Clouds 14 1006 67 10000 1 0 18:57 22.06.2020
6701 Clouds 14 1006 67 10000 1 0 18:37 22.06.2020
6702 Clear 14 1005 67 10000 2 0 18:18 22.06.2020
6703 Clear 14 1005 67 10000 2 0 17:55 22.06.2020
6704 Clear 16 1005 59 10000 4 10 17:37 22.06.2020
6705 Clear 16 1005 59 10000 3 10 17:18 22.06.2020
6706 Clear 18 1006 48 10000 3 30 16:42 22.06.2020
6707 Clear 18 1006 48 10000 2 60 16:18 22.06.2020
6708 Clear 18 1006 48 10000 2 60 15:57 22.06.2020
6709 Clear 19 1006 45 10000 3 30 15:39 22.06.2020
6710 Clear 19 1006 45 10000 3 30 15:21 22.06.2020
6711 Clouds 20 1005 42 10000 4 340 14:39 22.06.2020
6712 Clouds 21 1005 40 10000 4 350 14:20 22.06.2020
6713 Clouds 21 1005 40 10000 4 350 13:56 22.06.2020
6714 Clouds 21 1005 40 10000 5 350 13:37 22.06.2020
6715 Clouds 21 1005 40 10000 4 360 13:19 22.06.2020
6716 Clouds 21 1005 40 10000 5 340 12:42 22.06.2020
6717 Clouds 21 1005 40 10000 5 340 12:42 22.06.2020
6718 Clouds 21 1005 40 10000 5 340 12:23 22.06.2020
6719 Clouds 21 1005 40 10000 4 360 11:57 22.06.2020
6720 Clouds 22 1005 37 10000 5 330 11:37 22.06.2020
6721 Clouds 21 1005 40 10000 5 340 11:18 22.06.2020
6722 Clouds 21 1005 40 10000 5 340 10:54 22.06.2020
6723 Clouds 21 1005 40 10000 5 320 10:36 22.06.2020
6724 Clouds 21 1005 40 10000 5 320 10:18 22.06.2020
6725 Clouds 20 1005 45 10000 4 350 09:41 22.06.2020
6726 Clouds 22 1006 37 10000 5 340 09:20 22.06.2020
6727 Clouds 22 1006 37 10000 5 340 09:20 22.06.2020
6728 Clouds 22 1006 37 10000 5 340 08:58 22.06.2020
6729 Clouds 20 1006 42 10000 6 350 08:38 22.06.2020
6730 Clouds 20 1006 42 10000 6 350 08:20 22.06.2020
6731 Clouds 20 1006 42 10000 6 330 07:50 22.06.2020
6732 Clouds 20 1006 42 10000 6 330 07:31 22.06.2020
6733 Clouds 19 1006 45 10000 5 340 06:44 22.06.2020
6734 Clouds 19 1006 45 10000 5 340 06:26 22.06.2020
6735 Clouds 19 1006 45 10000 4 330 05:53 22.06.2020
6736 Clouds 17 1006 59 10000 4 290 04:59 22.06.2020
6737 Clouds 15 1006 77 10000 2 0 02:54 22.06.2020
6738 Clouds 13 1006 82 10000 2 0 01:25 22.06.2020
6739 Clouds 13 1006 87 10000 1 0 00:41 22.06.2020
6740 Clouds 13 1006 87 10000 2 250 23:59 21.06.2020
6741 Clouds 12 1006 93 10000 0.5 230 23:39 21.06.2020
6742 Clouds 12 1006 93 10000 0.74 236 23:21 21.06.2020
6743 Clouds 13 1006 87 10000 0.74 236 22:57 21.06.2020
6744 Clouds 13 1006 87 10000 0.74 236 22:37 21.06.2020
6745 Clouds 13 1006 87 10000 0.62 252 22:19 21.06.2020
6746 Clouds 13 1006 87 10000 0.62 252 21:57 21.06.2020
6747 Clouds 13 1006 87 10000 0.62 252 21:39 21.06.2020
6748 Clouds 13 1006 87 10000 0.62 252 21:39 21.06.2020
6749 Clouds 13 1006 87 10000 0.99 256 21:21 21.06.2020
6750 Clouds 13 1006 87 10000 2 280 20:58 21.06.2020
6751 Clouds 13 1006 87 10000 2 280 20:37 21.06.2020
6752 Clouds 13 1005 87 10000 0